<?xml version='1.0' encoding='UTF-8'?><gpx version="1.1" creator="JPX - https://github.com/jenetics/jpx" xmlns="http://www.topografix.com/GPX/1/1"><trk><trkseg><trkpt lat="45.4743517" lon="11.5410083"><ele>32.8</ele><time>2026-04-02T08:32:22.963Z</time></trkpt><trkpt lat="45.4743833" lon="11.54133"><ele>30.6</ele><time>2026-04-02T08:32:25.964Z</time></trkpt><trkpt lat="45.47441" lon="11.5414133"><ele>28.4</ele><time>2026-04-02T08:32:42.485Z</time></trkpt><trkpt lat="45.4744733" lon="11.54143"><ele>26.2</ele><time>2026-04-02T08:34:38.484Z</time></trkpt><trkpt lat="45.4744083" lon="11.5414567"><ele>24.0</ele><time>2026-04-02T08:35:05.484Z</time></trkpt><trkpt lat="45.4744083" lon="11.54155"><ele>23.999999999999996</ele><time>2026-04-02T08:35:11.484Z</time></trkpt><trkpt lat="45.474395" lon="11.5416417"><ele>24.0</ele><time>2026-04-02T08:35:15.484Z</time></trkpt><trkpt lat="45.4743683" lon="11.54173"><ele>24.0</ele><time>2026-04-02T08:36:01.484Z</time></trkpt><trkpt lat="45.4743767" lon="11.5416367"><ele>24.0</ele><time>2026-04-02T08:36:43.484Z</time></trkpt><trkpt lat="45.4744033" lon="11.5415517"><ele>24.0</ele><time>2026-04-02T08:36:47.484Z</time></trkpt><trkpt lat="45.4744383" lon="11.5414733"><ele>23.999999999999996</ele><time>2026-04-02T08:36:51.484Z</time></trkpt><trkpt lat="45.4744033" lon="11.5415617"><ele>24.0</ele><time>2026-04-02T08:38:11.484Z</time></trkpt><trkpt lat="45.4743867" lon="11.5416567"><ele>24.0</ele><time>2026-04-02T08:38:15.484Z</time></trkpt><trkpt lat="45.4743283" lon="11.5417417"><ele>24.0</ele><time>2026-04-02T08:38:19.484Z</time></trkpt><trkpt lat="45.4742633" lon="11.54177"><ele>24.0</ele><time>2026-04-02T08:38:22.484Z</time></trkpt><trkpt lat="45.4742" lon="11.5417667"><ele>24.0</ele><time>2026-04-02T08:38:25.484Z</time></trkpt><trkpt lat="45.474115" lon="11.5417717"><ele>24.0</ele><time>2026-04-02T08:38:29.485Z</time></trkpt><trkpt lat="45.474045" lon="11.5417817"><ele>24.0</ele><time>2026-04-02T08:38:32.484Z</time></trkpt><trkpt lat="45.4739617" lon="11.5417867"><ele>24.0</ele><time>2026-04-02T08:38:35.484Z</time></trkpt><trkpt lat="45.4738783" lon="11.54179"><ele>24.0</ele><time>2026-04-02T08:38:38.484Z</time></trkpt><trkpt lat="45.473795" lon="11.5417883"><ele>24.0</ele><time>2026-04-02T08:38:41.484Z</time></trkpt><trkpt lat="45.47371" lon="11.5417883"><ele>24.0</ele><time>2026-04-02T08:38:44.484Z</time></trkpt><trkpt lat="45.4736233" lon="11.54179"><ele>24.0</ele><time>2026-04-02T08:38:47.485Z</time></trkpt><trkpt lat="45.4735417" lon="11.54179"><ele>24.0</ele><time>2026-04-02T08:38:50.484Z</time></trkpt><trkpt lat="45.4734667" lon="11.5418"><ele>24.428571428571427</ele><time>2026-04-02T08:38:53.484Z</time></trkpt><trkpt lat="45.4733933" lon="11.5417883"><ele>24.857142857142858</ele><time>2026-04-02T08:38:56.484Z</time></trkpt><trkpt lat="45.4733033" lon="11.54178"><ele>25.285714285714285</ele><time>2026-04-02T08:38:59.485Z</time></trkpt><trkpt lat="45.4732383" lon="11.5417767"><ele>25.714285714285715</ele><time>2026-04-02T08:39:01.485Z</time></trkpt><trkpt lat="45.4731733" lon="11.5417767"><ele>26.142857142857142</ele><time>2026-04-02T08:39:03.484Z</time></trkpt><trkpt lat="45.4731083" lon="11.5417717"><ele>26.57142857142857</ele><time>2026-04-02T08:39:05.484Z</time></trkpt><trkpt lat="45.47304" lon="11.541755"><ele>27.0</ele><time>2026-04-02T08:39:07.484Z</time></trkpt><trkpt lat="45.472955" lon="11.541725"><ele>26.333333333333332</ele><time>2026-04-02T08:39:10.484Z</time></trkpt><trkpt lat="45.4728717" lon="11.541705"><ele>25.666666666666668</ele><time>2026-04-02T08:39:13.484Z</time></trkpt><trkpt lat="45.4727867" lon="11.5416733"><ele>25.0</ele><time>2026-04-02T08:39:16.484Z</time></trkpt><trkpt lat="45.4727" lon="11.5416367"><ele>24.333333333333336</ele><time>2026-04-02T08:39:19.484Z</time></trkpt><trkpt lat="45.4726183" lon="11.5415933"><ele>23.666666666666668</ele><time>2026-04-02T08:39:22.484Z</time></trkpt><trkpt lat="45.4725333" lon="11.54155"><ele>23.0</ele><time>2026-04-02T08:39:25.485Z</time></trkpt><trkpt lat="45.472475" lon="11.541515"><ele>23.0</ele><time>2026-04-02T08:39:27.484Z</time></trkpt><trkpt lat="45.472385" lon="11.5414683"><ele>23.0</ele><time>2026-04-02T08:39:30.484Z</time></trkpt><trkpt lat="45.4722983" lon="11.541415"><ele>23.0</ele><time>2026-04-02T08:39:33.484Z</time></trkpt><trkpt lat="45.47224" lon="11.5413733"><ele>23.0</ele><time>2026-04-02T08:39:35.484Z</time></trkpt><trkpt lat="45.47218" lon="11.5413333"><ele>23.0</ele><time>2026-04-02T08:39:37.484Z</time></trkpt><trkpt lat="45.472095" lon="11.5412883"><ele>23.0</ele><time>2026-04-02T08:39:40.484Z</time></trkpt><trkpt lat="45.47201" lon="11.5412383"><ele>22.857142857142858</ele><time>2026-04-02T08:39:43.484Z</time></trkpt><trkpt lat="45.4719517" lon="11.5412017"><ele>22.71428571428571</ele><time>2026-04-02T08:39:45.484Z</time></trkpt><trkpt lat="45.4718917" lon="11.541165"><ele>22.57142857142857</ele><time>2026-04-02T08:39:47.484Z</time></trkpt><trkpt lat="45.4718317" lon="11.5411267"><ele>22.42857142857143</ele><time>2026-04-02T08:39:49.484Z</time></trkpt><trkpt lat="45.4717733" lon="11.5410917"><ele>22.285714285714285</ele><time>2026-04-02T08:39:51.484Z</time></trkpt><trkpt lat="45.4717133" lon="11.5410533"><ele>22.142857142857142</ele><time>2026-04-02T08:39:53.484Z</time></trkpt><trkpt lat="45.4716533" lon="11.5410217"><ele>22.0</ele><time>2026-04-02T08:39:55.484Z</time></trkpt><trkpt lat="45.4715717" lon="11.5409733"><ele>22.0</ele><time>2026-04-02T08:39:58.485Z</time></trkpt><trkpt lat="45.4714867" lon="11.540925"><ele>22.0</ele><time>2026-04-02T08:40:01.484Z</time></trkpt><trkpt lat="45.4714" lon="11.540875"><ele>22.0</ele><time>2026-04-02T08:40:04.484Z</time></trkpt><trkpt lat="45.471315" lon="11.54083"><ele>22.0</ele><time>2026-04-02T08:40:07.484Z</time></trkpt><trkpt lat="45.4712317" lon="11.5407733"><ele>22.0</ele><time>2026-04-02T08:40:10.484Z</time></trkpt><trkpt lat="45.4711483" lon="11.540725"><ele>22.0</ele><time>2026-04-02T08:40:13.484Z</time></trkpt><trkpt lat="45.4710883" lon="11.5406883"><ele>22.0</ele><time>2026-04-02T08:40:15.485Z</time></trkpt><trkpt lat="45.4710033" lon="11.5406283"><ele>22.0</ele><time>2026-04-02T08:40:18.484Z</time></trkpt><trkpt lat="45.4709417" lon="11.5405983"><ele>22.0</ele><time>2026-04-02T08:40:20.484Z</time></trkpt><trkpt lat="45.4708833" lon="11.5405617"><ele>22.0</ele><time>2026-04-02T08:40:22.485Z</time></trkpt><trkpt lat="45.470805" lon="11.5405083"><ele>22.0</ele><time>2026-04-02T08:40:25.484Z</time></trkpt><trkpt lat="45.4707433" lon="11.5404817"><ele>22.0</ele><time>2026-04-02T08:40:27.484Z</time></trkpt><trkpt lat="45.4706583" lon="11.540435"><ele>22.333333333333332</ele><time>2026-04-02T08:40:30.485Z</time></trkpt><trkpt lat="45.4705817" lon="11.54038"><ele>22.666666666666664</ele><time>2026-04-02T08:40:33.484Z</time></trkpt><trkpt lat="45.4705017" lon="11.5403317"><ele>23.0</ele><time>2026-04-02T08:40:36.485Z</time></trkpt><trkpt lat="45.4704183" lon="11.54028"><ele>23.333333333333332</ele><time>2026-04-02T08:40:39.484Z</time></trkpt><trkpt lat="45.4703383" lon="11.5402267"><ele>23.666666666666668</ele><time>2026-04-02T08:40:42.484Z</time></trkpt><trkpt lat="45.4702767" lon="11.540175"><ele>24.0</ele><time>2026-04-02T08:40:46.484Z</time></trkpt><trkpt lat="45.470285" lon="11.5400567"><ele>23.999999999999996</ele><time>2026-04-02T08:40:49.484Z</time></trkpt><trkpt lat="45.4702967" lon="11.5399567"><ele>24.0</ele><time>2026-04-02T08:40:52.484Z</time></trkpt><trkpt lat="45.47034" lon="11.5398633"><ele>24.0</ele><time>2026-04-02T08:40:55.484Z</time></trkpt><trkpt lat="45.470405" lon="11.539805"><ele>24.0</ele><time>2026-04-02T08:40:58.484Z</time></trkpt><trkpt lat="45.47047" lon="11.5397583"><ele>24.0</ele><time>2026-04-02T08:41:01.484Z</time></trkpt><trkpt lat="45.470535" lon="11.539725"><ele>23.999999999999996</ele><time>2026-04-02T08:41:04.484Z</time></trkpt><trkpt lat="45.470605" lon="11.539685"><ele>24.0</ele><time>2026-04-02T08:41:07.484Z</time></trkpt><trkpt lat="45.4706733" lon="11.5396517"><ele>24.166666666666668</ele><time>2026-04-02T08:41:10.484Z</time></trkpt><trkpt lat="45.4707417" lon="11.53962"><ele>24.333333333333336</ele><time>2026-04-02T08:41:13.484Z</time></trkpt><trkpt lat="45.4707917" lon="11.5395333"><ele>24.5</ele><time>2026-04-02T08:41:16.484Z</time></trkpt><trkpt lat="45.47077" lon="11.5394333"><ele>24.666666666666668</ele><time>2026-04-02T08:41:20.484Z</time></trkpt><trkpt lat="45.4707167" lon="11.53938"><ele>24.833333333333336</ele><time>2026-04-02T08:41:23.484Z</time></trkpt><trkpt lat="45.4706433" lon="11.5393317"><ele>25.0</ele><time>2026-04-02T08:41:26.485Z</time></trkpt><trkpt lat="45.4705667" lon="11.53928"><ele>26.500000000000004</ele><time>2026-04-02T08:41:29.485Z</time></trkpt><trkpt lat="45.4704883" lon="11.5392483"><ele>28.0</ele><time>2026-04-02T08:41:32.484Z</time></trkpt><trkpt lat="45.4704117" lon="11.53921"><ele>29.5</ele><time>2026-04-02T08:41:35.484Z</time></trkpt><trkpt lat="45.4703467" lon="11.5391983"><ele>31.0</ele><time>2026-04-02T08:41:37.484Z</time></trkpt><trkpt lat="45.47028" lon="11.5391917"><ele>32.5</ele><time>2026-04-02T08:41:39.485Z</time></trkpt><trkpt lat="45.4701933" lon="11.5391983"><ele>34.0</ele><time>2026-04-02T08:41:42.484Z</time></trkpt><trkpt lat="45.470115" lon="11.53922"><ele>34.0</ele><time>2026-04-02T08:41:45.484Z</time></trkpt><trkpt lat="45.470035" lon="11.5392383"><ele>34.0</ele><time>2026-04-02T08:41:48.484Z</time></trkpt><trkpt lat="45.4699533" lon="11.5392467"><ele>34.0</ele><time>2026-04-02T08:41:51.485Z</time></trkpt><trkpt lat="45.4698733" lon="11.539265"><ele>34.0</ele><time>2026-04-02T08:41:54.485Z</time></trkpt><trkpt lat="45.46979" lon="11.539265"><ele>34.0</ele><time>2026-04-02T08:41:57.484Z</time></trkpt><trkpt lat="45.4696983" lon="11.5392483"><ele>34.0</ele><time>2026-04-02T08:42:00.484Z</time></trkpt><trkpt lat="45.469605" lon="11.5392333"><ele>33.6</ele><time>2026-04-02T08:42:03.485Z</time></trkpt><trkpt lat="45.4695167" lon="11.5392"><ele>33.2</ele><time>2026-04-02T08:42:06.484Z</time></trkpt><trkpt lat="45.4694267" lon="11.5391817"><ele>32.800000000000004</ele><time>2026-04-02T08:42:09.484Z</time></trkpt><trkpt lat="45.4693417" lon="11.5391567"><ele>32.4</ele><time>2026-04-02T08:42:12.484Z</time></trkpt><trkpt lat="45.46925" lon="11.539145"><ele>32.0</ele><time>2026-04-02T08:42:15.484Z</time></trkpt><trkpt lat="45.46916" lon="11.5391217"><ele>31.999999999999996</ele><time>2026-04-02T08:42:18.485Z</time></trkpt><trkpt lat="45.46907" lon="11.5391033"><ele>32.0</ele><time>2026-04-02T08:42:21.484Z</time></trkpt><trkpt lat="45.4689867" lon="11.5391117"><ele>32.0</ele><time>2026-04-02T08:42:24.484Z</time></trkpt><trkpt lat="45.4689017" lon="11.5391133"><ele>32.0</ele><time>2026-04-02T08:42:27.484Z</time></trkpt><trkpt lat="45.4688217" lon="11.5390983"><ele>31.999999999999996</ele><time>2026-04-02T08:42:30.484Z</time></trkpt><trkpt lat="45.4687383" lon="11.5390967"><ele>32.0</ele><time>2026-04-02T08:42:33.485Z</time></trkpt><trkpt lat="45.4686583" lon="11.5390867"><ele>31.999999999999996</ele><time>2026-04-02T08:42:36.484Z</time></trkpt><trkpt lat="45.4685817" lon="11.539035"><ele>32.0</ele><time>2026-04-02T08:42:39.485Z</time></trkpt><trkpt lat="45.4685067" lon="11.5389783"><ele>32.0</ele><time>2026-04-02T08:42:42.483Z</time></trkpt><trkpt lat="45.4684333" lon="11.5389117"><ele>32.0</ele><time>2026-04-02T08:42:45.483Z</time></trkpt><trkpt lat="45.4683767" lon="11.5388617"><ele>31.999999999999996</ele><time>2026-04-02T08:42:47.484Z</time></trkpt><trkpt lat="45.46831" lon="11.538815"><ele>32.0</ele><time>2026-04-02T08:42:49.484Z</time></trkpt><trkpt lat="45.4682383" lon="11.5387383"><ele>34.714285714285715</ele><time>2026-04-02T08:42:51.483Z</time></trkpt><trkpt lat="45.4681833" lon="11.5386767"><ele>37.42857142857142</ele><time>2026-04-02T08:42:53.483Z</time></trkpt><trkpt lat="45.4681433" lon="11.538605"><ele>40.14285714285714</ele><time>2026-04-02T08:42:55.483Z</time></trkpt><trkpt lat="45.4681033" lon="11.5385217"><ele>42.857142857142854</ele><time>2026-04-02T08:42:58.483Z</time></trkpt><trkpt lat="45.4680283" lon="11.5384733"><ele>45.57142857142857</ele><time>2026-04-02T08:43:02.484Z</time></trkpt><trkpt lat="45.4679667" lon="11.5384433"><ele>48.285714285714285</ele><time>2026-04-02T08:43:05.483Z</time></trkpt><trkpt lat="45.4679017" lon="11.5384183"><ele>51.0</ele><time>2026-04-02T08:43:08.483Z</time></trkpt><trkpt lat="45.4678417" lon="11.5383817"><ele>51.0</ele><time>2026-04-02T08:43:11.483Z</time></trkpt><trkpt lat="45.4677633" lon="11.53838"><ele>51.0</ele><time>2026-04-02T08:43:14.483Z</time></trkpt><trkpt lat="45.46769" lon="11.5383783"><ele>51.0</ele><time>2026-04-02T08:43:17.483Z</time></trkpt><trkpt lat="45.4676133" lon="11.5384083"><ele>51.0</ele><time>2026-04-02T08:43:20.483Z</time></trkpt><trkpt lat="45.4675367" lon="11.5384417"><ele>51.0</ele><time>2026-04-02T08:43:23.484Z</time></trkpt><trkpt lat="45.4674683" lon="11.5384833"><ele>51.0</ele><time>2026-04-02T08:43:26.483Z</time></trkpt><trkpt lat="45.4674083" lon="11.5385383"><ele>51.0</ele><time>2026-04-02T08:43:29.483Z</time></trkpt><trkpt lat="45.4673467" lon="11.53857"><ele>51.0</ele><time>2026-04-02T08:43:32.484Z</time></trkpt><trkpt lat="45.4672817" lon="11.5386317"><ele>51.0</ele><time>2026-04-02T08:43:36.483Z</time></trkpt><trkpt lat="45.46722" lon="11.5386733"><ele>51.0</ele><time>2026-04-02T08:43:39.483Z</time></trkpt><trkpt lat="45.4671533" lon="11.5387433"><ele>51.0</ele><time>2026-04-02T08:43:43.484Z</time></trkpt><trkpt lat="45.4670967" lon="11.5387917"><ele>51.0</ele><time>2026-04-02T08:43:46.483Z</time></trkpt><trkpt lat="45.4670383" lon="11.5388617"><ele>51.0</ele><time>2026-04-02T08:43:50.483Z</time></trkpt><trkpt lat="45.4669717" lon="11.538885"><ele>49.5</ele><time>2026-04-02T08:43:53.483Z</time></trkpt><trkpt lat="45.466895" lon="11.5389317"><ele>48.0</ele><time>2026-04-02T08:43:57.484Z</time></trkpt><trkpt lat="45.4668317" lon="11.5389817"><ele>46.5</ele><time>2026-04-02T08:44:00.483Z</time></trkpt><trkpt lat="45.4667617" lon="11.5390317"><ele>45.0</ele><time>2026-04-02T08:44:04.483Z</time></trkpt><trkpt lat="45.4666817" lon="11.5390733"><ele>43.5</ele><time>2026-04-02T08:44:08.484Z</time></trkpt><trkpt lat="45.4666133" lon="11.5391067"><ele>42.0</ele><time>2026-04-02T08:44:12.483Z</time></trkpt><trkpt lat="45.466545" lon="11.5391383"><ele>42.0</ele><time>2026-04-02T08:44:16.483Z</time></trkpt><trkpt lat="45.4664733" lon="11.5391433"><ele>42.0</ele><time>2026-04-02T08:44:19.483Z</time></trkpt><trkpt lat="45.4664017" lon="11.5391467"><ele>42.0</ele><time>2026-04-02T08:44:22.483Z</time></trkpt><trkpt lat="45.466335" lon="11.53915"><ele>42.0</ele><time>2026-04-02T08:44:25.483Z</time></trkpt><trkpt lat="45.4662633" lon="11.5391567"><ele>42.0</ele><time>2026-04-02T08:44:29.483Z</time></trkpt><trkpt lat="45.466195" lon="11.53914"><ele>42.0</ele><time>2026-04-02T08:44:33.484Z</time></trkpt><trkpt lat="45.4661267" lon="11.5391117"><ele>42.0</ele><time>2026-04-02T08:44:37.483Z</time></trkpt><trkpt lat="45.4660517" lon="11.5390967"><ele>43.57142857142857</ele><time>2026-04-02T08:44:41.483Z</time></trkpt><trkpt lat="45.4659883" lon="11.5390967"><ele>45.14285714285714</ele><time>2026-04-02T08:44:45.483Z</time></trkpt><trkpt lat="45.4659283" lon="11.5390683"><ele>46.714285714285715</ele><time>2026-04-02T08:44:49.483Z</time></trkpt><trkpt lat="45.465865" lon="11.5390433"><ele>48.285714285714285</ele><time>2026-04-02T08:44:53.483Z</time></trkpt><trkpt lat="45.465805" lon="11.5389733"><ele>49.857142857142854</ele><time>2026-04-02T08:44:58.483Z</time></trkpt><trkpt lat="45.46574" lon="11.5389317"><ele>51.42857142857143</ele><time>2026-04-02T08:45:03.483Z</time></trkpt><trkpt lat="45.4656883" lon="11.53888"><ele>53.0</ele><time>2026-04-02T08:45:07.484Z</time></trkpt><trkpt lat="45.46563" lon="11.53883"><ele>53.00000000000001</ele><time>2026-04-02T08:45:11.483Z</time></trkpt><trkpt lat="45.4655533" lon="11.5387767"><ele>53.0</ele><time>2026-04-02T08:45:15.483Z</time></trkpt><trkpt lat="45.465475" lon="11.5387567"><ele>53.0</ele><time>2026-04-02T08:45:19.483Z</time></trkpt><trkpt lat="45.465405" lon="11.5387633"><ele>53.0</ele><time>2026-04-02T08:45:23.483Z</time></trkpt><trkpt lat="45.46533" lon="11.5387483"><ele>53.00000000000001</ele><time>2026-04-02T08:45:27.484Z</time></trkpt><trkpt lat="45.4652567" lon="11.5387467"><ele>53.0</ele><time>2026-04-02T08:45:31.483Z</time></trkpt><trkpt lat="45.465185" lon="11.5387417"><ele>53.42857142857143</ele><time>2026-04-02T08:45:35.483Z</time></trkpt><trkpt lat="45.4651133" lon="11.5387367"><ele>53.857142857142854</ele><time>2026-04-02T08:45:39.483Z</time></trkpt><trkpt lat="45.4650367" lon="11.5387317"><ele>54.285714285714285</ele><time>2026-04-02T08:45:43.484Z</time></trkpt><trkpt lat="45.464965" lon="11.5387233"><ele>54.714285714285715</ele><time>2026-04-02T08:45:47.484Z</time></trkpt><trkpt lat="45.4648917" lon="11.53871"><ele>55.14285714285714</ele><time>2026-04-02T08:45:51.484Z</time></trkpt><trkpt lat="45.464815" lon="11.5386733"><ele>55.57142857142857</ele><time>2026-04-02T08:45:56.483Z</time></trkpt><trkpt lat="45.46475" lon="11.5386483"><ele>56.0</ele><time>2026-04-02T08:46:00.484Z</time></trkpt><trkpt lat="45.4646883" lon="11.5386133"><ele>59.66666666666667</ele><time>2026-04-02T08:46:03.483Z</time></trkpt><trkpt lat="45.4646167" lon="11.5385717"><ele>63.333333333333336</ele><time>2026-04-02T08:46:07.483Z</time></trkpt><trkpt lat="45.4645383" lon="11.5385367"><ele>67.0</ele><time>2026-04-02T08:46:11.483Z</time></trkpt><trkpt lat="45.464465" lon="11.538495"><ele>70.66666666666667</ele><time>2026-04-02T08:46:15.483Z</time></trkpt><trkpt lat="45.464405" lon="11.5384417"><ele>74.33333333333333</ele><time>2026-04-02T08:46:19.483Z</time></trkpt><trkpt lat="45.4643433" lon="11.5384017"><ele>78.0</ele><time>2026-04-02T08:46:22.483Z</time></trkpt><trkpt lat="45.4642833" lon="11.53834"><ele>78.16666666666667</ele><time>2026-04-02T08:46:26.483Z</time></trkpt><trkpt lat="45.4642117" lon="11.53832"><ele>78.33333333333333</ele><time>2026-04-02T08:46:30.483Z</time></trkpt><trkpt lat="45.4641433" lon="11.538295"><ele>78.5</ele><time>2026-04-02T08:46:34.484Z</time></trkpt><trkpt lat="45.46408" lon="11.538255"><ele>78.66666666666666</ele><time>2026-04-02T08:46:38.483Z</time></trkpt><trkpt lat="45.4640067" lon="11.5382217"><ele>78.83333333333333</ele><time>2026-04-02T08:46:42.483Z</time></trkpt><trkpt lat="45.46392" lon="11.5381967"><ele>79.0</ele><time>2026-04-02T08:46:46.484Z</time></trkpt><trkpt lat="45.4638467" lon="11.538185"><ele>78.42857142857143</ele><time>2026-04-02T08:46:49.483Z</time></trkpt><trkpt lat="45.4637733" lon="11.5381833"><ele>77.85714285714286</ele><time>2026-04-02T08:46:52.483Z</time></trkpt><trkpt lat="45.4637083" lon="11.5381667"><ele>77.28571428571428</ele><time>2026-04-02T08:46:55.483Z</time></trkpt><trkpt lat="45.4636417" lon="11.5381233"><ele>76.71428571428572</ele><time>2026-04-02T08:47:00.484Z</time></trkpt><trkpt lat="45.463575" lon="11.53811"><ele>76.14285714285714</ele><time>2026-04-02T08:47:04.483Z</time></trkpt><trkpt lat="45.4635133" lon="11.538075"><ele>75.57142857142857</ele><time>2026-04-02T08:47:08.483Z</time></trkpt><trkpt lat="45.4634417" lon="11.5380583"><ele>75.0</ele><time>2026-04-02T08:47:12.483Z</time></trkpt><trkpt lat="45.4633733" lon="11.538045"><ele>74.99999999999999</ele><time>2026-04-02T08:47:17.483Z</time></trkpt><trkpt lat="45.463325" lon="11.5379817"><ele>75.0</ele><time>2026-04-02T08:47:21.484Z</time></trkpt><trkpt lat="45.4632783" lon="11.53791"><ele>75.0</ele><time>2026-04-02T08:47:25.484Z</time></trkpt><trkpt lat="45.46323" lon="11.53783"><ele>75.0</ele><time>2026-04-02T08:47:30.483Z</time></trkpt><trkpt lat="45.4631983" lon="11.5377367"><ele>75.0</ele><time>2026-04-02T08:47:34.483Z</time></trkpt><trkpt lat="45.4631733" lon="11.5376383"><ele>74.99999999999999</ele><time>2026-04-02T08:47:38.483Z</time></trkpt><trkpt lat="45.4631367" lon="11.53755"><ele>75.0</ele><time>2026-04-02T08:47:42.483Z</time></trkpt><trkpt lat="45.4630983" lon="11.537475"><ele>79.42857142857142</ele><time>2026-04-02T08:47:46.483Z</time></trkpt><trkpt lat="45.46304" lon="11.537415"><ele>83.85714285714286</ele><time>2026-04-02T08:47:50.483Z</time></trkpt><trkpt lat="45.462985" lon="11.5373317"><ele>88.28571428571428</ele><time>2026-04-02T08:47:54.483Z</time></trkpt><trkpt lat="45.46293" lon="11.5372683"><ele>92.71428571428571</ele><time>2026-04-02T08:47:58.483Z</time></trkpt><trkpt lat="45.4628633" lon="11.53723"><ele>97.14285714285714</ele><time>2026-04-02T08:48:02.483Z</time></trkpt><trkpt lat="45.4627917" lon="11.537205"><ele>101.57142857142857</ele><time>2026-04-02T08:48:06.483Z</time></trkpt><trkpt lat="45.462715" lon="11.5372017"><ele>106.0</ele><time>2026-04-02T08:48:10.483Z</time></trkpt><trkpt lat="45.4626483" lon="11.5371867"><ele>106.0</ele><time>2026-04-02T08:48:14.484Z</time></trkpt><trkpt lat="45.4625717" lon="11.53718"><ele>106.0</ele><time>2026-04-02T08:48:19.483Z</time></trkpt><trkpt lat="45.4625133" lon="11.5372167"><ele>106.0</ele><time>2026-04-02T08:48:23.484Z</time></trkpt><trkpt lat="45.4624483" lon="11.5372633"><ele>106.0</ele><time>2026-04-02T08:48:29.484Z</time></trkpt><trkpt lat="45.4623833" lon="11.5373233"><ele>106.0</ele><time>2026-04-02T08:48:33.483Z</time></trkpt><trkpt lat="45.46231" lon="11.5373317"><ele>106.0</ele><time>2026-04-02T08:48:37.483Z</time></trkpt><trkpt lat="45.4622367" lon="11.5373667"><ele>106.0</ele><time>2026-04-02T08:48:41.484Z</time></trkpt><trkpt lat="45.4621817" lon="11.5374133"><ele>106.0</ele><time>2026-04-02T08:48:45.484Z</time></trkpt><trkpt lat="45.4621167" lon="11.53743"><ele>106.0</ele><time>2026-04-02T08:48:49.484Z</time></trkpt><trkpt lat="45.4620533" lon="11.53746"><ele>106.0</ele><time>2026-04-02T08:48:53.483Z</time></trkpt><trkpt lat="45.462" lon="11.5375117"><ele>106.0</ele><time>2026-04-02T08:48:57.483Z</time></trkpt><trkpt lat="45.4619283" lon="11.5375433"><ele>106.0</ele><time>2026-04-02T08:49:01.483Z</time></trkpt><trkpt lat="45.4618633" lon="11.5375917"><ele>106.0</ele><time>2026-04-02T08:49:05.483Z</time></trkpt><trkpt lat="45.4617983" lon="11.5376467"><ele>106.0</ele><time>2026-04-02T08:49:09.483Z</time></trkpt><trkpt lat="45.4617417" lon="11.5377"><ele>109.33333333333334</ele><time>2026-04-02T08:49:13.484Z</time></trkpt><trkpt lat="45.461675" lon="11.5377467"><ele>112.66666666666667</ele><time>2026-04-02T08:50:32.483Z</time></trkpt><trkpt lat="45.4615967" lon="11.537765"><ele>116.0</ele><time>2026-04-02T08:50:35.483Z</time></trkpt><trkpt lat="45.4615283" lon="11.5377433"><ele>119.33333333333334</ele><time>2026-04-02T08:50:37.483Z</time></trkpt><trkpt lat="45.4614567" lon="11.5377167"><ele>122.66666666666667</ele><time>2026-04-02T08:50:39.483Z</time></trkpt><trkpt lat="45.46137" lon="11.5377033"><ele>126.0</ele><time>2026-04-02T08:50:42.483Z</time></trkpt><trkpt lat="45.4612983" lon="11.5376883"><ele>125.85714285714286</ele><time>2026-04-02T08:50:46.483Z</time></trkpt><trkpt lat="45.4612367" lon="11.53766"><ele>125.71428571428572</ele><time>2026-04-02T08:50:49.483Z</time></trkpt><trkpt lat="45.4611717" lon="11.537635"><ele>125.57142857142857</ele><time>2026-04-02T08:50:52.484Z</time></trkpt><trkpt lat="45.4611" lon="11.5376167"><ele>125.42857142857143</ele><time>2026-04-02T08:50:55.483Z</time></trkpt><trkpt lat="45.4610383" lon="11.5375817"><ele>125.28571428571429</ele><time>2026-04-02T08:50:58.484Z</time></trkpt><trkpt lat="45.4609583" lon="11.53754"><ele>125.14285714285714</ele><time>2026-04-02T08:51:02.484Z</time></trkpt><trkpt lat="45.460895" lon="11.5375167"><ele>125.0</ele><time>2026-04-02T08:51:05.483Z</time></trkpt><trkpt lat="45.4608217" lon="11.53751"><ele>125.0</ele><time>2026-04-02T08:51:09.483Z</time></trkpt><trkpt lat="45.4607467" lon="11.5374767"><ele>125.0</ele><time>2026-04-02T08:51:13.483Z</time></trkpt><trkpt lat="45.4606667" lon="11.537455"><ele>125.0</ele><time>2026-04-02T08:51:17.483Z</time></trkpt><trkpt lat="45.4605917" lon="11.5374583"><ele>125.0</ele><time>2026-04-02T08:51:21.484Z</time></trkpt><trkpt lat="45.460525" lon="11.5374567"><ele>125.0</ele><time>2026-04-02T08:51:25.483Z</time></trkpt><trkpt lat="45.4604633" lon="11.5374817"><ele>125.0</ele><time>2026-04-02T08:51:28.484Z</time></trkpt><trkpt lat="45.4603883" lon="11.5375"><ele>125.0</ele><time>2026-04-02T08:51:32.483Z</time></trkpt><trkpt lat="45.460315" lon="11.537515"><ele>127.28571428571428</ele><time>2026-04-02T08:51:36.483Z</time></trkpt><trkpt lat="45.4602517" lon="11.5375133"><ele>129.57142857142858</ele><time>2026-04-02T08:51:39.484Z</time></trkpt><trkpt lat="45.460185" lon="11.53755"><ele>131.85714285714286</ele><time>2026-04-02T08:51:42.483Z</time></trkpt><trkpt lat="45.4601233" lon="11.5375817"><ele>134.14285714285714</ele><time>2026-04-02T08:51:46.483Z</time></trkpt><trkpt lat="45.4600567" lon="11.5376017"><ele>136.42857142857142</ele><time>2026-04-02T08:51:50.483Z</time></trkpt><trkpt lat="45.4599833" lon="11.5376233"><ele>138.71428571428572</ele><time>2026-04-02T08:51:55.483Z</time></trkpt><trkpt lat="45.4599133" lon="11.5376517"><ele>141.0</ele><time>2026-04-02T08:51:59.483Z</time></trkpt><trkpt lat="45.45984" lon="11.5376867"><ele>141.0</ele><time>2026-04-02T08:52:03.483Z</time></trkpt><trkpt lat="45.4597783" lon="11.537705"><ele>141.0</ele><time>2026-04-02T08:52:07.483Z</time></trkpt><trkpt lat="45.459715" lon="11.5377333"><ele>141.0</ele><time>2026-04-02T08:52:11.483Z</time></trkpt><trkpt lat="45.45965" lon="11.53776"><ele>141.0</ele><time>2026-04-02T08:52:15.483Z</time></trkpt><trkpt lat="45.4595717" lon="11.5377383"><ele>141.0</ele><time>2026-04-02T08:52:19.483Z</time></trkpt><trkpt lat="45.4595033" lon="11.5377267"><ele>141.0</ele><time>2026-04-02T08:52:23.483Z</time></trkpt><trkpt lat="45.459425" lon="11.53771"><ele>141.0</ele><time>2026-04-02T08:52:27.483Z</time></trkpt><trkpt lat="45.4593567" lon="11.53769"><ele>142.42857142857144</ele><time>2026-04-02T08:52:31.483Z</time></trkpt><trkpt lat="45.4592833" lon="11.5376767"><ele>143.85714285714286</ele><time>2026-04-02T08:52:35.483Z</time></trkpt><trkpt lat="45.4592067" lon="11.5376633"><ele>145.28571428571428</ele><time>2026-04-02T08:52:39.483Z</time></trkpt><trkpt lat="45.4591333" lon="11.5376567"><ele>146.71428571428572</ele><time>2026-04-02T08:52:43.484Z</time></trkpt><trkpt lat="45.4590633" lon="11.5376567"><ele>148.14285714285714</ele><time>2026-04-02T08:52:47.483Z</time></trkpt><trkpt lat="45.4589917" lon="11.5376567"><ele>149.57142857142858</ele><time>2026-04-02T08:52:51.483Z</time></trkpt><trkpt lat="45.4589233" lon="11.5376567"><ele>151.0</ele><time>2026-04-02T08:52:55.483Z</time></trkpt><trkpt lat="45.45885" lon="11.5376583"><ele>151.85714285714286</ele><time>2026-04-02T08:52:59.483Z</time></trkpt><trkpt lat="45.4587817" lon="11.5376733"><ele>152.71428571428572</ele><time>2026-04-02T08:53:02.483Z</time></trkpt><trkpt lat="45.4587083" lon="11.5377017"><ele>153.57142857142856</ele><time>2026-04-02T08:53:06.483Z</time></trkpt><trkpt lat="45.4586317" lon="11.53772"><ele>154.42857142857144</ele><time>2026-04-02T08:53:09.484Z</time></trkpt><trkpt lat="45.4585567" lon="11.5377317"><ele>155.28571428571428</ele><time>2026-04-02T08:53:13.483Z</time></trkpt><trkpt lat="45.4584883" lon="11.5377267"><ele>156.14285714285714</ele><time>2026-04-02T08:53:17.483Z</time></trkpt><trkpt lat="45.4584233" lon="11.53775"><ele>157.0</ele><time>2026-04-02T08:53:20.483Z</time></trkpt><trkpt lat="45.4583433" lon="11.5377583"><ele>156.99999999999997</ele><time>2026-04-02T08:53:24.483Z</time></trkpt><trkpt lat="45.458265" lon="11.5377367"><ele>157.0</ele><time>2026-04-02T08:53:28.483Z</time></trkpt><trkpt lat="45.4582033" lon="11.5377183"><ele>157.0</ele><time>2026-04-02T08:53:32.483Z</time></trkpt><trkpt lat="45.45813" lon="11.5376967"><ele>157.0</ele><time>2026-04-02T08:53:36.483Z</time></trkpt><trkpt lat="45.4580467" lon="11.5376967"><ele>157.0</ele><time>2026-04-02T08:53:40.484Z</time></trkpt><trkpt lat="45.4579883" lon="11.5376617"><ele>156.99999999999997</ele><time>2026-04-02T08:53:44.483Z</time></trkpt><trkpt lat="45.4579233" lon="11.5376283"><ele>157.0</ele><time>2026-04-02T08:53:49.483Z</time></trkpt><trkpt lat="45.457855" lon="11.537605"><ele>156.57142857142856</ele><time>2026-04-02T08:53:54.484Z</time></trkpt><trkpt lat="45.457795" lon="11.537575"><ele>156.14285714285714</ele><time>2026-04-02T08:53:59.483Z</time></trkpt><trkpt lat="45.4577217" lon="11.537545"><ele>155.71428571428572</ele><time>2026-04-02T08:54:04.483Z</time></trkpt><trkpt lat="45.45765" lon="11.5375333"><ele>155.28571428571428</ele><time>2026-04-02T08:54:09.483Z</time></trkpt><trkpt lat="45.4575883" lon="11.5374983"><ele>154.85714285714286</ele><time>2026-04-02T08:54:13.483Z</time></trkpt><trkpt lat="45.4575183" lon="11.53746"><ele>154.42857142857142</ele><time>2026-04-02T08:54:18.483Z</time></trkpt><trkpt lat="45.4574567" lon="11.5374167"><ele>154.0</ele><time>2026-04-02T08:54:22.483Z</time></trkpt><trkpt lat="45.4573983" lon="11.5373817"><ele>154.0</ele><time>2026-04-02T08:54:25.483Z</time></trkpt><trkpt lat="45.457345" lon="11.537305"><ele>154.0</ele><time>2026-04-02T08:54:29.483Z</time></trkpt><trkpt lat="45.4572767" lon="11.5372533"><ele>154.0</ele><time>2026-04-02T08:54:33.483Z</time></trkpt><trkpt lat="45.45721" lon="11.5372117"><ele>154.0</ele><time>2026-04-02T08:54:37.484Z</time></trkpt><trkpt lat="45.4571583" lon="11.537145"><ele>154.0</ele><time>2026-04-02T08:54:41.483Z</time></trkpt><trkpt lat="45.4571017" lon="11.5370867"><ele>154.0</ele><time>2026-04-02T08:54:46.484Z</time></trkpt><trkpt lat="45.45704" lon="11.5370483"><ele>154.0</ele><time>2026-04-02T08:54:50.483Z</time></trkpt><trkpt lat="45.4569733" lon="11.5370017"><ele>156.14285714285714</ele><time>2026-04-02T08:54:55.483Z</time></trkpt><trkpt lat="45.4569167" lon="11.536955"><ele>158.28571428571428</ele><time>2026-04-02T08:55:01.483Z</time></trkpt><trkpt lat="45.456855" lon="11.5369083"><ele>160.42857142857144</ele><time>2026-04-02T08:55:05.484Z</time></trkpt><trkpt lat="45.4567917" lon="11.53689"><ele>162.57142857142856</ele><time>2026-04-02T08:55:09.483Z</time></trkpt><trkpt lat="45.4567217" lon="11.5368533"><ele>164.71428571428572</ele><time>2026-04-02T08:55:13.484Z</time></trkpt><trkpt lat="45.4566533" lon="11.53682"><ele>166.85714285714286</ele><time>2026-04-02T08:55:16.484Z</time></trkpt><trkpt lat="45.45658" lon="11.53679"><ele>169.0</ele><time>2026-04-02T08:55:20.484Z</time></trkpt><trkpt lat="45.4565117" lon="11.5367583"><ele>169.0</ele><time>2026-04-02T08:55:24.483Z</time></trkpt><trkpt lat="45.4564333" lon="11.536725"><ele>169.0</ele><time>2026-04-02T08:55:30.483Z</time></trkpt><trkpt lat="45.456365" lon="11.5367017"><ele>169.0</ele><time>2026-04-02T08:55:34.483Z</time></trkpt><trkpt lat="45.4563017" lon="11.5366767"><ele>169.0</ele><time>2026-04-02T08:55:38.483Z</time></trkpt><trkpt lat="45.4562333" lon="11.5366567"><ele>169.0</ele><time>2026-04-02T08:55:42.483Z</time></trkpt><trkpt lat="45.4561617" lon="11.5366333"><ele>169.0</ele><time>2026-04-02T08:55:46.484Z</time></trkpt><trkpt lat="45.4560967" lon="11.53662"><ele>169.0</ele><time>2026-04-02T08:55:50.483Z</time></trkpt><trkpt lat="45.4560317" lon="11.5366167"><ele>170.28571428571428</ele><time>2026-04-02T08:55:54.484Z</time></trkpt><trkpt lat="45.4559683" lon="11.5365933"><ele>171.57142857142856</ele><time>2026-04-02T08:55:58.483Z</time></trkpt><trkpt lat="45.455895" lon="11.536585"><ele>172.85714285714283</ele><time>2026-04-02T08:56:03.483Z</time></trkpt><trkpt lat="45.45583" lon="11.53657"><ele>174.14285714285714</ele><time>2026-04-02T08:56:07.483Z</time></trkpt><trkpt lat="45.4557533" lon="11.53658"><ele>175.42857142857142</ele><time>2026-04-02T08:56:12.483Z</time></trkpt><trkpt lat="45.45568" lon="11.5365583"><ele>176.7142857142857</ele><time>2026-04-02T08:56:18.483Z</time></trkpt><trkpt lat="45.4556217" lon="11.5365217"><ele>178.0</ele><time>2026-04-02T08:56:24.484Z</time></trkpt><trkpt lat="45.4556583" lon="11.536445"><ele>177.99999999999997</ele><time>2026-04-02T08:56:32.483Z</time></trkpt><trkpt lat="45.4557233" lon="11.5364217"><ele>178.0</ele><time>2026-04-02T08:56:38.484Z</time></trkpt><trkpt lat="45.455795" lon="11.536385"><ele>178.0</ele><time>2026-04-02T08:56:43.483Z</time></trkpt><trkpt lat="45.455835" lon="11.53631"><ele>178.0</ele><time>2026-04-02T08:56:47.483Z</time></trkpt><trkpt lat="45.4559033" lon="11.5362817"><ele>178.0</ele><time>2026-04-02T08:56:51.483Z</time></trkpt><trkpt lat="45.4559733" lon="11.5362417"><ele>177.99999999999997</ele><time>2026-04-02T08:56:56.483Z</time></trkpt><trkpt lat="45.456035" lon="11.5361967"><ele>178.0</ele><time>2026-04-02T08:57:00.483Z</time></trkpt><trkpt lat="45.4561" lon="11.5361733"><ele>180.85714285714283</ele><time>2026-04-02T08:57:04.483Z</time></trkpt><trkpt lat="45.4561717" lon="11.5361283"><ele>183.71428571428572</ele><time>2026-04-02T08:57:09.484Z</time></trkpt><trkpt lat="45.4562383" lon="11.5361083"><ele>186.57142857142856</ele><time>2026-04-02T08:57:13.483Z</time></trkpt><trkpt lat="45.4563067" lon="11.536065"><ele>189.42857142857142</ele><time>2026-04-02T08:57:18.484Z</time></trkpt><trkpt lat="45.4563817" lon="11.5360233"><ele>192.28571428571428</ele><time>2026-04-02T08:57:23.483Z</time></trkpt><trkpt lat="45.4564517" lon="11.535985"><ele>195.14285714285714</ele><time>2026-04-02T08:57:27.483Z</time></trkpt><trkpt lat="45.45651" lon="11.5359333"><ele>198.0</ele><time>2026-04-02T08:57:31.483Z</time></trkpt><trkpt lat="45.4565733" lon="11.535905"><ele>198.0</ele><time>2026-04-02T08:57:35.484Z</time></trkpt><trkpt lat="45.4566367" lon="11.5358967"><ele>198.0</ele><time>2026-04-02T08:57:39.483Z</time></trkpt><trkpt lat="45.4567083" lon="11.5358733"><ele>198.0</ele><time>2026-04-02T08:57:43.483Z</time></trkpt><trkpt lat="45.4567867" lon="11.5358633"><ele>198.0</ele><time>2026-04-02T08:57:47.484Z</time></trkpt><trkpt lat="45.4568517" lon="11.53586"><ele>198.0</ele><time>2026-04-02T08:57:51.483Z</time></trkpt><trkpt lat="45.4569267" lon="11.5358683"><ele>198.0</ele><time>2026-04-02T08:57:55.484Z</time></trkpt><trkpt lat="45.4569917" lon="11.5358717"><ele>198.0</ele><time>2026-04-02T08:57:59.483Z</time></trkpt><trkpt lat="45.4570567" lon="11.5358733"><ele>199.14285714285714</ele><time>2026-04-02T08:58:03.483Z</time></trkpt><trkpt lat="45.45712" lon="11.5358583"><ele>200.28571428571428</ele><time>2026-04-02T08:58:06.483Z</time></trkpt><trkpt lat="45.4571883" lon="11.5358717"><ele>201.42857142857142</ele><time>2026-04-02T08:58:10.484Z</time></trkpt><trkpt lat="45.4572517" lon="11.53591"><ele>202.57142857142856</ele><time>2026-04-02T08:58:15.483Z</time></trkpt><trkpt lat="45.4573217" lon="11.5359317"><ele>203.71428571428572</ele><time>2026-04-02T08:58:18.483Z</time></trkpt><trkpt lat="45.4574017" lon="11.5359583"><ele>204.85714285714283</ele><time>2026-04-02T08:58:22.483Z</time></trkpt><trkpt lat="45.4574717" lon="11.53598"><ele>206.0</ele><time>2026-04-02T08:58:27.484Z</time></trkpt><trkpt lat="45.457535" lon="11.5359883"><ele>205.99999999999997</ele><time>2026-04-02T08:58:30.483Z</time></trkpt><trkpt lat="45.4576183" lon="11.5360217"><ele>206.0</ele><time>2026-04-02T08:58:34.483Z</time></trkpt><trkpt lat="45.4576883" lon="11.5360233"><ele>206.0</ele><time>2026-04-02T08:58:38.483Z</time></trkpt><trkpt lat="45.45776" lon="11.5360283"><ele>206.0</ele><time>2026-04-02T08:58:42.483Z</time></trkpt><trkpt lat="45.4578233" lon="11.5360583"><ele>206.0</ele><time>2026-04-02T08:58:46.483Z</time></trkpt><trkpt lat="45.45789" lon="11.5360583"><ele>205.99999999999997</ele><time>2026-04-02T08:58:50.483Z</time></trkpt><trkpt lat="45.45797" lon="11.536065"><ele>206.0</ele><time>2026-04-02T08:58:56.483Z</time></trkpt><trkpt lat="45.45805" lon="11.53607"><ele>206.85714285714283</ele><time>2026-04-02T08:59:00.484Z</time></trkpt><trkpt lat="45.45812" lon="11.53608"><ele>207.71428571428572</ele><time>2026-04-02T08:59:04.483Z</time></trkpt><trkpt lat="45.458205" lon="11.53611"><ele>208.57142857142856</ele><time>2026-04-02T08:59:08.483Z</time></trkpt><trkpt lat="45.45828" lon="11.536095"><ele>209.42857142857142</ele><time>2026-04-02T08:59:12.483Z</time></trkpt><trkpt lat="45.4583367" lon="11.5360467"><ele>210.28571428571428</ele><time>2026-04-02T08:59:17.483Z</time></trkpt><trkpt lat="45.458395" lon="11.5359917"><ele>211.14285714285714</ele><time>2026-04-02T08:59:21.483Z</time></trkpt><trkpt lat="45.4584633" lon="11.5359467"><ele>212.0</ele><time>2026-04-02T08:59:25.483Z</time></trkpt><trkpt lat="45.458535" lon="11.53589"><ele>212.0</ele><time>2026-04-02T08:59:29.483Z</time></trkpt><trkpt lat="45.458605" lon="11.535865"><ele>212.0</ele><time>2026-04-02T08:59:34.483Z</time></trkpt><trkpt lat="45.4586583" lon="11.535815"><ele>212.0</ele><time>2026-04-02T08:59:37.483Z</time></trkpt><trkpt lat="45.4587367" lon="11.5357717"><ele>212.0</ele><time>2026-04-02T08:59:41.483Z</time></trkpt><trkpt lat="45.458805" lon="11.53573"><ele>212.0</ele><time>2026-04-02T08:59:46.483Z</time></trkpt><trkpt lat="45.45887" lon="11.5357067"><ele>212.0</ele><time>2026-04-02T08:59:50.483Z</time></trkpt><trkpt lat="45.458935" lon="11.5356667"><ele>212.0</ele><time>2026-04-02T08:59:55.484Z</time></trkpt><trkpt lat="45.4589767" lon="11.535595"><ele>211.83333333333334</ele><time>2026-04-02T09:00:01.483Z</time></trkpt><trkpt lat="45.4589933" lon="11.5354633"><ele>211.66666666666669</ele><time>2026-04-02T09:00:16.484Z</time></trkpt><trkpt lat="45.4589517" lon="11.5353917"><ele>211.5</ele><time>2026-04-02T09:00:21.483Z</time></trkpt><trkpt lat="45.458885" lon="11.535355"><ele>211.33333333333331</ele><time>2026-04-02T09:00:26.483Z</time></trkpt><trkpt lat="45.458805" lon="11.5353117"><ele>211.16666666666666</ele><time>2026-04-02T09:00:31.484Z</time></trkpt><trkpt lat="45.4587383" lon="11.535275"><ele>211.0</ele><time>2026-04-02T09:00:35.483Z</time></trkpt><trkpt lat="45.4586883" lon="11.535195"><ele>212.28571428571428</ele><time>2026-04-02T09:00:41.483Z</time></trkpt><trkpt lat="45.45872" lon="11.5351167"><ele>213.57142857142858</ele><time>2026-04-02T09:00:46.483Z</time></trkpt><trkpt lat="45.4587467" lon="11.53503"><ele>214.85714285714283</ele><time>2026-04-02T09:00:52.483Z</time></trkpt><trkpt lat="45.458775" lon="11.5349317"><ele>216.14285714285714</ele><time>2026-04-02T09:00:58.484Z</time></trkpt><trkpt lat="45.458815" lon="11.5348483"><ele>217.42857142857142</ele><time>2026-04-02T09:01:02.483Z</time></trkpt><trkpt lat="45.4588567" lon="11.534755"><ele>218.7142857142857</ele><time>2026-04-02T09:01:06.484Z</time></trkpt><trkpt lat="45.4589017" lon="11.534665"><ele>220.0</ele><time>2026-04-02T09:01:10.483Z</time></trkpt><trkpt lat="45.458935" lon="11.534585"><ele>221.1428571428571</ele><time>2026-04-02T09:01:14.483Z</time></trkpt><trkpt lat="45.45898" lon="11.53451"><ele>222.28571428571428</ele><time>2026-04-02T09:01:19.483Z</time></trkpt><trkpt lat="45.459035" lon="11.5344333"><ele>223.42857142857142</ele><time>2026-04-02T09:01:24.483Z</time></trkpt><trkpt lat="45.4590817" lon="11.5343683"><ele>224.57142857142856</ele><time>2026-04-02T09:01:28.483Z</time></trkpt><trkpt lat="45.459155" lon="11.5343183"><ele>225.7142857142857</ele><time>2026-04-02T09:01:32.483Z</time></trkpt><trkpt lat="45.4592217" lon="11.5343267"><ele>226.85714285714283</ele><time>2026-04-02T09:01:37.483Z</time></trkpt><trkpt lat="45.4592917" lon="11.5343283"><ele>228.0</ele><time>2026-04-02T09:01:41.483Z</time></trkpt><trkpt lat="45.4593617" lon="11.534315"><ele>228.0</ele><time>2026-04-02T09:01:45.483Z</time></trkpt><trkpt lat="45.4594333" lon="11.5343083"><ele>227.99999999999997</ele><time>2026-04-02T09:01:49.483Z</time></trkpt><trkpt lat="45.4594983" lon="11.53432"><ele>228.0</ele><time>2026-04-02T09:01:54.483Z</time></trkpt><trkpt lat="45.459565" lon="11.5342867"><ele>228.0</ele><time>2026-04-02T09:01:59.483Z</time></trkpt><trkpt lat="45.459635" lon="11.5342717"><ele>227.99999999999997</ele><time>2026-04-02T09:02:04.483Z</time></trkpt><trkpt lat="45.4596983" lon="11.53424"><ele>228.0</ele><time>2026-04-02T09:02:09.483Z</time></trkpt><trkpt lat="45.4597433" lon="11.5341733"><ele>228.0</ele><time>2026-04-02T09:02:13.483Z</time></trkpt><trkpt lat="45.45981" lon="11.534115"><ele>228.42857142857142</ele><time>2026-04-02T09:02:19.483Z</time></trkpt><trkpt lat="45.4598633" lon="11.53405"><ele>228.85714285714283</ele><time>2026-04-02T09:02:23.483Z</time></trkpt><trkpt lat="45.459915" lon="11.53398"><ele>229.28571428571428</ele><time>2026-04-02T09:02:27.484Z</time></trkpt><trkpt lat="45.4599733" lon="11.5339417"><ele>229.71428571428572</ele><time>2026-04-02T09:02:30.483Z</time></trkpt><trkpt lat="45.4600367" lon="11.533885"><ele>230.14285714285714</ele><time>2026-04-02T09:02:34.483Z</time></trkpt><trkpt lat="45.4601033" lon="11.5338433"><ele>230.57142857142856</ele><time>2026-04-02T09:02:38.483Z</time></trkpt><trkpt lat="45.46016" lon="11.5337683"><ele>231.0</ele><time>2026-04-02T09:02:42.483Z</time></trkpt><trkpt lat="45.4602133" lon="11.5336933"><ele>233.0</ele><time>2026-04-02T09:02:46.483Z</time></trkpt><trkpt lat="45.4602683" lon="11.5336283"><ele>235.0</ele><time>2026-04-02T09:02:49.483Z</time></trkpt><trkpt lat="45.4603367" lon="11.5335667"><ele>237.0</ele><time>2026-04-02T09:02:53.483Z</time></trkpt><trkpt lat="45.460395" lon="11.533505"><ele>239.0</ele><time>2026-04-02T09:02:57.484Z</time></trkpt><trkpt lat="45.4604683" lon="11.533445"><ele>241.0</ele><time>2026-04-02T09:03:01.484Z</time></trkpt><trkpt lat="45.4605383" lon="11.5333867"><ele>243.0</ele><time>2026-04-02T09:03:05.483Z</time></trkpt><trkpt lat="45.4606017" lon="11.5333417"><ele>243.0</ele><time>2026-04-02T09:03:09.483Z</time></trkpt><trkpt lat="45.460675" lon="11.5333"><ele>243.0</ele><time>2026-04-02T09:03:13.484Z</time></trkpt><trkpt lat="45.4607433" lon="11.5332633"><ele>243.0</ele><time>2026-04-02T09:03:17.484Z</time></trkpt><trkpt lat="45.4608017" lon="11.53322"><ele>243.0</ele><time>2026-04-02T09:03:21.484Z</time></trkpt><trkpt lat="45.4608667" lon="11.533175"><ele>243.0</ele><time>2026-04-02T09:03:25.484Z</time></trkpt><trkpt lat="45.4609283" lon="11.5331217"><ele>243.0</ele><time>2026-04-02T09:03:30.483Z</time></trkpt><trkpt lat="45.4609267" lon="11.5330167"><ele>243.0</ele><time>2026-04-02T09:03:40.483Z</time></trkpt><trkpt lat="45.4609067" lon="11.532915"><ele>244.14285714285714</ele><time>2026-04-02T09:03:46.483Z</time></trkpt><trkpt lat="45.4609167" lon="11.5328233"><ele>245.28571428571428</ele><time>2026-04-02T09:03:51.483Z</time></trkpt><trkpt lat="45.4609167" lon="11.5327183"><ele>246.42857142857142</ele><time>2026-04-02T09:03:58.483Z</time></trkpt><trkpt lat="45.46091" lon="11.5326067"><ele>247.57142857142856</ele><time>2026-04-02T09:04:03.484Z</time></trkpt><trkpt lat="45.460895" lon="11.53251"><ele>248.71428571428572</ele><time>2026-04-02T09:04:07.483Z</time></trkpt><trkpt lat="45.4608833" lon="11.5324167"><ele>249.85714285714283</ele><time>2026-04-02T09:04:11.483Z</time></trkpt><trkpt lat="45.46088" lon="11.5323183"><ele>250.99999999999997</ele><time>2026-04-02T09:04:15.483Z</time></trkpt><trkpt lat="45.460855" lon="11.5322317"><ele>250.99999999999997</ele><time>2026-04-02T09:04:19.484Z</time></trkpt><trkpt lat="45.4608417" lon="11.532125"><ele>251.0</ele><time>2026-04-02T09:04:24.484Z</time></trkpt><trkpt lat="45.46083" lon="11.5320233"><ele>250.99999999999997</ele><time>2026-04-02T09:04:29.484Z</time></trkpt><trkpt lat="45.4608017" lon="11.5319333"><ele>250.99999999999997</ele><time>2026-04-02T09:04:33.483Z</time></trkpt><trkpt lat="45.4607717" lon="11.5318433"><ele>251.0</ele><time>2026-04-02T09:04:37.483Z</time></trkpt><trkpt lat="45.46075" lon="11.5317567"><ele>250.99999999999997</ele><time>2026-04-02T09:04:41.483Z</time></trkpt><trkpt lat="45.4606933" lon="11.5316633"><ele>250.99999999999997</ele><time>2026-04-02T09:04:46.483Z</time></trkpt><trkpt lat="45.4606483" lon="11.5316"><ele>251.57142857142856</ele><time>2026-04-02T09:04:51.484Z</time></trkpt><trkpt lat="45.46058" lon="11.531585"><ele>252.14285714285714</ele><time>2026-04-02T09:04:57.483Z</time></trkpt><trkpt lat="45.460525" lon="11.5314867"><ele>252.71428571428572</ele><time>2026-04-02T09:07:13.482Z</time></trkpt><trkpt lat="45.460505" lon="11.5313833"><ele>253.28571428571428</ele><time>2026-04-02T09:07:18.482Z</time></trkpt><trkpt lat="45.4604833" lon="11.5312983"><ele>253.8571428571429</ele><time>2026-04-02T09:07:22.482Z</time></trkpt><trkpt lat="45.4604933" lon="11.5314083"><ele>254.42857142857144</ele><time>2026-04-02T09:07:33.483Z</time></trkpt><trkpt lat="45.4605233" lon="11.5314967"><ele>255.0</ele><time>2026-04-02T09:07:36.482Z</time></trkpt><trkpt lat="45.4605633" lon="11.5315883"><ele>255.0</ele><time>2026-04-02T09:08:34.482Z</time></trkpt><trkpt lat="45.4604933" lon="11.5316317"><ele>255.00000000000003</ele><time>2026-04-02T09:08:40.482Z</time></trkpt><trkpt lat="45.4604133" lon="11.5316617"><ele>255.0</ele><time>2026-04-02T09:08:43.483Z</time></trkpt><trkpt lat="45.46035" lon="11.531675"><ele>255.0</ele><time>2026-04-02T09:08:46.482Z</time></trkpt><trkpt lat="45.4602817" lon="11.53168"><ele>255.00000000000003</ele><time>2026-04-02T09:08:51.482Z</time></trkpt><trkpt lat="45.4601983" lon="11.5316917"><ele>255.0</ele><time>2026-04-02T09:08:55.482Z</time></trkpt><trkpt lat="45.4601283" lon="11.5317083"><ele>255.0</ele><time>2026-04-02T09:08:58.482Z</time></trkpt><trkpt lat="45.4600617" lon="11.5317683"><ele>256.8571428571429</ele><time>2026-04-02T09:09:04.482Z</time></trkpt><trkpt lat="45.4600067" lon="11.53182"><ele>258.7142857142857</ele><time>2026-04-02T09:09:08.483Z</time></trkpt><trkpt lat="45.4599433" lon="11.5318867"><ele>260.57142857142856</ele><time>2026-04-02T09:09:13.483Z</time></trkpt><trkpt lat="45.4598717" lon="11.53188"><ele>262.42857142857144</ele><time>2026-04-02T09:09:17.482Z</time></trkpt><trkpt lat="45.4598033" lon="11.5318633"><ele>264.2857142857143</ele><time>2026-04-02T09:09:22.482Z</time></trkpt><trkpt lat="45.45974" lon="11.531825"><ele>266.14285714285717</ele><time>2026-04-02T09:09:26.482Z</time></trkpt><trkpt lat="45.459675" lon="11.5318017"><ele>268.0</ele><time>2026-04-02T09:09:30.483Z</time></trkpt><trkpt lat="45.459605" lon="11.5317583"><ele>269.0</ele><time>2026-04-02T09:09:35.482Z</time></trkpt><trkpt lat="45.4595267" lon="11.531715"><ele>270.0</ele><time>2026-04-02T09:09:40.482Z</time></trkpt><trkpt lat="45.45946" lon="11.5316617"><ele>271.0</ele><time>2026-04-02T09:09:45.482Z</time></trkpt><trkpt lat="45.4593967" lon="11.5316267"><ele>272.0</ele><time>2026-04-02T09:09:49.483Z</time></trkpt><trkpt lat="45.4593267" lon="11.5315667"><ele>273.0</ele><time>2026-04-02T09:09:53.482Z</time></trkpt><trkpt lat="45.4592567" lon="11.5315217"><ele>274.0</ele><time>2026-04-02T09:09:57.483Z</time></trkpt><trkpt lat="45.459175" lon="11.5315"><ele>274.0</ele><time>2026-04-02T09:10:01.482Z</time></trkpt><trkpt lat="45.4590983" lon="11.5314967"><ele>274.0</ele><time>2026-04-02T09:10:04.482Z</time></trkpt><trkpt lat="45.45904" lon="11.5314317"><ele>274.0</ele><time>2026-04-02T09:10:08.482Z</time></trkpt><trkpt lat="45.458975" lon="11.5313933"><ele>274.0</ele><time>2026-04-02T09:10:12.482Z</time></trkpt><trkpt lat="45.4589117" lon="11.5313517"><ele>274.0</ele><time>2026-04-02T09:10:16.482Z</time></trkpt><trkpt lat="45.45885" lon="11.5313067"><ele>274.0</ele><time>2026-04-02T09:10:20.483Z</time></trkpt><trkpt lat="45.45877" lon="11.5312467"><ele>274.5714285714286</ele><time>2026-04-02T09:10:25.482Z</time></trkpt><trkpt lat="45.4587033" lon="11.5312033"><ele>275.14285714285717</ele><time>2026-04-02T09:10:28.482Z</time></trkpt><trkpt lat="45.4586333" lon="11.5311517"><ele>275.7142857142857</ele><time>2026-04-02T09:10:31.482Z</time></trkpt><trkpt lat="45.4585733" lon="11.53107"><ele>276.28571428571433</ele><time>2026-04-02T09:10:34.482Z</time></trkpt><trkpt lat="45.4585183" lon="11.53101"><ele>276.8571428571429</ele><time>2026-04-02T09:10:37.482Z</time></trkpt><trkpt lat="45.458465" lon="11.5309617"><ele>277.42857142857144</ele><time>2026-04-02T09:10:40.483Z</time></trkpt><trkpt lat="45.4584067" lon="11.5308883"><ele>278.0</ele><time>2026-04-02T09:10:43.482Z</time></trkpt><trkpt lat="45.4583567" lon="11.5308167"><ele>278.0</ele><time>2026-04-02T09:10:46.482Z</time></trkpt><trkpt lat="45.4582967" lon="11.5307333"><ele>278.0</ele><time>2026-04-02T09:10:49.482Z</time></trkpt><trkpt lat="45.458215" lon="11.530665"><ele>278.0</ele><time>2026-04-02T09:10:53.482Z</time></trkpt><trkpt lat="45.4581617" lon="11.5306117"><ele>278.0</ele><time>2026-04-02T09:10:55.482Z</time></trkpt><trkpt lat="45.4581133" lon="11.53054"><ele>278.0</ele><time>2026-04-02T09:10:58.482Z</time></trkpt><trkpt lat="45.45805" lon="11.5304883"><ele>278.0</ele><time>2026-04-02T09:11:01.482Z</time></trkpt><trkpt lat="45.4579767" lon="11.5304067"><ele>279.0</ele><time>2026-04-02T09:11:04.482Z</time></trkpt><trkpt lat="45.4578983" lon="11.530345"><ele>280.0</ele><time>2026-04-02T09:11:07.482Z</time></trkpt><trkpt lat="45.4578517" lon="11.5302717"><ele>281.0</ele><time>2026-04-02T09:11:10.482Z</time></trkpt><trkpt lat="45.457785" lon="11.530215"><ele>282.0</ele><time>2026-04-02T09:11:14.482Z</time></trkpt><trkpt lat="45.4577267" lon="11.5301767"><ele>283.0</ele><time>2026-04-02T09:11:17.482Z</time></trkpt><trkpt lat="45.4576617" lon="11.530125"><ele>284.0</ele><time>2026-04-02T09:11:20.482Z</time></trkpt><trkpt lat="45.4575883" lon="11.5300933"><ele>284.0</ele><time>2026-04-02T09:11:25.482Z</time></trkpt><trkpt lat="45.45752" lon="11.53007"><ele>284.0</ele><time>2026-04-02T09:11:28.482Z</time></trkpt><trkpt lat="45.457455" lon="11.5300617"><ele>284.0</ele><time>2026-04-02T09:11:31.482Z</time></trkpt><trkpt lat="45.4573783" lon="11.5300583"><ele>284.0</ele><time>2026-04-02T09:11:35.482Z</time></trkpt><trkpt lat="45.45729" lon="11.5300583"><ele>284.0</ele><time>2026-04-02T09:11:38.483Z</time></trkpt><trkpt lat="45.4572183" lon="11.5300717"><ele>284.0</ele><time>2026-04-02T09:11:41.483Z</time></trkpt><trkpt lat="45.457155" lon="11.5300733"><ele>284.0</ele><time>2026-04-02T09:11:44.482Z</time></trkpt><trkpt lat="45.4570933" lon="11.5300983"><ele>285.33333333333337</ele><time>2026-04-02T09:11:47.482Z</time></trkpt><trkpt lat="45.4570283" lon="11.5300983"><ele>286.6666666666667</ele><time>2026-04-02T09:11:50.483Z</time></trkpt><trkpt lat="45.4569517" lon="11.5301117"><ele>288.0</ele><time>2026-04-02T09:11:53.482Z</time></trkpt><trkpt lat="45.456865" lon="11.5301417"><ele>289.3333333333333</ele><time>2026-04-02T09:11:56.482Z</time></trkpt><trkpt lat="45.4567833" lon="11.5301617"><ele>290.66666666666663</ele><time>2026-04-02T09:11:59.482Z</time></trkpt><trkpt lat="45.4567117" lon="11.53017"><ele>292.0</ele><time>2026-04-02T09:12:02.482Z</time></trkpt><trkpt lat="45.456635" lon="11.5302"><ele>292.0</ele><time>2026-04-02T09:12:05.482Z</time></trkpt><trkpt lat="45.45655" lon="11.5302217"><ele>292.0</ele><time>2026-04-02T09:12:08.482Z</time></trkpt><trkpt lat="45.4564667" lon="11.530235"><ele>292.0</ele><time>2026-04-02T09:12:11.482Z</time></trkpt><trkpt lat="45.4563833" lon="11.530255"><ele>292.0</ele><time>2026-04-02T09:12:14.482Z</time></trkpt><trkpt lat="45.4562933" lon="11.5302767"><ele>292.0</ele><time>2026-04-02T09:12:17.482Z</time></trkpt><trkpt lat="45.4562217" lon="11.5302967"><ele>292.0</ele><time>2026-04-02T09:12:21.483Z</time></trkpt><trkpt lat="45.456175" lon="11.530225"><ele>291.42857142857144</ele><time>2026-04-02T09:12:27.482Z</time></trkpt><trkpt lat="45.4561117" lon="11.5302"><ele>290.8571428571429</ele><time>2026-04-02T09:12:32.482Z</time></trkpt><trkpt lat="45.4560467" lon="11.5302133"><ele>290.28571428571433</ele><time>2026-04-02T09:12:38.483Z</time></trkpt><trkpt lat="45.4559783" lon="11.5302067"><ele>289.7142857142857</ele><time>2026-04-02T09:13:30.482Z</time></trkpt><trkpt lat="45.4559017" lon="11.5302433"><ele>289.14285714285717</ele><time>2026-04-02T09:13:34.482Z</time></trkpt><trkpt lat="45.4558383" lon="11.5302417"><ele>288.5714285714286</ele><time>2026-04-02T09:13:37.482Z</time></trkpt><trkpt lat="45.45576" lon="11.5302383"><ele>288.0</ele><time>2026-04-02T09:13:41.482Z</time></trkpt><trkpt lat="45.45569" lon="11.53022"><ele>288.00000000000006</ele><time>2026-04-02T09:13:45.482Z</time></trkpt><trkpt lat="45.4556083" lon="11.5302167"><ele>288.0</ele><time>2026-04-02T09:13:49.482Z</time></trkpt><trkpt lat="45.45554" lon="11.5302067"><ele>288.0</ele><time>2026-04-02T09:13:52.482Z</time></trkpt><trkpt lat="45.45546" lon="11.5301817"><ele>288.0</ele><time>2026-04-02T09:13:56.482Z</time></trkpt><trkpt lat="45.4553933" lon="11.5301617"><ele>288.0</ele><time>2026-04-02T09:14:00.482Z</time></trkpt><trkpt lat="45.4553167" lon="11.5301417"><ele>288.00000000000006</ele><time>2026-04-02T09:14:04.483Z</time></trkpt><trkpt lat="45.4552517" lon="11.530125"><ele>288.0</ele><time>2026-04-02T09:14:07.483Z</time></trkpt><trkpt lat="45.4551867" lon="11.5301167"><ele>288.42857142857144</ele><time>2026-04-02T09:14:10.482Z</time></trkpt><trkpt lat="45.455105" lon="11.5300983"><ele>288.8571428571429</ele><time>2026-04-02T09:14:14.482Z</time></trkpt><trkpt lat="45.4550217" lon="11.5300983"><ele>289.2857142857143</ele><time>2026-04-02T09:14:18.482Z</time></trkpt><trkpt lat="45.4549467" lon="11.5300867"><ele>289.7142857142857</ele><time>2026-04-02T09:14:22.482Z</time></trkpt><trkpt lat="45.4548767" lon="11.5300917"><ele>290.1428571428571</ele><time>2026-04-02T09:14:25.483Z</time></trkpt><trkpt lat="45.454815" lon="11.5301283"><ele>290.57142857142856</ele><time>2026-04-02T09:14:29.482Z</time></trkpt><trkpt lat="45.4547483" lon="11.530145"><ele>291.0</ele><time>2026-04-02T09:14:32.483Z</time></trkpt><trkpt lat="45.4546883" lon="11.530185"><ele>292.0</ele><time>2026-04-02T09:14:35.482Z</time></trkpt><trkpt lat="45.4546167" lon="11.5302317"><ele>293.0</ele><time>2026-04-02T09:14:39.482Z</time></trkpt><trkpt lat="45.45456" lon="11.5302817"><ele>294.0</ele><time>2026-04-02T09:14:43.482Z</time></trkpt><trkpt lat="45.4545133" lon="11.530355"><ele>295.0</ele><time>2026-04-02T09:14:47.482Z</time></trkpt><trkpt lat="45.4544533" lon="11.530435"><ele>296.0</ele><time>2026-04-02T09:14:51.482Z</time></trkpt><trkpt lat="45.4543983" lon="11.530505"><ele>297.0</ele><time>2026-04-02T09:14:54.482Z</time></trkpt><trkpt lat="45.4543417" lon="11.5305583"><ele>298.0</ele><time>2026-04-02T09:14:58.483Z</time></trkpt><trkpt lat="45.4542867" lon="11.5306167"><ele>299.0</ele><time>2026-04-02T09:15:02.483Z</time></trkpt><trkpt lat="45.454235" lon="11.5306833"><ele>300.0</ele><time>2026-04-02T09:15:06.482Z</time></trkpt><trkpt lat="45.4541717" lon="11.5307483"><ele>301.0</ele><time>2026-04-02T09:15:10.482Z</time></trkpt><trkpt lat="45.454135" lon="11.530825"><ele>302.0</ele><time>2026-04-02T09:15:14.482Z</time></trkpt><trkpt lat="45.4540867" lon="11.5309"><ele>303.0</ele><time>2026-04-02T09:15:19.482Z</time></trkpt><trkpt lat="45.454035" lon="11.5309683"><ele>304.0</ele><time>2026-04-02T09:15:23.482Z</time></trkpt><trkpt lat="45.453985" lon="11.5310517"><ele>305.0</ele><time>2026-04-02T09:15:27.483Z</time></trkpt><trkpt lat="45.4539483" lon="11.5311367"><ele>305.0</ele><time>2026-04-02T09:15:31.482Z</time></trkpt><trkpt lat="45.4539017" lon="11.531205"><ele>305.0</ele><time>2026-04-02T09:15:35.482Z</time></trkpt><trkpt lat="45.4538483" lon="11.5312783"><ele>305.0</ele><time>2026-04-02T09:15:40.482Z</time></trkpt><trkpt lat="45.4537783" lon="11.5313017"><ele>305.0</ele><time>2026-04-02T09:15:44.482Z</time></trkpt><trkpt lat="45.4537033" lon="11.5313367"><ele>305.0</ele><time>2026-04-02T09:15:49.482Z</time></trkpt><trkpt lat="45.4536417" lon="11.5313583"><ele>305.0</ele><time>2026-04-02T09:15:52.482Z</time></trkpt><trkpt lat="45.4535567" lon="11.5313667"><ele>305.0</ele><time>2026-04-02T09:15:56.482Z</time></trkpt><trkpt lat="45.4534733" lon="11.531385"><ele>305.42857142857144</ele><time>2026-04-02T09:16:00.482Z</time></trkpt><trkpt lat="45.453405" lon="11.531435"><ele>305.85714285714283</ele><time>2026-04-02T09:16:04.482Z</time></trkpt><trkpt lat="45.4533383" lon="11.5314817"><ele>306.2857142857143</ele><time>2026-04-02T09:16:07.482Z</time></trkpt><trkpt lat="45.4532817" lon="11.5315417"><ele>306.7142857142857</ele><time>2026-04-02T09:16:10.482Z</time></trkpt><trkpt lat="45.4532233" lon="11.53159"><ele>307.1428571428571</ele><time>2026-04-02T09:16:13.483Z</time></trkpt><trkpt lat="45.4531633" lon="11.5316467"><ele>307.57142857142856</ele><time>2026-04-02T09:16:17.482Z</time></trkpt><trkpt lat="45.4531" lon="11.5317"><ele>308.0</ele><time>2026-04-02T09:16:21.482Z</time></trkpt><trkpt lat="45.4530433" lon="11.53175"><ele>308.0</ele><time>2026-04-02T09:16:24.482Z</time></trkpt><trkpt lat="45.452975" lon="11.5318133"><ele>308.0</ele><time>2026-04-02T09:16:28.483Z</time></trkpt><trkpt lat="45.4529017" lon="11.531855"><ele>308.0</ele><time>2026-04-02T09:16:32.483Z</time></trkpt><trkpt lat="45.4528333" lon="11.53189"><ele>308.0</ele><time>2026-04-02T09:16:37.482Z</time></trkpt><trkpt lat="45.4527717" lon="11.5319333"><ele>308.0</ele><time>2026-04-02T09:16:42.482Z</time></trkpt><trkpt lat="45.4527083" lon="11.5319867"><ele>308.0</ele><time>2026-04-02T09:16:46.482Z</time></trkpt><trkpt lat="45.4526317" lon="11.5320083"><ele>308.57142857142856</ele><time>2026-04-02T09:16:50.483Z</time></trkpt><trkpt lat="45.4525617" lon="11.5320167"><ele>309.1428571428571</ele><time>2026-04-02T09:16:54.483Z</time></trkpt><trkpt lat="45.4524983" lon="11.5320367"><ele>309.7142857142857</ele><time>2026-04-02T09:16:57.482Z</time></trkpt><trkpt lat="45.4524217" lon="11.53202"><ele>310.2857142857143</ele><time>2026-04-02T09:17:01.482Z</time></trkpt><trkpt lat="45.452345" lon="11.5320383"><ele>310.85714285714283</ele><time>2026-04-02T09:17:05.482Z</time></trkpt><trkpt lat="45.4522683" lon="11.53205"><ele>311.42857142857144</ele><time>2026-04-02T09:17:09.482Z</time></trkpt><trkpt lat="45.4521933" lon="11.53207"><ele>312.0</ele><time>2026-04-02T09:17:14.482Z</time></trkpt><trkpt lat="45.45213" lon="11.5320867"><ele>314.0</ele><time>2026-04-02T09:17:18.482Z</time></trkpt><trkpt lat="45.4520667" lon="11.5320967"><ele>316.0</ele><time>2026-04-02T09:17:22.482Z</time></trkpt><trkpt lat="45.452" lon="11.5321133"><ele>318.0</ele><time>2026-04-02T09:17:26.482Z</time></trkpt><trkpt lat="45.451935" lon="11.532135"><ele>320.0</ele><time>2026-04-02T09:17:30.482Z</time></trkpt><trkpt lat="45.4518617" lon="11.5321583"><ele>322.0</ele><time>2026-04-02T09:17:35.483Z</time></trkpt><trkpt lat="45.4517967" lon="11.5321733"><ele>324.0</ele><time>2026-04-02T09:17:39.483Z</time></trkpt><trkpt lat="45.4517283" lon="11.5321867"><ele>326.0</ele><time>2026-04-02T09:17:43.482Z</time></trkpt><trkpt lat="45.4516533" lon="11.5321833"><ele>326.0</ele><time>2026-04-02T09:17:48.482Z</time></trkpt><trkpt lat="45.4515783" lon="11.5322033"><ele>326.0</ele><time>2026-04-02T09:17:53.482Z</time></trkpt><trkpt lat="45.4515083" lon="11.5322233"><ele>326.0</ele><time>2026-04-02T09:17:57.483Z</time></trkpt><trkpt lat="45.45143" lon="11.5322383"><ele>326.0</ele><time>2026-04-02T09:18:02.483Z</time></trkpt><trkpt lat="45.45136" lon="11.5322633"><ele>326.0</ele><time>2026-04-02T09:18:07.483Z</time></trkpt><trkpt lat="45.4512967" lon="11.532285"><ele>326.0</ele><time>2026-04-02T09:18:11.482Z</time></trkpt><trkpt lat="45.4512333" lon="11.5322933"><ele>326.0</ele><time>2026-04-02T09:18:15.482Z</time></trkpt><trkpt lat="45.451155" lon="11.5323083"><ele>327.7142857142857</ele><time>2026-04-02T09:18:20.482Z</time></trkpt><trkpt lat="45.4510867" lon="11.5323183"><ele>329.4285714285714</ele><time>2026-04-02T09:18:24.482Z</time></trkpt><trkpt lat="45.451015" lon="11.5323367"><ele>331.1428571428571</ele><time>2026-04-02T09:18:28.482Z</time></trkpt><trkpt lat="45.4509483" lon="11.53234"><ele>332.8571428571429</ele><time>2026-04-02T09:18:32.482Z</time></trkpt><trkpt lat="45.45088" lon="11.5323517"><ele>334.57142857142856</ele><time>2026-04-02T09:18:36.483Z</time></trkpt><trkpt lat="45.450805" lon="11.5323833"><ele>336.2857142857143</ele><time>2026-04-02T09:18:41.482Z</time></trkpt><trkpt lat="45.45074" lon="11.5323917"><ele>338.0</ele><time>2026-04-02T09:18:45.482Z</time></trkpt><trkpt lat="45.4506767" lon="11.5324033"><ele>338.0</ele><time>2026-04-02T09:18:49.482Z</time></trkpt><trkpt lat="45.4505983" lon="11.532425"><ele>338.0</ele><time>2026-04-02T09:18:54.483Z</time></trkpt><trkpt lat="45.4505317" lon="11.5324567"><ele>338.0</ele><time>2026-04-02T09:18:58.482Z</time></trkpt><trkpt lat="45.4504617" lon="11.53248"><ele>338.0</ele><time>2026-04-02T09:19:02.483Z</time></trkpt><trkpt lat="45.4503933" lon="11.5324933"><ele>338.0</ele><time>2026-04-02T09:19:06.482Z</time></trkpt><trkpt lat="45.45032" lon="11.5325067"><ele>338.0</ele><time>2026-04-02T09:19:10.482Z</time></trkpt><trkpt lat="45.4502567" lon="11.532515"><ele>338.0</ele><time>2026-04-02T09:19:14.482Z</time></trkpt><trkpt lat="45.450185" lon="11.5325367"><ele>339.0</ele><time>2026-04-02T09:19:18.483Z</time></trkpt><trkpt lat="45.450125" lon="11.5325733"><ele>340.0</ele><time>2026-04-02T09:19:22.482Z</time></trkpt><trkpt lat="45.45006" lon="11.5325833"><ele>341.0</ele><time>2026-04-02T09:19:26.482Z</time></trkpt><trkpt lat="45.4499833" lon="11.5325983"><ele>342.0</ele><time>2026-04-02T09:19:31.482Z</time></trkpt><trkpt lat="45.44992" lon="11.5325817"><ele>343.0</ele><time>2026-04-02T09:19:35.482Z</time></trkpt><trkpt lat="45.4498617" lon="11.532535"><ele>344.0</ele><time>2026-04-02T09:19:39.483Z</time></trkpt><trkpt lat="45.4498083" lon="11.53247"><ele>345.0</ele><time>2026-04-02T09:19:43.482Z</time></trkpt><trkpt lat="45.4497533" lon="11.5323867"><ele>345.0</ele><time>2026-04-02T09:19:47.483Z</time></trkpt><trkpt lat="45.4496867" lon="11.532315"><ele>345.0</ele><time>2026-04-02T09:19:51.482Z</time></trkpt><trkpt lat="45.4496333" lon="11.532255"><ele>345.0</ele><time>2026-04-02T09:19:54.482Z</time></trkpt><trkpt lat="45.4495533" lon="11.5321967"><ele>345.0</ele><time>2026-04-02T09:19:57.483Z</time></trkpt><trkpt lat="45.4494917" lon="11.5321633"><ele>345.0</ele><time>2026-04-02T09:19:59.482Z</time></trkpt><trkpt lat="45.4494033" lon="11.53213"><ele>345.0</ele><time>2026-04-02T09:20:02.482Z</time></trkpt><trkpt lat="45.449325" lon="11.5321033"><ele>345.0</ele><time>2026-04-02T09:20:05.482Z</time></trkpt><trkpt lat="45.4492533" lon="11.532075"><ele>345.0</ele><time>2026-04-02T09:20:08.482Z</time></trkpt><trkpt lat="45.4491883" lon="11.5320233"><ele>345.0</ele><time>2026-04-02T09:20:12.482Z</time></trkpt><trkpt lat="45.4491333" lon="11.531945"><ele>345.0</ele><time>2026-04-02T09:20:16.482Z</time></trkpt><trkpt lat="45.4490933" lon="11.5318667"><ele>345.0</ele><time>2026-04-02T09:20:19.482Z</time></trkpt><trkpt lat="45.4490467" lon="11.53179"><ele>345.0</ele><time>2026-04-02T09:20:22.482Z</time></trkpt><trkpt lat="45.44899" lon="11.5317183"><ele>345.0</ele><time>2026-04-02T09:20:25.483Z</time></trkpt><trkpt lat="45.4489383" lon="11.5316417"><ele>345.0</ele><time>2026-04-02T09:20:28.482Z</time></trkpt><trkpt lat="45.448895" lon="11.5315333"><ele>345.0</ele><time>2026-04-02T09:20:31.483Z</time></trkpt><trkpt lat="45.4488733" lon="11.5314367"><ele>345.0</ele><time>2026-04-02T09:20:33.482Z</time></trkpt><trkpt lat="45.448845" lon="11.5313167"><ele>345.0</ele><time>2026-04-02T09:20:36.482Z</time></trkpt><trkpt lat="45.448825" lon="11.531205"><ele>345.0</ele><time>2026-04-02T09:20:39.483Z</time></trkpt><trkpt lat="45.4488217" lon="11.5311083"><ele>345.0</ele><time>2026-04-02T09:20:42.483Z</time></trkpt><trkpt lat="45.44879" lon="11.5309567"><ele>344.6666666666667</ele><time>2026-04-02T09:22:40.482Z</time></trkpt><trkpt lat="45.4487433" lon="11.5308933"><ele>344.3333333333333</ele><time>2026-04-02T09:22:43.482Z</time></trkpt><trkpt lat="45.4486767" lon="11.5308483"><ele>344.0</ele><time>2026-04-02T09:22:46.482Z</time></trkpt><trkpt lat="45.44861" lon="11.5308233"><ele>343.66666666666663</ele><time>2026-04-02T09:22:48.482Z</time></trkpt><trkpt lat="45.4485317" lon="11.53082"><ele>343.3333333333333</ele><time>2026-04-02T09:22:50.482Z</time></trkpt><trkpt lat="45.4484433" lon="11.5308117"><ele>343.0</ele><time>2026-04-02T09:22:52.482Z</time></trkpt><trkpt lat="45.4483433" lon="11.5307933"><ele>343.0</ele><time>2026-04-02T09:22:54.482Z</time></trkpt><trkpt lat="45.4482483" lon="11.53077"><ele>343.0</ele><time>2026-04-02T09:22:56.482Z</time></trkpt><trkpt lat="45.4481683" lon="11.530755"><ele>343.0</ele><time>2026-04-02T09:22:58.483Z</time></trkpt><trkpt lat="45.4480917" lon="11.53074"><ele>343.0</ele><time>2026-04-02T09:23:01.483Z</time></trkpt><trkpt lat="45.4480267" lon="11.5307267"><ele>343.0</ele><time>2026-04-02T09:23:05.482Z</time></trkpt><trkpt lat="45.4479567" lon="11.530725"><ele>343.0</ele><time>2026-04-02T09:23:17.482Z</time></trkpt><trkpt lat="45.4478683" lon="11.5307083"><ele>344.5</ele><time>2026-04-02T09:23:20.483Z</time></trkpt><trkpt lat="45.4478033" lon="11.530705"><ele>346.0</ele><time>2026-04-02T09:23:23.482Z</time></trkpt><trkpt lat="45.44774" lon="11.53069"><ele>347.5</ele><time>2026-04-02T09:23:26.482Z</time></trkpt><trkpt lat="45.447665" lon="11.5306383"><ele>349.0</ele><time>2026-04-02T09:23:29.483Z</time></trkpt><trkpt lat="45.4476" lon="11.5305767"><ele>350.5</ele><time>2026-04-02T09:23:32.483Z</time></trkpt><trkpt lat="45.44753" lon="11.5305017"><ele>352.0</ele><time>2026-04-02T09:23:35.482Z</time></trkpt><trkpt lat="45.4474783" lon="11.5303933"><ele>350.66666666666663</ele><time>2026-04-02T09:23:38.482Z</time></trkpt><trkpt lat="45.447425" lon="11.5302867"><ele>349.3333333333333</ele><time>2026-04-02T09:23:41.482Z</time></trkpt><trkpt lat="45.4473633" lon="11.5302667"><ele>348.0</ele><time>2026-04-02T09:23:43.482Z</time></trkpt><trkpt lat="45.4472933" lon="11.5302433"><ele>346.6666666666667</ele><time>2026-04-02T09:23:46.482Z</time></trkpt><trkpt lat="45.4472167" lon="11.5302317"><ele>345.33333333333337</ele><time>2026-04-02T09:23:49.482Z</time></trkpt><trkpt lat="45.4471433" lon="11.5301883"><ele>344.0</ele><time>2026-04-02T09:23:52.482Z</time></trkpt><trkpt lat="45.4470667" lon="11.5301567"><ele>344.0</ele><time>2026-04-02T09:23:55.482Z</time></trkpt><trkpt lat="45.4469817" lon="11.5301383"><ele>344.0</ele><time>2026-04-02T09:23:58.482Z</time></trkpt><trkpt lat="45.4469017" lon="11.530105"><ele>344.0</ele><time>2026-04-02T09:24:01.483Z</time></trkpt><trkpt lat="45.4468283" lon="11.5300733"><ele>344.0</ele><time>2026-04-02T09:24:04.482Z</time></trkpt><trkpt lat="45.44677" lon="11.5299917"><ele>344.0</ele><time>2026-04-02T09:24:08.482Z</time></trkpt><trkpt lat="45.44671" lon="11.52991"><ele>344.0</ele><time>2026-04-02T09:24:11.482Z</time></trkpt><trkpt lat="45.446635" lon="11.529865"><ele>344.00000000000006</ele><time>2026-04-02T09:24:15.482Z</time></trkpt><trkpt lat="45.446565" lon="11.5299117"><ele>344.0</ele><time>2026-04-02T09:24:19.482Z</time></trkpt><trkpt lat="45.446515" lon="11.529985"><ele>344.0</ele><time>2026-04-02T09:24:23.482Z</time></trkpt><trkpt lat="45.4464783" lon="11.530065"><ele>344.0</ele><time>2026-04-02T09:24:28.482Z</time></trkpt><trkpt lat="45.446425" lon="11.5301283"><ele>344.0</ele><time>2026-04-02T09:24:33.482Z</time></trkpt><trkpt lat="45.4463733" lon="11.5301917"><ele>344.00000000000006</ele><time>2026-04-02T09:24:41.483Z</time></trkpt><trkpt lat="45.4463467" lon="11.5302983"><ele>344.0</ele><time>2026-04-02T09:24:46.483Z</time></trkpt><trkpt lat="45.4462967" lon="11.530365"><ele>347.00000000000006</ele><time>2026-04-02T09:24:51.483Z</time></trkpt><trkpt lat="45.446245" lon="11.5304283"><ele>350.0</ele><time>2026-04-02T09:24:57.482Z</time></trkpt><trkpt lat="45.4462133" lon="11.5305133"><ele>353.0</ele><time>2026-04-02T09:25:03.482Z</time></trkpt><trkpt lat="45.4461667" lon="11.5305883"><ele>356.0</ele><time>2026-04-02T09:25:08.482Z</time></trkpt><trkpt lat="45.4461" lon="11.530655"><ele>359.0</ele><time>2026-04-02T09:25:12.482Z</time></trkpt><trkpt lat="45.4460583" lon="11.5307417"><ele>362.00000000000006</ele><time>2026-04-02T09:25:17.482Z</time></trkpt><trkpt lat="45.446025" lon="11.5308317"><ele>365.0</ele><time>2026-04-02T09:25:23.482Z</time></trkpt><trkpt lat="45.4460083" lon="11.5309317"><ele>365.00000000000006</ele><time>2026-04-02T09:25:29.482Z</time></trkpt><trkpt lat="45.4459883" lon="11.5310267"><ele>365.0</ele><time>2026-04-02T09:25:34.482Z</time></trkpt><trkpt lat="45.44598" lon="11.531135"><ele>365.0</ele><time>2026-04-02T09:25:40.482Z</time></trkpt><trkpt lat="45.44597" lon="11.5312367"><ele>365.0</ele><time>2026-04-02T09:25:45.483Z</time></trkpt><trkpt lat="45.445955" lon="11.5313317"><ele>365.0</ele><time>2026-04-02T09:25:50.482Z</time></trkpt><trkpt lat="45.445965" lon="11.53144"><ele>365.00000000000006</ele><time>2026-04-02T09:25:54.483Z</time></trkpt><trkpt lat="45.4459667" lon="11.531535"><ele>365.0</ele><time>2026-04-02T09:26:00.482Z</time></trkpt><trkpt lat="45.44591" lon="11.5314583"><ele>365.00000000000006</ele><time>2026-04-02T09:26:21.482Z</time></trkpt><trkpt lat="45.445915" lon="11.5313683"><ele>365.0</ele><time>2026-04-02T09:26:25.482Z</time></trkpt><trkpt lat="45.445935" lon="11.5312733"><ele>365.0</ele><time>2026-04-02T09:26:29.482Z</time></trkpt><trkpt lat="45.4459567" lon="11.53117"><ele>365.0</ele><time>2026-04-02T09:26:34.483Z</time></trkpt><trkpt lat="45.4459667" lon="11.53106"><ele>365.0</ele><time>2026-04-02T09:26:37.483Z</time></trkpt><trkpt lat="45.4459717" lon="11.53096"><ele>365.00000000000006</ele><time>2026-04-02T09:26:40.482Z</time></trkpt><trkpt lat="45.4459583" lon="11.5308717"><ele>365.0</ele><time>2026-04-02T09:26:45.482Z</time></trkpt><trkpt lat="45.4458933" lon="11.53091"><ele>365.00000000000006</ele><time>2026-04-02T09:27:06.483Z</time></trkpt><trkpt lat="45.445845" lon="11.5309783"><ele>365.0</ele><time>2026-04-02T09:27:11.483Z</time></trkpt><trkpt lat="45.4457833" lon="11.5310267"><ele>365.0</ele><time>2026-04-02T09:27:15.482Z</time></trkpt><trkpt lat="45.44572" lon="11.5310667"><ele>365.0</ele><time>2026-04-02T09:27:18.482Z</time></trkpt><trkpt lat="45.44566" lon="11.531115"><ele>365.0</ele><time>2026-04-02T09:27:21.482Z</time></trkpt><trkpt lat="45.44561" lon="11.5311717"><ele>365.00000000000006</ele><time>2026-04-02T09:27:24.482Z</time></trkpt><trkpt lat="45.4455583" lon="11.5312583"><ele>365.0</ele><time>2026-04-02T09:27:28.482Z</time></trkpt><trkpt lat="45.4454983" lon="11.5313217"><ele>367.5714285714286</ele><time>2026-04-02T09:27:32.482Z</time></trkpt><trkpt lat="45.4454317" lon="11.5313717"><ele>370.14285714285717</ele><time>2026-04-02T09:27:36.482Z</time></trkpt><trkpt lat="45.4453517" lon="11.5313867"><ele>372.7142857142857</ele><time>2026-04-02T09:27:40.482Z</time></trkpt><trkpt lat="45.4452883" lon="11.5314117"><ele>375.28571428571433</ele><time>2026-04-02T09:27:43.482Z</time></trkpt><trkpt lat="45.4452233" lon="11.5314267"><ele>377.85714285714283</ele><time>2026-04-02T09:27:46.482Z</time></trkpt><trkpt lat="45.44514" lon="11.5314367"><ele>380.42857142857144</ele><time>2026-04-02T09:27:50.483Z</time></trkpt><trkpt lat="45.445075" lon="11.531445"><ele>383.0</ele><time>2026-04-02T09:27:53.482Z</time></trkpt><trkpt lat="45.4449967" lon="11.5314533"><ele>383.0</ele><time>2026-04-02T09:27:57.482Z</time></trkpt><trkpt lat="45.44493" lon="11.5314567"><ele>383.0</ele><time>2026-04-02T09:28:00.483Z</time></trkpt><trkpt lat="45.4448583" lon="11.5314817"><ele>383.0</ele><time>2026-04-02T09:28:03.482Z</time></trkpt><trkpt lat="45.4447783" lon="11.5314917"><ele>383.0</ele><time>2026-04-02T09:28:06.482Z</time></trkpt><trkpt lat="45.4447117" lon="11.5315467"><ele>383.0</ele><time>2026-04-02T09:28:09.482Z</time></trkpt><trkpt lat="45.444655" lon="11.531605"><ele>383.0</ele><time>2026-04-02T09:28:12.482Z</time></trkpt><trkpt lat="45.4446033" lon="11.5316567"><ele>383.0</ele><time>2026-04-02T09:28:15.482Z</time></trkpt><trkpt lat="45.4445483" lon="11.5317517"><ele>382.1428571428571</ele><time>2026-04-02T09:28:18.482Z</time></trkpt><trkpt lat="45.4444967" lon="11.531805"><ele>381.2857142857143</ele><time>2026-04-02T09:28:20.482Z</time></trkpt><trkpt lat="45.444415" lon="11.5318383"><ele>380.42857142857144</ele><time>2026-04-02T09:28:23.482Z</time></trkpt><trkpt lat="45.44434" lon="11.5318883"><ele>379.57142857142856</ele><time>2026-04-02T09:28:27.482Z</time></trkpt><trkpt lat="45.44428" lon="11.5319283"><ele>378.7142857142857</ele><time>2026-04-02T09:28:30.483Z</time></trkpt><trkpt lat="45.4442183" lon="11.5319633"><ele>377.85714285714283</ele><time>2026-04-02T09:28:33.482Z</time></trkpt><trkpt lat="45.4441533" lon="11.53199"><ele>377.0</ele><time>2026-04-02T09:28:37.482Z</time></trkpt><trkpt lat="45.44408" lon="11.5319933"><ele>377.0</ele><time>2026-04-02T09:28:40.482Z</time></trkpt><trkpt lat="45.44401" lon="11.531975"><ele>377.0</ele><time>2026-04-02T09:28:43.482Z</time></trkpt><trkpt lat="45.443925" lon="11.531965"><ele>377.0</ele><time>2026-04-02T09:28:47.483Z</time></trkpt><trkpt lat="45.4438483" lon="11.531955"><ele>377.0</ele><time>2026-04-02T09:28:50.482Z</time></trkpt><trkpt lat="45.443775" lon="11.5319317"><ele>377.0</ele><time>2026-04-02T09:28:53.482Z</time></trkpt><trkpt lat="45.4436967" lon="11.531915"><ele>377.0</ele><time>2026-04-02T09:28:56.482Z</time></trkpt><trkpt lat="45.44363" lon="11.531905"><ele>376.83333333333337</ele><time>2026-04-02T09:28:59.482Z</time></trkpt><trkpt lat="45.4435633" lon="11.531905"><ele>376.6666666666667</ele><time>2026-04-02T09:29:02.482Z</time></trkpt><trkpt lat="45.4434867" lon="11.5319067"><ele>376.5</ele><time>2026-04-02T09:29:06.483Z</time></trkpt><trkpt lat="45.443415" lon="11.53191"><ele>376.3333333333333</ele><time>2026-04-02T09:29:09.482Z</time></trkpt><trkpt lat="45.4433333" lon="11.5319133"><ele>376.16666666666663</ele><time>2026-04-02T09:29:12.482Z</time></trkpt><trkpt lat="45.4432583" lon="11.531935"><ele>376.0</ele><time>2026-04-02T09:29:15.482Z</time></trkpt><trkpt lat="45.443185" lon="11.53198"><ele>376.0</ele><time>2026-04-02T09:29:19.482Z</time></trkpt><trkpt lat="45.4431167" lon="11.53202"><ele>376.0</ele><time>2026-04-02T09:29:22.482Z</time></trkpt><trkpt lat="45.4430283" lon="11.5320233"><ele>376.0</ele><time>2026-04-02T09:29:25.482Z</time></trkpt><trkpt lat="45.4429417" lon="11.531995"><ele>376.0</ele><time>2026-04-02T09:29:27.482Z</time></trkpt><trkpt lat="45.4428417" lon="11.5319733"><ele>376.0</ele><time>2026-04-02T09:29:29.482Z</time></trkpt><trkpt lat="45.442745" lon="11.5319683"><ele>376.0</ele><time>2026-04-02T09:29:31.482Z</time></trkpt><trkpt lat="45.4426617" lon="11.5319467"><ele>377.0</ele><time>2026-04-02T09:29:34.482Z</time></trkpt><trkpt lat="45.4425967" lon="11.53194"><ele>378.0</ele><time>2026-04-02T09:29:38.482Z</time></trkpt><trkpt lat="45.4425333" lon="11.5319183"><ele>379.0</ele><time>2026-04-02T09:29:41.482Z</time></trkpt><trkpt lat="45.442465" lon="11.531915"><ele>380.0</ele><time>2026-04-02T09:29:44.482Z</time></trkpt><trkpt lat="45.4423933" lon="11.5319067"><ele>381.0</ele><time>2026-04-02T09:29:48.482Z</time></trkpt><trkpt lat="45.4423233" lon="11.531915"><ele>382.0</ele><time>2026-04-02T09:29:53.482Z</time></trkpt><trkpt lat="45.44226" lon="11.531915"><ele>383.0</ele><time>2026-04-02T09:29:58.482Z</time></trkpt><trkpt lat="45.4421967" lon="11.531905"><ele>385.1428571428571</ele><time>2026-04-02T09:30:02.482Z</time></trkpt><trkpt lat="45.4421233" lon="11.531895"><ele>387.2857142857143</ele><time>2026-04-02T09:30:07.483Z</time></trkpt><trkpt lat="45.442045" lon="11.5318967"><ele>389.42857142857144</ele><time>2026-04-02T09:30:13.482Z</time></trkpt><trkpt lat="45.4419817" lon="11.53191"><ele>391.57142857142856</ele><time>2026-04-02T09:30:17.482Z</time></trkpt><trkpt lat="45.44191" lon="11.53193"><ele>393.7142857142857</ele><time>2026-04-02T09:30:20.482Z</time></trkpt><trkpt lat="45.4418467" lon="11.5319483"><ele>395.85714285714283</ele><time>2026-04-02T09:30:24.482Z</time></trkpt><trkpt lat="45.4417717" lon="11.5319567"><ele>398.0</ele><time>2026-04-02T09:30:30.483Z</time></trkpt><trkpt lat="45.4417067" lon="11.5319867"><ele>397.99999999999994</ele><time>2026-04-02T09:30:35.482Z</time></trkpt><trkpt lat="45.4416383" lon="11.531985"><ele>398.0</ele><time>2026-04-02T09:30:39.483Z</time></trkpt><trkpt lat="45.44157" lon="11.5319967"><ele>398.0</ele><time>2026-04-02T09:30:43.482Z</time></trkpt><trkpt lat="45.4414967" lon="11.5320083"><ele>398.0</ele><time>2026-04-02T09:30:47.482Z</time></trkpt><trkpt lat="45.44142" lon="11.53199"><ele>398.0</ele><time>2026-04-02T09:30:52.482Z</time></trkpt><trkpt lat="45.441355" lon="11.5319833"><ele>397.99999999999994</ele><time>2026-04-02T09:30:56.483Z</time></trkpt><trkpt lat="45.4412783" lon="11.531995"><ele>398.0</ele><time>2026-04-02T09:31:00.482Z</time></trkpt><trkpt lat="45.4412017" lon="11.5319767"><ele>398.2857142857143</ele><time>2026-04-02T09:31:04.483Z</time></trkpt><trkpt lat="45.44115" lon="11.53191"><ele>398.57142857142856</ele><time>2026-04-02T09:31:08.482Z</time></trkpt><trkpt lat="45.4411033" lon="11.5318483"><ele>398.8571428571429</ele><time>2026-04-02T09:31:12.482Z</time></trkpt><trkpt lat="45.441065" lon="11.531765"><ele>399.1428571428571</ele><time>2026-04-02T09:31:17.482Z</time></trkpt><trkpt lat="45.4410367" lon="11.53166"><ele>399.42857142857144</ele><time>2026-04-02T09:31:21.482Z</time></trkpt><trkpt lat="45.4409983" lon="11.531565"><ele>399.7142857142857</ele><time>2026-04-02T09:31:24.482Z</time></trkpt><trkpt lat="45.440975" lon="11.5314617"><ele>400.0</ele><time>2026-04-02T09:31:27.482Z</time></trkpt><trkpt lat="45.4409133" lon="11.5313917"><ele>400.00000000000006</ele><time>2026-04-02T09:31:31.482Z</time></trkpt><trkpt lat="45.440855" lon="11.5313217"><ele>400.0</ele><time>2026-04-02T09:31:34.482Z</time></trkpt><trkpt lat="45.44081" lon="11.5312333"><ele>400.0</ele><time>2026-04-02T09:31:37.482Z</time></trkpt><trkpt lat="45.4407583" lon="11.531135"><ele>400.0</ele><time>2026-04-02T09:31:40.483Z</time></trkpt><trkpt lat="45.4407167" lon="11.5310467"><ele>400.00000000000006</ele><time>2026-04-02T09:31:43.483Z</time></trkpt><trkpt lat="45.4406567" lon="11.53096"><ele>400.0</ele><time>2026-04-02T09:31:46.483Z</time></trkpt><trkpt lat="45.4406433" lon="11.530865"><ele>400.1666666666667</ele><time>2026-04-02T09:31:49.482Z</time></trkpt><trkpt lat="45.4406233" lon="11.530755"><ele>400.33333333333337</ele><time>2026-04-02T09:31:53.483Z</time></trkpt><trkpt lat="45.4406067" lon="11.5306483"><ele>400.5</ele><time>2026-04-02T09:31:57.482Z</time></trkpt><trkpt lat="45.4406017" lon="11.530555"><ele>400.66666666666663</ele><time>2026-04-02T09:32:00.482Z</time></trkpt><trkpt lat="45.440585" lon="11.530445"><ele>400.8333333333333</ele><time>2026-04-02T09:32:03.483Z</time></trkpt><trkpt lat="45.4405633" lon="11.53034"><ele>401.0</ele><time>2026-04-02T09:32:07.482Z</time></trkpt><trkpt lat="45.44055" lon="11.530235"><ele>401.8333333333333</ele><time>2026-04-02T09:32:11.482Z</time></trkpt><trkpt lat="45.4405317" lon="11.5301333"><ele>402.66666666666663</ele><time>2026-04-02T09:32:15.482Z</time></trkpt><trkpt lat="45.4405333" lon="11.5300283"><ele>403.5</ele><time>2026-04-02T09:32:19.482Z</time></trkpt><trkpt lat="45.44054" lon="11.5299167"><ele>404.33333333333337</ele><time>2026-04-02T09:32:23.482Z</time></trkpt><trkpt lat="45.4405233" lon="11.529805"><ele>405.1666666666667</ele><time>2026-04-02T09:32:27.482Z</time></trkpt><trkpt lat="45.4404917" lon="11.5296983"><ele>406.0</ele><time>2026-04-02T09:32:31.482Z</time></trkpt><trkpt lat="45.4404383" lon="11.5296233"><ele>405.7142857142857</ele><time>2026-04-02T09:32:35.482Z</time></trkpt><trkpt lat="45.4403717" lon="11.52961"><ele>405.42857142857144</ele><time>2026-04-02T09:32:38.483Z</time></trkpt><trkpt lat="45.4403083" lon="11.5296117"><ele>405.1428571428571</ele><time>2026-04-02T09:32:40.482Z</time></trkpt><trkpt lat="45.44022" lon="11.5296033"><ele>404.8571428571429</ele><time>2026-04-02T09:32:43.482Z</time></trkpt><trkpt lat="45.4401567" lon="11.5295867"><ele>404.57142857142856</ele><time>2026-04-02T09:32:45.482Z</time></trkpt><trkpt lat="45.4400783" lon="11.5295717"><ele>404.2857142857143</ele><time>2026-04-02T09:32:48.482Z</time></trkpt><trkpt lat="45.440015" lon="11.5295533"><ele>404.0</ele><time>2026-04-02T09:32:51.483Z</time></trkpt><trkpt lat="45.4399467" lon="11.529525"><ele>404.0</ele><time>2026-04-02T09:32:54.483Z</time></trkpt><trkpt lat="45.4398733" lon="11.5295033"><ele>404.0</ele><time>2026-04-02T09:32:57.482Z</time></trkpt><trkpt lat="45.439795" lon="11.5295067"><ele>404.0</ele><time>2026-04-02T09:33:00.483Z</time></trkpt><trkpt lat="45.439725" lon="11.52951"><ele>404.0</ele><time>2026-04-02T09:33:02.483Z</time></trkpt><trkpt lat="45.4396617" lon="11.5295083"><ele>404.0</ele><time>2026-04-02T09:33:04.483Z</time></trkpt><trkpt lat="45.4395967" lon="11.5295017"><ele>404.0</ele><time>2026-04-02T09:33:06.483Z</time></trkpt><trkpt lat="45.4395283" lon="11.5294783"><ele>404.0</ele><time>2026-04-02T09:33:10.482Z</time></trkpt><trkpt lat="45.4394333" lon="11.5293867"><ele>403.8333333333333</ele><time>2026-04-02T09:33:30.482Z</time></trkpt><trkpt lat="45.4393667" lon="11.529325"><ele>403.66666666666663</ele><time>2026-04-02T09:33:35.482Z</time></trkpt><trkpt lat="45.4392883" lon="11.5292717"><ele>403.5</ele><time>2026-04-02T09:33:38.483Z</time></trkpt><trkpt lat="45.4392267" lon="11.5292317"><ele>403.33333333333337</ele><time>2026-04-02T09:33:40.482Z</time></trkpt><trkpt lat="45.4391633" lon="11.5291717"><ele>403.1666666666667</ele><time>2026-04-02T09:33:42.482Z</time></trkpt><trkpt lat="45.439095" lon="11.5291133"><ele>403.0</ele><time>2026-04-02T09:33:44.482Z</time></trkpt><trkpt lat="45.4390167" lon="11.5290617"><ele>403.00000000000006</ele><time>2026-04-02T09:33:46.482Z</time></trkpt><trkpt lat="45.4389417" lon="11.5289933"><ele>403.0</ele><time>2026-04-02T09:33:48.482Z</time></trkpt><trkpt lat="45.43889" lon="11.5289083"><ele>403.0</ele><time>2026-04-02T09:33:50.482Z</time></trkpt><trkpt lat="45.4388483" lon="11.5288133"><ele>403.0</ele><time>2026-04-02T09:33:53.482Z</time></trkpt><trkpt lat="45.4388133" lon="11.5287183"><ele>403.00000000000006</ele><time>2026-04-02T09:33:55.482Z</time></trkpt><trkpt lat="45.4387733" lon="11.5286417"><ele>403.0</ele><time>2026-04-02T09:33:58.482Z</time></trkpt><trkpt lat="45.4387333" lon="11.52856"><ele>404.5714285714286</ele><time>2026-04-02T09:34:01.482Z</time></trkpt><trkpt lat="45.4387067" lon="11.528475"><ele>406.1428571428571</ele><time>2026-04-02T09:34:05.482Z</time></trkpt><trkpt lat="45.4386767" lon="11.528395"><ele>407.7142857142857</ele><time>2026-04-02T09:34:09.482Z</time></trkpt><trkpt lat="45.43862" lon="11.528335"><ele>409.28571428571433</ele><time>2026-04-02T09:34:13.483Z</time></trkpt><trkpt lat="45.4385667" lon="11.52827"><ele>410.8571428571429</ele><time>2026-04-02T09:34:19.482Z</time></trkpt><trkpt lat="45.4385067" lon="11.52823"><ele>412.42857142857144</ele><time>2026-04-02T09:34:23.482Z</time></trkpt><trkpt lat="45.4384467" lon="11.5281483"><ele>414.0</ele><time>2026-04-02T09:34:27.482Z</time></trkpt><trkpt lat="45.438395" lon="11.528085"><ele>414.00000000000006</ele><time>2026-04-02T09:34:31.482Z</time></trkpt><trkpt lat="45.43835" lon="11.5280183"><ele>414.0</ele><time>2026-04-02T09:34:35.482Z</time></trkpt><trkpt lat="45.4383233" lon="11.5279233"><ele>414.0</ele><time>2026-04-02T09:34:39.482Z</time></trkpt><trkpt lat="45.4382983" lon="11.52783"><ele>414.0</ele><time>2026-04-02T09:34:43.482Z</time></trkpt><trkpt lat="45.4382633" lon="11.5277267"><ele>414.0</ele><time>2026-04-02T09:34:47.482Z</time></trkpt><trkpt lat="45.43823" lon="11.5276267"><ele>414.00000000000006</ele><time>2026-04-02T09:34:51.483Z</time></trkpt><trkpt lat="45.43822" lon="11.527535"><ele>414.0</ele><time>2026-04-02T09:34:55.483Z</time></trkpt><trkpt lat="45.4382117" lon="11.527425"><ele>414.5</ele><time>2026-04-02T09:34:58.482Z</time></trkpt><trkpt lat="45.43821" lon="11.5272967"><ele>415.0</ele><time>2026-04-02T09:35:01.482Z</time></trkpt><trkpt lat="45.4381783" lon="11.5271667"><ele>415.5</ele><time>2026-04-02T09:35:04.483Z</time></trkpt><trkpt lat="45.4381433" lon="11.5270767"><ele>416.0</ele><time>2026-04-02T09:35:06.482Z</time></trkpt><trkpt lat="45.4381067" lon="11.5269883"><ele>416.5</ele><time>2026-04-02T09:35:08.483Z</time></trkpt><trkpt lat="45.4380683" lon="11.5268867"><ele>417.0</ele><time>2026-04-02T09:35:10.483Z</time></trkpt><trkpt lat="45.43805" lon="11.52679"><ele>417.1666666666667</ele><time>2026-04-02T09:35:12.482Z</time></trkpt><trkpt lat="45.4380333" lon="11.52666"><ele>417.33333333333337</ele><time>2026-04-02T09:35:14.483Z</time></trkpt><trkpt lat="45.43805" lon="11.5265483"><ele>417.5</ele><time>2026-04-02T09:35:16.482Z</time></trkpt><trkpt lat="45.43809" lon="11.5264533"><ele>417.6666666666667</ele><time>2026-04-02T09:35:18.483Z</time></trkpt><trkpt lat="45.43813" lon="11.5263833"><ele>417.83333333333337</ele><time>2026-04-02T09:35:20.483Z</time></trkpt><trkpt lat="45.4381567" lon="11.5262717"><ele>418.0</ele><time>2026-04-02T09:35:22.482Z</time></trkpt><trkpt lat="45.4381917" lon="11.526185"><ele>416.83333333333337</ele><time>2026-04-02T09:35:24.482Z</time></trkpt><trkpt lat="45.4382317" lon="11.5261017"><ele>415.6666666666667</ele><time>2026-04-02T09:35:26.483Z</time></trkpt><trkpt lat="45.4382633" lon="11.525995"><ele>414.5</ele><time>2026-04-02T09:35:28.482Z</time></trkpt><trkpt lat="45.438285" lon="11.52587"><ele>413.33333333333337</ele><time>2026-04-02T09:35:30.482Z</time></trkpt><trkpt lat="45.4382817" lon="11.5257467"><ele>412.1666666666667</ele><time>2026-04-02T09:35:32.483Z</time></trkpt><trkpt lat="45.43825" lon="11.5256233"><ele>411.0</ele><time>2026-04-02T09:35:34.482Z</time></trkpt><trkpt lat="45.4381983" lon="11.5255417"><ele>411.0</ele><time>2026-04-02T09:35:36.482Z</time></trkpt><trkpt lat="45.4381317" lon="11.52555"><ele>411.0</ele><time>2026-04-02T09:35:38.482Z</time></trkpt><trkpt lat="45.4380483" lon="11.525565"><ele>411.0</ele><time>2026-04-02T09:35:40.482Z</time></trkpt><trkpt lat="45.4379467" lon="11.5255917"><ele>411.0</ele><time>2026-04-02T09:35:42.483Z</time></trkpt><trkpt lat="45.4378633" lon="11.5256283"><ele>411.0</ele><time>2026-04-02T09:35:44.482Z</time></trkpt><trkpt lat="45.4377817" lon="11.5256617"><ele>411.0</ele><time>2026-04-02T09:35:46.483Z</time></trkpt><trkpt lat="45.43771" lon="11.52569"><ele>410.0</ele><time>2026-04-02T09:35:48.482Z</time></trkpt><trkpt lat="45.4376467" lon="11.5257033"><ele>409.0</ele><time>2026-04-02T09:35:50.482Z</time></trkpt><trkpt lat="45.4375583" lon="11.5257167"><ele>408.0</ele><time>2026-04-02T09:35:53.482Z</time></trkpt><trkpt lat="45.4374717" lon="11.5257133"><ele>407.0</ele><time>2026-04-02T09:35:56.482Z</time></trkpt><trkpt lat="45.4374033" lon="11.5257033"><ele>406.0</ele><time>2026-04-02T09:35:59.482Z</time></trkpt><trkpt lat="45.437315" lon="11.5256867"><ele>405.0</ele><time>2026-04-02T09:36:02.482Z</time></trkpt><trkpt lat="45.437245" lon="11.525715"><ele>405.0</ele><time>2026-04-02T09:36:04.482Z</time></trkpt><trkpt lat="45.4371767" lon="11.5257683"><ele>405.0</ele><time>2026-04-02T09:36:06.482Z</time></trkpt><trkpt lat="45.4371117" lon="11.525835"><ele>405.0</ele><time>2026-04-02T09:36:08.483Z</time></trkpt><trkpt lat="45.43704" lon="11.5259333"><ele>405.0</ele><time>2026-04-02T09:36:10.482Z</time></trkpt><trkpt lat="45.436975" lon="11.5260367"><ele>405.0</ele><time>2026-04-02T09:36:12.483Z</time></trkpt><trkpt lat="45.4369083" lon="11.5261117"><ele>405.0</ele><time>2026-04-02T09:36:14.482Z</time></trkpt><trkpt lat="45.4368483" lon="11.526175"><ele>406.5</ele><time>2026-04-02T09:36:16.482Z</time></trkpt><trkpt lat="45.4367833" lon="11.5262367"><ele>408.0</ele><time>2026-04-02T09:36:18.482Z</time></trkpt><trkpt lat="45.43672" lon="11.52629"><ele>409.5</ele><time>2026-04-02T09:36:20.482Z</time></trkpt><trkpt lat="45.4366433" lon="11.52632"><ele>411.0</ele><time>2026-04-02T09:36:22.482Z</time></trkpt><trkpt lat="45.4365567" lon="11.52633"><ele>412.5</ele><time>2026-04-02T09:36:24.482Z</time></trkpt><trkpt lat="45.436465" lon="11.5263217"><ele>414.0</ele><time>2026-04-02T09:36:26.482Z</time></trkpt><trkpt lat="45.4363733" lon="11.526315"><ele>412.0</ele><time>2026-04-02T09:36:28.482Z</time></trkpt><trkpt lat="45.4362933" lon="11.5262983"><ele>410.0</ele><time>2026-04-02T09:36:30.482Z</time></trkpt><trkpt lat="45.43622" lon="11.5262833"><ele>408.0</ele><time>2026-04-02T09:36:32.482Z</time></trkpt><trkpt lat="45.4361567" lon="11.52627"><ele>406.0</ele><time>2026-04-02T09:36:34.482Z</time></trkpt><trkpt lat="45.436075" lon="11.52629"><ele>404.0</ele><time>2026-04-02T09:36:37.482Z</time></trkpt><trkpt lat="45.4359883" lon="11.5263317"><ele>402.0</ele><time>2026-04-02T09:36:40.483Z</time></trkpt><trkpt lat="45.4359217" lon="11.52639"><ele>402.0</ele><time>2026-04-02T09:36:42.482Z</time></trkpt><trkpt lat="45.435845" lon="11.5264767"><ele>402.0</ele><time>2026-04-02T09:36:44.483Z</time></trkpt><trkpt lat="45.4357717" lon="11.5265633"><ele>402.0</ele><time>2026-04-02T09:36:46.482Z</time></trkpt><trkpt lat="45.4356983" lon="11.52665"><ele>402.0</ele><time>2026-04-02T09:36:48.482Z</time></trkpt><trkpt lat="45.4356517" lon="11.526735"><ele>402.0</ele><time>2026-04-02T09:36:50.482Z</time></trkpt><trkpt lat="45.4356117" lon="11.5268217"><ele>402.0</ele><time>2026-04-02T09:36:52.482Z</time></trkpt><trkpt lat="45.4355683" lon="11.5268967"><ele>402.0</ele><time>2026-04-02T09:36:54.482Z</time></trkpt><trkpt lat="45.4355167" lon="11.5270017"><ele>402.0</ele><time>2026-04-02T09:36:57.482Z</time></trkpt><trkpt lat="45.435465" lon="11.5270717"><ele>402.0</ele><time>2026-04-02T09:36:59.482Z</time></trkpt><trkpt lat="45.4353983" lon="11.5271517"><ele>402.0</ele><time>2026-04-02T09:37:02.482Z</time></trkpt><trkpt lat="45.4353567" lon="11.52722"><ele>402.0</ele><time>2026-04-02T09:37:04.482Z</time></trkpt><trkpt lat="45.4353083" lon="11.5272867"><ele>402.0</ele><time>2026-04-02T09:37:06.482Z</time></trkpt><trkpt lat="45.4352367" lon="11.5273767"><ele>400.8</ele><time>2026-04-02T09:37:09.482Z</time></trkpt><trkpt lat="45.43518" lon="11.5274317"><ele>399.6</ele><time>2026-04-02T09:37:11.483Z</time></trkpt><trkpt lat="45.4351" lon="11.5274867"><ele>398.40000000000003</ele><time>2026-04-02T09:37:13.482Z</time></trkpt><trkpt lat="45.4350067" lon="11.527535"><ele>397.20000000000005</ele><time>2026-04-02T09:37:15.482Z</time></trkpt><trkpt lat="45.4348967" lon="11.527585"><ele>396.0</ele><time>2026-04-02T09:37:17.482Z</time></trkpt><trkpt lat="45.434795" lon="11.5276233"><ele>396.0</ele><time>2026-04-02T09:37:19.482Z</time></trkpt><trkpt lat="45.4347233" lon="11.5276483"><ele>396.0</ele><time>2026-04-02T09:37:21.482Z</time></trkpt><trkpt lat="45.4346467" lon="11.5276867"><ele>396.0</ele><time>2026-04-02T09:37:24.482Z</time></trkpt><trkpt lat="45.4345817" lon="11.5277283"><ele>396.0</ele><time>2026-04-02T09:37:27.482Z</time></trkpt><trkpt lat="45.43452" lon="11.52775"><ele>396.0</ele><time>2026-04-02T09:37:29.482Z</time></trkpt><trkpt lat="45.43444" lon="11.5278033"><ele>396.0</ele><time>2026-04-02T09:37:31.482Z</time></trkpt><trkpt lat="45.4343767" lon="11.5278933"><ele>396.2857142857143</ele><time>2026-04-02T09:37:33.482Z</time></trkpt><trkpt lat="45.43433" lon="11.5279733"><ele>396.57142857142856</ele><time>2026-04-02T09:37:35.482Z</time></trkpt><trkpt lat="45.4342833" lon="11.52806"><ele>396.85714285714283</ele><time>2026-04-02T09:37:38.482Z</time></trkpt><trkpt lat="45.4342533" lon="11.528145"><ele>397.1428571428571</ele><time>2026-04-02T09:37:41.482Z</time></trkpt><trkpt lat="45.4342233" lon="11.5282467"><ele>397.42857142857144</ele><time>2026-04-02T09:37:44.482Z</time></trkpt><trkpt lat="45.4341767" lon="11.5283217"><ele>397.71428571428567</ele><time>2026-04-02T09:37:59.482Z</time></trkpt><trkpt lat="45.4341933" lon="11.52842"><ele>398.0</ele><time>2026-04-02T09:38:16.482Z</time></trkpt><trkpt lat="45.4341783" lon="11.5285117"><ele>397.99999999999994</ele><time>2026-04-02T09:38:19.482Z</time></trkpt><trkpt lat="45.4341317" lon="11.5286117"><ele>398.0</ele><time>2026-04-02T09:38:22.483Z</time></trkpt><trkpt lat="45.4340983" lon="11.5286933"><ele>398.0</ele><time>2026-04-02T09:38:25.482Z</time></trkpt><trkpt lat="45.4341683" lon="11.5286533"><ele>398.0</ele><time>2026-04-02T09:39:14.482Z</time></trkpt><trkpt lat="45.43418" lon="11.528545"><ele>397.99999999999994</ele><time>2026-04-02T09:39:18.482Z</time></trkpt><trkpt lat="45.4342017" lon="11.528435"><ele>398.0</ele><time>2026-04-02T09:39:22.482Z</time></trkpt><trkpt lat="45.43424" lon="11.528335"><ele>397.99999999999994</ele><time>2026-04-02T09:39:26.483Z</time></trkpt><trkpt lat="45.4342783" lon="11.5282383"><ele>398.0</ele><time>2026-04-02T09:39:30.482Z</time></trkpt><trkpt lat="45.43434" lon="11.5281517"><ele>398.0</ele><time>2026-04-02T09:39:34.482Z</time></trkpt><trkpt lat="45.434415" lon="11.5281217"><ele>398.0</ele><time>2026-04-02T09:39:39.482Z</time></trkpt><trkpt lat="45.4344617" lon="11.528195"><ele>398.0</ele><time>2026-04-02T09:39:44.483Z</time></trkpt><trkpt lat="45.43451" lon="11.5282617"><ele>397.99999999999994</ele><time>2026-04-02T09:39:49.482Z</time></trkpt><trkpt lat="45.4345683" lon="11.52831"><ele>398.0</ele><time>2026-04-02T09:39:54.482Z</time></trkpt><trkpt lat="45.43463" lon="11.5283383"><ele>397.99999999999994</ele><time>2026-04-02T09:39:58.482Z</time></trkpt><trkpt lat="45.4346767" lon="11.528425"><ele>398.0</ele><time>2026-04-02T09:40:02.483Z</time></trkpt><trkpt lat="45.43468" lon="11.52852"><ele>398.0</ele><time>2026-04-02T09:40:06.483Z</time></trkpt><trkpt lat="45.4346383" lon="11.52862"><ele>398.0</ele><time>2026-04-02T09:40:10.482Z</time></trkpt><trkpt lat="45.43458" lon="11.5286883"><ele>397.99999999999994</ele><time>2026-04-02T09:40:14.483Z</time></trkpt><trkpt lat="45.4344983" lon="11.5286583"><ele>398.0</ele><time>2026-04-02T09:40:18.482Z</time></trkpt><trkpt lat="45.4344167" lon="11.5286417"><ele>397.99999999999994</ele><time>2026-04-02T09:40:21.482Z</time></trkpt><trkpt lat="45.43435" lon="11.528665"><ele>398.0</ele><time>2026-04-02T09:40:24.482Z</time></trkpt><trkpt lat="45.434305" lon="11.5287317"><ele>398.0</ele><time>2026-04-02T09:40:27.482Z</time></trkpt><trkpt lat="45.4342483" lon="11.528805"><ele>398.0</ele><time>2026-04-02T09:40:30.482Z</time></trkpt><trkpt lat="45.434195" lon="11.5288767"><ele>398.0</ele><time>2026-04-02T09:40:32.483Z</time></trkpt><trkpt lat="45.4341267" lon="11.52894"><ele>397.99999999999994</ele><time>2026-04-02T09:40:34.482Z</time></trkpt><trkpt lat="45.4340583" lon="11.5289767"><ele>398.0</ele><time>2026-04-02T09:40:36.482Z</time></trkpt><trkpt lat="45.4339967" lon="11.5290017"><ele>397.99999999999994</ele><time>2026-04-02T09:40:38.482Z</time></trkpt><trkpt lat="45.4339167" lon="11.529035"><ele>398.0</ele><time>2026-04-02T09:40:41.482Z</time></trkpt><trkpt lat="45.4338433" lon="11.529045"><ele>398.0</ele><time>2026-04-02T09:40:45.483Z</time></trkpt><trkpt lat="45.433775" lon="11.5290417"><ele>398.0</ele><time>2026-04-02T09:40:49.482Z</time></trkpt><trkpt lat="45.4336983" lon="11.5290383"><ele>397.99999999999994</ele><time>2026-04-02T09:40:54.482Z</time></trkpt><trkpt lat="45.433615" lon="11.5290433"><ele>398.0</ele><time>2026-04-02T09:40:58.483Z</time></trkpt><trkpt lat="45.4335367" lon="11.5290367"><ele>398.0</ele><time>2026-04-02T09:41:01.482Z</time></trkpt><trkpt lat="45.4334683" lon="11.529015"><ele>398.0</ele><time>2026-04-02T09:41:04.482Z</time></trkpt><trkpt lat="45.4334" lon="11.52897"><ele>398.0</ele><time>2026-04-02T09:41:08.482Z</time></trkpt><trkpt lat="45.4333433" lon="11.528905"><ele>398.0</ele><time>2026-04-02T09:41:12.482Z</time></trkpt><trkpt lat="45.4333033" lon="11.528835"><ele>398.0</ele><time>2026-04-02T09:41:15.482Z</time></trkpt><trkpt lat="45.4331033" lon="11.5285933"><ele>398.3333333333333</ele><time>2026-04-02T09:41:26.482Z</time></trkpt><trkpt lat="45.433025" lon="11.5284917"><ele>398.66666666666663</ele><time>2026-04-02T09:41:30.482Z</time></trkpt><trkpt lat="45.4329717" lon="11.5284083"><ele>399.0</ele><time>2026-04-02T09:41:33.482Z</time></trkpt><trkpt lat="45.432925" lon="11.5283333"><ele>399.33333333333337</ele><time>2026-04-02T09:41:36.482Z</time></trkpt><trkpt lat="45.4328817" lon="11.5282583"><ele>399.6666666666667</ele><time>2026-04-02T09:41:40.482Z</time></trkpt><trkpt lat="45.43284" lon="11.5281817"><ele>400.0</ele><time>2026-04-02T09:41:44.482Z</time></trkpt><trkpt lat="45.4327817" lon="11.5281267"><ele>400.00000000000006</ele><time>2026-04-02T09:41:49.482Z</time></trkpt><trkpt lat="45.4327183" lon="11.528105"><ele>400.0</ele><time>2026-04-02T09:41:53.482Z</time></trkpt><trkpt lat="45.43264" lon="11.5280967"><ele>400.0</ele><time>2026-04-02T09:41:57.483Z</time></trkpt><trkpt lat="45.4325683" lon="11.5281267"><ele>400.0</ele><time>2026-04-02T09:42:00.482Z</time></trkpt><trkpt lat="45.43249" lon="11.5281433"><ele>400.00000000000006</ele><time>2026-04-02T09:42:03.482Z</time></trkpt><trkpt lat="45.432415" lon="11.5281483"><ele>400.0</ele><time>2026-04-02T09:42:06.482Z</time></trkpt><trkpt lat="45.432335" lon="11.5281283"><ele>400.00000000000006</ele><time>2026-04-02T09:42:10.483Z</time></trkpt><trkpt lat="45.4322783" lon="11.5280833"><ele>400.0</ele><time>2026-04-02T09:42:13.482Z</time></trkpt><trkpt lat="45.4322233" lon="11.5280317"><ele>400.0</ele><time>2026-04-02T09:42:16.483Z</time></trkpt><trkpt lat="45.432175" lon="11.5279417"><ele>400.0</ele><time>2026-04-02T09:42:20.482Z</time></trkpt><trkpt lat="45.4321367" lon="11.5278517"><ele>400.0</ele><time>2026-04-02T09:42:24.482Z</time></trkpt><trkpt lat="45.43212" lon="11.5277617"><ele>400.00000000000006</ele><time>2026-04-02T09:42:28.483Z</time></trkpt><trkpt lat="45.4321117" lon="11.5276617"><ele>400.0</ele><time>2026-04-02T09:42:32.482Z</time></trkpt><trkpt lat="45.4320767" lon="11.5275617"><ele>399.5714285714286</ele><time>2026-04-02T09:42:36.482Z</time></trkpt><trkpt lat="45.4320367" lon="11.52748"><ele>399.14285714285717</ele><time>2026-04-02T09:42:39.482Z</time></trkpt><trkpt lat="45.4319733" lon="11.5274033"><ele>398.7142857142857</ele><time>2026-04-02T09:42:42.482Z</time></trkpt><trkpt lat="45.43191" lon="11.5273617"><ele>398.28571428571433</ele><time>2026-04-02T09:42:46.483Z</time></trkpt><trkpt lat="45.4318367" lon="11.5273717"><ele>397.85714285714283</ele><time>2026-04-02T09:42:51.482Z</time></trkpt><trkpt lat="45.4317683" lon="11.527405"><ele>397.42857142857144</ele><time>2026-04-02T09:42:56.483Z</time></trkpt><trkpt lat="45.4317033" lon="11.52741"><ele>397.0</ele><time>2026-04-02T09:43:01.483Z</time></trkpt><trkpt lat="45.4316333" lon="11.5274183"><ele>397.0</ele><time>2026-04-02T09:43:07.483Z</time></trkpt><trkpt lat="45.4315633" lon="11.5274167"><ele>397.0</ele><time>2026-04-02T09:43:11.483Z</time></trkpt><trkpt lat="45.4315" lon="11.5273967"><ele>397.0</ele><time>2026-04-02T09:43:17.482Z</time></trkpt><trkpt lat="45.43156" lon="11.5274367"><ele>397.0</ele><time>2026-04-02T09:43:36.482Z</time></trkpt><trkpt lat="45.43163" lon="11.52742"><ele>397.0</ele><time>2026-04-02T09:43:39.483Z</time></trkpt><trkpt lat="45.431715" lon="11.5273967"><ele>397.0</ele><time>2026-04-02T09:43:42.483Z</time></trkpt><trkpt lat="45.4318" lon="11.52737"><ele>397.0</ele><time>2026-04-02T09:43:45.482Z</time></trkpt><trkpt lat="45.4318867" lon="11.5273617"><ele>397.0</ele><time>2026-04-02T09:43:48.483Z</time></trkpt><trkpt lat="45.4319633" lon="11.5273817"><ele>397.0</ele><time>2026-04-02T09:43:51.482Z</time></trkpt><trkpt lat="45.4320133" lon="11.527445"><ele>397.0</ele><time>2026-04-02T09:43:54.482Z</time></trkpt><trkpt lat="45.4320483" lon="11.5275383"><ele>397.0</ele><time>2026-04-02T09:43:58.482Z</time></trkpt><trkpt lat="45.4320833" lon="11.5276233"><ele>397.0</ele><time>2026-04-02T09:44:01.482Z</time></trkpt><trkpt lat="45.4321" lon="11.5277117"><ele>397.0</ele><time>2026-04-02T09:44:04.482Z</time></trkpt><trkpt lat="45.4321217" lon="11.527815"><ele>397.0</ele><time>2026-04-02T09:44:07.482Z</time></trkpt><trkpt lat="45.4321583" lon="11.5279333"><ele>397.50000000000006</ele><time>2026-04-02T09:44:10.482Z</time></trkpt><trkpt lat="45.432205" lon="11.528045"><ele>398.0</ele><time>2026-04-02T09:44:13.483Z</time></trkpt><trkpt lat="45.4322567" lon="11.5281333"><ele>398.5</ele><time>2026-04-02T09:44:16.482Z</time></trkpt><trkpt lat="45.4323183" lon="11.5281883"><ele>399.0</ele><time>2026-04-02T09:44:19.482Z</time></trkpt><trkpt lat="45.4323933" lon="11.5281933"><ele>399.50000000000006</ele><time>2026-04-02T09:44:22.482Z</time></trkpt><trkpt lat="45.432465" lon="11.5281783"><ele>400.0</ele><time>2026-04-02T09:44:25.482Z</time></trkpt><trkpt lat="45.4325317" lon="11.5281567"><ele>400.00000000000006</ele><time>2026-04-02T09:44:28.482Z</time></trkpt><trkpt lat="45.4326067" lon="11.5281283"><ele>400.0</ele><time>2026-04-02T09:44:31.482Z</time></trkpt><trkpt lat="45.432665" lon="11.5280867"><ele>400.0</ele><time>2026-04-02T09:44:34.482Z</time></trkpt><trkpt lat="45.4327283" lon="11.5281033"><ele>400.0</ele><time>2026-04-02T09:44:37.482Z</time></trkpt><trkpt lat="45.432795" lon="11.5281917"><ele>400.0</ele><time>2026-04-02T09:44:41.482Z</time></trkpt><trkpt lat="45.4328383" lon="11.5282633"><ele>400.00000000000006</ele><time>2026-04-02T09:44:43.483Z</time></trkpt><trkpt lat="45.4328917" lon="11.5283483"><ele>400.0</ele><time>2026-04-02T09:44:46.482Z</time></trkpt><trkpt lat="45.4329367" lon="11.52844"><ele>399.7142857142857</ele><time>2026-04-02T09:44:49.482Z</time></trkpt><trkpt lat="45.43299" lon="11.5285167"><ele>399.42857142857144</ele><time>2026-04-02T09:44:52.482Z</time></trkpt><trkpt lat="45.43304" lon="11.5285767"><ele>399.1428571428571</ele><time>2026-04-02T09:44:55.483Z</time></trkpt><trkpt lat="45.433095" lon="11.5286483"><ele>398.8571428571429</ele><time>2026-04-02T09:44:58.482Z</time></trkpt><trkpt lat="45.4331417" lon="11.5287133"><ele>398.57142857142856</ele><time>2026-04-02T09:45:01.482Z</time></trkpt><trkpt lat="45.433205" lon="11.5287533"><ele>398.2857142857143</ele><time>2026-04-02T09:45:05.482Z</time></trkpt><trkpt lat="45.4331667" lon="11.5286783"><ele>398.0</ele><time>2026-04-02T09:45:12.482Z</time></trkpt><trkpt lat="45.4331033" lon="11.5286217"><ele>398.3333333333333</ele><time>2026-04-02T09:45:15.483Z</time></trkpt><trkpt lat="45.4330383" lon="11.5285383"><ele>398.66666666666663</ele><time>2026-04-02T09:45:18.482Z</time></trkpt><trkpt lat="45.4329767" lon="11.5284517"><ele>399.0</ele><time>2026-04-02T09:45:21.482Z</time></trkpt><trkpt lat="45.43292" lon="11.52836"><ele>399.33333333333337</ele><time>2026-04-02T09:45:24.482Z</time></trkpt><trkpt lat="45.4328733" lon="11.528265"><ele>399.6666666666667</ele><time>2026-04-02T09:45:27.483Z</time></trkpt><trkpt lat="45.4328267" lon="11.5281783"><ele>400.0</ele><time>2026-04-02T09:45:30.483Z</time></trkpt><trkpt lat="45.43278" lon="11.5281117"><ele>400.00000000000006</ele><time>2026-04-02T09:45:33.482Z</time></trkpt><trkpt lat="45.4327017" lon="11.5280967"><ele>400.0</ele><time>2026-04-02T09:45:36.483Z</time></trkpt><trkpt lat="45.4326367" lon="11.5281083"><ele>400.0</ele><time>2026-04-02T09:45:38.482Z</time></trkpt><trkpt lat="45.432565" lon="11.5281367"><ele>400.0</ele><time>2026-04-02T09:45:40.482Z</time></trkpt><trkpt lat="45.4324883" lon="11.5281483"><ele>400.00000000000006</ele><time>2026-04-02T09:45:42.482Z</time></trkpt><trkpt lat="45.4324067" lon="11.528155"><ele>400.0</ele><time>2026-04-02T09:45:44.482Z</time></trkpt><trkpt lat="45.4323283" lon="11.52814"><ele>400.00000000000006</ele><time>2026-04-02T09:45:46.482Z</time></trkpt><trkpt lat="45.4322617" lon="11.5280983"><ele>400.0</ele><time>2026-04-02T09:45:48.482Z</time></trkpt><trkpt lat="45.4321817" lon="11.5280383"><ele>400.0</ele><time>2026-04-02T09:45:51.482Z</time></trkpt><trkpt lat="45.4321017" lon="11.5279983"><ele>400.0</ele><time>2026-04-02T09:45:54.482Z</time></trkpt><trkpt lat="45.43205" lon="11.52805"><ele>400.00000000000006</ele><time>2026-04-02T09:45:58.482Z</time></trkpt><trkpt lat="45.4320217" lon="11.5281517"><ele>400.0</ele><time>2026-04-02T09:46:12.482Z</time></trkpt><trkpt lat="45.432015" lon="11.528295"><ele>399.0</ele><time>2026-04-02T09:46:15.482Z</time></trkpt><trkpt lat="45.4320133" lon="11.528425"><ele>398.0</ele><time>2026-04-02T09:46:17.482Z</time></trkpt><trkpt lat="45.4320133" lon="11.5285433"><ele>397.0</ele><time>2026-04-02T09:46:19.483Z</time></trkpt><trkpt lat="45.4319983" lon="11.528675"><ele>396.0</ele><time>2026-04-02T09:46:21.482Z</time></trkpt><trkpt lat="45.43198" lon="11.52881"><ele>395.0</ele><time>2026-04-02T09:46:23.482Z</time></trkpt><trkpt lat="45.43196" lon="11.52895"><ele>393.99999999999994</ele><time>2026-04-02T09:46:25.482Z</time></trkpt><trkpt lat="45.4319433" lon="11.5290917"><ele>393.0</ele><time>2026-04-02T09:46:27.483Z</time></trkpt><trkpt lat="45.4319317" lon="11.5292167"><ele>392.0</ele><time>2026-04-02T09:46:29.482Z</time></trkpt><trkpt lat="45.4319167" lon="11.5293283"><ele>391.0</ele><time>2026-04-02T09:46:31.482Z</time></trkpt><trkpt lat="45.431885" lon="11.5294333"><ele>389.99999999999994</ele><time>2026-04-02T09:46:33.482Z</time></trkpt><trkpt lat="45.4318567" lon="11.5295283"><ele>389.0</ele><time>2026-04-02T09:46:35.482Z</time></trkpt><trkpt lat="45.4318167" lon="11.5296517"><ele>388.2</ele><time>2026-04-02T09:46:38.482Z</time></trkpt><trkpt lat="45.4318" lon="11.5297683"><ele>387.4</ele><time>2026-04-02T09:46:40.482Z</time></trkpt><trkpt lat="45.4317817" lon="11.5299183"><ele>386.6</ele><time>2026-04-02T09:46:42.482Z</time></trkpt><trkpt lat="45.4317683" lon="11.5300617"><ele>385.8</ele><time>2026-04-02T09:46:44.482Z</time></trkpt><trkpt lat="45.43175" lon="11.5301867"><ele>385.0</ele><time>2026-04-02T09:46:46.482Z</time></trkpt><trkpt lat="45.4317217" lon="11.5302917"><ele>385.00000000000006</ele><time>2026-04-02T09:46:48.482Z</time></trkpt><trkpt lat="45.431695" lon="11.530375"><ele>385.0</ele><time>2026-04-02T09:46:50.482Z</time></trkpt><trkpt lat="45.4316567" lon="11.53046"><ele>385.0</ele><time>2026-04-02T09:46:52.483Z</time></trkpt><trkpt lat="45.431625" lon="11.53058"><ele>385.0</ele><time>2026-04-02T09:46:54.482Z</time></trkpt><trkpt lat="45.43159" lon="11.53071"><ele>385.00000000000006</ele><time>2026-04-02T09:46:56.482Z</time></trkpt><trkpt lat="45.43156" lon="11.530835"><ele>385.0</ele><time>2026-04-02T09:46:58.482Z</time></trkpt><trkpt lat="45.43155" lon="11.530955"><ele>384.4</ele><time>2026-04-02T09:47:00.482Z</time></trkpt><trkpt lat="45.4315433" lon="11.5310817"><ele>383.8</ele><time>2026-04-02T09:47:02.483Z</time></trkpt><trkpt lat="45.4315417" lon="11.5312333"><ele>383.20000000000005</ele><time>2026-04-02T09:47:04.482Z</time></trkpt><trkpt lat="45.4315267" lon="11.5314133"><ele>382.6</ele><time>2026-04-02T09:47:06.482Z</time></trkpt><trkpt lat="45.431515" lon="11.53151"><ele>382.0</ele><time>2026-04-02T09:47:07.482Z</time></trkpt><trkpt lat="45.4315033" lon="11.531675"><ele>381.5</ele><time>2026-04-02T09:47:09.482Z</time></trkpt><trkpt lat="45.431485" lon="11.531765"><ele>381.0</ele><time>2026-04-02T09:47:10.482Z</time></trkpt><trkpt lat="45.431445" lon="11.5319217"><ele>380.5</ele><time>2026-04-02T09:47:12.482Z</time></trkpt><trkpt lat="45.4314083" lon="11.53205"><ele>380.0</ele><time>2026-04-02T09:47:14.482Z</time></trkpt><trkpt lat="45.4313783" lon="11.5321633"><ele>379.5</ele><time>2026-04-02T09:47:16.483Z</time></trkpt><trkpt lat="45.431345" lon="11.5322667"><ele>379.0</ele><time>2026-04-02T09:47:18.482Z</time></trkpt><trkpt lat="45.4313133" lon="11.53235"><ele>378.0</ele><time>2026-04-02T09:47:20.482Z</time></trkpt><trkpt lat="45.431275" lon="11.5324417"><ele>377.0</ele><time>2026-04-02T09:47:23.482Z</time></trkpt><trkpt lat="45.4312083" lon="11.5325117"><ele>376.0</ele><time>2026-04-02T09:47:27.482Z</time></trkpt><trkpt lat="45.4311483" lon="11.532545"><ele>375.0</ele><time>2026-04-02T09:47:29.483Z</time></trkpt><trkpt lat="45.43109" lon="11.5325867"><ele>374.0</ele><time>2026-04-02T09:47:31.483Z</time></trkpt><trkpt lat="45.43104" lon="11.5326433"><ele>373.0</ele><time>2026-04-02T09:47:33.482Z</time></trkpt><trkpt lat="45.4309433" lon="11.532685"><ele>373.0</ele><time>2026-04-02T09:47:35.482Z</time></trkpt><trkpt lat="45.43087" lon="11.53273"><ele>373.0</ele><time>2026-04-02T09:47:37.482Z</time></trkpt><trkpt lat="45.43079" lon="11.53278"><ele>373.0</ele><time>2026-04-02T09:47:39.482Z</time></trkpt><trkpt lat="45.430695" lon="11.532835"><ele>373.0</ele><time>2026-04-02T09:47:41.482Z</time></trkpt><trkpt lat="45.43061" lon="11.5328967"><ele>373.0</ele><time>2026-04-02T09:47:43.483Z</time></trkpt><trkpt lat="45.4305417" lon="11.5329533"><ele>373.0</ele><time>2026-04-02T09:47:45.482Z</time></trkpt><trkpt lat="45.4304683" lon="11.5329967"><ele>372.5</ele><time>2026-04-02T09:47:47.482Z</time></trkpt><trkpt lat="45.430405" lon="11.5330233"><ele>372.0</ele><time>2026-04-02T09:47:49.482Z</time></trkpt><trkpt lat="45.43033" lon="11.53306"><ele>371.5</ele><time>2026-04-02T09:47:52.482Z</time></trkpt><trkpt lat="45.43027" lon="11.5330933"><ele>371.0</ele><time>2026-04-02T09:47:54.482Z</time></trkpt><trkpt lat="45.430185" lon="11.5331683"><ele>370.5</ele><time>2026-04-02T09:47:57.482Z</time></trkpt><trkpt lat="45.430115" lon="11.5332133"><ele>370.0</ele><time>2026-04-02T09:47:59.482Z</time></trkpt><trkpt lat="45.4300417" lon="11.5332667"><ele>370.0</ele><time>2026-04-02T09:48:01.482Z</time></trkpt><trkpt lat="45.4299533" lon="11.5333283"><ele>370.0</ele><time>2026-04-02T09:48:03.483Z</time></trkpt><trkpt lat="45.4298633" lon="11.5333833"><ele>370.0</ele><time>2026-04-02T09:48:05.482Z</time></trkpt><trkpt lat="45.4297667" lon="11.5333933"><ele>370.0</ele><time>2026-04-02T09:48:07.482Z</time></trkpt><trkpt lat="45.4296717" lon="11.533365"><ele>370.0</ele><time>2026-04-02T09:48:09.482Z</time></trkpt><trkpt lat="45.4295833" lon="11.5333467"><ele>370.5</ele><time>2026-04-02T09:48:11.482Z</time></trkpt><trkpt lat="45.4294933" lon="11.533335"><ele>371.0</ele><time>2026-04-02T09:48:14.482Z</time></trkpt><trkpt lat="45.42942" lon="11.53336"><ele>371.5</ele><time>2026-04-02T09:48:17.482Z</time></trkpt><trkpt lat="45.4293583" lon="11.5333783"><ele>372.0</ele><time>2026-04-02T09:48:19.482Z</time></trkpt><trkpt lat="45.429275" lon="11.5334083"><ele>372.5</ele><time>2026-04-02T09:48:22.482Z</time></trkpt><trkpt lat="45.4292117" lon="11.53343"><ele>373.0</ele><time>2026-04-02T09:48:26.483Z</time></trkpt><trkpt lat="45.4292817" lon="11.5333617"><ele>373.0</ele><time>2026-04-02T09:48:45.482Z</time></trkpt><trkpt lat="45.4293633" lon="11.5333317"><ele>373.0</ele><time>2026-04-02T09:48:48.482Z</time></trkpt><trkpt lat="45.42943" lon="11.533325"><ele>373.0</ele><time>2026-04-02T09:48:50.482Z</time></trkpt><trkpt lat="45.4295183" lon="11.5333083"><ele>373.0</ele><time>2026-04-02T09:48:53.482Z</time></trkpt><trkpt lat="45.4295817" lon="11.5333267"><ele>373.0</ele><time>2026-04-02T09:48:55.483Z</time></trkpt><trkpt lat="45.42966" lon="11.533335"><ele>373.0</ele><time>2026-04-02T09:48:58.483Z</time></trkpt><trkpt lat="45.4297283" lon="11.5333833"><ele>372.5</ele><time>2026-04-02T09:49:01.482Z</time></trkpt><trkpt lat="45.4297917" lon="11.5334833"><ele>372.0</ele><time>2026-04-02T09:49:22.482Z</time></trkpt><trkpt lat="45.4298083" lon="11.5335817"><ele>371.5</ele><time>2026-04-02T09:49:27.483Z</time></trkpt><trkpt lat="45.42979" lon="11.5337267"><ele>371.0</ele><time>2026-04-02T09:51:02.482Z</time></trkpt><trkpt lat="45.4297733" lon="11.5338183"><ele>370.5</ele><time>2026-04-02T09:51:05.483Z</time></trkpt><trkpt lat="45.4297517" lon="11.5339233"><ele>370.0</ele><time>2026-04-02T09:51:08.482Z</time></trkpt><trkpt lat="45.429725" lon="11.5340333"><ele>371.0</ele><time>2026-04-02T09:51:11.482Z</time></trkpt><trkpt lat="45.4296967" lon="11.534145"><ele>372.0</ele><time>2026-04-02T09:51:14.482Z</time></trkpt><trkpt lat="45.4296667" lon="11.5342717"><ele>373.0</ele><time>2026-04-02T09:51:17.483Z</time></trkpt><trkpt lat="45.429625" lon="11.5343767"><ele>374.0</ele><time>2026-04-02T09:51:20.482Z</time></trkpt><trkpt lat="45.4295883" lon="11.53448"><ele>375.0</ele><time>2026-04-02T09:51:23.482Z</time></trkpt><trkpt lat="45.4295567" lon="11.53459"><ele>376.0</ele><time>2026-04-02T09:51:26.481Z</time></trkpt><trkpt lat="45.4295167" lon="11.5347183"><ele>373.3333333333333</ele><time>2026-04-02T09:51:29.481Z</time></trkpt><trkpt lat="45.42949" lon="11.5348083"><ele>370.66666666666663</ele><time>2026-04-02T09:51:31.481Z</time></trkpt><trkpt lat="45.4294517" lon="11.53492"><ele>368.0</ele><time>2026-04-02T09:51:34.481Z</time></trkpt><trkpt lat="45.4294233" lon="11.5350217"><ele>365.3333333333333</ele><time>2026-04-02T09:51:37.481Z</time></trkpt><trkpt lat="45.4294083" lon="11.5351333"><ele>362.6666666666667</ele><time>2026-04-02T09:51:40.481Z</time></trkpt><trkpt lat="45.4293833" lon="11.535235"><ele>360.0</ele><time>2026-04-02T09:51:47.481Z</time></trkpt><trkpt lat="45.4293617" lon="11.5353217"><ele>359.8333333333333</ele><time>2026-04-02T09:51:50.482Z</time></trkpt><trkpt lat="45.4293283" lon="11.53546"><ele>359.6666666666667</ele><time>2026-04-02T09:51:53.482Z</time></trkpt><trkpt lat="45.4293067" lon="11.5355683"><ele>359.5</ele><time>2026-04-02T09:51:55.481Z</time></trkpt><trkpt lat="45.429285" lon="11.535685"><ele>359.33333333333337</ele><time>2026-04-02T09:51:58.481Z</time></trkpt><trkpt lat="45.42924" lon="11.5357533"><ele>359.1666666666667</ele><time>2026-04-02T09:52:00.481Z</time></trkpt><trkpt lat="45.4291833" lon="11.5358367"><ele>359.0</ele><time>2026-04-02T09:52:03.481Z</time></trkpt><trkpt lat="45.4291367" lon="11.5359217"><ele>359.0</ele><time>2026-04-02T09:52:06.481Z</time></trkpt><trkpt lat="45.429105" lon="11.536005"><ele>359.0</ele><time>2026-04-02T09:52:08.481Z</time></trkpt><trkpt lat="45.4290683" lon="11.5361217"><ele>359.0</ele><time>2026-04-02T09:52:11.481Z</time></trkpt><trkpt lat="45.4290633" lon="11.5362317"><ele>359.0</ele><time>2026-04-02T09:52:14.481Z</time></trkpt><trkpt lat="45.4290733" lon="11.536345"><ele>359.0</ele><time>2026-04-02T09:52:18.481Z</time></trkpt><trkpt lat="45.429085" lon="11.5364517"><ele>359.0</ele><time>2026-04-02T09:52:21.482Z</time></trkpt><trkpt lat="45.429095" lon="11.53656"><ele>359.57142857142856</ele><time>2026-04-02T09:52:24.481Z</time></trkpt><trkpt lat="45.4290983" lon="11.5366583"><ele>360.14285714285717</ele><time>2026-04-02T09:52:27.481Z</time></trkpt><trkpt lat="45.429095" lon="11.53676"><ele>360.71428571428567</ele><time>2026-04-02T09:52:30.481Z</time></trkpt><trkpt lat="45.42908" lon="11.5368617"><ele>361.2857142857143</ele><time>2026-04-02T09:52:33.481Z</time></trkpt><trkpt lat="45.4290783" lon="11.53696"><ele>361.85714285714283</ele><time>2026-04-02T09:52:36.481Z</time></trkpt><trkpt lat="45.4290517" lon="11.5370483"><ele>362.4285714285714</ele><time>2026-04-02T09:52:39.481Z</time></trkpt><trkpt lat="45.4290283" lon="11.537135"><ele>363.0</ele><time>2026-04-02T09:52:42.481Z</time></trkpt><trkpt lat="45.429015" lon="11.537245"><ele>363.99999999999994</ele><time>2026-04-02T09:52:46.482Z</time></trkpt><trkpt lat="45.4290133" lon="11.537335"><ele>365.0</ele><time>2026-04-02T09:52:49.481Z</time></trkpt><trkpt lat="45.42903" lon="11.5374483"><ele>366.0</ele><time>2026-04-02T09:52:52.481Z</time></trkpt><trkpt lat="45.4290167" lon="11.5375383"><ele>367.0</ele><time>2026-04-02T09:52:55.481Z</time></trkpt><trkpt lat="45.4290267" lon="11.53763"><ele>368.0</ele><time>2026-04-02T09:52:58.482Z</time></trkpt><trkpt lat="45.4290217" lon="11.5377683"><ele>368.99999999999994</ele><time>2026-04-02T09:53:01.482Z</time></trkpt><trkpt lat="45.4290167" lon="11.5378683"><ele>370.0</ele><time>2026-04-02T09:53:03.481Z</time></trkpt><trkpt lat="45.4290133" lon="11.5379617"><ele>371.16666666666663</ele><time>2026-04-02T09:53:05.481Z</time></trkpt><trkpt lat="45.4290017" lon="11.5380717"><ele>372.3333333333333</ele><time>2026-04-02T09:53:09.481Z</time></trkpt><trkpt lat="45.4290083" lon="11.5381817"><ele>373.5</ele><time>2026-04-02T09:53:12.482Z</time></trkpt><trkpt lat="45.4290733" lon="11.5382433"><ele>374.6666666666667</ele><time>2026-04-02T09:53:15.481Z</time></trkpt><trkpt lat="45.4291517" lon="11.538285"><ele>375.83333333333337</ele><time>2026-04-02T09:53:19.481Z</time></trkpt><trkpt lat="45.4292283" lon="11.53831"><ele>377.0</ele><time>2026-04-02T09:53:22.482Z</time></trkpt><trkpt lat="45.4293" lon="11.53832"><ele>377.0</ele><time>2026-04-02T09:53:25.481Z</time></trkpt><trkpt lat="45.4293717" lon="11.5383483"><ele>377.0</ele><time>2026-04-02T09:53:28.481Z</time></trkpt><trkpt lat="45.429445" lon="11.538405"><ele>377.0</ele><time>2026-04-02T09:53:32.482Z</time></trkpt><trkpt lat="45.4295117" lon="11.53848"><ele>377.0</ele><time>2026-04-02T09:53:36.481Z</time></trkpt><trkpt lat="45.429575" lon="11.53855"><ele>377.0</ele><time>2026-04-02T09:53:39.482Z</time></trkpt><trkpt lat="45.42964" lon="11.5385933"><ele>377.0</ele><time>2026-04-02T09:53:42.482Z</time></trkpt><trkpt lat="45.42972" lon="11.5386067"><ele>377.33333333333337</ele><time>2026-04-02T09:53:46.481Z</time></trkpt><trkpt lat="45.4297967" lon="11.538585"><ele>377.6666666666667</ele><time>2026-04-02T09:53:49.482Z</time></trkpt><trkpt lat="45.4298717" lon="11.53857"><ele>378.0</ele><time>2026-04-02T09:53:52.481Z</time></trkpt><trkpt lat="45.4299533" lon="11.5385733"><ele>378.3333333333333</ele><time>2026-04-02T09:53:55.481Z</time></trkpt><trkpt lat="45.430045" lon="11.53859"><ele>378.66666666666663</ele><time>2026-04-02T09:53:58.482Z</time></trkpt><trkpt lat="45.4301283" lon="11.5386233"><ele>379.0</ele><time>2026-04-02T09:54:01.481Z</time></trkpt><trkpt lat="45.4302117" lon="11.538645"><ele>379.0</ele><time>2026-04-02T09:54:04.481Z</time></trkpt><trkpt lat="45.430285" lon="11.53867"><ele>379.0</ele><time>2026-04-02T09:54:07.481Z</time></trkpt><trkpt lat="45.4303717" lon="11.53869"><ele>379.0</ele><time>2026-04-02T09:54:11.482Z</time></trkpt><trkpt lat="45.4304517" lon="11.5386667"><ele>379.0</ele><time>2026-04-02T09:54:15.481Z</time></trkpt><trkpt lat="45.4305283" lon="11.5386367"><ele>379.0</ele><time>2026-04-02T09:54:18.482Z</time></trkpt><trkpt lat="45.4306017" lon="11.5386367"><ele>379.0</ele><time>2026-04-02T09:54:21.481Z</time></trkpt><trkpt lat="45.4306633" lon="11.53867"><ele>379.28571428571433</ele><time>2026-04-02T09:54:26.481Z</time></trkpt><trkpt lat="45.4307383" lon="11.5386717"><ele>379.57142857142856</ele><time>2026-04-02T09:54:30.482Z</time></trkpt><trkpt lat="45.4308067" lon="11.5386883"><ele>379.8571428571429</ele><time>2026-04-02T09:54:33.481Z</time></trkpt><trkpt lat="45.43087" lon="11.53869"><ele>380.14285714285717</ele><time>2026-04-02T09:54:36.481Z</time></trkpt><trkpt lat="45.4309417" lon="11.538695"><ele>380.42857142857144</ele><time>2026-04-02T09:54:41.482Z</time></trkpt><trkpt lat="45.43102" lon="11.53867"><ele>380.7142857142857</ele><time>2026-04-02T09:55:00.481Z</time></trkpt><trkpt lat="45.4310967" lon="11.5386517"><ele>381.0</ele><time>2026-04-02T09:55:03.481Z</time></trkpt><trkpt lat="45.431165" lon="11.5386233"><ele>381.0</ele><time>2026-04-02T09:55:06.481Z</time></trkpt><trkpt lat="45.431105" lon="11.5386817"><ele>381.0</ele><time>2026-04-02T09:55:17.481Z</time></trkpt><trkpt lat="45.4310317" lon="11.538715"><ele>381.0</ele><time>2026-04-02T09:55:20.481Z</time></trkpt><trkpt lat="45.43097" lon="11.5387717"><ele>381.0</ele><time>2026-04-02T09:55:23.481Z</time></trkpt><trkpt lat="45.430935" lon="11.538855"><ele>381.0</ele><time>2026-04-02T09:55:26.481Z</time></trkpt><trkpt lat="45.430875" lon="11.5389083"><ele>381.0</ele><time>2026-04-02T09:55:31.481Z</time></trkpt><trkpt lat="45.43084" lon="11.53899"><ele>381.0</ele><time>2026-04-02T09:55:37.481Z</time></trkpt><trkpt lat="45.430895" lon="11.5390433"><ele>382.7142857142857</ele><time>2026-04-02T09:55:43.481Z</time></trkpt><trkpt lat="45.4309617" lon="11.53911"><ele>384.42857142857144</ele><time>2026-04-02T09:55:49.481Z</time></trkpt><trkpt lat="45.431" lon="11.5391817"><ele>386.14285714285717</ele><time>2026-04-02T09:55:52.482Z</time></trkpt><trkpt lat="45.4310383" lon="11.5392583"><ele>387.8571428571429</ele><time>2026-04-02T09:55:57.482Z</time></trkpt><trkpt lat="45.4310683" lon="11.5393567"><ele>389.57142857142856</ele><time>2026-04-02T09:56:01.481Z</time></trkpt><trkpt lat="45.4310967" lon="11.5394483"><ele>391.28571428571433</ele><time>2026-04-02T09:56:05.481Z</time></trkpt><trkpt lat="45.431115" lon="11.5395567"><ele>393.0</ele><time>2026-04-02T09:56:09.482Z</time></trkpt><trkpt lat="45.4311417" lon="11.53966"><ele>394.28571428571433</ele><time>2026-04-02T09:56:13.482Z</time></trkpt><trkpt lat="45.4311517" lon="11.53975"><ele>395.57142857142856</ele><time>2026-04-02T09:56:16.481Z</time></trkpt><trkpt lat="45.4311583" lon="11.5398517"><ele>396.8571428571429</ele><time>2026-04-02T09:56:20.481Z</time></trkpt><trkpt lat="45.431165" lon="11.5399417"><ele>398.14285714285717</ele><time>2026-04-02T09:56:29.481Z</time></trkpt><trkpt lat="45.4310983" lon="11.53994"><ele>399.42857142857144</ele><time>2026-04-02T09:57:05.481Z</time></trkpt><trkpt lat="45.43104" lon="11.5398917"><ele>400.7142857142857</ele><time>2026-04-02T09:57:10.481Z</time></trkpt><trkpt lat="45.43098" lon="11.53986"><ele>402.0</ele><time>2026-04-02T09:57:14.481Z</time></trkpt><trkpt lat="45.43091" lon="11.539835"><ele>402.0</ele><time>2026-04-02T09:57:18.481Z</time></trkpt><trkpt lat="45.430825" lon="11.539825"><ele>402.0</ele><time>2026-04-02T09:57:22.482Z</time></trkpt><trkpt lat="45.4307433" lon="11.5398133"><ele>402.0</ele><time>2026-04-02T09:57:25.481Z</time></trkpt><trkpt lat="45.43067" lon="11.5398017"><ele>402.0</ele><time>2026-04-02T09:57:27.481Z</time></trkpt><trkpt lat="45.4305883" lon="11.5398133"><ele>402.0</ele><time>2026-04-02T09:57:29.481Z</time></trkpt><trkpt lat="45.4304883" lon="11.5398133"><ele>402.0</ele><time>2026-04-02T09:57:31.481Z</time></trkpt><trkpt lat="45.4303767" lon="11.5398067"><ele>401.5</ele><time>2026-04-02T09:57:33.481Z</time></trkpt><trkpt lat="45.43028" lon="11.5398017"><ele>401.0</ele><time>2026-04-02T09:57:35.481Z</time></trkpt><trkpt lat="45.43021" lon="11.5398067"><ele>400.5</ele><time>2026-04-02T09:57:37.481Z</time></trkpt><trkpt lat="45.4301267" lon="11.5397967"><ele>400.0</ele><time>2026-04-02T09:57:40.481Z</time></trkpt><trkpt lat="45.4300533" lon="11.5397833"><ele>399.5</ele><time>2026-04-02T09:57:43.481Z</time></trkpt><trkpt lat="45.4299867" lon="11.5397633"><ele>399.0</ele><time>2026-04-02T09:57:46.481Z</time></trkpt><trkpt lat="45.429895" lon="11.5397683"><ele>399.0</ele><time>2026-04-02T09:57:49.481Z</time></trkpt><trkpt lat="45.42981" lon="11.5397683"><ele>399.0</ele><time>2026-04-02T09:57:51.481Z</time></trkpt><trkpt lat="45.42974" lon="11.5397617"><ele>399.0</ele><time>2026-04-02T09:57:53.482Z</time></trkpt><trkpt lat="45.42966" lon="11.5397567"><ele>399.0</ele><time>2026-04-02T09:57:55.481Z</time></trkpt><trkpt lat="45.4295967" lon="11.5397633"><ele>399.0</ele><time>2026-04-02T09:57:57.481Z</time></trkpt><trkpt lat="45.42952" lon="11.5397883"><ele>399.0</ele><time>2026-04-02T09:58:01.482Z</time></trkpt><trkpt lat="45.429445" lon="11.5398167"><ele>398.8333333333333</ele><time>2026-04-02T09:58:05.481Z</time></trkpt><trkpt lat="45.4293817" lon="11.5398417"><ele>398.66666666666663</ele><time>2026-04-02T09:58:08.482Z</time></trkpt><trkpt lat="45.4293017" lon="11.53989"><ele>398.5</ele><time>2026-04-02T09:58:11.482Z</time></trkpt><trkpt lat="45.4292267" lon="11.5399217"><ele>398.3333333333333</ele><time>2026-04-02T09:58:13.481Z</time></trkpt><trkpt lat="45.4291267" lon="11.5399567"><ele>398.16666666666663</ele><time>2026-04-02T09:58:15.481Z</time></trkpt><trkpt lat="45.429015" lon="11.5399867"><ele>398.0</ele><time>2026-04-02T09:58:17.482Z</time></trkpt><trkpt lat="45.42889" lon="11.5400117"><ele>397.99999999999994</ele><time>2026-04-02T09:58:19.481Z</time></trkpt><trkpt lat="45.4288217" lon="11.5400117"><ele>398.0</ele><time>2026-04-02T09:58:20.482Z</time></trkpt><trkpt lat="45.4287083" lon="11.539975"><ele>398.0</ele><time>2026-04-02T09:58:22.481Z</time></trkpt><trkpt lat="45.428635" lon="11.5399183"><ele>398.0</ele><time>2026-04-02T09:58:24.481Z</time></trkpt><trkpt lat="45.428575" lon="11.539885"><ele>397.99999999999994</ele><time>2026-04-02T09:58:26.481Z</time></trkpt><trkpt lat="45.4284883" lon="11.53986"><ele>398.0</ele><time>2026-04-02T09:58:29.481Z</time></trkpt><trkpt lat="45.4284083" lon="11.53985"><ele>397.99999999999994</ele><time>2026-04-02T09:58:33.481Z</time></trkpt><trkpt lat="45.4283283" lon="11.539875"><ele>398.0</ele><time>2026-04-02T09:58:37.481Z</time></trkpt><trkpt lat="45.4282617" lon="11.5398983"><ele>398.0</ele><time>2026-04-02T09:58:40.482Z</time></trkpt><trkpt lat="45.428195" lon="11.5399283"><ele>398.0</ele><time>2026-04-02T09:58:43.481Z</time></trkpt><trkpt lat="45.428115" lon="11.53997"><ele>397.99999999999994</ele><time>2026-04-02T09:58:47.482Z</time></trkpt><trkpt lat="45.42804" lon="11.54"><ele>398.0</ele><time>2026-04-02T09:58:50.481Z</time></trkpt><trkpt lat="45.4279467" lon="11.54005"><ele>398.79999999999995</ele><time>2026-04-02T09:58:53.481Z</time></trkpt><trkpt lat="45.427875" lon="11.540095"><ele>399.6</ele><time>2026-04-02T09:58:55.481Z</time></trkpt><trkpt lat="45.427775" lon="11.5401483"><ele>400.4</ele><time>2026-04-02T09:58:58.481Z</time></trkpt><trkpt lat="45.42769" lon="11.5401533"><ele>401.20000000000005</ele><time>2026-04-02T09:59:00.481Z</time></trkpt><trkpt lat="45.427605" lon="11.5401283"><ele>402.0</ele><time>2026-04-02T09:59:02.481Z</time></trkpt><trkpt lat="45.4275117" lon="11.5400833"><ele>402.0</ele><time>2026-04-02T09:59:04.481Z</time></trkpt><trkpt lat="45.4274033" lon="11.5400467"><ele>402.0</ele><time>2026-04-02T09:59:06.481Z</time></trkpt><trkpt lat="45.4273333" lon="11.5400283"><ele>402.0</ele><time>2026-04-02T09:59:07.482Z</time></trkpt><trkpt lat="45.4272633" lon="11.5400333"><ele>402.0</ele><time>2026-04-02T09:59:08.481Z</time></trkpt><trkpt lat="45.4271883" lon="11.54007"><ele>402.0</ele><time>2026-04-02T09:59:10.482Z</time></trkpt><trkpt lat="45.427105" lon="11.5401267"><ele>402.0</ele><time>2026-04-02T09:59:13.481Z</time></trkpt><trkpt lat="45.427035" lon="11.54017"><ele>401.8333333333333</ele><time>2026-04-02T09:59:16.481Z</time></trkpt><trkpt lat="45.4269583" lon="11.5401983"><ele>401.66666666666663</ele><time>2026-04-02T09:59:19.481Z</time></trkpt><trkpt lat="45.4268817" lon="11.5402367"><ele>401.5</ele><time>2026-04-02T09:59:22.481Z</time></trkpt><trkpt lat="45.4268233" lon="11.5402733"><ele>401.3333333333333</ele><time>2026-04-02T09:59:25.482Z</time></trkpt><trkpt lat="45.426755" lon="11.5403117"><ele>401.16666666666663</ele><time>2026-04-02T09:59:29.481Z</time></trkpt><trkpt lat="45.426685" lon="11.540325"><ele>401.0</ele><time>2026-04-02T09:59:32.481Z</time></trkpt><trkpt lat="45.4265733" lon="11.5403417"><ele>400.99999999999994</ele><time>2026-04-02T09:59:35.481Z</time></trkpt><trkpt lat="45.4264967" lon="11.5403933"><ele>401.0</ele><time>2026-04-02T09:59:37.482Z</time></trkpt><trkpt lat="45.426425" lon="11.540465"><ele>401.0</ele><time>2026-04-02T09:59:40.481Z</time></trkpt><trkpt lat="45.4263567" lon="11.54052"><ele>401.0</ele><time>2026-04-02T09:59:42.481Z</time></trkpt><trkpt lat="45.4263017" lon="11.5405667"><ele>400.99999999999994</ele><time>2026-04-02T09:59:44.481Z</time></trkpt><trkpt lat="45.426245" lon="11.5406133"><ele>401.0</ele><time>2026-04-02T09:59:48.481Z</time></trkpt><trkpt lat="45.426165" lon="11.5407417"><ele>401.0</ele><time>2026-04-02T10:00:33.481Z</time></trkpt><trkpt lat="45.426105" lon="11.5408033"><ele>401.0</ele><time>2026-04-02T10:00:38.481Z</time></trkpt><trkpt lat="45.42605" lon="11.5408617"><ele>401.0</ele><time>2026-04-02T10:00:50.481Z</time></trkpt><trkpt lat="45.4259783" lon="11.5409"><ele>401.0</ele><time>2026-04-02T10:00:53.482Z</time></trkpt><trkpt lat="45.4259167" lon="11.5409283"><ele>401.0</ele><time>2026-04-02T10:00:55.482Z</time></trkpt><trkpt lat="45.4258533" lon="11.5409717"><ele>401.0</ele><time>2026-04-02T10:00:57.481Z</time></trkpt><trkpt lat="45.4257883" lon="11.54101"><ele>401.0</ele><time>2026-04-02T10:00:59.482Z</time></trkpt><trkpt lat="45.4256983" lon="11.5410283"><ele>401.0</ele><time>2026-04-02T10:01:01.482Z</time></trkpt><trkpt lat="45.4255967" lon="11.541035"><ele>401.0</ele><time>2026-04-02T10:01:03.481Z</time></trkpt><trkpt lat="45.425465" lon="11.540995"><ele>401.0</ele><time>2026-04-02T10:01:05.482Z</time></trkpt><trkpt lat="45.42538" lon="11.540955"><ele>401.0</ele><time>2026-04-02T10:01:06.481Z</time></trkpt><trkpt lat="45.42532" lon="11.5409117"><ele>401.0</ele><time>2026-04-02T10:01:07.482Z</time></trkpt><trkpt lat="45.425215" lon="11.54083"><ele>398.66666666666663</ele><time>2026-04-02T10:01:09.482Z</time></trkpt><trkpt lat="45.4251467" lon="11.5407383"><ele>396.3333333333333</ele><time>2026-04-02T10:01:11.481Z</time></trkpt><trkpt lat="45.4251033" lon="11.5406483"><ele>394.0</ele><time>2026-04-02T10:01:13.481Z</time></trkpt><trkpt lat="45.4250533" lon="11.540565"><ele>391.66666666666663</ele><time>2026-04-02T10:01:16.481Z</time></trkpt><trkpt lat="45.425015" lon="11.54049"><ele>389.3333333333333</ele><time>2026-04-02T10:01:19.481Z</time></trkpt><trkpt lat="45.4249683" lon="11.5404"><ele>387.0</ele><time>2026-04-02T10:01:23.481Z</time></trkpt><trkpt lat="45.4249333" lon="11.540305"><ele>386.3333333333333</ele><time>2026-04-02T10:01:26.482Z</time></trkpt><trkpt lat="45.4248933" lon="11.5402217"><ele>385.6666666666667</ele><time>2026-04-02T10:01:29.482Z</time></trkpt><trkpt lat="45.4248483" lon="11.5401283"><ele>385.0</ele><time>2026-04-02T10:01:32.481Z</time></trkpt><trkpt lat="45.4248717" lon="11.540035"><ele>384.33333333333337</ele><time>2026-04-02T10:01:35.481Z</time></trkpt><trkpt lat="45.4248717" lon="11.5401317"><ele>383.6666666666667</ele><time>2026-04-02T10:02:23.482Z</time></trkpt><trkpt lat="45.4248917" lon="11.5402517"><ele>383.0</ele><time>2026-04-02T10:02:26.481Z</time></trkpt><trkpt lat="45.42493" lon="11.5403483"><ele>383.57142857142856</ele><time>2026-04-02T10:02:29.481Z</time></trkpt><trkpt lat="45.4249683" lon="11.5404383"><ele>384.1428571428571</ele><time>2026-04-02T10:02:33.481Z</time></trkpt><trkpt lat="45.4250217" lon="11.54051"><ele>384.7142857142857</ele><time>2026-04-02T10:02:37.481Z</time></trkpt><trkpt lat="45.4250617" lon="11.5405983"><ele>385.2857142857143</ele><time>2026-04-02T10:02:41.481Z</time></trkpt><trkpt lat="45.42511" lon="11.5406867"><ele>385.8571428571429</ele><time>2026-04-02T10:02:46.481Z</time></trkpt><trkpt lat="45.4250917" lon="11.5407817"><ele>386.42857142857144</ele><time>2026-04-02T10:02:50.481Z</time></trkpt><trkpt lat="45.425075" lon="11.54088"><ele>387.0</ele><time>2026-04-02T10:02:53.481Z</time></trkpt><trkpt lat="45.42501" lon="11.5409383"><ele>387.0</ele><time>2026-04-02T10:02:56.481Z</time></trkpt><trkpt lat="45.4249533" lon="11.541005"><ele>387.0</ele><time>2026-04-02T10:02:59.482Z</time></trkpt><trkpt lat="45.4249167" lon="11.5410983"><ele>387.0</ele><time>2026-04-02T10:03:02.481Z</time></trkpt><trkpt lat="45.424875" lon="11.541215"><ele>387.0</ele><time>2026-04-02T10:03:05.481Z</time></trkpt><trkpt lat="45.4248583" lon="11.54134"><ele>387.0</ele><time>2026-04-02T10:03:08.481Z</time></trkpt><trkpt lat="45.4248633" lon="11.541435"><ele>387.0</ele><time>2026-04-02T10:03:10.482Z</time></trkpt><trkpt lat="45.4248883" lon="11.541545"><ele>387.6666666666667</ele><time>2026-04-02T10:03:13.482Z</time></trkpt><trkpt lat="45.424915" lon="11.541645"><ele>388.33333333333337</ele><time>2026-04-02T10:03:16.481Z</time></trkpt><trkpt lat="45.42495" lon="11.5417483"><ele>389.0</ele><time>2026-04-02T10:03:19.481Z</time></trkpt><trkpt lat="45.42504" lon="11.5418583"><ele>389.6666666666667</ele><time>2026-04-02T10:03:27.481Z</time></trkpt><trkpt lat="45.425075" lon="11.54194"><ele>390.33333333333337</ele><time>2026-04-02T10:03:30.481Z</time></trkpt><trkpt lat="45.425125" lon="11.54203"><ele>391.0</ele><time>2026-04-02T10:03:33.481Z</time></trkpt><trkpt lat="45.4251833" lon="11.5421133"><ele>390.99999999999994</ele><time>2026-04-02T10:03:36.481Z</time></trkpt><trkpt lat="45.4252283" lon="11.54218"><ele>391.0</ele><time>2026-04-02T10:03:38.482Z</time></trkpt><trkpt lat="45.42529" lon="11.5422417"><ele>391.0</ele><time>2026-04-02T10:03:40.481Z</time></trkpt><trkpt lat="45.4253417" lon="11.542295"><ele>391.0</ele><time>2026-04-02T10:03:42.482Z</time></trkpt><trkpt lat="45.42542" lon="11.5423617"><ele>391.0</ele><time>2026-04-02T10:03:45.481Z</time></trkpt><trkpt lat="45.4254767" lon="11.54241"><ele>390.99999999999994</ele><time>2026-04-02T10:03:47.481Z</time></trkpt><trkpt lat="45.4255283" lon="11.542465"><ele>391.0</ele><time>2026-04-02T10:03:49.481Z</time></trkpt><trkpt lat="45.4256033" lon="11.5425517"><ele>391.0</ele><time>2026-04-02T10:03:51.481Z</time></trkpt><trkpt lat="45.42569" lon="11.54263"><ele>391.0</ele><time>2026-04-02T10:03:53.481Z</time></trkpt><trkpt lat="45.4257733" lon="11.5426883"><ele>391.0</ele><time>2026-04-02T10:03:55.481Z</time></trkpt><trkpt lat="45.4258433" lon="11.5427233"><ele>391.0</ele><time>2026-04-02T10:03:57.481Z</time></trkpt><trkpt lat="45.4259217" lon="11.5427783"><ele>391.0</ele><time>2026-04-02T10:04:00.481Z</time></trkpt><trkpt lat="45.4259983" lon="11.5428617"><ele>389.33333333333337</ele><time>2026-04-02T10:04:03.481Z</time></trkpt><trkpt lat="45.42604" lon="11.54295"><ele>387.6666666666667</ele><time>2026-04-02T10:04:05.481Z</time></trkpt><trkpt lat="45.4260567" lon="11.5430483"><ele>386.0</ele><time>2026-04-02T10:04:07.482Z</time></trkpt><trkpt lat="45.4260483" lon="11.5431733"><ele>384.33333333333337</ele><time>2026-04-02T10:04:10.481Z</time></trkpt><trkpt lat="45.42605" lon="11.54331"><ele>382.6666666666667</ele><time>2026-04-02T10:04:13.481Z</time></trkpt><trkpt lat="45.4260433" lon="11.5434483"><ele>381.0</ele><time>2026-04-02T10:04:16.481Z</time></trkpt><trkpt lat="45.4260833" lon="11.5435667"><ele>381.0</ele><time>2026-04-02T10:04:19.481Z</time></trkpt><trkpt lat="45.4261367" lon="11.54365"><ele>381.0</ele><time>2026-04-02T10:04:22.481Z</time></trkpt><trkpt lat="45.4261883" lon="11.5437233"><ele>381.0</ele><time>2026-04-02T10:04:25.481Z</time></trkpt><trkpt lat="45.4262617" lon="11.543785"><ele>381.0</ele><time>2026-04-02T10:04:28.481Z</time></trkpt><trkpt lat="45.4263167" lon="11.5438467"><ele>381.0</ele><time>2026-04-02T10:04:31.481Z</time></trkpt><trkpt lat="45.4263867" lon="11.5439317"><ele>381.0</ele><time>2026-04-02T10:04:34.481Z</time></trkpt><trkpt lat="45.426495" lon="11.544005"><ele>381.6666666666667</ele><time>2026-04-02T10:04:40.481Z</time></trkpt><trkpt lat="45.4265767" lon="11.5441417"><ele>382.33333333333337</ele><time>2026-04-02T10:04:48.481Z</time></trkpt><trkpt lat="45.4266167" lon="11.5442333"><ele>383.0</ele><time>2026-04-02T10:04:51.482Z</time></trkpt><trkpt lat="45.4266833" lon="11.5442983"><ele>383.6666666666667</ele><time>2026-04-02T10:04:55.482Z</time></trkpt><trkpt lat="45.42674" lon="11.544365"><ele>384.33333333333337</ele><time>2026-04-02T10:04:59.482Z</time></trkpt><trkpt lat="45.426785" lon="11.5444317"><ele>385.0</ele><time>2026-04-02T10:05:03.481Z</time></trkpt><trkpt lat="45.4268933" lon="11.5445233"><ele>385.00000000000006</ele><time>2026-04-02T10:05:25.481Z</time></trkpt><trkpt lat="45.4269967" lon="11.5446467"><ele>385.0</ele><time>2026-04-02T10:05:51.482Z</time></trkpt><trkpt lat="45.4269167" lon="11.5445733"><ele>385.0</ele><time>2026-04-02T10:06:16.482Z</time></trkpt><trkpt lat="45.4268483" lon="11.5444933"><ele>385.0</ele><time>2026-04-02T10:09:09.481Z</time></trkpt><trkpt lat="45.426795" lon="11.54444"><ele>385.00000000000006</ele><time>2026-04-02T10:09:14.481Z</time></trkpt><trkpt lat="45.42674" lon="11.5443917"><ele>385.0</ele><time>2026-04-02T10:09:18.481Z</time></trkpt><trkpt lat="45.426685" lon="11.5443333"><ele>385.0</ele><time>2026-04-02T10:09:22.481Z</time></trkpt><trkpt lat="45.4266583" lon="11.544235"><ele>385.0</ele><time>2026-04-02T10:09:26.482Z</time></trkpt><trkpt lat="45.4266217" lon="11.544155"><ele>385.0</ele><time>2026-04-02T10:09:29.481Z</time></trkpt><trkpt lat="45.4265717" lon="11.544095"><ele>385.0</ele><time>2026-04-02T10:09:32.482Z</time></trkpt><trkpt lat="45.42652" lon="11.5440217"><ele>385.0</ele><time>2026-04-02T10:09:35.482Z</time></trkpt><trkpt lat="45.4264667" lon="11.54395"><ele>385.0</ele><time>2026-04-02T10:09:38.481Z</time></trkpt><trkpt lat="45.4264033" lon="11.5439017"><ele>385.0</ele><time>2026-04-02T10:09:42.481Z</time></trkpt><trkpt lat="45.42634" lon="11.5438683"><ele>384.33333333333337</ele><time>2026-04-02T10:09:45.481Z</time></trkpt><trkpt lat="45.42627" lon="11.5438083"><ele>383.6666666666667</ele><time>2026-04-02T10:09:48.482Z</time></trkpt><trkpt lat="45.4261967" lon="11.54374"><ele>383.0</ele><time>2026-04-02T10:09:52.482Z</time></trkpt><trkpt lat="45.4261217" lon="11.5436967"><ele>382.33333333333337</ele><time>2026-04-02T10:09:55.482Z</time></trkpt><trkpt lat="45.4260667" lon="11.5436317"><ele>381.6666666666667</ele><time>2026-04-02T10:09:59.481Z</time></trkpt><trkpt lat="45.4260133" lon="11.5435833"><ele>381.0</ele><time>2026-04-02T10:10:09.481Z</time></trkpt><trkpt lat="45.42597" lon="11.543675"><ele>379.6666666666667</ele><time>2026-04-02T10:10:16.481Z</time></trkpt><trkpt lat="45.425935" lon="11.5437683"><ele>378.3333333333333</ele><time>2026-04-02T10:10:24.481Z</time></trkpt><trkpt lat="45.4258833" lon="11.543885"><ele>377.0</ele><time>2026-04-02T10:10:30.481Z</time></trkpt><trkpt lat="45.4258433" lon="11.544035"><ele>375.66666666666663</ele><time>2026-04-02T10:10:40.481Z</time></trkpt><trkpt lat="45.425795" lon="11.544115"><ele>374.3333333333333</ele><time>2026-04-02T10:10:44.481Z</time></trkpt><trkpt lat="45.4257433" lon="11.5441883"><ele>373.0</ele><time>2026-04-02T10:10:49.481Z</time></trkpt><trkpt lat="45.425735" lon="11.5442983"><ele>373.0</ele><time>2026-04-02T10:10:53.481Z</time></trkpt><trkpt lat="45.42574" lon="11.5444017"><ele>373.0</ele><time>2026-04-02T10:10:56.481Z</time></trkpt><trkpt lat="45.4257467" lon="11.5445117"><ele>373.0</ele><time>2026-04-02T10:10:59.482Z</time></trkpt><trkpt lat="45.4257433" lon="11.54461"><ele>373.0</ele><time>2026-04-02T10:11:02.481Z</time></trkpt><trkpt lat="45.4257183" lon="11.5447283"><ele>373.0</ele><time>2026-04-02T10:11:05.481Z</time></trkpt><trkpt lat="45.4257033" lon="11.5448217"><ele>373.0</ele><time>2026-04-02T10:11:08.481Z</time></trkpt><trkpt lat="45.42567" lon="11.5449033"><ele>373.0</ele><time>2026-04-02T10:11:13.481Z</time></trkpt><trkpt lat="45.4256267" lon="11.5449967"><ele>371.8571428571429</ele><time>2026-04-02T10:11:16.481Z</time></trkpt><trkpt lat="45.4255783" lon="11.5450733"><ele>370.7142857142857</ele><time>2026-04-02T10:11:20.481Z</time></trkpt><trkpt lat="45.4255967" lon="11.5451717"><ele>369.57142857142856</ele><time>2026-04-02T10:11:25.481Z</time></trkpt><trkpt lat="45.4256317" lon="11.5452617"><ele>368.42857142857144</ele><time>2026-04-02T10:11:28.481Z</time></trkpt><trkpt lat="45.4256717" lon="11.5453483"><ele>367.2857142857143</ele><time>2026-04-02T10:11:31.481Z</time></trkpt><trkpt lat="45.4257083" lon="11.545445"><ele>366.14285714285717</ele><time>2026-04-02T10:11:34.481Z</time></trkpt><trkpt lat="45.42574" lon="11.5455383"><ele>365.0</ele><time>2026-04-02T10:11:37.482Z</time></trkpt><trkpt lat="45.42576" lon="11.545645"><ele>364.5714285714286</ele><time>2026-04-02T10:11:40.481Z</time></trkpt><trkpt lat="45.4257833" lon="11.545745"><ele>364.14285714285717</ele><time>2026-04-02T10:11:43.481Z</time></trkpt><trkpt lat="45.4258083" lon="11.5458533"><ele>363.7142857142857</ele><time>2026-04-02T10:11:47.481Z</time></trkpt><trkpt lat="45.4258083" lon="11.5459633"><ele>363.28571428571433</ele><time>2026-04-02T10:11:51.481Z</time></trkpt><trkpt lat="45.4258133" lon="11.546055"><ele>362.85714285714283</ele><time>2026-04-02T10:11:54.481Z</time></trkpt><trkpt lat="45.425805" lon="11.5461567"><ele>362.42857142857144</ele><time>2026-04-02T10:11:57.482Z</time></trkpt><trkpt lat="45.4258267" lon="11.5462483"><ele>362.0</ele><time>2026-04-02T10:12:00.482Z</time></trkpt><trkpt lat="45.4258917" lon="11.5463367"><ele>361.1666666666667</ele><time>2026-04-02T10:12:03.481Z</time></trkpt><trkpt lat="45.4259433" lon="11.54639"><ele>360.33333333333337</ele><time>2026-04-02T10:12:05.481Z</time></trkpt><trkpt lat="45.4260083" lon="11.5464333"><ele>359.5</ele><time>2026-04-02T10:12:07.482Z</time></trkpt><trkpt lat="45.426085" lon="11.5464783"><ele>358.6666666666667</ele><time>2026-04-02T10:12:09.481Z</time></trkpt><trkpt lat="45.4261633" lon="11.546525"><ele>357.8333333333333</ele><time>2026-04-02T10:12:11.481Z</time></trkpt><trkpt lat="45.426255" lon="11.5465667"><ele>357.0</ele><time>2026-04-02T10:12:13.481Z</time></trkpt><trkpt lat="45.4263717" lon="11.5466117"><ele>357.0</ele><time>2026-04-02T10:12:15.481Z</time></trkpt><trkpt lat="45.4264683" lon="11.5466667"><ele>357.0</ele><time>2026-04-02T10:12:17.481Z</time></trkpt><trkpt lat="45.4265583" lon="11.5467217"><ele>357.0</ele><time>2026-04-02T10:12:19.482Z</time></trkpt><trkpt lat="45.42663" lon="11.546785"><ele>357.0</ele><time>2026-04-02T10:12:21.481Z</time></trkpt><trkpt lat="45.426705" lon="11.5468117"><ele>357.0</ele><time>2026-04-02T10:12:26.481Z</time></trkpt><trkpt lat="45.4267917" lon="11.5468683"><ele>357.0</ele><time>2026-04-02T10:12:35.481Z</time></trkpt><trkpt lat="45.4268833" lon="11.5469167"><ele>357.0</ele><time>2026-04-02T10:12:38.481Z</time></trkpt><trkpt lat="45.42697" lon="11.5469983"><ele>357.0</ele><time>2026-04-02T10:12:40.481Z</time></trkpt><trkpt lat="45.4270817" lon="11.5470917"><ele>357.0</ele><time>2026-04-02T10:12:42.482Z</time></trkpt><trkpt lat="45.4271383" lon="11.5471483"><ele>357.0</ele><time>2026-04-02T10:12:43.481Z</time></trkpt><trkpt lat="45.4271967" lon="11.5472067"><ele>353.1666666666667</ele><time>2026-04-02T10:12:44.481Z</time></trkpt><trkpt lat="45.4272567" lon="11.547255"><ele>349.3333333333333</ele><time>2026-04-02T10:12:45.481Z</time></trkpt><trkpt lat="45.427355" lon="11.5473233"><ele>345.5</ele><time>2026-04-02T10:12:47.482Z</time></trkpt><trkpt lat="45.4274417" lon="11.54736"><ele>341.66666666666663</ele><time>2026-04-02T10:12:49.481Z</time></trkpt><trkpt lat="45.42752" lon="11.5474017"><ele>337.8333333333333</ele><time>2026-04-02T10:12:51.481Z</time></trkpt><trkpt lat="45.4275867" lon="11.5474533"><ele>334.0</ele><time>2026-04-02T10:12:53.481Z</time></trkpt><trkpt lat="45.4276467" lon="11.5474883"><ele>334.0</ele><time>2026-04-02T10:12:55.481Z</time></trkpt><trkpt lat="45.4277367" lon="11.5474717"><ele>334.0</ele><time>2026-04-02T10:12:58.481Z</time></trkpt><trkpt lat="45.4278117" lon="11.5474783"><ele>334.0</ele><time>2026-04-02T10:13:01.481Z</time></trkpt><trkpt lat="45.427895" lon="11.5474567"><ele>334.0</ele><time>2026-04-02T10:13:04.481Z</time></trkpt><trkpt lat="45.4279583" lon="11.54743"><ele>334.0</ele><time>2026-04-02T10:13:07.481Z</time></trkpt><trkpt lat="45.4280317" lon="11.5473833"><ele>334.0</ele><time>2026-04-02T10:13:10.481Z</time></trkpt><trkpt lat="45.4281" lon="11.54733"><ele>335.8333333333333</ele><time>2026-04-02T10:13:13.481Z</time></trkpt><trkpt lat="45.4281733" lon="11.5472767"><ele>337.66666666666663</ele><time>2026-04-02T10:13:16.481Z</time></trkpt><trkpt lat="45.4282367" lon="11.5472367"><ele>339.5</ele><time>2026-04-02T10:13:18.481Z</time></trkpt><trkpt lat="45.428325" lon="11.5471867"><ele>341.3333333333333</ele><time>2026-04-02T10:13:21.481Z</time></trkpt><trkpt lat="45.4284167" lon="11.5471733"><ele>343.1666666666667</ele><time>2026-04-02T10:13:24.481Z</time></trkpt><trkpt lat="45.4284917" lon="11.5471967"><ele>345.0</ele><time>2026-04-02T10:13:26.482Z</time></trkpt><trkpt lat="45.4285667" lon="11.54724"><ele>345.0</ele><time>2026-04-02T10:13:28.482Z</time></trkpt><trkpt lat="45.4286317" lon="11.547295"><ele>345.0</ele><time>2026-04-02T10:13:30.481Z</time></trkpt><trkpt lat="45.4286917" lon="11.5473583"><ele>345.0</ele><time>2026-04-02T10:13:32.481Z</time></trkpt><trkpt lat="45.4287467" lon="11.5474217"><ele>345.0</ele><time>2026-04-02T10:13:34.481Z</time></trkpt><trkpt lat="45.428805" lon="11.5474817"><ele>345.0</ele><time>2026-04-02T10:13:36.481Z</time></trkpt><trkpt lat="45.4288667" lon="11.5475233"><ele>345.0</ele><time>2026-04-02T10:13:38.482Z</time></trkpt><trkpt lat="45.4289433" lon="11.5475583"><ele>345.0</ele><time>2026-04-02T10:13:41.481Z</time></trkpt><trkpt lat="45.4290883" lon="11.5475867"><ele>346.6666666666667</ele><time>2026-04-02T10:16:32.481Z</time></trkpt><trkpt lat="45.4291617" lon="11.5476317"><ele>348.3333333333333</ele><time>2026-04-02T10:16:36.481Z</time></trkpt><trkpt lat="45.42923" lon="11.5476733"><ele>350.0</ele><time>2026-04-02T10:16:39.482Z</time></trkpt><trkpt lat="45.4293233" lon="11.547685"><ele>351.66666666666663</ele><time>2026-04-02T10:16:42.482Z</time></trkpt><trkpt lat="45.4294067" lon="11.5476833"><ele>353.3333333333333</ele><time>2026-04-02T10:16:45.482Z</time></trkpt><trkpt lat="45.4294833" lon="11.5476483"><ele>355.0</ele><time>2026-04-02T10:16:48.481Z</time></trkpt><trkpt lat="45.4295617" lon="11.547605"><ele>355.0</ele><time>2026-04-02T10:16:51.481Z</time></trkpt><trkpt lat="45.42963" lon="11.5475417"><ele>355.0</ele><time>2026-04-02T10:16:54.482Z</time></trkpt><trkpt lat="45.429735" lon="11.54751"><ele>355.0</ele><time>2026-04-02T10:17:03.482Z</time></trkpt><trkpt lat="45.429745" lon="11.5476183"><ele>355.0</ele><time>2026-04-02T10:17:07.481Z</time></trkpt><trkpt lat="45.42975" lon="11.5477233"><ele>355.0</ele><time>2026-04-02T10:17:10.481Z</time></trkpt><trkpt lat="45.4297367" lon="11.547815"><ele>355.0</ele><time>2026-04-02T10:17:12.481Z</time></trkpt><trkpt lat="45.429705" lon="11.5479217"><ele>356.0</ele><time>2026-04-02T10:17:14.481Z</time></trkpt><trkpt lat="45.4296667" lon="11.548035"><ele>357.0</ele><time>2026-04-02T10:17:16.481Z</time></trkpt><trkpt lat="45.4296383" lon="11.5481533"><ele>358.0</ele><time>2026-04-02T10:17:18.481Z</time></trkpt><trkpt lat="45.4296083" lon="11.5482867"><ele>359.0</ele><time>2026-04-02T10:17:20.481Z</time></trkpt><trkpt lat="45.4295817" lon="11.54843"><ele>360.0</ele><time>2026-04-02T10:17:22.481Z</time></trkpt><trkpt lat="45.4295617" lon="11.548565"><ele>353.8333333333333</ele><time>2026-04-02T10:17:24.481Z</time></trkpt><trkpt lat="45.429545" lon="11.5487133"><ele>347.6666666666667</ele><time>2026-04-02T10:17:26.481Z</time></trkpt><trkpt lat="45.429525" lon="11.54881"><ele>341.5</ele><time>2026-04-02T10:17:28.481Z</time></trkpt><trkpt lat="45.429515" lon="11.54893"><ele>335.33333333333337</ele><time>2026-04-02T10:17:31.481Z</time></trkpt><trkpt lat="45.429515" lon="11.549065"><ele>329.1666666666667</ele><time>2026-04-02T10:17:34.481Z</time></trkpt><trkpt lat="45.42952" lon="11.5491667"><ele>323.0</ele><time>2026-04-02T10:17:37.481Z</time></trkpt><trkpt lat="45.429535" lon="11.5492767"><ele>323.0</ele><time>2026-04-02T10:17:41.482Z</time></trkpt><trkpt lat="45.4295367" lon="11.54939"><ele>323.0</ele><time>2026-04-02T10:17:44.481Z</time></trkpt><trkpt lat="45.429545" lon="11.549485"><ele>323.0</ele><time>2026-04-02T10:17:46.481Z</time></trkpt><trkpt lat="45.429545" lon="11.549595"><ele>323.0</ele><time>2026-04-02T10:17:49.481Z</time></trkpt><trkpt lat="45.4295583" lon="11.5497033"><ele>323.0</ele><time>2026-04-02T10:17:52.482Z</time></trkpt><trkpt lat="45.429585" lon="11.5498083"><ele>323.0</ele><time>2026-04-02T10:18:03.481Z</time></trkpt><trkpt lat="45.4295983" lon="11.5499183"><ele>321.42857142857144</ele><time>2026-04-02T10:18:07.481Z</time></trkpt><trkpt lat="45.429595" lon="11.5500117"><ele>319.8571428571429</ele><time>2026-04-02T10:18:10.481Z</time></trkpt><trkpt lat="45.4296183" lon="11.5500983"><ele>318.28571428571433</ele><time>2026-04-02T10:18:13.481Z</time></trkpt><trkpt lat="45.429635" lon="11.5502"><ele>316.7142857142857</ele><time>2026-04-02T10:18:17.481Z</time></trkpt><trkpt lat="45.4296567" lon="11.5502867"><ele>315.1428571428571</ele><time>2026-04-02T10:18:21.481Z</time></trkpt><trkpt lat="45.42967" lon="11.550375"><ele>313.5714285714286</ele><time>2026-04-02T10:18:24.481Z</time></trkpt><trkpt lat="45.4296867" lon="11.5504933"><ele>312.0</ele><time>2026-04-02T10:18:29.481Z</time></trkpt><trkpt lat="45.42971" lon="11.5506083"><ele>315.0</ele><time>2026-04-02T10:18:33.482Z</time></trkpt><trkpt lat="45.42973" lon="11.5507133"><ele>318.0</ele><time>2026-04-02T10:18:37.481Z</time></trkpt><trkpt lat="45.4297733" lon="11.55081"><ele>321.0</ele><time>2026-04-02T10:18:40.481Z</time></trkpt><trkpt lat="45.4297967" lon="11.550925"><ele>324.0</ele><time>2026-04-02T10:18:43.482Z</time></trkpt><trkpt lat="45.429835" lon="11.5510367"><ele>327.0</ele><time>2026-04-02T10:18:46.482Z</time></trkpt><trkpt lat="45.4298833" lon="11.5511233"><ele>330.0</ele><time>2026-04-02T10:18:49.481Z</time></trkpt><trkpt lat="45.42994" lon="11.5512167"><ele>330.0</ele><time>2026-04-02T10:18:54.481Z</time></trkpt><trkpt lat="45.4299683" lon="11.5513283"><ele>330.0</ele><time>2026-04-02T10:18:58.481Z</time></trkpt><trkpt lat="45.4300017" lon="11.5514317"><ele>330.0</ele><time>2026-04-02T10:19:01.482Z</time></trkpt><trkpt lat="45.430035" lon="11.5515333"><ele>330.0</ele><time>2026-04-02T10:19:05.481Z</time></trkpt><trkpt lat="45.430045" lon="11.5516533"><ele>330.0</ele><time>2026-04-02T10:19:09.481Z</time></trkpt><trkpt lat="45.430065" lon="11.5518267"><ele>330.0</ele><time>2026-04-02T10:19:20.481Z</time></trkpt><trkpt lat="45.430075" lon="11.5519233"><ele>330.0</ele><time>2026-04-02T10:19:24.481Z</time></trkpt><trkpt lat="45.4300967" lon="11.5520133"><ele>330.0</ele><time>2026-04-02T10:19:28.482Z</time></trkpt><trkpt lat="45.4300933" lon="11.5521567"><ele>330.0</ele><time>2026-04-02T10:19:36.481Z</time></trkpt><trkpt lat="45.4301083" lon="11.5522683"><ele>330.0</ele><time>2026-04-02T10:19:40.481Z</time></trkpt><trkpt lat="45.43014" lon="11.5524117"><ele>330.0</ele><time>2026-04-02T10:19:48.481Z</time></trkpt><trkpt lat="45.4301533" lon="11.5526167"><ele>326.6666666666667</ele><time>2026-04-02T10:20:07.482Z</time></trkpt><trkpt lat="45.4301383" lon="11.552715"><ele>323.3333333333333</ele><time>2026-04-02T10:20:10.481Z</time></trkpt><trkpt lat="45.4301333" lon="11.55291"><ele>320.0</ele><time>2026-04-02T10:20:27.481Z</time></trkpt><trkpt lat="45.4301167" lon="11.553"><ele>316.66666666666663</ele><time>2026-04-02T10:20:31.481Z</time></trkpt><trkpt lat="45.43012" lon="11.5530933"><ele>313.3333333333333</ele><time>2026-04-02T10:20:35.48Z</time></trkpt><trkpt lat="45.430145" lon="11.5532117"><ele>310.0</ele><time>2026-04-02T10:20:38.48Z</time></trkpt><trkpt lat="45.4301617" lon="11.5533233"><ele>307.8333333333333</ele><time>2026-04-02T10:20:41.48Z</time></trkpt><trkpt lat="45.4301767" lon="11.5534333"><ele>305.66666666666663</ele><time>2026-04-02T10:20:44.48Z</time></trkpt><trkpt lat="45.4301717" lon="11.553545"><ele>303.5</ele><time>2026-04-02T10:20:48.48Z</time></trkpt><trkpt lat="45.4301817" lon="11.55366"><ele>301.3333333333333</ele><time>2026-04-02T10:20:51.48Z</time></trkpt><trkpt lat="45.4301817" lon="11.5537583"><ele>299.1666666666667</ele><time>2026-04-02T10:20:58.48Z</time></trkpt><trkpt lat="45.430165" lon="11.5538867"><ele>297.0</ele><time>2026-04-02T10:21:07.48Z</time></trkpt><trkpt lat="45.4301183" lon="11.5540383"><ele>295.8</ele><time>2026-04-02T10:32:10.479Z</time></trkpt><trkpt lat="45.43007" lon="11.5542267"><ele>294.6</ele><time>2026-04-02T10:32:38.479Z</time></trkpt><trkpt lat="45.4300517" lon="11.5543283"><ele>293.40000000000003</ele><time>2026-04-02T10:32:41.479Z</time></trkpt><trkpt lat="45.4299733" lon="11.5544983"><ele>292.2</ele><time>2026-04-02T10:33:06.48Z</time></trkpt><trkpt lat="45.4299133" lon="11.55444"><ele>291.0</ele><time>2026-04-02T10:33:13.479Z</time></trkpt><trkpt lat="45.4298433" lon="11.5544083"><ele>291.0</ele><time>2026-04-02T10:33:17.479Z</time></trkpt><trkpt lat="45.4297667" lon="11.5544333"><ele>291.0</ele><time>2026-04-02T10:33:22.479Z</time></trkpt><trkpt lat="45.429695" lon="11.5544467"><ele>291.0</ele><time>2026-04-02T10:33:26.479Z</time></trkpt><trkpt lat="45.42962" lon="11.554445"><ele>291.0</ele><time>2026-04-02T10:33:29.479Z</time></trkpt><trkpt lat="45.4295567" lon="11.55446"><ele>291.0</ele><time>2026-04-02T10:33:31.479Z</time></trkpt><trkpt lat="45.4294883" lon="11.554495"><ele>291.0</ele><time>2026-04-02T10:33:33.479Z</time></trkpt><trkpt lat="45.4294033" lon="11.5545267"><ele>286.5</ele><time>2026-04-02T10:33:35.479Z</time></trkpt><trkpt lat="45.4293417" lon="11.5545733"><ele>282.0</ele><time>2026-04-02T10:33:38.48Z</time></trkpt><trkpt lat="45.4292917" lon="11.554645"><ele>277.5</ele><time>2026-04-02T10:33:47.479Z</time></trkpt><trkpt lat="45.42922" lon="11.554755"><ele>273.0</ele><time>2026-04-02T10:33:49.48Z</time></trkpt><trkpt lat="45.4291417" lon="11.5548883"><ele>268.5</ele><time>2026-04-02T10:33:51.48Z</time></trkpt><trkpt lat="45.4291033" lon="11.5549633"><ele>264.0</ele><time>2026-04-02T10:33:52.479Z</time></trkpt><trkpt lat="45.42908" lon="11.5550467"><ele>264.0</ele><time>2026-04-02T10:33:53.48Z</time></trkpt><trkpt lat="45.4290617" lon="11.555135"><ele>264.0</ele><time>2026-04-02T10:33:54.479Z</time></trkpt><trkpt lat="45.4290283" lon="11.5553"><ele>264.0</ele><time>2026-04-02T10:33:56.479Z</time></trkpt><trkpt lat="45.4290133" lon="11.5553883"><ele>264.0</ele><time>2026-04-02T10:33:57.479Z</time></trkpt><trkpt lat="45.4290183" lon="11.5555217"><ele>264.0</ele><time>2026-04-02T10:33:59.48Z</time></trkpt><trkpt lat="45.4290683" lon="11.5556283"><ele>264.0</ele><time>2026-04-02T10:34:01.48Z</time></trkpt><trkpt lat="45.4291333" lon="11.555735"><ele>263.0</ele><time>2026-04-02T10:34:03.479Z</time></trkpt><trkpt lat="45.4292033" lon="11.5558533"><ele>262.0</ele><time>2026-04-02T10:34:05.48Z</time></trkpt><trkpt lat="45.4292767" lon="11.5559817"><ele>261.0</ele><time>2026-04-02T10:34:07.479Z</time></trkpt><trkpt lat="45.4293333" lon="11.556105"><ele>260.0</ele><time>2026-04-02T10:34:09.479Z</time></trkpt><trkpt lat="45.4293717" lon="11.5562317"><ele>259.0</ele><time>2026-04-02T10:34:11.479Z</time></trkpt><trkpt lat="45.429395" lon="11.5563717"><ele>259.16666666666663</ele><time>2026-04-02T10:34:13.479Z</time></trkpt><trkpt lat="45.4294367" lon="11.5565017"><ele>259.3333333333333</ele><time>2026-04-02T10:34:15.479Z</time></trkpt><trkpt lat="45.42951" lon="11.556595"><ele>259.5</ele><time>2026-04-02T10:34:17.479Z</time></trkpt><trkpt lat="45.4295717" lon="11.55666"><ele>259.6666666666667</ele><time>2026-04-02T10:34:19.479Z</time></trkpt><trkpt lat="45.4296367" lon="11.5567383"><ele>259.83333333333337</ele><time>2026-04-02T10:34:22.48Z</time></trkpt><trkpt lat="45.42968" lon="11.5568117"><ele>260.0</ele><time>2026-04-02T10:34:25.479Z</time></trkpt><trkpt lat="45.4297417" lon="11.556895"><ele>260.00000000000006</ele><time>2026-04-02T10:34:29.479Z</time></trkpt><trkpt lat="45.4298167" lon="11.5569433"><ele>260.0</ele><time>2026-04-02T10:34:32.479Z</time></trkpt><trkpt lat="45.42988" lon="11.55697"><ele>260.0</ele><time>2026-04-02T10:34:35.479Z</time></trkpt><trkpt lat="45.4299367" lon="11.55702"><ele>260.0</ele><time>2026-04-02T10:34:38.479Z</time></trkpt><trkpt lat="45.4300033" lon="11.5570417"><ele>260.0</ele><time>2026-04-02T10:34:41.479Z</time></trkpt><trkpt lat="45.430075" lon="11.557045"><ele>260.00000000000006</ele><time>2026-04-02T10:34:45.479Z</time></trkpt><trkpt lat="45.4301617" lon="11.55708"><ele>260.0</ele><time>2026-04-02T10:34:48.479Z</time></trkpt><trkpt lat="45.430235" lon="11.5570917"><ele>258.83333333333337</ele><time>2026-04-02T10:34:50.479Z</time></trkpt><trkpt lat="45.430305" lon="11.557115"><ele>257.6666666666667</ele><time>2026-04-02T10:34:52.48Z</time></trkpt><trkpt lat="45.4303833" lon="11.5571233"><ele>256.5</ele><time>2026-04-02T10:34:54.479Z</time></trkpt><trkpt lat="45.4304717" lon="11.557125"><ele>255.33333333333331</ele><time>2026-04-02T10:34:56.479Z</time></trkpt><trkpt lat="45.4305583" lon="11.5571383"><ele>254.16666666666666</ele><time>2026-04-02T10:34:58.479Z</time></trkpt><trkpt lat="45.4306283" lon="11.5571517"><ele>253.0</ele><time>2026-04-02T10:35:00.479Z</time></trkpt><trkpt lat="45.4307067" lon="11.5571783"><ele>252.83333333333331</ele><time>2026-04-02T10:35:02.48Z</time></trkpt><trkpt lat="45.4307783" lon="11.5571933"><ele>252.66666666666666</ele><time>2026-04-02T10:35:04.479Z</time></trkpt><trkpt lat="45.430845" lon="11.5572033"><ele>252.5</ele><time>2026-04-02T10:35:06.479Z</time></trkpt><trkpt lat="45.43092" lon="11.557195"><ele>252.33333333333331</ele><time>2026-04-02T10:35:08.479Z</time></trkpt><trkpt lat="45.43099" lon="11.557185"><ele>252.16666666666666</ele><time>2026-04-02T10:35:10.479Z</time></trkpt><trkpt lat="45.4310833" lon="11.5572133"><ele>252.0</ele><time>2026-04-02T10:35:13.479Z</time></trkpt><trkpt lat="45.4311767" lon="11.55722"><ele>252.0</ele><time>2026-04-02T10:35:16.479Z</time></trkpt><trkpt lat="45.43126" lon="11.5572733"><ele>252.0</ele><time>2026-04-02T10:35:18.48Z</time></trkpt><trkpt lat="45.4313333" lon="11.5573167"><ele>252.0</ele><time>2026-04-02T10:35:20.479Z</time></trkpt><trkpt lat="45.4313933" lon="11.557355"><ele>252.0</ele><time>2026-04-02T10:35:22.479Z</time></trkpt><trkpt lat="45.4314517" lon="11.5574017"><ele>252.0</ele><time>2026-04-02T10:35:24.479Z</time></trkpt><trkpt lat="45.4315167" lon="11.5574383"><ele>252.0</ele><time>2026-04-02T10:35:26.479Z</time></trkpt><trkpt lat="45.4316033" lon="11.5574783"><ele>254.16666666666666</ele><time>2026-04-02T10:35:29.479Z</time></trkpt><trkpt lat="45.4316883" lon="11.557495"><ele>256.3333333333333</ele><time>2026-04-02T10:35:32.48Z</time></trkpt><trkpt lat="45.431765" lon="11.5575133"><ele>258.5</ele><time>2026-04-02T10:35:35.479Z</time></trkpt><trkpt lat="45.431845" lon="11.5574783"><ele>260.66666666666663</ele><time>2026-04-02T10:35:38.479Z</time></trkpt><trkpt lat="45.4319" lon="11.5574217"><ele>262.8333333333333</ele><time>2026-04-02T10:35:40.479Z</time></trkpt><trkpt lat="45.4319667" lon="11.5573433"><ele>265.0</ele><time>2026-04-02T10:35:43.479Z</time></trkpt><trkpt lat="45.4320233" lon="11.557265"><ele>265.0</ele><time>2026-04-02T10:35:46.479Z</time></trkpt><trkpt lat="45.4320767" lon="11.557175"><ele>265.0</ele><time>2026-04-02T10:35:49.479Z</time></trkpt><trkpt lat="45.432125" lon="11.5570767"><ele>265.0</ele><time>2026-04-02T10:35:52.479Z</time></trkpt><trkpt lat="45.43219" lon="11.5569783"><ele>265.0</ele><time>2026-04-02T10:35:55.479Z</time></trkpt><trkpt lat="45.4322417" lon="11.556885"><ele>265.0</ele><time>2026-04-02T10:35:58.479Z</time></trkpt><trkpt lat="45.4322833" lon="11.5568083"><ele>265.0</ele><time>2026-04-02T10:36:00.479Z</time></trkpt><trkpt lat="45.4323367" lon="11.55674"><ele>266.5</ele><time>2026-04-02T10:36:02.479Z</time></trkpt><trkpt lat="45.43239" lon="11.5566667"><ele>268.0</ele><time>2026-04-02T10:36:04.479Z</time></trkpt><trkpt lat="45.4324433" lon="11.5565933"><ele>269.5</ele><time>2026-04-02T10:36:06.479Z</time></trkpt><trkpt lat="45.4324917" lon="11.55652"><ele>271.0</ele><time>2026-04-02T10:36:08.479Z</time></trkpt><trkpt lat="45.4325433" lon="11.55645"><ele>272.5</ele><time>2026-04-02T10:36:10.479Z</time></trkpt><trkpt lat="45.432605" lon="11.5563583"><ele>274.0</ele><time>2026-04-02T10:36:13.479Z</time></trkpt><trkpt lat="45.432665" lon="11.5562983"><ele>274.0</ele><time>2026-04-02T10:36:15.479Z</time></trkpt><trkpt lat="45.4327233" lon="11.5562383"><ele>274.0</ele><time>2026-04-02T10:36:17.479Z</time></trkpt><trkpt lat="45.4327983" lon="11.5561883"><ele>274.0</ele><time>2026-04-02T10:36:19.479Z</time></trkpt><trkpt lat="45.4328817" lon="11.556155"><ele>274.0</ele><time>2026-04-02T10:36:21.48Z</time></trkpt><trkpt lat="45.4329633" lon="11.5561267"><ele>274.0</ele><time>2026-04-02T10:36:23.479Z</time></trkpt><trkpt lat="45.433035" lon="11.5561083"><ele>274.0</ele><time>2026-04-02T10:36:25.479Z</time></trkpt><trkpt lat="45.4331033" lon="11.556095"><ele>276.66666666666663</ele><time>2026-04-02T10:36:27.48Z</time></trkpt><trkpt lat="45.4331717" lon="11.5560967"><ele>279.3333333333333</ele><time>2026-04-02T10:36:29.479Z</time></trkpt><trkpt lat="45.4332433" lon="11.5561017"><ele>282.0</ele><time>2026-04-02T10:36:31.479Z</time></trkpt><trkpt lat="45.433315" lon="11.5561017"><ele>284.6666666666667</ele><time>2026-04-02T10:36:33.48Z</time></trkpt><trkpt lat="45.4334033" lon="11.5560967"><ele>287.33333333333337</ele><time>2026-04-02T10:36:35.479Z</time></trkpt><trkpt lat="45.4335233" lon="11.556085"><ele>290.0</ele><time>2026-04-02T10:36:37.48Z</time></trkpt><trkpt lat="45.4335883" lon="11.5560783"><ele>290.0</ele><time>2026-04-02T10:36:38.479Z</time></trkpt><trkpt lat="45.433655" lon="11.55607"><ele>290.0</ele><time>2026-04-02T10:36:39.479Z</time></trkpt><trkpt lat="45.4337233" lon="11.5560717"><ele>290.0</ele><time>2026-04-02T10:36:40.479Z</time></trkpt><trkpt lat="45.4337933" lon="11.556075"><ele>290.0</ele><time>2026-04-02T10:36:41.479Z</time></trkpt><trkpt lat="45.433915" lon="11.55609"><ele>290.0</ele><time>2026-04-02T10:36:43.48Z</time></trkpt><trkpt lat="45.43401" lon="11.5561217"><ele>290.0</ele><time>2026-04-02T10:36:45.48Z</time></trkpt><trkpt lat="45.43409" lon="11.556135"><ele>290.5</ele><time>2026-04-02T10:36:47.48Z</time></trkpt><trkpt lat="45.4341717" lon="11.5561583"><ele>291.0</ele><time>2026-04-02T10:36:49.48Z</time></trkpt><trkpt lat="45.43426" lon="11.556205"><ele>291.5</ele><time>2026-04-02T10:36:51.479Z</time></trkpt><trkpt lat="45.43434" lon="11.5562167"><ele>292.0</ele><time>2026-04-02T10:36:53.479Z</time></trkpt><trkpt lat="45.4344167" lon="11.5562383"><ele>292.5</ele><time>2026-04-02T10:36:56.479Z</time></trkpt><trkpt lat="45.4344917" lon="11.5562567"><ele>293.0</ele><time>2026-04-02T10:36:59.48Z</time></trkpt><trkpt lat="45.4345767" lon="11.5563083"><ele>292.85714285714283</ele><time>2026-04-02T10:37:02.479Z</time></trkpt><trkpt lat="45.4346433" lon="11.5563117"><ele>292.7142857142857</ele><time>2026-04-02T10:37:04.479Z</time></trkpt><trkpt lat="45.4347067" lon="11.5562967"><ele>292.57142857142856</ele><time>2026-04-02T10:37:07.48Z</time></trkpt><trkpt lat="45.4347567" lon="11.5562333"><ele>292.42857142857144</ele><time>2026-04-02T10:37:12.479Z</time></trkpt><trkpt lat="45.4348" lon="11.5561583"><ele>292.2857142857143</ele><time>2026-04-02T10:37:15.479Z</time></trkpt><trkpt lat="45.4348383" lon="11.5560417"><ele>292.1428571428571</ele><time>2026-04-02T10:37:18.479Z</time></trkpt><trkpt lat="45.4348883" lon="11.5559433"><ele>292.0</ele><time>2026-04-02T10:37:20.479Z</time></trkpt><trkpt lat="45.434945" lon="11.5558383"><ele>292.0</ele><time>2026-04-02T10:37:22.479Z</time></trkpt><trkpt lat="45.4350083" lon="11.5557217"><ele>292.0</ele><time>2026-04-02T10:37:24.479Z</time></trkpt><trkpt lat="45.43509" lon="11.5555983"><ele>292.0</ele><time>2026-04-02T10:37:26.479Z</time></trkpt><trkpt lat="45.4351633" lon="11.5554833"><ele>292.0</ele><time>2026-04-02T10:37:28.479Z</time></trkpt><trkpt lat="45.435225" lon="11.555395"><ele>292.0</ele><time>2026-04-02T10:37:30.48Z</time></trkpt><trkpt lat="45.4352967" lon="11.5553917"><ele>292.0</ele><time>2026-04-02T10:37:33.479Z</time></trkpt><trkpt lat="45.43533" lon="11.5555017"><ele>292.0</ele><time>2026-04-02T10:37:35.479Z</time></trkpt><trkpt lat="45.4353833" lon="11.5556283"><ele>292.0</ele><time>2026-04-02T10:37:37.479Z</time></trkpt><trkpt lat="45.435415" lon="11.5557283"><ele>292.0</ele><time>2026-04-02T10:37:39.479Z</time></trkpt><trkpt lat="45.4354667" lon="11.5558017"><ele>292.0</ele><time>2026-04-02T10:37:41.48Z</time></trkpt><trkpt lat="45.4355333" lon="11.5558683"><ele>292.0</ele><time>2026-04-02T10:37:43.479Z</time></trkpt><trkpt lat="45.4355967" lon="11.5559333"><ele>293.16666666666663</ele><time>2026-04-02T10:37:45.479Z</time></trkpt><trkpt lat="45.435645" lon="11.5560117"><ele>294.3333333333333</ele><time>2026-04-02T10:37:47.479Z</time></trkpt><trkpt lat="45.4356967" lon="11.556085"><ele>295.5</ele><time>2026-04-02T10:37:49.479Z</time></trkpt><trkpt lat="45.435725" lon="11.556185"><ele>296.6666666666667</ele><time>2026-04-02T10:37:52.479Z</time></trkpt><trkpt lat="45.4357317" lon="11.5562783"><ele>297.83333333333337</ele><time>2026-04-02T10:37:55.479Z</time></trkpt><trkpt lat="45.4357233" lon="11.5563867"><ele>299.0</ele><time>2026-04-02T10:37:58.479Z</time></trkpt><trkpt lat="45.43574" lon="11.5565067"><ele>295.6666666666667</ele><time>2026-04-02T10:38:01.479Z</time></trkpt><trkpt lat="45.4357783" lon="11.55659"><ele>292.33333333333337</ele><time>2026-04-02T10:38:03.479Z</time></trkpt><trkpt lat="45.4358217" lon="11.556685"><ele>289.0</ele><time>2026-04-02T10:38:06.48Z</time></trkpt><trkpt lat="45.4358583" lon="11.5567783"><ele>285.6666666666667</ele><time>2026-04-02T10:38:09.479Z</time></trkpt><trkpt lat="45.435895" lon="11.5568783"><ele>282.3333333333333</ele><time>2026-04-02T10:38:12.479Z</time></trkpt><trkpt lat="45.43593" lon="11.5569783"><ele>279.0</ele><time>2026-04-02T10:38:15.479Z</time></trkpt><trkpt lat="45.4359733" lon="11.557075"><ele>276.99999999999994</ele><time>2026-04-02T10:38:18.479Z</time></trkpt><trkpt lat="45.4360133" lon="11.5571717"><ele>275.0</ele><time>2026-04-02T10:38:21.479Z</time></trkpt><trkpt lat="45.4360717" lon="11.5572533"><ele>273.0</ele><time>2026-04-02T10:38:24.479Z</time></trkpt><trkpt lat="45.4361167" lon="11.5573183"><ele>271.0</ele><time>2026-04-02T10:38:26.479Z</time></trkpt><trkpt lat="45.4361583" lon="11.5573983"><ele>269.0</ele><time>2026-04-02T10:38:29.479Z</time></trkpt><trkpt lat="45.4362133" lon="11.557455"><ele>266.99999999999994</ele><time>2026-04-02T10:38:32.479Z</time></trkpt><trkpt lat="45.43628" lon="11.5575317"><ele>265.0</ele><time>2026-04-02T10:38:35.479Z</time></trkpt><trkpt lat="45.4363333" lon="11.557615"><ele>268.99999999999994</ele><time>2026-04-02T10:38:38.479Z</time></trkpt><trkpt lat="45.4363817" lon="11.557685"><ele>273.0</ele><time>2026-04-02T10:38:41.48Z</time></trkpt><trkpt lat="45.4364267" lon="11.5577567"><ele>277.0</ele><time>2026-04-02T10:38:44.479Z</time></trkpt><trkpt lat="45.436465" lon="11.5578483"><ele>281.0</ele><time>2026-04-02T10:38:47.48Z</time></trkpt><trkpt lat="45.436485" lon="11.5579433"><ele>285.0</ele><time>2026-04-02T10:38:50.479Z</time></trkpt><trkpt lat="45.4364817" lon="11.5580383"><ele>288.99999999999994</ele><time>2026-04-02T10:38:53.479Z</time></trkpt><trkpt lat="45.4364767" lon="11.5581367"><ele>293.0</ele><time>2026-04-02T10:38:56.479Z</time></trkpt><trkpt lat="45.4364933" lon="11.5582317"><ele>292.99999999999994</ele><time>2026-04-02T10:39:00.479Z</time></trkpt><trkpt lat="45.4365583" lon="11.5582133"><ele>293.0</ele><time>2026-04-02T10:39:03.479Z</time></trkpt><trkpt lat="45.4366233" lon="11.5581483"><ele>293.0</ele><time>2026-04-02T10:39:06.479Z</time></trkpt><trkpt lat="45.4366783" lon="11.55808"><ele>293.0</ele><time>2026-04-02T10:39:09.479Z</time></trkpt><trkpt lat="45.4367267" lon="11.5580067"><ele>293.0</ele><time>2026-04-02T10:39:12.479Z</time></trkpt><trkpt lat="45.4367783" lon="11.5579333"><ele>292.99999999999994</ele><time>2026-04-02T10:39:15.479Z</time></trkpt><trkpt lat="45.4368383" lon="11.5578933"><ele>293.0</ele><time>2026-04-02T10:39:18.48Z</time></trkpt><trkpt lat="45.4368917" lon="11.557835"><ele>292.99999999999994</ele><time>2026-04-02T10:39:21.479Z</time></trkpt><trkpt lat="45.43696" lon="11.557785"><ele>293.0</ele><time>2026-04-02T10:39:24.479Z</time></trkpt><trkpt lat="45.4370183" lon="11.5577317"><ele>293.0</ele><time>2026-04-02T10:39:27.479Z</time></trkpt><trkpt lat="45.4370717" lon="11.5576767"><ele>293.0</ele><time>2026-04-02T10:39:30.479Z</time></trkpt><trkpt lat="45.4371333" lon="11.5576217"><ele>293.0</ele><time>2026-04-02T10:39:33.479Z</time></trkpt><trkpt lat="45.4372067" lon="11.5575767"><ele>292.99999999999994</ele><time>2026-04-02T10:39:37.479Z</time></trkpt><trkpt lat="45.4372667" lon="11.5575433"><ele>293.0</ele><time>2026-04-02T10:39:40.479Z</time></trkpt><trkpt lat="45.4373217" lon="11.5574967"><ele>294.99999999999994</ele><time>2026-04-02T10:39:43.479Z</time></trkpt><trkpt lat="45.4373817" lon="11.557455"><ele>297.0</ele><time>2026-04-02T10:39:46.48Z</time></trkpt><trkpt lat="45.437445" lon="11.5574183"><ele>299.0</ele><time>2026-04-02T10:39:49.479Z</time></trkpt><trkpt lat="45.4375067" lon="11.5573717"><ele>301.0</ele><time>2026-04-02T10:39:53.48Z</time></trkpt><trkpt lat="45.43758" lon="11.55733"><ele>303.0</ele><time>2026-04-02T10:39:57.479Z</time></trkpt><trkpt lat="45.437645" lon="11.5573033"><ele>304.99999999999994</ele><time>2026-04-02T10:40:00.48Z</time></trkpt><trkpt lat="45.4377083" lon="11.557285"><ele>307.0</ele><time>2026-04-02T10:40:03.48Z</time></trkpt><trkpt lat="45.4377867" lon="11.5573"><ele>306.99999999999994</ele><time>2026-04-02T10:40:06.48Z</time></trkpt><trkpt lat="45.4378667" lon="11.5573283"><ele>307.0</ele><time>2026-04-02T10:40:09.48Z</time></trkpt><trkpt lat="45.4379367" lon="11.5573633"><ele>307.0</ele><time>2026-04-02T10:40:12.48Z</time></trkpt><trkpt lat="45.4380067" lon="11.557385"><ele>307.0</ele><time>2026-04-02T10:40:15.48Z</time></trkpt><trkpt lat="45.4380717" lon="11.5574167"><ele>307.0</ele><time>2026-04-02T10:40:18.479Z</time></trkpt><trkpt lat="45.4381317" lon="11.5574517"><ele>306.99999999999994</ele><time>2026-04-02T10:40:21.479Z</time></trkpt><trkpt lat="45.4382083" lon="11.5574783"><ele>307.0</ele><time>2026-04-02T10:40:24.479Z</time></trkpt><trkpt lat="45.4382883" lon="11.5575067"><ele>306.99999999999994</ele><time>2026-04-02T10:40:27.48Z</time></trkpt><trkpt lat="45.4383717" lon="11.55752"><ele>307.0</ele><time>2026-04-02T10:40:30.48Z</time></trkpt><trkpt lat="45.4384633" lon="11.5575133"><ele>307.0</ele><time>2026-04-02T10:40:33.479Z</time></trkpt><trkpt lat="45.4385283" lon="11.5575"><ele>307.0</ele><time>2026-04-02T10:40:35.479Z</time></trkpt><trkpt lat="45.4385983" lon="11.55748"><ele>307.0</ele><time>2026-04-02T10:40:37.479Z</time></trkpt><trkpt lat="45.43866" lon="11.557445"><ele>306.99999999999994</ele><time>2026-04-02T10:40:39.479Z</time></trkpt><trkpt lat="45.4387233" lon="11.5574067"><ele>307.0</ele><time>2026-04-02T10:40:41.479Z</time></trkpt><trkpt lat="45.4387833" lon="11.5573667"><ele>306.66666666666663</ele><time>2026-04-02T10:40:43.479Z</time></trkpt><trkpt lat="45.4388417" lon="11.5573233"><ele>306.3333333333333</ele><time>2026-04-02T10:40:45.478Z</time></trkpt><trkpt lat="45.4389133" lon="11.5572583"><ele>306.0</ele><time>2026-04-02T10:40:48.478Z</time></trkpt><trkpt lat="45.4389767" lon="11.5571883"><ele>305.6666666666667</ele><time>2026-04-02T10:40:51.478Z</time></trkpt><trkpt lat="45.439045" lon="11.557135"><ele>305.33333333333337</ele><time>2026-04-02T10:40:54.478Z</time></trkpt><trkpt lat="45.4391167" lon="11.55711"><ele>305.0</ele><time>2026-04-02T10:40:57.478Z</time></trkpt><trkpt lat="45.439205" lon="11.557095"><ele>305.0</ele><time>2026-04-02T10:41:00.478Z</time></trkpt><trkpt lat="45.4392733" lon="11.5570833"><ele>305.0</ele><time>2026-04-02T10:41:02.478Z</time></trkpt><trkpt lat="45.4393517" lon="11.557065"><ele>305.0</ele><time>2026-04-02T10:41:04.478Z</time></trkpt><trkpt lat="45.4394467" lon="11.557045"><ele>305.0</ele><time>2026-04-02T10:41:06.478Z</time></trkpt><trkpt lat="45.4395317" lon="11.5570083"><ele>305.0</ele><time>2026-04-02T10:41:08.478Z</time></trkpt><trkpt lat="45.43964" lon="11.557"><ele>305.0</ele><time>2026-04-02T10:41:10.478Z</time></trkpt><trkpt lat="45.439765" lon="11.5570083"><ele>306.0</ele><time>2026-04-02T10:41:12.478Z</time></trkpt><trkpt lat="45.4398333" lon="11.5570167"><ele>307.0</ele><time>2026-04-02T10:41:13.478Z</time></trkpt><trkpt lat="45.4399033" lon="11.5570233"><ele>308.0</ele><time>2026-04-02T10:41:14.478Z</time></trkpt><trkpt lat="45.4399683" lon="11.557035"><ele>309.0</ele><time>2026-04-02T10:41:15.479Z</time></trkpt><trkpt lat="45.4400317" lon="11.5570417"><ele>310.0</ele><time>2026-04-02T10:41:16.478Z</time></trkpt><trkpt lat="45.44014" lon="11.5570567"><ele>311.0</ele><time>2026-04-02T10:41:18.478Z</time></trkpt><trkpt lat="45.4402233" lon="11.5571133"><ele>308.33333333333337</ele><time>2026-04-02T10:41:20.478Z</time></trkpt><trkpt lat="45.4403067" lon="11.5571717"><ele>305.6666666666667</ele><time>2026-04-02T10:41:22.478Z</time></trkpt><trkpt lat="45.4404117" lon="11.5572467"><ele>303.0</ele><time>2026-04-02T10:41:24.478Z</time></trkpt><trkpt lat="45.4404733" lon="11.5572933"><ele>300.3333333333333</ele><time>2026-04-02T10:41:25.478Z</time></trkpt><trkpt lat="45.4405283" lon="11.5573417"><ele>297.66666666666663</ele><time>2026-04-02T10:41:26.478Z</time></trkpt><trkpt lat="45.4405817" lon="11.55739"><ele>295.0</ele><time>2026-04-02T10:41:27.478Z</time></trkpt><trkpt lat="45.4406333" lon="11.5574433"><ele>294.8333333333333</ele><time>2026-04-02T10:41:28.478Z</time></trkpt><trkpt lat="45.440715" lon="11.5575817"><ele>294.66666666666663</ele><time>2026-04-02T10:41:30.479Z</time></trkpt><trkpt lat="45.4407633" lon="11.557655"><ele>294.5</ele><time>2026-04-02T10:41:31.478Z</time></trkpt><trkpt lat="45.4408133" lon="11.5577283"><ele>294.3333333333333</ele><time>2026-04-02T10:41:32.478Z</time></trkpt><trkpt lat="45.4408617" lon="11.5577967"><ele>294.1666666666667</ele><time>2026-04-02T10:41:33.479Z</time></trkpt><trkpt lat="45.4409067" lon="11.5578633"><ele>294.0</ele><time>2026-04-02T10:41:34.478Z</time></trkpt><trkpt lat="45.4409483" lon="11.557945"><ele>292.42857142857144</ele><time>2026-04-02T10:41:35.478Z</time></trkpt><trkpt lat="45.44098" lon="11.5580317"><ele>290.8571428571429</ele><time>2026-04-02T10:41:36.479Z</time></trkpt><trkpt lat="45.441015" lon="11.558115"><ele>289.2857142857143</ele><time>2026-04-02T10:41:37.478Z</time></trkpt><trkpt lat="45.441045" lon="11.5582067"><ele>287.7142857142857</ele><time>2026-04-02T10:41:38.478Z</time></trkpt><trkpt lat="45.4410683" lon="11.5583033"><ele>286.14285714285717</ele><time>2026-04-02T10:41:39.478Z</time></trkpt><trkpt lat="45.4410917" lon="11.5584017"><ele>284.57142857142856</ele><time>2026-04-02T10:41:40.479Z</time></trkpt><trkpt lat="45.4411083" lon="11.5585"><ele>283.0</ele><time>2026-04-02T10:41:41.478Z</time></trkpt><trkpt lat="45.4411217" lon="11.55859"><ele>283.0</ele><time>2026-04-02T10:41:42.479Z</time></trkpt><trkpt lat="45.4411267" lon="11.5586883"><ele>283.0</ele><time>2026-04-02T10:41:43.479Z</time></trkpt><trkpt lat="45.4411333" lon="11.5588267"><ele>283.0</ele><time>2026-04-02T10:41:45.478Z</time></trkpt><trkpt lat="45.4411133" lon="11.55894"><ele>283.0</ele><time>2026-04-02T10:41:48.479Z</time></trkpt><trkpt lat="45.4410833" lon="11.5590217"><ele>283.0</ele><time>2026-04-02T10:41:50.478Z</time></trkpt><trkpt lat="45.4410483" lon="11.5591283"><ele>283.0</ele><time>2026-04-02T10:41:53.478Z</time></trkpt><trkpt lat="45.4410217" lon="11.5592317"><ele>283.14285714285717</ele><time>2026-04-02T10:41:56.478Z</time></trkpt><trkpt lat="45.44103" lon="11.5593267"><ele>283.28571428571433</ele><time>2026-04-02T10:41:59.478Z</time></trkpt><trkpt lat="45.441095" lon="11.5593533"><ele>283.42857142857144</ele><time>2026-04-02T10:42:03.479Z</time></trkpt><trkpt lat="45.44116" lon="11.5593417"><ele>283.57142857142856</ele><time>2026-04-02T10:42:06.479Z</time></trkpt><trkpt lat="45.4412233" lon="11.559345"><ele>283.71428571428567</ele><time>2026-04-02T10:42:09.478Z</time></trkpt><trkpt lat="45.44129" lon="11.55936"><ele>283.85714285714283</ele><time>2026-04-02T10:42:12.479Z</time></trkpt><trkpt lat="45.4413667" lon="11.5593467"><ele>284.0</ele><time>2026-04-02T10:42:15.479Z</time></trkpt><trkpt lat="45.4414417" lon="11.5593267"><ele>285.57142857142856</ele><time>2026-04-02T10:42:18.478Z</time></trkpt><trkpt lat="45.4415083" lon="11.5592967"><ele>287.1428571428571</ele><time>2026-04-02T10:42:22.478Z</time></trkpt><trkpt lat="45.44158" lon="11.5592917"><ele>288.7142857142857</ele><time>2026-04-02T10:42:26.478Z</time></trkpt><trkpt lat="45.4416433" lon="11.5593233"><ele>290.2857142857143</ele><time>2026-04-02T10:42:30.479Z</time></trkpt><trkpt lat="45.441705" lon="11.5593517"><ele>291.8571428571429</ele><time>2026-04-02T10:42:33.479Z</time></trkpt><trkpt lat="45.4417717" lon="11.5593683"><ele>293.42857142857144</ele><time>2026-04-02T10:42:36.478Z</time></trkpt><trkpt lat="45.44184" lon="11.559365"><ele>295.0</ele><time>2026-04-02T10:42:39.478Z</time></trkpt><trkpt lat="45.44191" lon="11.5593567"><ele>295.00000000000006</ele><time>2026-04-02T10:42:42.478Z</time></trkpt><trkpt lat="45.4419767" lon="11.5593683"><ele>295.0</ele><time>2026-04-02T10:42:45.478Z</time></trkpt><trkpt lat="45.4420517" lon="11.5593767"><ele>295.0</ele><time>2026-04-02T10:42:48.479Z</time></trkpt><trkpt lat="45.4421283" lon="11.5593967"><ele>295.0</ele><time>2026-04-02T10:42:51.478Z</time></trkpt><trkpt lat="45.4422083" lon="11.5594117"><ele>295.0</ele><time>2026-04-02T10:42:54.479Z</time></trkpt><trkpt lat="45.4422783" lon="11.5594217"><ele>295.00000000000006</ele><time>2026-04-02T10:42:57.478Z</time></trkpt><trkpt lat="45.4423467" lon="11.5594017"><ele>295.0</ele><time>2026-04-02T10:43:01.479Z</time></trkpt><trkpt lat="45.442415" lon="11.5593783"><ele>296.16666666666663</ele><time>2026-04-02T10:43:05.478Z</time></trkpt><trkpt lat="45.4425333" lon="11.559455"><ele>297.3333333333333</ele><time>2026-04-02T10:44:04.478Z</time></trkpt><trkpt lat="45.4425383" lon="11.559565"><ele>298.5</ele><time>2026-04-02T10:44:16.478Z</time></trkpt><trkpt lat="45.44255" lon="11.5596633"><ele>299.6666666666667</ele><time>2026-04-02T10:44:19.478Z</time></trkpt><trkpt lat="45.44256" lon="11.5597767"><ele>300.83333333333337</ele><time>2026-04-02T10:44:23.478Z</time></trkpt><trkpt lat="45.442565" lon="11.559875"><ele>302.0</ele><time>2026-04-02T10:44:27.478Z</time></trkpt><trkpt lat="45.4425517" lon="11.5599667"><ele>303.83333333333337</ele><time>2026-04-02T10:44:30.478Z</time></trkpt><trkpt lat="45.4425333" lon="11.560055"><ele>305.6666666666667</ele><time>2026-04-02T10:44:33.478Z</time></trkpt><trkpt lat="45.442505" lon="11.5601367"><ele>307.5</ele><time>2026-04-02T10:44:36.479Z</time></trkpt><trkpt lat="45.4424433" lon="11.5602233"><ele>309.3333333333333</ele><time>2026-04-02T10:44:40.478Z</time></trkpt><trkpt lat="45.4423717" lon="11.5603017"><ele>311.16666666666663</ele><time>2026-04-02T10:44:43.479Z</time></trkpt><trkpt lat="45.4423117" lon="11.5603717"><ele>313.0</ele><time>2026-04-02T10:44:46.478Z</time></trkpt><trkpt lat="45.4422817" lon="11.5604667"><ele>314.66666666666663</ele><time>2026-04-02T10:44:49.479Z</time></trkpt><trkpt lat="45.442265" lon="11.5605833"><ele>316.3333333333333</ele><time>2026-04-02T10:44:52.479Z</time></trkpt><trkpt lat="45.442255" lon="11.5606967"><ele>318.0</ele><time>2026-04-02T10:44:55.478Z</time></trkpt><trkpt lat="45.4422217" lon="11.5607967"><ele>319.6666666666667</ele><time>2026-04-02T10:44:58.478Z</time></trkpt><trkpt lat="45.4421983" lon="11.5609017"><ele>321.33333333333337</ele><time>2026-04-02T10:45:02.478Z</time></trkpt><trkpt lat="45.4421867" lon="11.5609917"><ele>323.0</ele><time>2026-04-02T10:45:08.478Z</time></trkpt><trkpt lat="45.4421567" lon="11.5611017"><ele>324.00000000000006</ele><time>2026-04-02T10:45:14.478Z</time></trkpt><trkpt lat="45.4421283" lon="11.5612017"><ele>325.0</ele><time>2026-04-02T10:45:19.478Z</time></trkpt><trkpt lat="45.442095" lon="11.56128"><ele>326.0</ele><time>2026-04-02T10:45:24.478Z</time></trkpt><trkpt lat="45.4420333" lon="11.561325"><ele>327.0</ele><time>2026-04-02T10:45:28.478Z</time></trkpt><trkpt lat="45.4419517" lon="11.5613167"><ele>328.0</ele><time>2026-04-02T10:45:33.479Z</time></trkpt><trkpt lat="45.4418783" lon="11.561305"><ele>329.00000000000006</ele><time>2026-04-02T10:45:37.478Z</time></trkpt><trkpt lat="45.441815" lon="11.5613033"><ele>330.0</ele><time>2026-04-02T10:45:40.478Z</time></trkpt><trkpt lat="45.44174" lon="11.5612733"><ele>330.0</ele><time>2026-04-02T10:45:44.479Z</time></trkpt><trkpt lat="45.4416667" lon="11.56126"><ele>330.0</ele><time>2026-04-02T10:45:48.479Z</time></trkpt><trkpt lat="45.44159" lon="11.5612483"><ele>330.0</ele><time>2026-04-02T10:45:53.478Z</time></trkpt><trkpt lat="45.4415033" lon="11.561225"><ele>330.0</ele><time>2026-04-02T10:46:01.478Z</time></trkpt><trkpt lat="45.4414317" lon="11.5612067"><ele>330.0</ele><time>2026-04-02T10:46:16.478Z</time></trkpt><trkpt lat="45.4413583" lon="11.56121"><ele>330.0</ele><time>2026-04-02T10:46:22.478Z</time></trkpt><trkpt lat="45.4412917" lon="11.5611967"><ele>329.3333333333333</ele><time>2026-04-02T10:46:26.479Z</time></trkpt><trkpt lat="45.4412167" lon="11.56117"><ele>328.6666666666667</ele><time>2026-04-02T10:46:31.479Z</time></trkpt><trkpt lat="45.44113" lon="11.5611717"><ele>328.0</ele><time>2026-04-02T10:46:37.478Z</time></trkpt><trkpt lat="45.4410533" lon="11.5611733"><ele>327.33333333333337</ele><time>2026-04-02T10:46:41.478Z</time></trkpt><trkpt lat="45.4409767" lon="11.5612233"><ele>326.6666666666667</ele><time>2026-04-02T10:46:46.479Z</time></trkpt><trkpt lat="45.4409117" lon="11.5612983"><ele>326.0</ele><time>2026-04-02T10:46:50.479Z</time></trkpt><trkpt lat="45.440855" lon="11.56137"><ele>326.0</ele><time>2026-04-02T10:46:54.479Z</time></trkpt><trkpt lat="45.4408033" lon="11.56148"><ele>326.0</ele><time>2026-04-02T10:47:02.478Z</time></trkpt><trkpt lat="45.4407783" lon="11.5615733"><ele>326.0</ele><time>2026-04-02T10:47:11.479Z</time></trkpt><trkpt lat="45.440695" lon="11.5617083"><ele>326.0</ele><time>2026-04-02T10:47:29.478Z</time></trkpt><trkpt lat="45.4406117" lon="11.5618267"><ele>326.0</ele><time>2026-04-02T10:48:12.478Z</time></trkpt><trkpt lat="45.440545" lon="11.561935"><ele>327.4</ele><time>2026-04-02T10:49:24.479Z</time></trkpt><trkpt lat="45.44051" lon="11.5620817"><ele>328.8</ele><time>2026-04-02T10:49:40.478Z</time></trkpt><trkpt lat="45.440515" lon="11.5622317"><ele>330.2</ele><time>2026-04-02T10:49:56.479Z</time></trkpt><trkpt lat="45.4404783" lon="11.5623067"><ele>331.59999999999997</ele><time>2026-04-02T10:49:59.478Z</time></trkpt><trkpt lat="45.44046" lon="11.5624583"><ele>333.0</ele><time>2026-04-02T10:50:08.478Z</time></trkpt><trkpt lat="45.440425" lon="11.562555"><ele>330.6666666666667</ele><time>2026-04-02T10:50:15.478Z</time></trkpt><trkpt lat="45.440325" lon="11.5626933"><ele>328.3333333333333</ele><time>2026-04-02T10:50:28.478Z</time></trkpt><trkpt lat="45.44029" lon="11.56278"><ele>326.0</ele><time>2026-04-02T10:50:34.478Z</time></trkpt><trkpt lat="45.4402433" lon="11.5628583"><ele>323.66666666666663</ele><time>2026-04-02T10:50:38.478Z</time></trkpt><trkpt lat="45.4401917" lon="11.56291"><ele>321.3333333333333</ele><time>2026-04-02T10:50:41.479Z</time></trkpt><trkpt lat="45.4401433" lon="11.56297"><ele>319.0</ele><time>2026-04-02T10:50:45.478Z</time></trkpt><trkpt lat="45.440045" lon="11.5630283"><ele>319.0</ele><time>2026-04-02T10:51:07.478Z</time></trkpt><trkpt lat="45.4400233" lon="11.5631283"><ele>319.0</ele><time>2026-04-02T10:51:13.478Z</time></trkpt><trkpt lat="45.4399833" lon="11.5632117"><ele>319.0</ele><time>2026-04-02T10:51:20.478Z</time></trkpt><trkpt lat="45.4399283" lon="11.563265"><ele>319.0</ele><time>2026-04-02T10:51:26.478Z</time></trkpt><trkpt lat="45.43985" lon="11.5633433"><ele>319.0</ele><time>2026-04-02T10:52:13.479Z</time></trkpt><trkpt lat="45.4397567" lon="11.5632183"><ele>319.0</ele><time>2026-04-02T10:52:26.478Z</time></trkpt><trkpt lat="45.4397067" lon="11.56315"><ele>316.8</ele><time>2026-04-02T10:52:30.478Z</time></trkpt><trkpt lat="45.4396167" lon="11.563055"><ele>314.59999999999997</ele><time>2026-04-02T10:52:45.478Z</time></trkpt><trkpt lat="45.439615" lon="11.56294"><ele>312.4</ele><time>2026-04-02T10:52:50.478Z</time></trkpt><trkpt lat="45.439695" lon="11.5627567"><ele>310.2</ele><time>2026-04-02T10:52:59.479Z</time></trkpt><trkpt lat="45.4397317" lon="11.5626267"><ele>308.0</ele><time>2026-04-02T10:53:07.478Z</time></trkpt><trkpt lat="45.43977" lon="11.5625333"><ele>308.0</ele><time>2026-04-02T10:53:11.479Z</time></trkpt><trkpt lat="45.4398033" lon="11.5624533"><ele>308.0</ele><time>2026-04-02T10:53:19.478Z</time></trkpt><trkpt lat="45.439845" lon="11.5623767"><ele>308.0</ele><time>2026-04-02T10:53:22.478Z</time></trkpt><trkpt lat="45.4398767" lon="11.562295"><ele>308.0</ele><time>2026-04-02T10:53:27.478Z</time></trkpt><trkpt lat="45.43986" lon="11.5622067"><ele>308.0</ele><time>2026-04-02T10:53:30.478Z</time></trkpt><trkpt lat="45.439835" lon="11.5621017"><ele>308.0</ele><time>2026-04-02T10:53:33.479Z</time></trkpt><trkpt lat="45.43985" lon="11.5619833"><ele>308.0</ele><time>2026-04-02T10:53:42.479Z</time></trkpt><trkpt lat="45.4398867" lon="11.561905"><ele>306.1666666666667</ele><time>2026-04-02T10:53:45.478Z</time></trkpt><trkpt lat="45.4399117" lon="11.56181"><ele>304.33333333333337</ele><time>2026-04-02T10:53:48.478Z</time></trkpt><trkpt lat="45.4399333" lon="11.5617167"><ele>302.5</ele><time>2026-04-02T10:53:51.478Z</time></trkpt><trkpt lat="45.4399483" lon="11.561615"><ele>300.6666666666667</ele><time>2026-04-02T10:53:54.478Z</time></trkpt><trkpt lat="45.439975" lon="11.5615267"><ele>298.8333333333333</ele><time>2026-04-02T10:53:57.478Z</time></trkpt><trkpt lat="45.4400083" lon="11.561425"><ele>297.0</ele><time>2026-04-02T10:54:02.478Z</time></trkpt><trkpt lat="45.44003" lon="11.5612983"><ele>294.6</ele><time>2026-04-02T10:54:05.478Z</time></trkpt><trkpt lat="45.4400567" lon="11.5611783"><ele>292.2</ele><time>2026-04-02T10:54:07.478Z</time></trkpt><trkpt lat="45.440095" lon="11.561035"><ele>289.8</ele><time>2026-04-02T10:54:09.478Z</time></trkpt><trkpt lat="45.4401433" lon="11.5608633"><ele>287.4</ele><time>2026-04-02T10:54:11.478Z</time></trkpt><trkpt lat="45.4401817" lon="11.5607867"><ele>285.0</ele><time>2026-04-02T10:54:12.478Z</time></trkpt><trkpt lat="45.44025" lon="11.5606683"><ele>285.0</ele><time>2026-04-02T10:54:14.479Z</time></trkpt><trkpt lat="45.440315" lon="11.5605783"><ele>285.0</ele><time>2026-04-02T10:54:16.478Z</time></trkpt><trkpt lat="45.4403767" lon="11.560485"><ele>285.0</ele><time>2026-04-02T10:54:19.479Z</time></trkpt><trkpt lat="45.4404283" lon="11.56038"><ele>285.0</ele><time>2026-04-02T10:54:22.478Z</time></trkpt><trkpt lat="45.440485" lon="11.56029"><ele>285.0</ele><time>2026-04-02T10:54:25.478Z</time></trkpt><trkpt lat="45.44053" lon="11.560225"><ele>285.0</ele><time>2026-04-02T10:54:27.478Z</time></trkpt><trkpt lat="45.44059" lon="11.5601233"><ele>286.1666666666667</ele><time>2026-04-02T10:54:30.478Z</time></trkpt><trkpt lat="45.4406483" lon="11.560035"><ele>287.3333333333333</ele><time>2026-04-02T10:54:33.479Z</time></trkpt><trkpt lat="45.4407167" lon="11.559955"><ele>288.5</ele><time>2026-04-02T10:54:36.478Z</time></trkpt><trkpt lat="45.44078" lon="11.559865"><ele>289.66666666666663</ele><time>2026-04-02T10:54:39.478Z</time></trkpt><trkpt lat="45.44082" lon="11.5597917"><ele>290.8333333333333</ele><time>2026-04-02T10:54:42.478Z</time></trkpt><trkpt lat="45.44084" lon="11.5597017"><ele>292.0</ele><time>2026-04-02T10:54:46.479Z</time></trkpt><trkpt lat="45.440875" lon="11.5596117"><ele>290.66666666666663</ele><time>2026-04-02T10:54:49.478Z</time></trkpt><trkpt lat="45.440915" lon="11.55951"><ele>289.3333333333333</ele><time>2026-04-02T10:54:53.478Z</time></trkpt><trkpt lat="45.4409583" lon="11.5594133"><ele>288.0</ele><time>2026-04-02T10:54:56.478Z</time></trkpt><trkpt lat="45.4410283" lon="11.5593067"><ele>286.6666666666667</ele><time>2026-04-02T10:55:42.478Z</time></trkpt><trkpt lat="45.441135" lon="11.55933"><ele>285.33333333333337</ele><time>2026-04-02T10:55:49.478Z</time></trkpt><trkpt lat="45.441205" lon="11.5593433"><ele>284.0</ele><time>2026-04-02T10:55:52.479Z</time></trkpt><trkpt lat="45.4412683" lon="11.5593383"><ele>285.83333333333337</ele><time>2026-04-02T10:55:54.479Z</time></trkpt><trkpt lat="45.44136" lon="11.5593183"><ele>287.6666666666667</ele><time>2026-04-02T10:55:57.478Z</time></trkpt><trkpt lat="45.4414317" lon="11.559315"><ele>289.5</ele><time>2026-04-02T10:56:00.478Z</time></trkpt><trkpt lat="45.44151" lon="11.5592783"><ele>291.3333333333333</ele><time>2026-04-02T10:56:04.478Z</time></trkpt><trkpt lat="45.44159" lon="11.5592833"><ele>293.16666666666663</ele><time>2026-04-02T10:56:08.478Z</time></trkpt><trkpt lat="45.44167" lon="11.5593283"><ele>295.0</ele><time>2026-04-02T10:56:12.478Z</time></trkpt><trkpt lat="45.4417333" lon="11.5593417"><ele>295.0</ele><time>2026-04-02T10:56:15.479Z</time></trkpt><trkpt lat="45.4418133" lon="11.5593683"><ele>295.0</ele><time>2026-04-02T10:56:19.479Z</time></trkpt><trkpt lat="45.4418783" lon="11.559345"><ele>295.0</ele><time>2026-04-02T10:56:22.479Z</time></trkpt><trkpt lat="45.4419433" lon="11.5593583"><ele>295.0</ele><time>2026-04-02T10:56:25.479Z</time></trkpt><trkpt lat="45.4420317" lon="11.5593617"><ele>295.0</ele><time>2026-04-02T10:56:28.478Z</time></trkpt><trkpt lat="45.442105" lon="11.5593783"><ele>295.0</ele><time>2026-04-02T10:56:31.478Z</time></trkpt><trkpt lat="45.4421767" lon="11.559395"><ele>296.16666666666663</ele><time>2026-04-02T10:56:34.479Z</time></trkpt><trkpt lat="45.4422483" lon="11.55942"><ele>297.3333333333333</ele><time>2026-04-02T10:56:37.479Z</time></trkpt><trkpt lat="45.4423183" lon="11.5594167"><ele>298.5</ele><time>2026-04-02T10:56:40.478Z</time></trkpt><trkpt lat="45.442395" lon="11.559395"><ele>299.6666666666667</ele><time>2026-04-02T10:56:44.478Z</time></trkpt><trkpt lat="45.4424767" lon="11.5593917"><ele>300.83333333333337</ele><time>2026-04-02T10:56:48.478Z</time></trkpt><trkpt lat="45.442555" lon="11.5593983"><ele>302.0</ele><time>2026-04-02T10:56:51.478Z</time></trkpt><trkpt lat="45.44263" lon="11.5593883"><ele>302.0</ele><time>2026-04-02T10:56:53.478Z</time></trkpt><trkpt lat="45.442705" lon="11.5593883"><ele>302.0</ele><time>2026-04-02T10:56:55.478Z</time></trkpt><trkpt lat="45.4427733" lon="11.5593917"><ele>302.0</ele><time>2026-04-02T10:56:57.478Z</time></trkpt><trkpt lat="45.4428517" lon="11.559385"><ele>302.0</ele><time>2026-04-02T10:56:59.478Z</time></trkpt><trkpt lat="45.4429417" lon="11.5593767"><ele>302.0</ele><time>2026-04-02T10:57:02.478Z</time></trkpt><trkpt lat="45.4430083" lon="11.5593617"><ele>302.0</ele><time>2026-04-02T10:57:04.478Z</time></trkpt><trkpt lat="45.4430917" lon="11.55933"><ele>302.5</ele><time>2026-04-02T10:57:07.478Z</time></trkpt><trkpt lat="45.443165" lon="11.5593083"><ele>303.0</ele><time>2026-04-02T10:57:10.478Z</time></trkpt><trkpt lat="45.443245" lon="11.5593"><ele>303.5</ele><time>2026-04-02T10:57:14.479Z</time></trkpt><trkpt lat="45.443325" lon="11.5593017"><ele>304.0</ele><time>2026-04-02T10:57:18.479Z</time></trkpt><trkpt lat="45.4434083" lon="11.55933"><ele>304.5</ele><time>2026-04-02T10:57:21.478Z</time></trkpt><trkpt lat="45.4434783" lon="11.5593367"><ele>305.0</ele><time>2026-04-02T10:57:24.478Z</time></trkpt><trkpt lat="45.44356" lon="11.5593367"><ele>305.0</ele><time>2026-04-02T10:57:27.478Z</time></trkpt><trkpt lat="45.4436383" lon="11.5593283"><ele>305.0</ele><time>2026-04-02T10:57:30.478Z</time></trkpt><trkpt lat="45.4437217" lon="11.5593483"><ele>305.0</ele><time>2026-04-02T10:57:33.479Z</time></trkpt><trkpt lat="45.443795" lon="11.559365"><ele>305.0</ele><time>2026-04-02T10:57:36.478Z</time></trkpt><trkpt lat="45.4438617" lon="11.5593717"><ele>305.0</ele><time>2026-04-02T10:57:38.478Z</time></trkpt><trkpt lat="45.4439583" lon="11.5593383"><ele>305.0</ele><time>2026-04-02T10:57:41.478Z</time></trkpt><trkpt lat="45.4440317" lon="11.55934"><ele>305.0</ele><time>2026-04-02T10:57:43.478Z</time></trkpt><trkpt lat="45.4441067" lon="11.5593417"><ele>305.0</ele><time>2026-04-02T10:57:45.478Z</time></trkpt><trkpt lat="45.4441867" lon="11.5593317"><ele>305.0</ele><time>2026-04-02T10:57:47.478Z</time></trkpt><trkpt lat="45.4442733" lon="11.5593117"><ele>305.0</ele><time>2026-04-02T10:57:49.478Z</time></trkpt><trkpt lat="45.444355" lon="11.55929"><ele>305.0</ele><time>2026-04-02T10:57:51.478Z</time></trkpt><trkpt lat="45.4444383" lon="11.5592833"><ele>305.0</ele><time>2026-04-02T10:57:53.478Z</time></trkpt><trkpt lat="45.44453" lon="11.5592633"><ele>305.0</ele><time>2026-04-02T10:57:55.478Z</time></trkpt><trkpt lat="45.4445967" lon="11.55925"><ele>305.0</ele><time>2026-04-02T10:57:57.479Z</time></trkpt><trkpt lat="45.4446717" lon="11.55924"><ele>305.0</ele><time>2026-04-02T10:57:59.478Z</time></trkpt><trkpt lat="45.4447583" lon="11.559215"><ele>305.0</ele><time>2026-04-02T10:58:01.479Z</time></trkpt><trkpt lat="45.44484" lon="11.5592"><ele>305.0</ele><time>2026-04-02T10:58:03.478Z</time></trkpt><trkpt lat="45.4449383" lon="11.5592017"><ele>305.0</ele><time>2026-04-02T10:58:05.478Z</time></trkpt><trkpt lat="45.44504" lon="11.5591767"><ele>305.6666666666667</ele><time>2026-04-02T10:58:07.479Z</time></trkpt><trkpt lat="45.445135" lon="11.5591433"><ele>306.33333333333337</ele><time>2026-04-02T10:58:09.478Z</time></trkpt><trkpt lat="45.4452067" lon="11.559065"><ele>307.0</ele><time>2026-04-02T10:58:11.479Z</time></trkpt><trkpt lat="45.4452567" lon="11.5589933"><ele>307.6666666666667</ele><time>2026-04-02T10:58:13.478Z</time></trkpt><trkpt lat="45.44531" lon="11.5589417"><ele>308.3333333333333</ele><time>2026-04-02T10:58:15.478Z</time></trkpt><trkpt lat="45.4453767" lon="11.55887"><ele>309.0</ele><time>2026-04-02T10:58:18.478Z</time></trkpt><trkpt lat="45.445425" lon="11.5587933"><ele>310.3333333333333</ele><time>2026-04-02T10:58:22.478Z</time></trkpt><trkpt lat="45.4454767" lon="11.55872"><ele>311.6666666666667</ele><time>2026-04-02T10:58:25.478Z</time></trkpt><trkpt lat="45.445525" lon="11.5586467"><ele>313.0</ele><time>2026-04-02T10:58:28.478Z</time></trkpt><trkpt lat="45.4455733" lon="11.55857"><ele>314.33333333333337</ele><time>2026-04-02T10:58:31.478Z</time></trkpt><trkpt lat="45.445635" lon="11.5584867"><ele>315.6666666666667</ele><time>2026-04-02T10:58:34.478Z</time></trkpt><trkpt lat="45.4456933" lon="11.5583967"><ele>317.0</ele><time>2026-04-02T10:58:37.478Z</time></trkpt><trkpt lat="45.4457533" lon="11.5583"><ele>317.0</ele><time>2026-04-02T10:58:40.479Z</time></trkpt><trkpt lat="45.4457817" lon="11.5582183"><ele>317.0</ele><time>2026-04-02T10:58:42.478Z</time></trkpt><trkpt lat="45.445785" lon="11.55812"><ele>317.0</ele><time>2026-04-02T10:58:44.478Z</time></trkpt><trkpt lat="45.4457767" lon="11.5579883"><ele>317.0</ele><time>2026-04-02T10:58:47.478Z</time></trkpt><trkpt lat="45.4457933" lon="11.5578733"><ele>317.0</ele><time>2026-04-02T10:58:50.478Z</time></trkpt><trkpt lat="45.4458383" lon="11.5577867"><ele>317.0</ele><time>2026-04-02T10:58:53.478Z</time></trkpt><trkpt lat="45.44588" lon="11.5577117"><ele>317.1666666666667</ele><time>2026-04-02T10:58:57.478Z</time></trkpt><trkpt lat="45.445925" lon="11.5576333"><ele>317.33333333333337</ele><time>2026-04-02T10:59:00.478Z</time></trkpt><trkpt lat="45.4459783" lon="11.5575667"><ele>317.5</ele><time>2026-04-02T10:59:03.478Z</time></trkpt><trkpt lat="45.4460567" lon="11.55751"><ele>317.6666666666667</ele><time>2026-04-02T10:59:06.478Z</time></trkpt><trkpt lat="45.4461317" lon="11.5574483"><ele>317.8333333333333</ele><time>2026-04-02T10:59:09.478Z</time></trkpt><trkpt lat="45.4462067" lon="11.5573833"><ele>318.0</ele><time>2026-04-02T10:59:12.479Z</time></trkpt><trkpt lat="45.4462717" lon="11.5573517"><ele>319.0</ele><time>2026-04-02T10:59:14.478Z</time></trkpt><trkpt lat="45.4463367" lon="11.5573267"><ele>320.0</ele><time>2026-04-02T10:59:16.478Z</time></trkpt><trkpt lat="45.44641" lon="11.5573067"><ele>321.0</ele><time>2026-04-02T10:59:19.478Z</time></trkpt><trkpt lat="45.4464817" lon="11.55731"><ele>322.0</ele><time>2026-04-02T10:59:22.479Z</time></trkpt><trkpt lat="45.4465583" lon="11.5573317"><ele>323.0</ele><time>2026-04-02T10:59:25.478Z</time></trkpt><trkpt lat="45.4466267" lon="11.5573433"><ele>324.0</ele><time>2026-04-02T10:59:28.478Z</time></trkpt><trkpt lat="45.4467017" lon="11.55737"><ele>325.0</ele><time>2026-04-02T10:59:31.478Z</time></trkpt><trkpt lat="45.4467633" lon="11.5573917"><ele>325.0</ele><time>2026-04-02T10:59:34.478Z</time></trkpt><trkpt lat="45.446855" lon="11.557405"><ele>325.0</ele><time>2026-04-02T10:59:38.478Z</time></trkpt><trkpt lat="45.4469267" lon="11.5574217"><ele>325.0</ele><time>2026-04-02T10:59:41.478Z</time></trkpt><trkpt lat="45.4469983" lon="11.5574417"><ele>325.0</ele><time>2026-04-02T10:59:44.478Z</time></trkpt><trkpt lat="45.4470617" lon="11.5574683"><ele>325.0</ele><time>2026-04-02T10:59:47.479Z</time></trkpt><trkpt lat="45.4471433" lon="11.5574767"><ele>325.0</ele><time>2026-04-02T10:59:50.479Z</time></trkpt><trkpt lat="45.4472217" lon="11.5574817"><ele>326.0</ele><time>2026-04-02T10:59:53.478Z</time></trkpt><trkpt lat="45.44729" lon="11.5574983"><ele>327.0</ele><time>2026-04-02T10:59:56.478Z</time></trkpt><trkpt lat="45.4473567" lon="11.5575117"><ele>328.0</ele><time>2026-04-02T10:59:59.478Z</time></trkpt><trkpt lat="45.44742" lon="11.5575333"><ele>329.0</ele><time>2026-04-02T11:00:02.478Z</time></trkpt><trkpt lat="45.4474933" lon="11.5575467"><ele>330.0</ele><time>2026-04-02T11:00:06.478Z</time></trkpt><trkpt lat="45.4475617" lon="11.55755"><ele>331.0</ele><time>2026-04-02T11:00:10.478Z</time></trkpt><trkpt lat="45.4476017" lon="11.5576333"><ele>332.0</ele><time>2026-04-02T11:00:14.478Z</time></trkpt><trkpt lat="45.4475933" lon="11.557745"><ele>332.0</ele><time>2026-04-02T11:00:18.478Z</time></trkpt><trkpt lat="45.447585" lon="11.5578617"><ele>332.0</ele><time>2026-04-02T11:00:21.478Z</time></trkpt><trkpt lat="45.4476017" lon="11.5579717"><ele>332.0</ele><time>2026-04-02T11:00:24.478Z</time></trkpt><trkpt lat="45.4476067" lon="11.55808"><ele>332.0</ele><time>2026-04-02T11:00:27.478Z</time></trkpt><trkpt lat="45.44762" lon="11.55818"><ele>332.0</ele><time>2026-04-02T11:00:30.478Z</time></trkpt><trkpt lat="45.44764" lon="11.5582817"><ele>332.0</ele><time>2026-04-02T11:00:33.478Z</time></trkpt><trkpt lat="45.4476583" lon="11.5583767"><ele>332.1666666666667</ele><time>2026-04-02T11:00:36.478Z</time></trkpt><trkpt lat="45.4476933" lon="11.5584883"><ele>332.33333333333337</ele><time>2026-04-02T11:00:40.478Z</time></trkpt><trkpt lat="45.4477133" lon="11.5586067"><ele>332.5</ele><time>2026-04-02T11:00:43.479Z</time></trkpt><trkpt lat="45.4477467" lon="11.5587267"><ele>332.6666666666667</ele><time>2026-04-02T11:00:46.478Z</time></trkpt><trkpt lat="45.4477583" lon="11.558855"><ele>332.8333333333333</ele><time>2026-04-02T11:00:49.478Z</time></trkpt><trkpt lat="45.44778" lon="11.558965"><ele>333.0</ele><time>2026-04-02T11:00:52.478Z</time></trkpt><trkpt lat="45.4478133" lon="11.55905"><ele>334.0</ele><time>2026-04-02T11:00:55.479Z</time></trkpt><trkpt lat="45.4478467" lon="11.5591483"><ele>335.0</ele><time>2026-04-02T11:00:59.479Z</time></trkpt><trkpt lat="45.4478867" lon="11.559235"><ele>336.0</ele><time>2026-04-02T11:01:03.478Z</time></trkpt><trkpt lat="45.44794" lon="11.559285"><ele>337.0</ele><time>2026-04-02T11:01:07.479Z</time></trkpt><trkpt lat="45.4480083" lon="11.5592817"><ele>338.0</ele><time>2026-04-02T11:01:12.478Z</time></trkpt><trkpt lat="45.44807" lon="11.55923"><ele>339.0</ele><time>2026-04-02T11:01:20.478Z</time></trkpt><trkpt lat="45.4480967" lon="11.5591233"><ele>340.0</ele><time>2026-04-02T11:01:28.478Z</time></trkpt><trkpt lat="45.44811" lon="11.5590267"><ele>341.14285714285717</ele><time>2026-04-02T11:01:34.478Z</time></trkpt><trkpt lat="45.4480833" lon="11.5589417"><ele>342.2857142857143</ele><time>2026-04-02T11:01:40.478Z</time></trkpt><trkpt lat="45.4480717" lon="11.5588"><ele>343.42857142857144</ele><time>2026-04-02T11:02:00.478Z</time></trkpt><trkpt lat="45.4480533" lon="11.5587017"><ele>344.57142857142856</ele><time>2026-04-02T11:02:03.479Z</time></trkpt><trkpt lat="45.4480233" lon="11.5586133"><ele>345.7142857142857</ele><time>2026-04-02T11:02:06.479Z</time></trkpt><trkpt lat="45.4480417" lon="11.5585183"><ele>346.85714285714283</ele><time>2026-04-02T11:02:09.478Z</time></trkpt><trkpt lat="45.44811" lon="11.5585033"><ele>348.0</ele><time>2026-04-02T11:02:13.479Z</time></trkpt><trkpt lat="45.448165" lon="11.5585517"><ele>348.0</ele><time>2026-04-02T11:02:16.478Z</time></trkpt><trkpt lat="45.4482083" lon="11.55862"><ele>348.0</ele><time>2026-04-02T11:02:19.478Z</time></trkpt><trkpt lat="45.4482467" lon="11.5586983"><ele>348.0</ele><time>2026-04-02T11:02:23.478Z</time></trkpt><trkpt lat="45.4482983" lon="11.5587633"><ele>348.0</ele><time>2026-04-02T11:02:28.478Z</time></trkpt><trkpt lat="45.44835" lon="11.5588267"><ele>348.0</ele><time>2026-04-02T11:02:32.478Z</time></trkpt><trkpt lat="45.4483917" lon="11.5589033"><ele>348.0</ele><time>2026-04-02T11:02:35.479Z</time></trkpt><trkpt lat="45.4484383" lon="11.55899"><ele>348.0</ele><time>2026-04-02T11:02:39.478Z</time></trkpt><trkpt lat="45.448475" lon="11.5590783"><ele>349.59999999999997</ele><time>2026-04-02T11:02:42.478Z</time></trkpt><trkpt lat="45.4484933" lon="11.5591767"><ele>351.2</ele><time>2026-04-02T11:02:45.479Z</time></trkpt><trkpt lat="45.4485" lon="11.55929"><ele>352.8</ele><time>2026-04-02T11:02:49.479Z</time></trkpt><trkpt lat="45.4485117" lon="11.5595233"><ele>354.4</ele><time>2026-04-02T11:03:46.478Z</time></trkpt><trkpt lat="45.448515" lon="11.5596333"><ele>356.0</ele><time>2026-04-02T11:03:50.479Z</time></trkpt><trkpt lat="45.448485" lon="11.559725"><ele>358.1428571428571</ele><time>2026-04-02T11:03:53.478Z</time></trkpt><trkpt lat="45.4484367" lon="11.559785"><ele>360.2857142857143</ele><time>2026-04-02T11:03:56.478Z</time></trkpt><trkpt lat="45.4483817" lon="11.559845"><ele>362.42857142857144</ele><time>2026-04-02T11:04:00.478Z</time></trkpt><trkpt lat="45.4483167" lon="11.5599083"><ele>364.57142857142856</ele><time>2026-04-02T11:04:05.478Z</time></trkpt><trkpt lat="45.448255" lon="11.5599717"><ele>366.7142857142857</ele><time>2026-04-02T11:04:09.478Z</time></trkpt><trkpt lat="45.4481967" lon="11.5600233"><ele>368.85714285714283</ele><time>2026-04-02T11:04:12.479Z</time></trkpt><trkpt lat="45.44813" lon="11.5600767"><ele>371.0</ele><time>2026-04-02T11:04:15.478Z</time></trkpt><trkpt lat="45.4480517" lon="11.5601283"><ele>371.0</ele><time>2026-04-02T11:04:18.479Z</time></trkpt><trkpt lat="45.448" lon="11.5601867"><ele>371.0</ele><time>2026-04-02T11:04:20.479Z</time></trkpt><trkpt lat="45.4479383" lon="11.5602667"><ele>371.0</ele><time>2026-04-02T11:04:23.478Z</time></trkpt><trkpt lat="45.4478667" lon="11.5603433"><ele>371.0</ele><time>2026-04-02T11:04:26.479Z</time></trkpt><trkpt lat="45.44781" lon="11.5603867"><ele>371.0</ele><time>2026-04-02T11:04:28.478Z</time></trkpt><trkpt lat="45.447755" lon="11.5604367"><ele>371.0</ele><time>2026-04-02T11:04:30.478Z</time></trkpt><trkpt lat="45.44768" lon="11.5605017"><ele>372.6666666666667</ele><time>2026-04-02T11:04:33.479Z</time></trkpt><trkpt lat="45.447605" lon="11.5605567"><ele>374.33333333333337</ele><time>2026-04-02T11:04:36.478Z</time></trkpt><trkpt lat="45.44754" lon="11.5606067"><ele>376.0</ele><time>2026-04-02T11:04:39.479Z</time></trkpt><trkpt lat="45.4474633" lon="11.560655"><ele>377.6666666666667</ele><time>2026-04-02T11:04:42.478Z</time></trkpt><trkpt lat="45.4473933" lon="11.5606967"><ele>379.3333333333333</ele><time>2026-04-02T11:04:45.478Z</time></trkpt><trkpt lat="45.4473317" lon="11.5607383"><ele>381.0</ele><time>2026-04-02T11:04:48.478Z</time></trkpt><trkpt lat="45.44727" lon="11.5607817"><ele>381.0</ele><time>2026-04-02T11:04:51.478Z</time></trkpt><trkpt lat="45.4472117" lon="11.5608333"><ele>381.0</ele><time>2026-04-02T11:04:54.478Z</time></trkpt><trkpt lat="45.4471517" lon="11.5608883"><ele>381.0</ele><time>2026-04-02T11:04:57.478Z</time></trkpt><trkpt lat="45.4470867" lon="11.560965"><ele>381.0</ele><time>2026-04-02T11:05:00.478Z</time></trkpt><trkpt lat="45.44702" lon="11.5610317"><ele>381.0</ele><time>2026-04-02T11:05:03.478Z</time></trkpt><trkpt lat="45.4469617" lon="11.5611033"><ele>381.0</ele><time>2026-04-02T11:05:06.478Z</time></trkpt><trkpt lat="45.4469133" lon="11.5611783"><ele>380.4285714285714</ele><time>2026-04-02T11:05:09.478Z</time></trkpt><trkpt lat="45.4468883" lon="11.5612867"><ele>379.8571428571429</ele><time>2026-04-02T11:05:12.478Z</time></trkpt><trkpt lat="45.4468933" lon="11.5613817"><ele>379.2857142857143</ele><time>2026-04-02T11:05:15.479Z</time></trkpt><trkpt lat="45.4469767" lon="11.561355"><ele>378.71428571428567</ele><time>2026-04-02T11:05:19.479Z</time></trkpt><trkpt lat="45.4470383" lon="11.5613"><ele>378.1428571428571</ele><time>2026-04-02T11:05:22.478Z</time></trkpt><trkpt lat="45.447095" lon="11.5612417"><ele>377.57142857142856</ele><time>2026-04-02T11:05:25.479Z</time></trkpt><trkpt lat="45.4471667" lon="11.5612133"><ele>377.0</ele><time>2026-04-02T11:05:29.478Z</time></trkpt><trkpt lat="45.4472383" lon="11.5612683"><ele>379.2857142857143</ele><time>2026-04-02T11:05:33.478Z</time></trkpt><trkpt lat="45.4472833" lon="11.56136"><ele>381.57142857142856</ele><time>2026-04-02T11:05:37.478Z</time></trkpt><trkpt lat="45.44732" lon="11.56145"><ele>383.8571428571429</ele><time>2026-04-02T11:05:40.479Z</time></trkpt><trkpt lat="45.44735" lon="11.5615383"><ele>386.1428571428571</ele><time>2026-04-02T11:05:43.479Z</time></trkpt><trkpt lat="45.4473867" lon="11.5616167"><ele>388.42857142857144</ele><time>2026-04-02T11:05:46.478Z</time></trkpt><trkpt lat="45.44744" lon="11.5617033"><ele>390.7142857142857</ele><time>2026-04-02T11:05:49.478Z</time></trkpt><trkpt lat="45.44748" lon="11.561775"><ele>393.0</ele><time>2026-04-02T11:05:51.478Z</time></trkpt><trkpt lat="45.4475383" lon="11.5618483"><ele>393.0</ele><time>2026-04-02T11:05:55.479Z</time></trkpt><trkpt lat="45.447605" lon="11.56189"><ele>393.0</ele><time>2026-04-02T11:06:00.478Z</time></trkpt><trkpt lat="45.4476467" lon="11.561985"><ele>393.0</ele><time>2026-04-02T11:06:04.478Z</time></trkpt><trkpt lat="45.4476683" lon="11.5620933"><ele>393.0</ele><time>2026-04-02T11:06:07.478Z</time></trkpt><trkpt lat="45.447685" lon="11.5622067"><ele>393.0</ele><time>2026-04-02T11:06:11.478Z</time></trkpt><trkpt lat="45.4476867" lon="11.56232"><ele>393.0</ele><time>2026-04-02T11:06:15.478Z</time></trkpt><trkpt lat="45.44766" lon="11.5624117"><ele>393.28571428571433</ele><time>2026-04-02T11:06:19.478Z</time></trkpt><trkpt lat="45.4475933" lon="11.5624383"><ele>393.57142857142856</ele><time>2026-04-02T11:06:22.478Z</time></trkpt><trkpt lat="45.44751" lon="11.5624617"><ele>393.8571428571429</ele><time>2026-04-02T11:06:25.478Z</time></trkpt><trkpt lat="45.447445" lon="11.5624817"><ele>394.14285714285717</ele><time>2026-04-02T11:06:27.478Z</time></trkpt><trkpt lat="45.4473833" lon="11.5625167"><ele>394.42857142857144</ele><time>2026-04-02T11:06:29.478Z</time></trkpt><trkpt lat="45.4473267" lon="11.5625617"><ele>394.7142857142857</ele><time>2026-04-02T11:06:31.479Z</time></trkpt><trkpt lat="45.4472717" lon="11.5626083"><ele>395.0</ele><time>2026-04-02T11:06:33.478Z</time></trkpt><trkpt lat="45.4472017" lon="11.5626717"><ele>395.0</ele><time>2026-04-02T11:06:36.478Z</time></trkpt><trkpt lat="45.4471283" lon="11.5627517"><ele>395.0</ele><time>2026-04-02T11:06:39.478Z</time></trkpt><trkpt lat="45.4470783" lon="11.5628067"><ele>395.0</ele><time>2026-04-02T11:06:41.478Z</time></trkpt><trkpt lat="45.44703" lon="11.562875"><ele>395.0</ele><time>2026-04-02T11:06:43.478Z</time></trkpt><trkpt lat="45.4469917" lon="11.5629583"><ele>395.0</ele><time>2026-04-02T11:06:45.478Z</time></trkpt><trkpt lat="45.4469733" lon="11.5630467"><ele>395.0</ele><time>2026-04-02T11:06:47.479Z</time></trkpt><trkpt lat="45.4469583" lon="11.56317"><ele>395.0</ele><time>2026-04-02T11:06:50.478Z</time></trkpt><trkpt lat="45.446945" lon="11.5632933"><ele>395.0</ele><time>2026-04-02T11:06:53.478Z</time></trkpt><trkpt lat="45.4469317" lon="11.563385"><ele>395.0</ele><time>2026-04-02T11:06:55.478Z</time></trkpt><trkpt lat="45.4469317" lon="11.5634983"><ele>395.0</ele><time>2026-04-02T11:06:58.479Z</time></trkpt><trkpt lat="45.4469333" lon="11.5636017"><ele>395.0</ele><time>2026-04-02T11:07:01.478Z</time></trkpt><trkpt lat="45.446975" lon="11.563675"><ele>395.0</ele><time>2026-04-02T11:07:05.478Z</time></trkpt><trkpt lat="45.4470383" lon="11.5636983"><ele>395.0</ele><time>2026-04-02T11:07:08.478Z</time></trkpt><trkpt lat="45.4471" lon="11.5637267"><ele>395.0</ele><time>2026-04-02T11:07:11.478Z</time></trkpt><trkpt lat="45.44718" lon="11.5637717"><ele>395.1428571428571</ele><time>2026-04-02T11:07:15.478Z</time></trkpt><trkpt lat="45.4472467" lon="11.563795"><ele>395.28571428571433</ele><time>2026-04-02T11:07:18.478Z</time></trkpt><trkpt lat="45.44733" lon="11.5638133"><ele>395.42857142857144</ele><time>2026-04-02T11:07:21.479Z</time></trkpt><trkpt lat="45.4474017" lon="11.563845"><ele>395.57142857142856</ele><time>2026-04-02T11:07:24.478Z</time></trkpt><trkpt lat="45.4474767" lon="11.56385"><ele>395.71428571428567</ele><time>2026-04-02T11:07:27.478Z</time></trkpt><trkpt lat="45.4475467" lon="11.5638433"><ele>395.8571428571429</ele><time>2026-04-02T11:07:30.478Z</time></trkpt><trkpt lat="45.4476217" lon="11.5638583"><ele>396.0</ele><time>2026-04-02T11:07:34.478Z</time></trkpt><trkpt lat="45.447695" lon="11.5638417"><ele>396.0</ele><time>2026-04-02T11:07:38.478Z</time></trkpt><trkpt lat="45.447755" lon="11.5638133"><ele>396.0</ele><time>2026-04-02T11:07:40.479Z</time></trkpt><trkpt lat="45.4478333" lon="11.5637367"><ele>396.0</ele><time>2026-04-02T11:07:43.478Z</time></trkpt><trkpt lat="45.4478867" lon="11.563675"><ele>396.0</ele><time>2026-04-02T11:07:45.478Z</time></trkpt><trkpt lat="45.447935" lon="11.5636133"><ele>396.0</ele><time>2026-04-02T11:07:47.478Z</time></trkpt><trkpt lat="45.447985" lon="11.563555"><ele>396.0</ele><time>2026-04-02T11:07:49.478Z</time></trkpt><trkpt lat="45.44804" lon="11.5634933"><ele>396.0</ele><time>2026-04-02T11:07:51.478Z</time></trkpt><trkpt lat="45.4480917" lon="11.5634317"><ele>396.6666666666667</ele><time>2026-04-02T11:07:53.479Z</time></trkpt><trkpt lat="45.4481683" lon="11.5633567"><ele>397.33333333333337</ele><time>2026-04-02T11:07:56.478Z</time></trkpt><trkpt lat="45.448225" lon="11.563315"><ele>398.0</ele><time>2026-04-02T11:07:58.478Z</time></trkpt><trkpt lat="45.4483083" lon="11.5632617"><ele>398.6666666666667</ele><time>2026-04-02T11:08:01.479Z</time></trkpt><trkpt lat="45.4483733" lon="11.5632467"><ele>399.33333333333337</ele><time>2026-04-02T11:08:03.479Z</time></trkpt><trkpt lat="45.4484367" lon="11.5632183"><ele>400.0</ele><time>2026-04-02T11:08:05.479Z</time></trkpt><trkpt lat="45.4485067" lon="11.5631933"><ele>400.00000000000006</ele><time>2026-04-02T11:08:07.478Z</time></trkpt><trkpt lat="45.4485717" lon="11.5631833"><ele>400.0</ele><time>2026-04-02T11:08:09.479Z</time></trkpt><trkpt lat="45.4486567" lon="11.5631717"><ele>400.0</ele><time>2026-04-02T11:08:12.478Z</time></trkpt><trkpt lat="45.4487433" lon="11.5631783"><ele>400.0</ele><time>2026-04-02T11:08:15.478Z</time></trkpt><trkpt lat="45.448815" lon="11.5631767"><ele>400.00000000000006</ele><time>2026-04-02T11:08:17.478Z</time></trkpt><trkpt lat="45.448895" lon="11.5631733"><ele>400.0</ele><time>2026-04-02T11:08:19.478Z</time></trkpt><trkpt lat="45.4489817" lon="11.56316"><ele>400.0</ele><time>2026-04-02T11:08:21.478Z</time></trkpt><trkpt lat="45.4490667" lon="11.56318"><ele>400.0</ele><time>2026-04-02T11:08:23.478Z</time></trkpt><trkpt lat="45.4491467" lon="11.5632433"><ele>400.0</ele><time>2026-04-02T11:08:25.478Z</time></trkpt><trkpt lat="45.4492317" lon="11.5633233"><ele>400.0</ele><time>2026-04-02T11:08:27.478Z</time></trkpt><trkpt lat="45.44931" lon="11.5634033"><ele>400.0</ele><time>2026-04-02T11:08:29.478Z</time></trkpt><trkpt lat="45.44939" lon="11.5634517"><ele>400.00000000000006</ele><time>2026-04-02T11:08:31.478Z</time></trkpt><trkpt lat="45.4494483" lon="11.5634867"><ele>400.0</ele><time>2026-04-02T11:08:33.479Z</time></trkpt><trkpt lat="45.4495133" lon="11.5635183"><ele>400.0</ele><time>2026-04-02T11:08:37.479Z</time></trkpt><trkpt lat="45.44959" lon="11.5635767"><ele>400.0</ele><time>2026-04-02T11:08:41.478Z</time></trkpt><trkpt lat="45.4496517" lon="11.5636383"><ele>400.00000000000006</ele><time>2026-04-02T11:08:43.478Z</time></trkpt><trkpt lat="45.4497217" lon="11.5636933"><ele>400.0</ele><time>2026-04-02T11:08:45.478Z</time></trkpt><trkpt lat="45.4498017" lon="11.5637567"><ele>399.1666666666667</ele><time>2026-04-02T11:08:47.478Z</time></trkpt><trkpt lat="45.4498683" lon="11.56383"><ele>398.33333333333337</ele><time>2026-04-02T11:08:49.479Z</time></trkpt><trkpt lat="45.44993" lon="11.563885"><ele>397.5</ele><time>2026-04-02T11:08:51.478Z</time></trkpt><trkpt lat="45.4499967" lon="11.56395"><ele>396.66666666666663</ele><time>2026-04-02T11:08:53.479Z</time></trkpt><trkpt lat="45.450075" lon="11.56402"><ele>395.8333333333333</ele><time>2026-04-02T11:08:55.478Z</time></trkpt><trkpt lat="45.4501683" lon="11.5640517"><ele>395.0</ele><time>2026-04-02T11:08:57.478Z</time></trkpt><trkpt lat="45.4502417" lon="11.5641467"><ele>395.0</ele><time>2026-04-02T11:08:59.478Z</time></trkpt><trkpt lat="45.4503" lon="11.5642133"><ele>395.0</ele><time>2026-04-02T11:09:01.478Z</time></trkpt><trkpt lat="45.4503517" lon="11.564315"><ele>395.0</ele><time>2026-04-02T11:09:03.478Z</time></trkpt><trkpt lat="45.45036" lon="11.5644633"><ele>395.0</ele><time>2026-04-02T11:09:05.478Z</time></trkpt><trkpt lat="45.45034" lon="11.5646217"><ele>395.0</ele><time>2026-04-02T11:09:07.478Z</time></trkpt><trkpt lat="45.4503317" lon="11.5647783"><ele>392.8</ele><time>2026-04-02T11:09:09.478Z</time></trkpt><trkpt lat="45.4503533" lon="11.564915"><ele>390.6</ele><time>2026-04-02T11:09:11.478Z</time></trkpt><trkpt lat="45.4503883" lon="11.5650417"><ele>388.4</ele><time>2026-04-02T11:09:13.479Z</time></trkpt><trkpt lat="45.4504383" lon="11.565155"><ele>386.2</ele><time>2026-04-02T11:09:15.478Z</time></trkpt><trkpt lat="45.4505083" lon="11.5652633"><ele>384.0</ele><time>2026-04-02T11:09:17.478Z</time></trkpt><trkpt lat="45.4505967" lon="11.5653717"><ele>383.6666666666667</ele><time>2026-04-02T11:09:19.478Z</time></trkpt><trkpt lat="45.4506583" lon="11.5654533"><ele>383.3333333333333</ele><time>2026-04-02T11:09:21.478Z</time></trkpt><trkpt lat="45.4507067" lon="11.5655167"><ele>383.0</ele><time>2026-04-02T11:09:23.478Z</time></trkpt><trkpt lat="45.45077" lon="11.5655883"><ele>382.66666666666663</ele><time>2026-04-02T11:09:26.479Z</time></trkpt><trkpt lat="45.4508317" lon="11.56562"><ele>382.3333333333333</ele><time>2026-04-02T11:09:28.478Z</time></trkpt><trkpt lat="45.4509083" lon="11.5656433"><ele>382.0</ele><time>2026-04-02T11:09:30.479Z</time></trkpt><trkpt lat="45.450985" lon="11.5656767"><ele>382.0</ele><time>2026-04-02T11:09:32.478Z</time></trkpt><trkpt lat="45.451055" lon="11.5656983"><ele>382.0</ele><time>2026-04-02T11:09:34.478Z</time></trkpt><trkpt lat="45.45112" lon="11.56571"><ele>382.0</ele><time>2026-04-02T11:09:36.478Z</time></trkpt><trkpt lat="45.4512" lon="11.56571"><ele>382.0</ele><time>2026-04-02T11:09:38.478Z</time></trkpt><trkpt lat="45.4512633" lon="11.5657283"><ele>382.0</ele><time>2026-04-02T11:09:40.478Z</time></trkpt><trkpt lat="45.4513317" lon="11.5657433"><ele>382.0</ele><time>2026-04-02T11:09:42.478Z</time></trkpt><trkpt lat="45.4514217" lon="11.5657417"><ele>382.0</ele><time>2026-04-02T11:09:44.478Z</time></trkpt><trkpt lat="45.4515083" lon="11.56575"><ele>379.0</ele><time>2026-04-02T11:09:46.478Z</time></trkpt><trkpt lat="45.451575" lon="11.5657883"><ele>376.0</ele><time>2026-04-02T11:09:48.478Z</time></trkpt><trkpt lat="45.4517617" lon="11.5658167"><ele>373.0</ele><time>2026-04-02T11:10:42.478Z</time></trkpt><trkpt lat="45.4517933" lon="11.5657317"><ele>370.0</ele><time>2026-04-02T11:10:46.478Z</time></trkpt><trkpt lat="45.451795" lon="11.5656267"><ele>367.0</ele><time>2026-04-02T11:10:49.478Z</time></trkpt><trkpt lat="45.4517533" lon="11.565705"><ele>367.0</ele><time>2026-04-02T11:11:00.478Z</time></trkpt><trkpt lat="45.451745" lon="11.5658183"><ele>367.0</ele><time>2026-04-02T11:11:03.478Z</time></trkpt><trkpt lat="45.4517267" lon="11.56591"><ele>367.0</ele><time>2026-04-02T11:11:05.478Z</time></trkpt><trkpt lat="45.451695" lon="11.5660217"><ele>367.0</ele><time>2026-04-02T11:11:07.478Z</time></trkpt><trkpt lat="45.451695" lon="11.5661533"><ele>367.0</ele><time>2026-04-02T11:11:09.478Z</time></trkpt><trkpt lat="45.4517033" lon="11.5662867"><ele>367.0</ele><time>2026-04-02T11:11:12.478Z</time></trkpt><trkpt lat="45.4517417" lon="11.56641"><ele>366.8</ele><time>2026-04-02T11:11:15.479Z</time></trkpt><trkpt lat="45.45179" lon="11.5665083"><ele>366.6</ele><time>2026-04-02T11:11:18.479Z</time></trkpt><trkpt lat="45.4518767" lon="11.5666117"><ele>366.40000000000003</ele><time>2026-04-02T11:11:28.479Z</time></trkpt><trkpt lat="45.4519117" lon="11.5667267"><ele>366.20000000000005</ele><time>2026-04-02T11:11:31.478Z</time></trkpt><trkpt lat="45.4519283" lon="11.566845"><ele>366.0</ele><time>2026-04-02T11:11:34.479Z</time></trkpt><trkpt lat="45.45196" lon="11.56695"><ele>365.2857142857143</ele><time>2026-04-02T11:11:36.479Z</time></trkpt><trkpt lat="45.45198" lon="11.567065"><ele>364.57142857142856</ele><time>2026-04-02T11:11:38.478Z</time></trkpt><trkpt lat="45.452005" lon="11.5671833"><ele>363.8571428571429</ele><time>2026-04-02T11:11:40.478Z</time></trkpt><trkpt lat="45.45203" lon="11.5672867"><ele>363.1428571428571</ele><time>2026-04-02T11:11:42.478Z</time></trkpt><trkpt lat="45.4520633" lon="11.5673683"><ele>362.4285714285714</ele><time>2026-04-02T11:11:44.479Z</time></trkpt><trkpt lat="45.4521083" lon="11.5674333"><ele>361.7142857142857</ele><time>2026-04-02T11:11:46.478Z</time></trkpt><trkpt lat="45.45216" lon="11.56749"><ele>361.0</ele><time>2026-04-02T11:11:48.478Z</time></trkpt><trkpt lat="45.452245" lon="11.5675417"><ele>358.16666666666663</ele><time>2026-04-02T11:11:50.478Z</time></trkpt><trkpt lat="45.4523633" lon="11.5676367"><ele>355.3333333333333</ele><time>2026-04-02T11:11:52.479Z</time></trkpt><trkpt lat="45.45242" lon="11.5677"><ele>352.5</ele><time>2026-04-02T11:11:53.478Z</time></trkpt><trkpt lat="45.4524683" lon="11.5677667"><ele>349.6666666666667</ele><time>2026-04-02T11:11:54.479Z</time></trkpt><trkpt lat="45.4525133" lon="11.5678383"><ele>346.83333333333337</ele><time>2026-04-02T11:11:55.478Z</time></trkpt><trkpt lat="45.45256" lon="11.56791"><ele>344.0</ele><time>2026-04-02T11:11:56.478Z</time></trkpt><trkpt lat="45.4526017" lon="11.5679833"><ele>343.6</ele><time>2026-04-02T11:11:57.478Z</time></trkpt><trkpt lat="45.4526383" lon="11.5680617"><ele>343.2</ele><time>2026-04-02T11:11:58.478Z</time></trkpt><trkpt lat="45.452665" lon="11.5681467"><ele>342.8</ele><time>2026-04-02T11:11:59.478Z</time></trkpt><trkpt lat="45.45268" lon="11.568235"><ele>342.40000000000003</ele><time>2026-04-02T11:12:00.478Z</time></trkpt><trkpt lat="45.4526933" lon="11.568465"><ele>342.0</ele><time>2026-04-02T11:12:03.478Z</time></trkpt><trkpt lat="45.4527" lon="11.56862"><ele>341.1666666666667</ele><time>2026-04-02T11:12:05.478Z</time></trkpt><trkpt lat="45.4526967" lon="11.568785"><ele>340.3333333333333</ele><time>2026-04-02T11:12:07.479Z</time></trkpt><trkpt lat="45.45269" lon="11.5689083"><ele>339.5</ele><time>2026-04-02T11:12:09.478Z</time></trkpt><trkpt lat="45.452685" lon="11.569015"><ele>338.66666666666663</ele><time>2026-04-02T11:12:11.478Z</time></trkpt><trkpt lat="45.4527617" lon="11.5690733"><ele>337.8333333333333</ele><time>2026-04-02T11:12:15.478Z</time></trkpt><trkpt lat="45.452835" lon="11.5690567"><ele>337.0</ele><time>2026-04-02T11:12:17.478Z</time></trkpt><trkpt lat="45.4529283" lon="11.56903"><ele>334.6</ele><time>2026-04-02T11:12:19.478Z</time></trkpt><trkpt lat="45.453055" lon="11.5689983"><ele>332.20000000000005</ele><time>2026-04-02T11:12:21.478Z</time></trkpt><trkpt lat="45.4531167" lon="11.5689767"><ele>329.8</ele><time>2026-04-02T11:12:22.478Z</time></trkpt><trkpt lat="45.4532317" lon="11.5689167"><ele>327.4</ele><time>2026-04-02T11:12:24.478Z</time></trkpt><trkpt lat="45.4533167" lon="11.568885"><ele>325.0</ele><time>2026-04-02T11:12:26.478Z</time></trkpt><trkpt lat="45.4533833" lon="11.5688683"><ele>325.0</ele><time>2026-04-02T11:12:28.478Z</time></trkpt><trkpt lat="45.45343" lon="11.56878"><ele>325.0</ele><time>2026-04-02T11:12:30.478Z</time></trkpt><trkpt lat="45.45343" lon="11.568665"><ele>325.0</ele><time>2026-04-02T11:12:32.478Z</time></trkpt><trkpt lat="45.4534283" lon="11.5685567"><ele>325.0</ele><time>2026-04-02T11:12:34.478Z</time></trkpt><trkpt lat="45.45342" lon="11.5684383"><ele>325.0</ele><time>2026-04-02T11:12:36.478Z</time></trkpt><trkpt lat="45.4534133" lon="11.5683217"><ele>325.0</ele><time>2026-04-02T11:12:38.478Z</time></trkpt><trkpt lat="45.453415" lon="11.5681983"><ele>326.57142857142856</ele><time>2026-04-02T11:12:40.478Z</time></trkpt><trkpt lat="45.4534133" lon="11.568105"><ele>328.14285714285717</ele><time>2026-04-02T11:12:42.478Z</time></trkpt><trkpt lat="45.453405" lon="11.5680117"><ele>329.7142857142857</ele><time>2026-04-02T11:12:44.478Z</time></trkpt><trkpt lat="45.4533983" lon="11.5678817"><ele>331.2857142857143</ele><time>2026-04-02T11:12:47.478Z</time></trkpt><trkpt lat="45.4534" lon="11.56778"><ele>332.8571428571429</ele><time>2026-04-02T11:12:50.478Z</time></trkpt><trkpt lat="45.45341" lon="11.567675"><ele>334.42857142857144</ele><time>2026-04-02T11:12:53.478Z</time></trkpt><trkpt lat="45.453455" lon="11.5675983"><ele>336.0</ele><time>2026-04-02T11:12:56.478Z</time></trkpt><trkpt lat="45.45354" lon="11.5675317"><ele>336.5</ele><time>2026-04-02T11:12:59.478Z</time></trkpt><trkpt lat="45.4536417" lon="11.567465"><ele>337.0</ele><time>2026-04-02T11:13:01.478Z</time></trkpt><trkpt lat="45.45371" lon="11.56741"><ele>337.5</ele><time>2026-04-02T11:13:02.478Z</time></trkpt><trkpt lat="45.4537767" lon="11.56735"><ele>338.0</ele><time>2026-04-02T11:13:03.479Z</time></trkpt><trkpt lat="45.4538333" lon="11.5672983"><ele>338.5</ele><time>2026-04-02T11:13:04.478Z</time></trkpt><trkpt lat="45.453885" lon="11.5672433"><ele>339.0</ele><time>2026-04-02T11:13:05.479Z</time></trkpt><trkpt lat="45.45398" lon="11.56714"><ele>339.6</ele><time>2026-04-02T11:13:07.478Z</time></trkpt><trkpt lat="45.4540617" lon="11.5670267"><ele>340.2</ele><time>2026-04-02T11:13:09.478Z</time></trkpt><trkpt lat="45.4541433" lon="11.5669133"><ele>340.8</ele><time>2026-04-02T11:13:11.478Z</time></trkpt><trkpt lat="45.4542217" lon="11.566805"><ele>341.40000000000003</ele><time>2026-04-02T11:13:13.478Z</time></trkpt><trkpt lat="45.4543" lon="11.5667083"><ele>342.0</ele><time>2026-04-02T11:13:15.478Z</time></trkpt><trkpt lat="45.4543733" lon="11.5666267"><ele>342.0</ele><time>2026-04-02T11:13:17.478Z</time></trkpt><trkpt lat="45.4544433" lon="11.5665433"><ele>342.0</ele><time>2026-04-02T11:13:19.478Z</time></trkpt><trkpt lat="45.454515" lon="11.5664617"><ele>342.0</ele><time>2026-04-02T11:13:21.479Z</time></trkpt><trkpt lat="45.4545883" lon="11.5663867"><ele>342.0</ele><time>2026-04-02T11:13:23.478Z</time></trkpt><trkpt lat="45.4546633" lon="11.566325"><ele>342.0</ele><time>2026-04-02T11:13:25.478Z</time></trkpt><trkpt lat="45.4547433" lon="11.5662733"><ele>342.0</ele><time>2026-04-02T11:13:28.479Z</time></trkpt><trkpt lat="45.4548317" lon="11.566205"><ele>341.5</ele><time>2026-04-02T11:13:31.478Z</time></trkpt><trkpt lat="45.4548967" lon="11.5661567"><ele>341.0</ele><time>2026-04-02T11:13:33.478Z</time></trkpt><trkpt lat="45.45496" lon="11.5660833"><ele>340.5</ele><time>2026-04-02T11:13:35.478Z</time></trkpt><trkpt lat="45.4550317" lon="11.5659917"><ele>340.0</ele><time>2026-04-02T11:13:37.478Z</time></trkpt><trkpt lat="45.4550883" lon="11.5658917"><ele>339.5</ele><time>2026-04-02T11:13:39.479Z</time></trkpt><trkpt lat="45.4551433" lon="11.565775"><ele>339.0</ele><time>2026-04-02T11:13:41.478Z</time></trkpt><trkpt lat="45.4551967" lon="11.56562"><ele>339.0</ele><time>2026-04-02T11:13:43.478Z</time></trkpt><trkpt lat="45.4552233" lon="11.565525"><ele>339.0</ele><time>2026-04-02T11:13:44.478Z</time></trkpt><trkpt lat="45.4552533" lon="11.5653583"><ele>339.0</ele><time>2026-04-02T11:13:46.478Z</time></trkpt><trkpt lat="45.45527" lon="11.565265"><ele>339.0</ele><time>2026-04-02T11:13:47.478Z</time></trkpt><trkpt lat="45.4553033" lon="11.5650983"><ele>339.0</ele><time>2026-04-02T11:13:49.478Z</time></trkpt><trkpt lat="45.455355" lon="11.564955"><ele>339.8333333333333</ele><time>2026-04-02T11:13:51.478Z</time></trkpt><trkpt lat="45.45543" lon="11.5648567"><ele>340.6666666666667</ele><time>2026-04-02T11:13:53.478Z</time></trkpt><trkpt lat="45.4555383" lon="11.5648383"><ele>341.5</ele><time>2026-04-02T11:13:55.478Z</time></trkpt><trkpt lat="45.4556117" lon="11.5648517"><ele>342.33333333333337</ele><time>2026-04-02T11:13:56.478Z</time></trkpt><trkpt lat="45.4556817" lon="11.5648683"><ele>343.1666666666667</ele><time>2026-04-02T11:13:57.478Z</time></trkpt><trkpt lat="45.4557583" lon="11.5649"><ele>344.0</ele><time>2026-04-02T11:13:58.478Z</time></trkpt><trkpt lat="45.45582" lon="11.5649367"><ele>341.33333333333337</ele><time>2026-04-02T11:13:59.478Z</time></trkpt><trkpt lat="45.4558817" lon="11.56496"><ele>338.6666666666667</ele><time>2026-04-02T11:14:00.478Z</time></trkpt><trkpt lat="45.4559767" lon="11.5649667"><ele>336.0</ele><time>2026-04-02T11:14:02.479Z</time></trkpt><trkpt lat="45.4560533" lon="11.56494"><ele>333.3333333333333</ele><time>2026-04-02T11:14:04.478Z</time></trkpt><trkpt lat="45.4561317" lon="11.5649333"><ele>330.66666666666663</ele><time>2026-04-02T11:14:06.478Z</time></trkpt><trkpt lat="45.4562233" lon="11.5649983"><ele>328.0</ele><time>2026-04-02T11:14:08.478Z</time></trkpt><trkpt lat="45.45632" lon="11.56511"><ele>327.85714285714283</ele><time>2026-04-02T11:14:10.478Z</time></trkpt><trkpt lat="45.4563667" lon="11.565185"><ele>327.7142857142857</ele><time>2026-04-02T11:14:11.478Z</time></trkpt><trkpt lat="45.4564183" lon="11.5652567"><ele>327.57142857142856</ele><time>2026-04-02T11:14:12.478Z</time></trkpt><trkpt lat="45.45648" lon="11.5653133"><ele>327.42857142857144</ele><time>2026-04-02T11:14:13.478Z</time></trkpt><trkpt lat="45.456555" lon="11.5653567"><ele>327.2857142857143</ele><time>2026-04-02T11:14:14.479Z</time></trkpt><trkpt lat="45.4566217" lon="11.565385"><ele>327.1428571428571</ele><time>2026-04-02T11:14:15.478Z</time></trkpt><trkpt lat="45.4566883" lon="11.56541"><ele>327.0</ele><time>2026-04-02T11:14:16.478Z</time></trkpt><trkpt lat="45.4567583" lon="11.5654233"><ele>325.85714285714283</ele><time>2026-04-02T11:14:17.478Z</time></trkpt><trkpt lat="45.456825" lon="11.56544"><ele>324.7142857142857</ele><time>2026-04-02T11:14:18.478Z</time></trkpt><trkpt lat="45.456895" lon="11.565445"><ele>323.57142857142856</ele><time>2026-04-02T11:14:19.478Z</time></trkpt><trkpt lat="45.4569617" lon="11.5654383"><ele>322.42857142857144</ele><time>2026-04-02T11:14:20.479Z</time></trkpt><trkpt lat="45.4570333" lon="11.565425"><ele>321.2857142857143</ele><time>2026-04-02T11:14:21.479Z</time></trkpt><trkpt lat="45.4571017" lon="11.56541"><ele>320.14285714285717</ele><time>2026-04-02T11:14:22.478Z</time></trkpt><trkpt lat="45.4571667" lon="11.5653767"><ele>319.0</ele><time>2026-04-02T11:14:23.478Z</time></trkpt><trkpt lat="45.4572333" lon="11.5653483"><ele>319.0</ele><time>2026-04-02T11:14:24.478Z</time></trkpt><trkpt lat="45.4572967" lon="11.5653183"><ele>319.0</ele><time>2026-04-02T11:14:25.478Z</time></trkpt><trkpt lat="45.4573583" lon="11.565285"><ele>319.0</ele><time>2026-04-02T11:14:26.478Z</time></trkpt><trkpt lat="45.457425" lon="11.56524"><ele>319.0</ele><time>2026-04-02T11:14:27.478Z</time></trkpt><trkpt lat="45.45753" lon="11.5651517"><ele>319.0</ele><time>2026-04-02T11:14:29.479Z</time></trkpt><trkpt lat="45.4576183" lon="11.565065"><ele>319.0</ele><time>2026-04-02T11:14:31.478Z</time></trkpt><trkpt lat="45.4577167" lon="11.5649817"><ele>319.0</ele><time>2026-04-02T11:14:33.478Z</time></trkpt><trkpt lat="45.4578083" lon="11.56491"><ele>319.0</ele><time>2026-04-02T11:14:35.478Z</time></trkpt><trkpt lat="45.4579033" lon="11.5648217"><ele>319.0</ele><time>2026-04-02T11:14:37.479Z</time></trkpt><trkpt lat="45.4579517" lon="11.5647633"><ele>319.0</ele><time>2026-04-02T11:14:38.479Z</time></trkpt><trkpt lat="45.4579983" lon="11.5647017"><ele>319.0</ele><time>2026-04-02T11:14:39.478Z</time></trkpt><trkpt lat="45.4580417" lon="11.56463"><ele>319.0</ele><time>2026-04-02T11:14:40.478Z</time></trkpt><trkpt lat="45.4581217" lon="11.5645133"><ele>320.0</ele><time>2026-04-02T11:14:42.478Z</time></trkpt><trkpt lat="45.4581983" lon="11.5643967"><ele>321.0</ele><time>2026-04-02T11:14:44.478Z</time></trkpt><trkpt lat="45.458275" lon="11.564295"><ele>322.0</ele><time>2026-04-02T11:14:46.479Z</time></trkpt><trkpt lat="45.458335" lon="11.5641917"><ele>323.0</ele><time>2026-04-02T11:14:48.478Z</time></trkpt><trkpt lat="45.45839" lon="11.5641033"><ele>324.0</ele><time>2026-04-02T11:14:50.478Z</time></trkpt><trkpt lat="45.4584433" lon="11.5640233"><ele>324.0</ele><time>2026-04-02T11:14:52.478Z</time></trkpt><trkpt lat="45.4584983" lon="11.563955"><ele>324.0</ele><time>2026-04-02T11:14:54.478Z</time></trkpt><trkpt lat="45.4585617" lon="11.5638817"><ele>324.0</ele><time>2026-04-02T11:14:56.478Z</time></trkpt><trkpt lat="45.4586317" lon="11.5638217"><ele>324.0</ele><time>2026-04-02T11:14:58.479Z</time></trkpt><trkpt lat="45.45869" lon="11.5637667"><ele>324.0</ele><time>2026-04-02T11:15:00.478Z</time></trkpt><trkpt lat="45.4587517" lon="11.5637133"><ele>324.0</ele><time>2026-04-02T11:15:02.479Z</time></trkpt><trkpt lat="45.458835" lon="11.56366"><ele>325.1666666666667</ele><time>2026-04-02T11:15:05.478Z</time></trkpt><trkpt lat="45.4588967" lon="11.5636233"><ele>326.3333333333333</ele><time>2026-04-02T11:15:07.478Z</time></trkpt><trkpt lat="45.4589767" lon="11.563565"><ele>327.5</ele><time>2026-04-02T11:15:10.479Z</time></trkpt><trkpt lat="45.4590367" lon="11.5635317"><ele>328.66666666666663</ele><time>2026-04-02T11:15:12.478Z</time></trkpt><trkpt lat="45.4591217" lon="11.56349"><ele>329.8333333333333</ele><time>2026-04-02T11:15:15.478Z</time></trkpt><trkpt lat="45.45921" lon="11.5634817"><ele>331.0</ele><time>2026-04-02T11:15:18.478Z</time></trkpt><trkpt lat="45.4592717" lon="11.5635033"><ele>331.0</ele><time>2026-04-02T11:15:20.478Z</time></trkpt><trkpt lat="45.459335" lon="11.5635267"><ele>331.0</ele><time>2026-04-02T11:15:22.478Z</time></trkpt><trkpt lat="45.4593967" lon="11.5635617"><ele>331.0</ele><time>2026-04-02T11:15:24.478Z</time></trkpt><trkpt lat="45.4594583" lon="11.5636083"><ele>331.0</ele><time>2026-04-02T11:15:26.478Z</time></trkpt><trkpt lat="45.4595167" lon="11.5636583"><ele>331.0</ele><time>2026-04-02T11:15:28.478Z</time></trkpt><trkpt lat="45.4595883" lon="11.5637383"><ele>331.0</ele><time>2026-04-02T11:15:31.479Z</time></trkpt><trkpt lat="45.4596567" lon="11.5638333"><ele>331.16666666666663</ele><time>2026-04-02T11:15:34.478Z</time></trkpt><trkpt lat="45.4597033" lon="11.5639533"><ele>331.3333333333333</ele><time>2026-04-02T11:15:37.478Z</time></trkpt><trkpt lat="45.459725" lon="11.56405"><ele>331.5</ele><time>2026-04-02T11:15:39.478Z</time></trkpt><trkpt lat="45.459735" lon="11.5641517"><ele>331.6666666666667</ele><time>2026-04-02T11:15:41.479Z</time></trkpt><trkpt lat="45.4597167" lon="11.5642617"><ele>331.83333333333337</ele><time>2026-04-02T11:15:43.479Z</time></trkpt><trkpt lat="45.4597217" lon="11.564365"><ele>332.0</ele><time>2026-04-02T11:15:45.478Z</time></trkpt><trkpt lat="45.4597433" lon="11.5644617"><ele>332.0</ele><time>2026-04-02T11:15:47.478Z</time></trkpt><trkpt lat="45.4598017" lon="11.564535"><ele>332.0</ele><time>2026-04-02T11:15:49.479Z</time></trkpt><trkpt lat="45.4598733" lon="11.5645433"><ele>332.0</ele><time>2026-04-02T11:15:51.478Z</time></trkpt><trkpt lat="45.4599517" lon="11.5645383"><ele>332.0</ele><time>2026-04-02T11:15:53.478Z</time></trkpt><trkpt lat="45.4600383" lon="11.564505"><ele>332.0</ele><time>2026-04-02T11:15:55.479Z</time></trkpt><trkpt lat="45.46012" lon="11.5644483"><ele>332.0</ele><time>2026-04-02T11:15:57.478Z</time></trkpt><trkpt lat="45.4601917" lon="11.5643417"><ele>332.0</ele><time>2026-04-02T11:15:59.479Z</time></trkpt><trkpt lat="45.46025" lon="11.5642333"><ele>332.0</ele><time>2026-04-02T11:16:01.478Z</time></trkpt><trkpt lat="45.4603083" lon="11.5641333"><ele>332.0</ele><time>2026-04-02T11:16:03.478Z</time></trkpt><trkpt lat="45.46038" lon="11.564055"><ele>332.0</ele><time>2026-04-02T11:16:05.478Z</time></trkpt><trkpt lat="45.4604617" lon="11.5640467"><ele>332.0</ele><time>2026-04-02T11:16:07.478Z</time></trkpt><trkpt lat="45.4605217" lon="11.5641033"><ele>332.0</ele><time>2026-04-02T11:16:09.478Z</time></trkpt><trkpt lat="45.4605733" lon="11.5641633"><ele>330.6666666666667</ele><time>2026-04-02T11:16:11.478Z</time></trkpt><trkpt lat="45.46063" lon="11.5642167"><ele>329.33333333333337</ele><time>2026-04-02T11:16:13.478Z</time></trkpt><trkpt lat="45.4607017" lon="11.5642767"><ele>328.0</ele><time>2026-04-02T11:16:15.478Z</time></trkpt><trkpt lat="45.4607667" lon="11.5643233"><ele>326.6666666666667</ele><time>2026-04-02T11:16:17.479Z</time></trkpt><trkpt lat="45.460825" lon="11.564385"><ele>325.3333333333333</ele><time>2026-04-02T11:16:19.478Z</time></trkpt><trkpt lat="45.46089" lon="11.5644383"><ele>324.0</ele><time>2026-04-02T11:16:21.478Z</time></trkpt><trkpt lat="45.4609667" lon="11.5645067"><ele>324.0</ele><time>2026-04-02T11:16:23.479Z</time></trkpt><trkpt lat="45.46105" lon="11.5645833"><ele>324.0</ele><time>2026-04-02T11:16:25.478Z</time></trkpt><trkpt lat="45.4611267" lon="11.5646533"><ele>324.0</ele><time>2026-04-02T11:16:27.479Z</time></trkpt><trkpt lat="45.4612083" lon="11.56471"><ele>324.0</ele><time>2026-04-02T11:16:29.478Z</time></trkpt><trkpt lat="45.46129" lon="11.5647733"><ele>324.0</ele><time>2026-04-02T11:16:31.479Z</time></trkpt><trkpt lat="45.461365" lon="11.564835"><ele>324.5</ele><time>2026-04-02T11:16:33.479Z</time></trkpt><trkpt lat="45.4614433" lon="11.5648967"><ele>325.0</ele><time>2026-04-02T11:16:35.478Z</time></trkpt><trkpt lat="45.4615117" lon="11.56496"><ele>325.5</ele><time>2026-04-02T11:16:37.479Z</time></trkpt><trkpt lat="45.461585" lon="11.565025"><ele>326.0</ele><time>2026-04-02T11:16:39.478Z</time></trkpt><trkpt lat="45.4616483" lon="11.56509"><ele>326.5</ele><time>2026-04-02T11:16:41.478Z</time></trkpt><trkpt lat="45.4617217" lon="11.5651683"><ele>327.0</ele><time>2026-04-02T11:16:44.478Z</time></trkpt><trkpt lat="45.461815" lon="11.5651833"><ele>327.0</ele><time>2026-04-02T11:16:47.479Z</time></trkpt><trkpt lat="45.4618967" lon="11.5651883"><ele>327.0</ele><time>2026-04-02T11:16:50.478Z</time></trkpt><trkpt lat="45.46202" lon="11.5651883"><ele>327.0</ele><time>2026-04-02T11:16:55.478Z</time></trkpt><trkpt lat="45.4620833" lon="11.565195"><ele>327.0</ele><time>2026-04-02T11:16:57.478Z</time></trkpt><trkpt lat="45.4622067" lon="11.5651683"><ele>327.0</ele><time>2026-04-02T11:17:00.478Z</time></trkpt><trkpt lat="45.4623033" lon="11.5651217"><ele>326.6666666666667</ele><time>2026-04-02T11:17:02.478Z</time></trkpt><trkpt lat="45.4623983" lon="11.56509"><ele>326.3333333333333</ele><time>2026-04-02T11:17:04.478Z</time></trkpt><trkpt lat="45.462495" lon="11.5650667"><ele>326.0</ele><time>2026-04-02T11:17:06.478Z</time></trkpt><trkpt lat="45.462605" lon="11.5650317"><ele>325.66666666666663</ele><time>2026-04-02T11:17:08.479Z</time></trkpt><trkpt lat="45.46267" lon="11.565005"><ele>325.3333333333333</ele><time>2026-04-02T11:17:09.478Z</time></trkpt><trkpt lat="45.4627367" lon="11.56497"><ele>325.0</ele><time>2026-04-02T11:17:10.478Z</time></trkpt><trkpt lat="45.4628367" lon="11.564905"><ele>325.0</ele><time>2026-04-02T11:17:12.478Z</time></trkpt><trkpt lat="45.4629233" lon="11.564815"><ele>325.0</ele><time>2026-04-02T11:17:14.478Z</time></trkpt><trkpt lat="45.4629833" lon="11.56471"><ele>325.0</ele><time>2026-04-02T11:17:16.478Z</time></trkpt><trkpt lat="45.4630383" lon="11.5646017"><ele>325.0</ele><time>2026-04-02T11:17:18.478Z</time></trkpt><trkpt lat="45.4631317" lon="11.564525"><ele>325.0</ele><time>2026-04-02T11:17:20.478Z</time></trkpt><trkpt lat="45.4631917" lon="11.5644967"><ele>322.66666666666663</ele><time>2026-04-02T11:17:21.478Z</time></trkpt><trkpt lat="45.4632517" lon="11.5644683"><ele>320.3333333333333</ele><time>2026-04-02T11:17:22.478Z</time></trkpt><trkpt lat="45.4633133" lon="11.5644467"><ele>318.0</ele><time>2026-04-02T11:17:23.478Z</time></trkpt><trkpt lat="45.46338" lon="11.56442"><ele>315.6666666666667</ele><time>2026-04-02T11:17:24.478Z</time></trkpt><trkpt lat="45.4634433" lon="11.5643833"><ele>313.33333333333337</ele><time>2026-04-02T11:17:25.479Z</time></trkpt><trkpt lat="45.4635033" lon="11.5643333"><ele>311.0</ele><time>2026-04-02T11:17:26.478Z</time></trkpt><trkpt lat="45.463615" lon="11.56425"><ele>311.0</ele><time>2026-04-02T11:17:28.478Z</time></trkpt><trkpt lat="45.4637283" lon="11.5641867"><ele>311.0</ele><time>2026-04-02T11:17:30.479Z</time></trkpt><trkpt lat="45.46385" lon="11.56418"><ele>311.0</ele><time>2026-04-02T11:17:32.478Z</time></trkpt><trkpt lat="45.4639633" lon="11.5641833"><ele>311.0</ele><time>2026-04-02T11:17:34.479Z</time></trkpt><trkpt lat="45.4640267" lon="11.56418"><ele>311.0</ele><time>2026-04-02T11:17:35.478Z</time></trkpt><trkpt lat="45.4641533" lon="11.5641767"><ele>311.8</ele><time>2026-04-02T11:17:37.479Z</time></trkpt><trkpt lat="45.4642267" lon="11.56417"><ele>312.6</ele><time>2026-04-02T11:17:38.478Z</time></trkpt><trkpt lat="45.4642883" lon="11.56415"><ele>313.4</ele><time>2026-04-02T11:17:39.479Z</time></trkpt><trkpt lat="45.4643883" lon="11.5640617"><ele>314.2</ele><time>2026-04-02T11:17:41.478Z</time></trkpt><trkpt lat="45.4644567" lon="11.563935"><ele>315.0</ele><time>2026-04-02T11:17:43.478Z</time></trkpt><trkpt lat="45.4645083" lon="11.5638233"><ele>315.0</ele><time>2026-04-02T11:17:45.478Z</time></trkpt><trkpt lat="45.4645467" lon="11.5637117"><ele>315.0</ele><time>2026-04-02T11:17:47.479Z</time></trkpt><trkpt lat="45.4645933" lon="11.563605"><ele>315.0</ele><time>2026-04-02T11:17:49.478Z</time></trkpt><trkpt lat="45.464665" lon="11.5635233"><ele>315.0</ele><time>2026-04-02T11:17:51.478Z</time></trkpt><trkpt lat="45.464745" lon="11.5634767"><ele>315.0</ele><time>2026-04-02T11:17:53.478Z</time></trkpt><trkpt lat="45.4648583" lon="11.5634233"><ele>313.6</ele><time>2026-04-02T11:19:57.478Z</time></trkpt><trkpt lat="45.4649517" lon="11.5634017"><ele>312.2</ele><time>2026-04-02T11:20:00.478Z</time></trkpt><trkpt lat="45.4650483" lon="11.5633917"><ele>310.8</ele><time>2026-04-02T11:20:03.478Z</time></trkpt><trkpt lat="45.465155" lon="11.5633917"><ele>309.4</ele><time>2026-04-02T11:20:05.479Z</time></trkpt><trkpt lat="45.4652733" lon="11.5634567"><ele>308.0</ele><time>2026-04-02T11:20:07.478Z</time></trkpt><trkpt lat="45.4653317" lon="11.5635233"><ele>308.0</ele><time>2026-04-02T11:20:08.478Z</time></trkpt><trkpt lat="45.4653917" lon="11.5635733"><ele>308.0</ele><time>2026-04-02T11:20:09.478Z</time></trkpt><trkpt lat="45.46545" lon="11.563615"><ele>308.0</ele><time>2026-04-02T11:20:10.479Z</time></trkpt><trkpt lat="45.4655317" lon="11.563645"><ele>308.0</ele><time>2026-04-02T11:20:12.478Z</time></trkpt><trkpt lat="45.4656" lon="11.563645"><ele>308.0</ele><time>2026-04-02T11:20:14.478Z</time></trkpt><trkpt lat="45.4656767" lon="11.5636417"><ele>308.0</ele><time>2026-04-02T11:20:16.479Z</time></trkpt><trkpt lat="45.4657467" lon="11.563615"><ele>308.0</ele><time>2026-04-02T11:20:18.478Z</time></trkpt><trkpt lat="45.4658267" lon="11.5635917"><ele>307.6666666666667</ele><time>2026-04-02T11:20:20.478Z</time></trkpt><trkpt lat="45.46591" lon="11.56355"><ele>307.33333333333337</ele><time>2026-04-02T11:20:22.478Z</time></trkpt><trkpt lat="45.4659783" lon="11.5635017"><ele>307.0</ele><time>2026-04-02T11:20:24.478Z</time></trkpt><trkpt lat="45.4660667" lon="11.563485"><ele>306.6666666666667</ele><time>2026-04-02T11:20:27.478Z</time></trkpt><trkpt lat="45.4661067" lon="11.563595"><ele>306.3333333333333</ele><time>2026-04-02T11:20:30.479Z</time></trkpt><trkpt lat="45.4661233" lon="11.5637317"><ele>306.0</ele><time>2026-04-02T11:20:32.478Z</time></trkpt><trkpt lat="45.4661333" lon="11.5638833"><ele>306.8</ele><time>2026-04-02T11:20:34.478Z</time></trkpt><trkpt lat="45.4661583" lon="11.5640467"><ele>307.6</ele><time>2026-04-02T11:20:36.478Z</time></trkpt><trkpt lat="45.4661933" lon="11.5642083"><ele>308.4</ele><time>2026-04-02T11:20:38.478Z</time></trkpt><trkpt lat="45.4662117" lon="11.5643083"><ele>309.2</ele><time>2026-04-02T11:20:39.478Z</time></trkpt><trkpt lat="45.4662333" lon="11.5644083"><ele>310.0</ele><time>2026-04-02T11:20:40.479Z</time></trkpt><trkpt lat="45.466265" lon="11.564505"><ele>308.0</ele><time>2026-04-02T11:20:41.478Z</time></trkpt><trkpt lat="45.4662983" lon="11.5646033"><ele>306.0</ele><time>2026-04-02T11:20:42.478Z</time></trkpt><trkpt lat="45.4663383" lon="11.5647"><ele>304.0</ele><time>2026-04-02T11:20:43.478Z</time></trkpt><trkpt lat="45.4663917" lon="11.56479"><ele>302.0</ele><time>2026-04-02T11:20:44.479Z</time></trkpt><trkpt lat="45.46645" lon="11.56487"><ele>300.0</ele><time>2026-04-02T11:20:45.478Z</time></trkpt><trkpt lat="45.4665033" lon="11.5649383"><ele>298.0</ele><time>2026-04-02T11:20:46.479Z</time></trkpt><trkpt lat="45.4665683" lon="11.565035"><ele>298.0</ele><time>2026-04-02T11:20:48.478Z</time></trkpt><trkpt lat="45.4666333" lon="11.5651817"><ele>298.0</ele><time>2026-04-02T11:20:58.479Z</time></trkpt><trkpt lat="45.4666633" lon="11.5652767"><ele>298.0</ele><time>2026-04-02T11:21:03.478Z</time></trkpt><trkpt lat="45.466725" lon="11.565375"><ele>298.0</ele><time>2026-04-02T11:21:06.478Z</time></trkpt><trkpt lat="45.4667517" lon="11.5654883"><ele>298.0</ele><time>2026-04-02T11:21:09.478Z</time></trkpt><trkpt lat="45.46674" lon="11.5653933"><ele>298.0</ele><time>2026-04-02T11:21:20.479Z</time></trkpt><trkpt lat="45.4667" lon="11.5653"><ele>298.0</ele><time>2026-04-02T11:21:23.478Z</time></trkpt><trkpt lat="45.4666683" lon="11.565195"><ele>298.0</ele><time>2026-04-02T11:21:26.478Z</time></trkpt><trkpt lat="45.4666283" lon="11.5651083"><ele>298.0</ele><time>2026-04-02T11:21:29.479Z</time></trkpt><trkpt lat="45.4665833" lon="11.5650233"><ele>298.0</ele><time>2026-04-02T11:21:32.478Z</time></trkpt><trkpt lat="45.4666117" lon="11.5649183"><ele>298.0</ele><time>2026-04-02T11:21:36.479Z</time></trkpt><trkpt lat="45.4666717" lon="11.5648667"><ele>298.0</ele><time>2026-04-02T11:21:38.478Z</time></trkpt><trkpt lat="45.4667367" lon="11.564845"><ele>298.0</ele><time>2026-04-02T11:21:40.478Z</time></trkpt><trkpt lat="45.4667983" lon="11.56482"><ele>298.0</ele><time>2026-04-02T11:21:43.478Z</time></trkpt><trkpt lat="45.4668633" lon="11.5647883"><ele>298.0</ele><time>2026-04-02T11:21:47.478Z</time></trkpt><trkpt lat="45.4669283" lon="11.5647117"><ele>298.0</ele><time>2026-04-02T11:21:51.478Z</time></trkpt><trkpt lat="45.46695" lon="11.56459"><ele>298.0</ele><time>2026-04-02T11:21:54.478Z</time></trkpt><trkpt lat="45.4670217" lon="11.5646183"><ele>298.0</ele><time>2026-04-02T11:21:59.478Z</time></trkpt><trkpt lat="45.467095" lon="11.5647083"><ele>298.0</ele><time>2026-04-02T11:22:02.479Z</time></trkpt><trkpt lat="45.4671633" lon="11.5647483"><ele>295.66666666666663</ele><time>2026-04-02T11:22:04.479Z</time></trkpt><trkpt lat="45.46724" lon="11.5647783"><ele>293.3333333333333</ele><time>2026-04-02T11:22:06.478Z</time></trkpt><trkpt lat="45.4673233" lon="11.5647883"><ele>291.0</ele><time>2026-04-02T11:22:08.478Z</time></trkpt><trkpt lat="45.46741" lon="11.5648267"><ele>288.6666666666667</ele><time>2026-04-02T11:22:10.478Z</time></trkpt><trkpt lat="45.46748" lon="11.56488"><ele>286.33333333333337</ele><time>2026-04-02T11:22:12.478Z</time></trkpt><trkpt lat="45.4675333" lon="11.5649517"><ele>284.0</ele><time>2026-04-02T11:22:15.479Z</time></trkpt><trkpt lat="45.4675867" lon="11.565025"><ele>284.0</ele><time>2026-04-02T11:22:21.478Z</time></trkpt><trkpt lat="45.4676617" lon="11.5650617"><ele>284.0</ele><time>2026-04-02T11:22:25.479Z</time></trkpt><trkpt lat="45.46773" lon="11.565095"><ele>284.0</ele><time>2026-04-02T11:22:33.478Z</time></trkpt><trkpt lat="45.4678117" lon="11.5651133"><ele>284.0</ele><time>2026-04-02T11:22:37.478Z</time></trkpt><trkpt lat="45.467895" lon="11.5651217"><ele>284.0</ele><time>2026-04-02T11:22:40.478Z</time></trkpt><trkpt lat="45.4679667" lon="11.56514"><ele>284.0</ele><time>2026-04-02T11:22:43.479Z</time></trkpt><trkpt lat="45.4680267" lon="11.5651917"><ele>282.4</ele><time>2026-04-02T11:22:45.478Z</time></trkpt><trkpt lat="45.4681283" lon="11.5651683"><ele>280.79999999999995</ele><time>2026-04-02T11:22:47.478Z</time></trkpt><trkpt lat="45.4681817" lon="11.5651183"><ele>279.20000000000005</ele><time>2026-04-02T11:22:48.478Z</time></trkpt><trkpt lat="45.468285" lon="11.56505"><ele>277.6</ele><time>2026-04-02T11:22:50.478Z</time></trkpt><trkpt lat="45.4683883" lon="11.5650133"><ele>276.0</ele><time>2026-04-02T11:22:52.478Z</time></trkpt><trkpt lat="45.4685133" lon="11.5650133"><ele>276.0</ele><time>2026-04-02T11:22:54.478Z</time></trkpt><trkpt lat="45.46863" lon="11.565"><ele>276.0</ele><time>2026-04-02T11:22:56.478Z</time></trkpt><trkpt lat="45.468735" lon="11.5649917"><ele>276.0</ele><time>2026-04-02T11:22:58.478Z</time></trkpt><trkpt lat="45.4688367" lon="11.5650017"><ele>276.0</ele><time>2026-04-02T11:23:00.478Z</time></trkpt><trkpt lat="45.46891" lon="11.565015"><ele>276.0</ele><time>2026-04-02T11:23:02.479Z</time></trkpt><trkpt lat="45.469005" lon="11.5650067"><ele>274.0</ele><time>2026-04-02T11:23:04.478Z</time></trkpt><trkpt lat="45.4691117" lon="11.5649967"><ele>272.0</ele><time>2026-04-02T11:23:06.478Z</time></trkpt><trkpt lat="45.469175" lon="11.5649967"><ele>270.0</ele><time>2026-04-02T11:23:07.478Z</time></trkpt><trkpt lat="45.4692967" lon="11.56501"><ele>268.0</ele><time>2026-04-02T11:23:09.478Z</time></trkpt><trkpt lat="45.46941" lon="11.5650083"><ele>266.0</ele><time>2026-04-02T11:23:11.479Z</time></trkpt><trkpt lat="45.4694733" lon="11.5649983"><ele>266.0</ele><time>2026-04-02T11:23:12.478Z</time></trkpt><trkpt lat="45.4695933" lon="11.5649733"><ele>266.0</ele><time>2026-04-02T11:23:14.478Z</time></trkpt><trkpt lat="45.4696567" lon="11.5649483"><ele>266.0</ele><time>2026-04-02T11:23:15.478Z</time></trkpt><trkpt lat="45.4697233" lon="11.5649267"><ele>266.0</ele><time>2026-04-02T11:23:16.478Z</time></trkpt><trkpt lat="45.4700017" lon="11.5648583"><ele>265.0</ele><time>2026-04-02T11:23:21.478Z</time></trkpt><trkpt lat="45.4701067" lon="11.56484"><ele>264.0</ele><time>2026-04-02T11:23:23.478Z</time></trkpt><trkpt lat="45.4702083" lon="11.564815"><ele>263.0</ele><time>2026-04-02T11:23:25.478Z</time></trkpt><trkpt lat="45.470305" lon="11.5647817"><ele>262.0</ele><time>2026-04-02T11:23:27.478Z</time></trkpt><trkpt lat="45.4703867" lon="11.5646683"><ele>261.0</ele><time>2026-04-02T11:23:36.478Z</time></trkpt><trkpt lat="45.4704233" lon="11.5645933"><ele>261.0</ele><time>2026-04-02T11:23:40.478Z</time></trkpt><trkpt lat="45.4704833" lon="11.5645517"><ele>261.0</ele><time>2026-04-02T11:23:43.479Z</time></trkpt><trkpt lat="45.470535" lon="11.5645"><ele>261.0</ele><time>2026-04-02T11:23:46.478Z</time></trkpt><trkpt lat="45.470615" lon="11.5644383"><ele>261.0</ele><time>2026-04-02T11:23:50.478Z</time></trkpt><trkpt lat="45.470675" lon="11.5644033"><ele>261.0</ele><time>2026-04-02T11:23:52.478Z</time></trkpt><trkpt lat="45.4707383" lon="11.5643833"><ele>261.0</ele><time>2026-04-02T11:23:54.479Z</time></trkpt><trkpt lat="45.47083" lon="11.5643733"><ele>261.0</ele><time>2026-04-02T11:23:57.479Z</time></trkpt><trkpt lat="45.4708883" lon="11.5643283"><ele>258.1666666666667</ele><time>2026-04-02T11:23:59.478Z</time></trkpt><trkpt lat="45.4709483" lon="11.564275"><ele>255.33333333333331</ele><time>2026-04-02T11:24:01.479Z</time></trkpt><trkpt lat="45.4710317" lon="11.5642017"><ele>252.5</ele><time>2026-04-02T11:24:04.479Z</time></trkpt><trkpt lat="45.47109" lon="11.564135"><ele>249.66666666666666</ele><time>2026-04-02T11:24:07.478Z</time></trkpt><trkpt lat="45.4711233" lon="11.564035"><ele>246.83333333333331</ele><time>2026-04-02T11:24:11.478Z</time></trkpt><trkpt lat="45.47113" lon="11.5639417"><ele>244.0</ele><time>2026-04-02T11:24:14.478Z</time></trkpt><trkpt lat="45.4711133" lon="11.563855"><ele>243.99999999999997</ele><time>2026-04-02T11:24:17.478Z</time></trkpt><trkpt lat="45.4710817" lon="11.56375"><ele>244.0</ele><time>2026-04-02T11:24:21.479Z</time></trkpt><trkpt lat="45.4710517" lon="11.5636333"><ele>244.0</ele><time>2026-04-02T11:24:24.478Z</time></trkpt><trkpt lat="45.4709983" lon="11.563535"><ele>244.0</ele><time>2026-04-02T11:24:27.479Z</time></trkpt><trkpt lat="45.4709367" lon="11.5634583"><ele>243.99999999999997</ele><time>2026-04-02T11:24:30.478Z</time></trkpt><trkpt lat="45.4708683" lon="11.56338"><ele>244.0</ele><time>2026-04-02T11:24:32.478Z</time></trkpt><trkpt lat="45.470795" lon="11.5632867"><ele>240.0</ele><time>2026-04-02T11:24:34.478Z</time></trkpt><trkpt lat="45.4707117" lon="11.5631717"><ele>235.99999999999997</ele><time>2026-04-02T11:24:36.478Z</time></trkpt><trkpt lat="45.4706433" lon="11.5630267"><ele>231.99999999999997</ele><time>2026-04-02T11:24:38.478Z</time></trkpt><trkpt lat="45.4706083" lon="11.5629283"><ele>228.0</ele><time>2026-04-02T11:24:39.478Z</time></trkpt><trkpt lat="45.4705717" lon="11.5628367"><ele>224.0</ele><time>2026-04-02T11:24:40.478Z</time></trkpt><trkpt lat="45.4705317" lon="11.5627417"><ele>225.00000000000003</ele><time>2026-04-02T11:24:41.478Z</time></trkpt><trkpt lat="45.4704683" lon="11.56262"><ele>226.0</ele><time>2026-04-02T11:24:43.478Z</time></trkpt><trkpt lat="45.4703967" lon="11.5625333"><ele>227.0</ele><time>2026-04-02T11:24:51.479Z</time></trkpt><trkpt lat="45.4704667" lon="11.5625983"><ele>228.0</ele><time>2026-04-02T11:25:13.479Z</time></trkpt><trkpt lat="45.4705283" lon="11.5626667"><ele>229.00000000000003</ele><time>2026-04-02T11:25:16.479Z</time></trkpt><trkpt lat="45.4705967" lon="11.5627217"><ele>230.0</ele><time>2026-04-02T11:25:19.478Z</time></trkpt><trkpt lat="45.4706583" lon="11.5627617"><ele>229.1428571428571</ele><time>2026-04-02T11:25:21.478Z</time></trkpt><trkpt lat="45.47072" lon="11.562805"><ele>228.28571428571428</ele><time>2026-04-02T11:25:23.478Z</time></trkpt><trkpt lat="45.4707733" lon="11.5628633"><ele>227.42857142857142</ele><time>2026-04-02T11:25:25.478Z</time></trkpt><trkpt lat="45.470825" lon="11.562925"><ele>226.57142857142856</ele><time>2026-04-02T11:25:27.479Z</time></trkpt><trkpt lat="45.470895" lon="11.562965"><ele>225.71428571428572</ele><time>2026-04-02T11:25:30.478Z</time></trkpt><trkpt lat="45.47097" lon="11.5629817"><ele>224.85714285714286</ele><time>2026-04-02T11:25:34.478Z</time></trkpt><trkpt lat="45.47104" lon="11.5630233"><ele>224.0</ele><time>2026-04-02T11:25:38.478Z</time></trkpt><trkpt lat="45.471135" lon="11.5631283"><ele>224.0</ele><time>2026-04-02T11:25:57.479Z</time></trkpt><trkpt lat="45.4710667" lon="11.5630867"><ele>224.0</ele><time>2026-04-02T11:26:31.479Z</time></trkpt><trkpt lat="45.4709967" lon="11.5630483"><ele>224.0</ele><time>2026-04-02T11:26:36.478Z</time></trkpt><trkpt lat="45.4709383" lon="11.5630017"><ele>224.0</ele><time>2026-04-02T11:26:39.478Z</time></trkpt><trkpt lat="45.470885" lon="11.562945"><ele>224.0</ele><time>2026-04-02T11:26:42.479Z</time></trkpt><trkpt lat="45.4708183" lon="11.5629"><ele>224.0</ele><time>2026-04-02T11:26:46.478Z</time></trkpt><trkpt lat="45.470745" lon="11.5628333"><ele>224.0</ele><time>2026-04-02T11:26:49.478Z</time></trkpt><trkpt lat="45.4706883" lon="11.56279"><ele>225.00000000000003</ele><time>2026-04-02T11:26:51.478Z</time></trkpt><trkpt lat="45.4706267" lon="11.5627433"><ele>226.0</ele><time>2026-04-02T11:26:54.479Z</time></trkpt><trkpt lat="45.470555" lon="11.562675"><ele>227.0</ele><time>2026-04-02T11:26:58.479Z</time></trkpt><trkpt lat="45.4704833" lon="11.5626133"><ele>228.0</ele><time>2026-04-02T11:27:01.478Z</time></trkpt><trkpt lat="45.4704317" lon="11.56254"><ele>229.00000000000003</ele><time>2026-04-02T11:27:05.478Z</time></trkpt><trkpt lat="45.4703783" lon="11.5624683"><ele>230.0</ele><time>2026-04-02T11:27:11.478Z</time></trkpt><trkpt lat="45.4702967" lon="11.562455"><ele>230.00000000000003</ele><time>2026-04-02T11:27:15.478Z</time></trkpt><trkpt lat="45.4702233" lon="11.5624217"><ele>230.0</ele><time>2026-04-02T11:27:19.478Z</time></trkpt><trkpt lat="45.4702967" lon="11.562415"><ele>230.0</ele><time>2026-04-02T11:27:42.478Z</time></trkpt><trkpt lat="45.4704117" lon="11.5623617"><ele>230.0</ele><time>2026-04-02T11:33:10.478Z</time></trkpt><trkpt lat="45.4704633" lon="11.562295"><ele>230.00000000000003</ele><time>2026-04-02T11:33:33.479Z</time></trkpt><trkpt lat="45.47052" lon="11.562225"><ele>230.0</ele><time>2026-04-02T11:33:36.478Z</time></trkpt><trkpt lat="45.4705633" lon="11.5621367"><ele>228.16666666666669</ele><time>2026-04-02T11:33:39.478Z</time></trkpt><trkpt lat="45.47059" lon="11.562045"><ele>226.33333333333334</ele><time>2026-04-02T11:33:41.478Z</time></trkpt><trkpt lat="45.4706017" lon="11.5619317"><ele>224.5</ele><time>2026-04-02T11:33:45.478Z</time></trkpt><trkpt lat="45.4706317" lon="11.5618217"><ele>222.66666666666669</ele><time>2026-04-02T11:33:49.478Z</time></trkpt><trkpt lat="45.4706617" lon="11.561715"><ele>220.83333333333334</ele><time>2026-04-02T11:33:52.479Z</time></trkpt><trkpt lat="45.4706883" lon="11.5616217"><ele>219.0</ele><time>2026-04-02T11:33:55.478Z</time></trkpt><trkpt lat="45.4706967" lon="11.5615183"><ele>219.0</ele><time>2026-04-02T11:33:57.478Z</time></trkpt><trkpt lat="45.470715" lon="11.5613817"><ele>219.0</ele><time>2026-04-02T11:33:59.478Z</time></trkpt><trkpt lat="45.4707233" lon="11.561265"><ele>219.0</ele><time>2026-04-02T11:34:01.479Z</time></trkpt><trkpt lat="45.4707233" lon="11.561125"><ele>219.0</ele><time>2026-04-02T11:34:03.478Z</time></trkpt><trkpt lat="45.47072" lon="11.56101"><ele>219.0</ele><time>2026-04-02T11:34:05.478Z</time></trkpt><trkpt lat="45.4707117" lon="11.5609183"><ele>219.0</ele><time>2026-04-02T11:34:07.478Z</time></trkpt><trkpt lat="45.4707033" lon="11.5608117"><ele>219.33333333333334</ele><time>2026-04-02T11:34:11.478Z</time></trkpt><trkpt lat="45.470645" lon="11.560755"><ele>219.66666666666669</ele><time>2026-04-02T11:34:17.478Z</time></trkpt><trkpt lat="45.4705633" lon="11.560745"><ele>220.0</ele><time>2026-04-02T11:34:20.478Z</time></trkpt><trkpt lat="45.47048" lon="11.56072"><ele>220.33333333333334</ele><time>2026-04-02T11:34:23.478Z</time></trkpt><trkpt lat="45.4703983" lon="11.5607017"><ele>220.66666666666669</ele><time>2026-04-02T11:34:26.478Z</time></trkpt><trkpt lat="45.4703233" lon="11.56068"><ele>221.0</ele><time>2026-04-02T11:34:29.478Z</time></trkpt><trkpt lat="45.47026" lon="11.5606517"><ele>221.00000000000003</ele><time>2026-04-02T11:34:32.478Z</time></trkpt><trkpt lat="45.4701933" lon="11.5606317"><ele>221.0</ele><time>2026-04-02T11:34:35.479Z</time></trkpt><trkpt lat="45.4701317" lon="11.5606"><ele>221.0</ele><time>2026-04-02T11:34:38.478Z</time></trkpt><trkpt lat="45.4700667" lon="11.560605"><ele>221.0</ele><time>2026-04-02T11:34:41.478Z</time></trkpt><trkpt lat="45.46999" lon="11.5606167"><ele>221.0</ele><time>2026-04-02T11:34:44.478Z</time></trkpt><trkpt lat="45.469925" lon="11.5606267"><ele>221.00000000000003</ele><time>2026-04-02T11:34:47.478Z</time></trkpt><trkpt lat="45.4698467" lon="11.5606467"><ele>221.0</ele><time>2026-04-02T11:34:50.479Z</time></trkpt><trkpt lat="45.4697783" lon="11.560675"><ele>221.00000000000003</ele><time>2026-04-02T11:34:53.478Z</time></trkpt><trkpt lat="45.4697017" lon="11.5607"><ele>221.0</ele><time>2026-04-02T11:34:56.478Z</time></trkpt><trkpt lat="45.4696367" lon="11.5607433"><ele>221.0</ele><time>2026-04-02T11:34:59.478Z</time></trkpt><trkpt lat="45.469565" lon="11.560785"><ele>221.0</ele><time>2026-04-02T11:35:03.478Z</time></trkpt><trkpt lat="45.4695033" lon="11.5608167"><ele>221.0</ele><time>2026-04-02T11:35:06.478Z</time></trkpt><trkpt lat="45.46945" lon="11.5608717"><ele>221.00000000000003</ele><time>2026-04-02T11:35:09.479Z</time></trkpt><trkpt lat="45.4693883" lon="11.56093"><ele>221.0</ele><time>2026-04-02T11:35:12.478Z</time></trkpt><trkpt lat="45.4693317" lon="11.5609933"><ele>222.14285714285717</ele><time>2026-04-02T11:35:15.478Z</time></trkpt><trkpt lat="45.4692617" lon="11.5610583"><ele>223.28571428571428</ele><time>2026-04-02T11:35:19.478Z</time></trkpt><trkpt lat="45.4692017" lon="11.561095"><ele>224.42857142857144</ele><time>2026-04-02T11:35:22.478Z</time></trkpt><trkpt lat="45.4691483" lon="11.56115"><ele>225.57142857142858</ele><time>2026-04-02T11:35:25.478Z</time></trkpt><trkpt lat="45.4690833" lon="11.5611917"><ele>226.71428571428572</ele><time>2026-04-02T11:35:29.478Z</time></trkpt><trkpt lat="45.4690133" lon="11.5612267"><ele>227.85714285714286</ele><time>2026-04-02T11:35:33.478Z</time></trkpt><trkpt lat="45.4689433" lon="11.5612567"><ele>229.0</ele><time>2026-04-02T11:35:36.478Z</time></trkpt><trkpt lat="45.46887" lon="11.5612633"><ele>229.0</ele><time>2026-04-02T11:35:40.478Z</time></trkpt><trkpt lat="45.4688033" lon="11.561255"><ele>229.0</ele><time>2026-04-02T11:35:43.478Z</time></trkpt><trkpt lat="45.46874" lon="11.561245"><ele>229.0</ele><time>2026-04-02T11:35:46.478Z</time></trkpt><trkpt lat="45.4686717" lon="11.56118"><ele>229.0</ele><time>2026-04-02T11:35:50.478Z</time></trkpt><trkpt lat="45.4686267" lon="11.56111"><ele>229.0</ele><time>2026-04-02T11:35:53.478Z</time></trkpt><trkpt lat="45.46858" lon="11.5610483"><ele>229.0</ele><time>2026-04-02T11:35:56.478Z</time></trkpt><trkpt lat="45.46853" lon="11.5609667"><ele>229.0</ele><time>2026-04-02T11:36:00.479Z</time></trkpt><trkpt lat="45.468475" lon="11.5608867"><ele>229.2</ele><time>2026-04-02T11:36:14.478Z</time></trkpt><trkpt lat="45.4684733" lon="11.5607833"><ele>229.39999999999998</ele><time>2026-04-02T11:37:01.478Z</time></trkpt><trkpt lat="45.4683967" lon="11.5606167"><ele>229.6</ele><time>2026-04-02T11:38:49.478Z</time></trkpt><trkpt lat="45.4683483" lon="11.5605383"><ele>229.8</ele><time>2026-04-02T11:38:51.478Z</time></trkpt><trkpt lat="45.4683183" lon="11.5604433"><ele>230.0</ele><time>2026-04-02T11:38:53.478Z</time></trkpt><trkpt lat="45.4682983" lon="11.5603167"><ele>230.0</ele><time>2026-04-02T11:38:55.479Z</time></trkpt><trkpt lat="45.4682667" lon="11.5601717"><ele>230.0</ele><time>2026-04-02T11:38:57.479Z</time></trkpt><trkpt lat="45.4682433" lon="11.5600267"><ele>230.0</ele><time>2026-04-02T11:38:59.479Z</time></trkpt><trkpt lat="45.4682067" lon="11.559875"><ele>230.0</ele><time>2026-04-02T11:39:01.478Z</time></trkpt><trkpt lat="45.4681717" lon="11.559735"><ele>230.0</ele><time>2026-04-02T11:39:03.478Z</time></trkpt><trkpt lat="45.4681517" lon="11.559615"><ele>229.6</ele><time>2026-04-02T11:39:05.478Z</time></trkpt><trkpt lat="45.468125" lon="11.5595017"><ele>229.2</ele><time>2026-04-02T11:39:07.478Z</time></trkpt><trkpt lat="45.4681083" lon="11.5593917"><ele>228.8</ele><time>2026-04-02T11:39:09.479Z</time></trkpt><trkpt lat="45.468105" lon="11.5592467"><ele>228.4</ele><time>2026-04-02T11:39:11.478Z</time></trkpt><trkpt lat="45.468085" lon="11.5590917"><ele>228.0</ele><time>2026-04-02T11:39:13.478Z</time></trkpt><trkpt lat="45.4680367" lon="11.55897"><ele>228.0</ele><time>2026-04-02T11:39:15.478Z</time></trkpt><trkpt lat="45.4679883" lon="11.558825"><ele>228.0</ele><time>2026-04-02T11:39:17.479Z</time></trkpt><trkpt lat="45.4679683" lon="11.558735"><ele>228.0</ele><time>2026-04-02T11:39:18.479Z</time></trkpt><trkpt lat="45.4679517" lon="11.5586467"><ele>228.0</ele><time>2026-04-02T11:39:19.478Z</time></trkpt><trkpt lat="45.46793" lon="11.5585517"><ele>228.0</ele><time>2026-04-02T11:39:20.479Z</time></trkpt><trkpt lat="45.4679067" lon="11.55846"><ele>228.0</ele><time>2026-04-02T11:39:21.478Z</time></trkpt><trkpt lat="45.4678917" lon="11.5583583"><ele>224.0</ele><time>2026-04-02T11:39:23.478Z</time></trkpt><trkpt lat="45.467875" lon="11.5582617"><ele>220.0</ele><time>2026-04-02T11:39:26.478Z</time></trkpt><trkpt lat="45.46783" lon="11.558195"><ele>216.0</ele><time>2026-04-02T11:39:30.478Z</time></trkpt><trkpt lat="45.4677783" lon="11.5581233"><ele>212.0</ele><time>2026-04-02T11:39:34.478Z</time></trkpt><trkpt lat="45.4677217" lon="11.558035"><ele>208.0</ele><time>2026-04-02T11:39:40.478Z</time></trkpt><trkpt lat="45.4676683" lon="11.5579533"><ele>204.0</ele><time>2026-04-02T11:39:42.478Z</time></trkpt><trkpt lat="45.4676067" lon="11.5578683"><ele>203.5</ele><time>2026-04-02T11:39:45.478Z</time></trkpt><trkpt lat="45.4675433" lon="11.5577867"><ele>203.0</ele><time>2026-04-02T11:39:48.477Z</time></trkpt><trkpt lat="45.4674583" lon="11.5576717"><ele>202.5</ele><time>2026-04-02T11:39:51.477Z</time></trkpt><trkpt lat="45.4674" lon="11.55761"><ele>202.0</ele><time>2026-04-02T11:39:53.477Z</time></trkpt><trkpt lat="45.4673283" lon="11.557555"><ele>201.5</ele><time>2026-04-02T11:39:56.477Z</time></trkpt><trkpt lat="45.4672533" lon="11.55759"><ele>201.0</ele><time>2026-04-02T11:39:59.477Z</time></trkpt><trkpt lat="45.4672133" lon="11.5576783"><ele>201.0</ele><time>2026-04-02T11:40:01.478Z</time></trkpt><trkpt lat="45.4671483" lon="11.5577483"><ele>201.0</ele><time>2026-04-02T11:40:03.477Z</time></trkpt><trkpt lat="45.4670833" lon="11.5577767"><ele>201.0</ele><time>2026-04-02T11:40:05.477Z</time></trkpt><trkpt lat="45.46702" lon="11.55777"><ele>201.0</ele><time>2026-04-02T11:40:07.477Z</time></trkpt><trkpt lat="45.4668717" lon="11.5577"><ele>201.0</ele><time>2026-04-02T11:40:55.477Z</time></trkpt><trkpt lat="45.466915" lon="11.5576017"><ele>195.16666666666666</ele><time>2026-04-02T11:40:59.477Z</time></trkpt><trkpt lat="45.4669517" lon="11.557505"><ele>189.33333333333334</ele><time>2026-04-02T11:41:01.477Z</time></trkpt><trkpt lat="45.4669683" lon="11.5573967"><ele>183.5</ele><time>2026-04-02T11:41:03.478Z</time></trkpt><trkpt lat="45.466945" lon="11.5573017"><ele>177.66666666666669</ele><time>2026-04-02T11:41:05.478Z</time></trkpt><trkpt lat="45.4669017" lon="11.5571967"><ele>171.83333333333334</ele><time>2026-04-02T11:41:07.477Z</time></trkpt><trkpt lat="45.4668683" lon="11.5570933"><ele>166.0</ele><time>2026-04-02T11:41:09.477Z</time></trkpt><trkpt lat="45.4668617" lon="11.556995"><ele>164.33333333333334</ele><time>2026-04-02T11:41:11.477Z</time></trkpt><trkpt lat="45.4668883" lon="11.5568767"><ele>162.66666666666669</ele><time>2026-04-02T11:41:13.477Z</time></trkpt><trkpt lat="45.4669483" lon="11.5567583"><ele>161.0</ele><time>2026-04-02T11:41:15.478Z</time></trkpt><trkpt lat="45.467015" lon="11.55663"><ele>159.33333333333334</ele><time>2026-04-02T11:41:17.477Z</time></trkpt><trkpt lat="45.467055" lon="11.556555"><ele>157.66666666666666</ele><time>2026-04-02T11:41:18.477Z</time></trkpt><trkpt lat="45.4670967" lon="11.55648"><ele>156.0</ele><time>2026-04-02T11:41:19.477Z</time></trkpt><trkpt lat="45.4671367" lon="11.5563983"><ele>154.0</ele><time>2026-04-02T11:41:20.477Z</time></trkpt><trkpt lat="45.4671883" lon="11.5563217"><ele>152.0</ele><time>2026-04-02T11:41:21.478Z</time></trkpt><trkpt lat="45.467265" lon="11.556225"><ele>150.0</ele><time>2026-04-02T11:41:22.478Z</time></trkpt><trkpt lat="45.4673183" lon="11.5561417"><ele>148.0</ele><time>2026-04-02T11:41:23.477Z</time></trkpt><trkpt lat="45.4673867" lon="11.5560567"><ele>146.0</ele><time>2026-04-02T11:41:24.477Z</time></trkpt><trkpt lat="45.467445" lon="11.5559767"><ele>144.0</ele><time>2026-04-02T11:41:25.477Z</time></trkpt><trkpt lat="45.467495" lon="11.5559017"><ele>144.0</ele><time>2026-04-02T11:41:26.478Z</time></trkpt><trkpt lat="45.4675417" lon="11.5558133"><ele>144.0</ele><time>2026-04-02T11:41:27.477Z</time></trkpt><trkpt lat="45.4675917" lon="11.5557217"><ele>144.0</ele><time>2026-04-02T11:41:28.477Z</time></trkpt><trkpt lat="45.46765" lon="11.5556583"><ele>144.0</ele><time>2026-04-02T11:41:29.478Z</time></trkpt><trkpt lat="45.4677133" lon="11.5556"><ele>144.0</ele><time>2026-04-02T11:41:30.477Z</time></trkpt><trkpt lat="45.467775" lon="11.55554"><ele>144.0</ele><time>2026-04-02T11:41:31.477Z</time></trkpt><trkpt lat="45.467835" lon="11.555485"><ele>144.0</ele><time>2026-04-02T11:41:32.477Z</time></trkpt><trkpt lat="45.4678917" lon="11.5554433"><ele>144.0</ele><time>2026-04-02T11:41:33.477Z</time></trkpt><trkpt lat="45.4679883" lon="11.555365"><ele>144.0</ele><time>2026-04-02T11:41:35.477Z</time></trkpt><trkpt lat="45.4681283" lon="11.5552067"><ele>144.0</ele><time>2026-04-02T11:41:38.477Z</time></trkpt><trkpt lat="45.4681817" lon="11.5551583"><ele>144.0</ele><time>2026-04-02T11:41:39.477Z</time></trkpt><trkpt lat="45.4682417" lon="11.555125"><ele>143.16666666666666</ele><time>2026-04-02T11:41:40.477Z</time></trkpt><trkpt lat="45.4683367" lon="11.555085"><ele>142.33333333333334</ele><time>2026-04-02T11:41:42.477Z</time></trkpt><trkpt lat="45.4684083" lon="11.5550567"><ele>141.5</ele><time>2026-04-02T11:41:44.478Z</time></trkpt><trkpt lat="45.46847" lon="11.5550267"><ele>140.66666666666669</ele><time>2026-04-02T11:41:46.477Z</time></trkpt><trkpt lat="45.4685367" lon="11.55496"><ele>139.83333333333334</ele><time>2026-04-02T11:41:49.478Z</time></trkpt><trkpt lat="45.4686383" lon="11.5548617"><ele>139.0</ele><time>2026-04-02T11:42:29.477Z</time></trkpt><trkpt lat="45.4687033" lon="11.5548183"><ele>143.8</ele><time>2026-04-02T11:42:48.478Z</time></trkpt><trkpt lat="45.46878" lon="11.5547583"><ele>148.60000000000002</ele><time>2026-04-02T11:42:50.477Z</time></trkpt><trkpt lat="45.4688717" lon="11.5547033"><ele>153.4</ele><time>2026-04-02T11:42:52.477Z</time></trkpt><trkpt lat="45.46897" lon="11.5546383"><ele>158.20000000000002</ele><time>2026-04-02T11:42:54.477Z</time></trkpt><trkpt lat="45.469065" lon="11.5545767"><ele>163.0</ele><time>2026-04-02T11:42:56.477Z</time></trkpt><trkpt lat="45.4691267" lon="11.55455"><ele>155.0</ele><time>2026-04-02T11:42:57.477Z</time></trkpt><trkpt lat="45.4692433" lon="11.554505"><ele>147.0</ele><time>2026-04-02T11:42:59.477Z</time></trkpt><trkpt lat="45.4693517" lon="11.5544617"><ele>139.0</ele><time>2026-04-02T11:43:01.478Z</time></trkpt><trkpt lat="45.4694567" lon="11.5543933"><ele>131.0</ele><time>2026-04-02T11:43:03.477Z</time></trkpt><trkpt lat="45.4695233" lon="11.55436"><ele>123.0</ele><time>2026-04-02T11:43:04.477Z</time></trkpt><trkpt lat="45.469585" lon="11.554335"><ele>125.33333333333333</ele><time>2026-04-02T11:43:05.477Z</time></trkpt><trkpt lat="45.46965" lon="11.5543117"><ele>127.66666666666666</ele><time>2026-04-02T11:43:06.477Z</time></trkpt><trkpt lat="45.46971" lon="11.5542833"><ele>130.0</ele><time>2026-04-02T11:43:07.478Z</time></trkpt><trkpt lat="45.4697717" lon="11.55426"><ele>132.33333333333331</ele><time>2026-04-02T11:43:08.478Z</time></trkpt><trkpt lat="45.469835" lon="11.5542367"><ele>134.66666666666666</ele><time>2026-04-02T11:43:09.477Z</time></trkpt><trkpt lat="45.4699667" lon="11.5541967"><ele>137.0</ele><time>2026-04-02T11:43:11.477Z</time></trkpt><trkpt lat="45.47004" lon="11.55417"><ele>137.0</ele><time>2026-04-02T11:43:12.477Z</time></trkpt><trkpt lat="45.4701167" lon="11.5541467"><ele>137.0</ele><time>2026-04-02T11:43:13.477Z</time></trkpt><trkpt lat="45.4701817" lon="11.5541383"><ele>137.0</ele><time>2026-04-02T11:43:14.477Z</time></trkpt><trkpt lat="45.47025" lon="11.5541183"><ele>137.0</ele><time>2026-04-02T11:43:15.477Z</time></trkpt><trkpt lat="45.4703383" lon="11.5540933"><ele>137.0</ele><time>2026-04-02T11:43:17.478Z</time></trkpt><trkpt lat="45.4703983" lon="11.55397"><ele>137.0</ele><time>2026-04-02T11:43:24.477Z</time></trkpt><trkpt lat="45.4704317" lon="11.55388"><ele>136.4</ele><time>2026-04-02T11:43:26.478Z</time></trkpt><trkpt lat="45.4704633" lon="11.553765"><ele>135.79999999999998</ele><time>2026-04-02T11:43:28.477Z</time></trkpt><trkpt lat="45.4704983" lon="11.5536317"><ele>135.2</ele><time>2026-04-02T11:43:30.478Z</time></trkpt><trkpt lat="45.47054" lon="11.55347"><ele>134.6</ele><time>2026-04-02T11:43:32.477Z</time></trkpt><trkpt lat="45.470575" lon="11.553385"><ele>134.0</ele><time>2026-04-02T11:43:33.477Z</time></trkpt><trkpt lat="45.4706417" lon="11.55325"><ele>130.5</ele><time>2026-04-02T11:43:35.478Z</time></trkpt><trkpt lat="45.47072" lon="11.553165"><ele>127.0</ele><time>2026-04-02T11:43:37.477Z</time></trkpt><trkpt lat="45.4707917" lon="11.5531317"><ele>123.5</ele><time>2026-04-02T11:43:39.477Z</time></trkpt><trkpt lat="45.4708783" lon="11.5531517"><ele>120.0</ele><time>2026-04-02T11:43:42.477Z</time></trkpt><trkpt lat="45.4708317" lon="11.55306"><ele>116.49999999999999</ele><time>2026-04-02T11:43:58.477Z</time></trkpt><trkpt lat="45.4707733" lon="11.55302"><ele>113.0</ele><time>2026-04-02T11:44:01.477Z</time></trkpt><trkpt lat="45.4706883" lon="11.552985"><ele>113.0</ele><time>2026-04-02T11:44:04.478Z</time></trkpt><trkpt lat="45.47061" lon="11.55293"><ele>113.00000000000001</ele><time>2026-04-02T11:44:06.478Z</time></trkpt><trkpt lat="45.4705167" lon="11.5528883"><ele>113.00000000000001</ele><time>2026-04-02T11:44:08.478Z</time></trkpt><trkpt lat="45.4704167" lon="11.5528783"><ele>113.0</ele><time>2026-04-02T11:44:10.477Z</time></trkpt><trkpt lat="45.47031" lon="11.552885"><ele>113.0</ele><time>2026-04-02T11:44:12.477Z</time></trkpt><trkpt lat="45.47021" lon="11.5528917"><ele>109.80000000000001</ele><time>2026-04-02T11:44:14.477Z</time></trkpt><trkpt lat="45.470125" lon="11.552895"><ele>106.60000000000001</ele><time>2026-04-02T11:44:16.477Z</time></trkpt><trkpt lat="45.4700833" lon="11.5530233"><ele>103.4</ele><time>2026-04-02T11:44:19.477Z</time></trkpt><trkpt lat="45.470085" lon="11.5531867"><ele>100.19999999999999</ele><time>2026-04-02T11:44:21.477Z</time></trkpt><trkpt lat="45.4700517" lon="11.553315"><ele>97.0</ele><time>2026-04-02T11:44:23.478Z</time></trkpt><trkpt lat="45.4699817" lon="11.5534083"><ele>97.00000000000001</ele><time>2026-04-02T11:44:25.477Z</time></trkpt><trkpt lat="45.46986" lon="11.5534767"><ele>97.0</ele><time>2026-04-02T11:44:27.477Z</time></trkpt><trkpt lat="45.469795" lon="11.5535083"><ele>97.0</ele><time>2026-04-02T11:44:28.477Z</time></trkpt><trkpt lat="45.4697367" lon="11.5535433"><ele>97.0</ele><time>2026-04-02T11:44:29.477Z</time></trkpt><trkpt lat="45.4696717" lon="11.553575"><ele>97.00000000000001</ele><time>2026-04-02T11:44:30.477Z</time></trkpt><trkpt lat="45.4695583" lon="11.5535967"><ele>97.0</ele><time>2026-04-02T11:44:32.478Z</time></trkpt><trkpt lat="45.4694767" lon="11.553585"><ele>94.50000000000001</ele><time>2026-04-02T11:44:34.477Z</time></trkpt><trkpt lat="45.4693917" lon="11.55357"><ele>92.0</ele><time>2026-04-02T11:44:36.477Z</time></trkpt><trkpt lat="45.4693167" lon="11.5535617"><ele>89.5</ele><time>2026-04-02T11:44:38.477Z</time></trkpt><trkpt lat="45.4692433" lon="11.5535867"><ele>87.0</ele><time>2026-04-02T11:44:40.478Z</time></trkpt><trkpt lat="45.4691767" lon="11.5535983"><ele>84.5</ele><time>2026-04-02T11:44:42.477Z</time></trkpt><trkpt lat="45.46909" lon="11.5535883"><ele>82.0</ele><time>2026-04-02T11:44:44.477Z</time></trkpt><trkpt lat="45.4690067" lon="11.55358"><ele>82.0</ele><time>2026-04-02T11:44:46.477Z</time></trkpt><trkpt lat="45.4689267" lon="11.55356"><ele>82.0</ele><time>2026-04-02T11:44:48.478Z</time></trkpt><trkpt lat="45.4688433" lon="11.55352"><ele>82.0</ele><time>2026-04-02T11:44:50.477Z</time></trkpt><trkpt lat="45.4687617" lon="11.5534667"><ele>82.0</ele><time>2026-04-02T11:44:52.478Z</time></trkpt><trkpt lat="45.4686817" lon="11.5533883"><ele>82.0</ele><time>2026-04-02T11:44:54.477Z</time></trkpt><trkpt lat="45.468625" lon="11.5533333"><ele>82.0</ele><time>2026-04-02T11:44:55.478Z</time></trkpt><trkpt lat="45.46857" lon="11.5532833"><ele>82.0</ele><time>2026-04-02T11:44:56.478Z</time></trkpt><trkpt lat="45.4684933" lon="11.55318"><ele>82.0</ele><time>2026-04-02T11:44:58.477Z</time></trkpt><trkpt lat="45.4684367" lon="11.553075"><ele>82.0</ele><time>2026-04-02T11:45:00.477Z</time></trkpt><trkpt lat="45.4684" lon="11.5529733"><ele>82.0</ele><time>2026-04-02T11:45:02.477Z</time></trkpt><trkpt lat="45.4683767" lon="11.5528867"><ele>82.0</ele><time>2026-04-02T11:45:04.477Z</time></trkpt><trkpt lat="45.468355" lon="11.55279"><ele>82.0</ele><time>2026-04-02T11:45:06.477Z</time></trkpt><trkpt lat="45.46837" lon="11.552695"><ele>80.33333333333333</ele><time>2026-04-02T11:45:08.477Z</time></trkpt><trkpt lat="45.4684117" lon="11.5526067"><ele>78.66666666666666</ele><time>2026-04-02T11:45:10.477Z</time></trkpt><trkpt lat="45.4684533" lon="11.552505"><ele>77.0</ele><time>2026-04-02T11:45:12.477Z</time></trkpt><trkpt lat="45.4684733" lon="11.55237"><ele>75.33333333333333</ele><time>2026-04-02T11:45:14.477Z</time></trkpt><trkpt lat="45.4684267" lon="11.5522717"><ele>73.66666666666667</ele><time>2026-04-02T11:45:17.477Z</time></trkpt><trkpt lat="45.468345" lon="11.5522283"><ele>72.0</ele><time>2026-04-02T11:45:20.477Z</time></trkpt><trkpt lat="45.468275" lon="11.5521817"><ele>72.0</ele><time>2026-04-02T11:45:22.477Z</time></trkpt><trkpt lat="45.4681633" lon="11.5521083"><ele>72.0</ele><time>2026-04-02T11:45:24.477Z</time></trkpt><trkpt lat="45.4680983" lon="11.5519667"><ele>72.0</ele><time>2026-04-02T11:45:26.477Z</time></trkpt><trkpt lat="45.4680967" lon="11.5518317"><ele>72.0</ele><time>2026-04-02T11:45:28.477Z</time></trkpt><trkpt lat="45.468135" lon="11.5517133"><ele>72.0</ele><time>2026-04-02T11:45:30.477Z</time></trkpt><trkpt lat="45.4682" lon="11.5515833"><ele>70.66666666666667</ele><time>2026-04-02T11:45:32.477Z</time></trkpt><trkpt lat="45.4682517" lon="11.5514567"><ele>69.33333333333333</ele><time>2026-04-02T11:45:34.477Z</time></trkpt><trkpt lat="45.4683017" lon="11.5513233"><ele>68.0</ele><time>2026-04-02T11:45:36.477Z</time></trkpt><trkpt lat="45.4683217" lon="11.5511967"><ele>66.66666666666666</ele><time>2026-04-02T11:45:38.477Z</time></trkpt><trkpt lat="45.4683067" lon="11.5511033"><ele>65.33333333333333</ele><time>2026-04-02T11:45:40.477Z</time></trkpt><trkpt lat="45.4682883" lon="11.5510067"><ele>64.0</ele><time>2026-04-02T11:45:47.478Z</time></trkpt><trkpt lat="45.46828" lon="11.5509033"><ele>62.400000000000006</ele><time>2026-04-02T11:45:49.478Z</time></trkpt><trkpt lat="45.468265" lon="11.55079"><ele>60.800000000000004</ele><time>2026-04-02T11:45:51.478Z</time></trkpt><trkpt lat="45.4682383" lon="11.5506833"><ele>59.199999999999996</ele><time>2026-04-02T11:45:53.477Z</time></trkpt><trkpt lat="45.4682133" lon="11.5505533"><ele>57.599999999999994</ele><time>2026-04-02T11:45:55.478Z</time></trkpt><trkpt lat="45.4681983" lon="11.5503967"><ele>56.0</ele><time>2026-04-02T11:45:57.477Z</time></trkpt><trkpt lat="45.468205" lon="11.5502483"><ele>55.4</ele><time>2026-04-02T11:45:59.478Z</time></trkpt><trkpt lat="45.4682283" lon="11.5500833"><ele>54.8</ele><time>2026-04-02T11:46:01.477Z</time></trkpt><trkpt lat="45.4682267" lon="11.5499917"><ele>54.199999999999996</ele><time>2026-04-02T11:46:02.478Z</time></trkpt><trkpt lat="45.4682283" lon="11.5498983"><ele>53.599999999999994</ele><time>2026-04-02T11:46:03.477Z</time></trkpt><trkpt lat="45.4682467" lon="11.5497367"><ele>53.0</ele><time>2026-04-02T11:46:05.477Z</time></trkpt><trkpt lat="45.4682733" lon="11.54959"><ele>52.66666666666667</ele><time>2026-04-02T11:46:07.477Z</time></trkpt><trkpt lat="45.4683" lon="11.549455"><ele>52.333333333333336</ele><time>2026-04-02T11:46:09.477Z</time></trkpt><trkpt lat="45.46833" lon="11.54935"><ele>52.0</ele><time>2026-04-02T11:46:11.477Z</time></trkpt><trkpt lat="45.4683633" lon="11.5492633"><ele>51.66666666666667</ele><time>2026-04-02T11:46:13.477Z</time></trkpt><trkpt lat="45.4683933" lon="11.549155"><ele>51.333333333333336</ele><time>2026-04-02T11:46:15.477Z</time></trkpt><trkpt lat="45.4684117" lon="11.5490433"><ele>51.0</ele><time>2026-04-02T11:46:17.477Z</time></trkpt><trkpt lat="45.4684117" lon="11.5489367"><ele>51.0</ele><time>2026-04-02T11:46:19.477Z</time></trkpt><trkpt lat="45.46839" lon="11.5488517"><ele>51.0</ele><time>2026-04-02T11:46:22.477Z</time></trkpt><trkpt lat="45.4683517" lon="11.548745"><ele>51.0</ele><time>2026-04-02T11:46:25.477Z</time></trkpt><trkpt lat="45.46834" lon="11.54863"><ele>51.0</ele><time>2026-04-02T11:46:28.477Z</time></trkpt><trkpt lat="45.4683217" lon="11.54853"><ele>51.0</ele><time>2026-04-02T11:46:31.477Z</time></trkpt><trkpt lat="45.468295" lon="11.5484417"><ele>51.0</ele><time>2026-04-02T11:46:34.477Z</time></trkpt><trkpt lat="45.468255" lon="11.5483533"><ele>51.0</ele><time>2026-04-02T11:46:38.477Z</time></trkpt><trkpt lat="45.4682183" lon="11.5482733"><ele>51.285714285714285</ele><time>2026-04-02T11:46:42.477Z</time></trkpt><trkpt lat="45.4681783" lon="11.5482033"><ele>51.57142857142857</ele><time>2026-04-02T11:46:46.477Z</time></trkpt><trkpt lat="45.4681283" lon="11.54813"><ele>51.85714285714286</ele><time>2026-04-02T11:46:49.477Z</time></trkpt><trkpt lat="45.468075" lon="11.5480633"><ele>52.14285714285714</ele><time>2026-04-02T11:46:52.477Z</time></trkpt><trkpt lat="45.4680183" lon="11.5479983"><ele>52.42857142857142</ele><time>2026-04-02T11:46:55.477Z</time></trkpt><trkpt lat="45.4679617" lon="11.5479417"><ele>52.714285714285715</ele><time>2026-04-02T11:46:58.478Z</time></trkpt><trkpt lat="45.4679117" lon="11.54788"><ele>53.0</ele><time>2026-04-02T11:47:01.477Z</time></trkpt><trkpt lat="45.46786" lon="11.5478267"><ele>53.00000000000001</ele><time>2026-04-02T11:47:05.478Z</time></trkpt><trkpt lat="45.4677917" lon="11.5477883"><ele>53.0</ele><time>2026-04-02T11:47:09.477Z</time></trkpt><trkpt lat="45.4677417" lon="11.5477267"><ele>53.0</ele><time>2026-04-02T11:47:13.478Z</time></trkpt><trkpt lat="45.467675" lon="11.5476617"><ele>53.0</ele><time>2026-04-02T11:47:18.477Z</time></trkpt><trkpt lat="45.467615" lon="11.5475667"><ele>53.00000000000001</ele><time>2026-04-02T11:47:21.477Z</time></trkpt><trkpt lat="45.4675767" lon="11.5474733"><ele>53.0</ele><time>2026-04-02T11:47:24.478Z</time></trkpt><trkpt lat="45.467545" lon="11.547365"><ele>53.00000000000001</ele><time>2026-04-02T11:47:27.477Z</time></trkpt><trkpt lat="45.4675233" lon="11.5472483"><ele>53.0</ele><time>2026-04-02T11:47:30.477Z</time></trkpt><trkpt lat="45.4675067" lon="11.547135"><ele>53.0</ele><time>2026-04-02T11:47:33.477Z</time></trkpt><trkpt lat="45.4674917" lon="11.54702"><ele>53.0</ele><time>2026-04-02T11:47:36.477Z</time></trkpt><trkpt lat="45.4674733" lon="11.5468983"><ele>53.00000000000001</ele><time>2026-04-02T11:47:39.477Z</time></trkpt><trkpt lat="45.467475" lon="11.5467917"><ele>53.0</ele><time>2026-04-02T11:47:42.477Z</time></trkpt><trkpt lat="45.467465" lon="11.5466867"><ele>52.57142857142858</ele><time>2026-04-02T11:47:45.477Z</time></trkpt><trkpt lat="45.46746" lon="11.54658"><ele>52.14285714285714</ele><time>2026-04-02T11:47:48.477Z</time></trkpt><trkpt lat="45.4674417" lon="11.546485"><ele>51.714285714285715</ele><time>2026-04-02T11:47:51.477Z</time></trkpt><trkpt lat="45.4674" lon="11.5464067"><ele>51.28571428571429</ele><time>2026-04-02T11:47:54.477Z</time></trkpt><trkpt lat="45.4673567" lon="11.5463283"><ele>50.85714285714286</ele><time>2026-04-02T11:47:57.478Z</time></trkpt><trkpt lat="45.4673067" lon="11.5462733"><ele>50.42857142857143</ele><time>2026-04-02T11:48:00.478Z</time></trkpt><trkpt lat="45.4672417" lon="11.5462317"><ele>50.0</ele><time>2026-04-02T11:48:04.477Z</time></trkpt><trkpt lat="45.467165" lon="11.5462267"><ele>49.714285714285715</ele><time>2026-04-02T11:48:08.478Z</time></trkpt><trkpt lat="45.4671033" lon="11.5461833"><ele>49.42857142857143</ele><time>2026-04-02T11:48:11.477Z</time></trkpt><trkpt lat="45.4670417" lon="11.5461233"><ele>49.14285714285714</ele><time>2026-04-02T11:48:14.477Z</time></trkpt><trkpt lat="45.4669833" lon="11.5460833"><ele>48.85714285714286</ele><time>2026-04-02T11:48:17.477Z</time></trkpt><trkpt lat="45.4669" lon="11.5460533"><ele>48.57142857142857</ele><time>2026-04-02T11:48:20.477Z</time></trkpt><trkpt lat="45.4668383" lon="11.5460233"><ele>48.285714285714285</ele><time>2026-04-02T11:48:22.477Z</time></trkpt><trkpt lat="45.46678" lon="11.5459817"><ele>48.0</ele><time>2026-04-02T11:48:24.477Z</time></trkpt><trkpt lat="45.46669" lon="11.5459267"><ele>48.0</ele><time>2026-04-02T11:48:27.477Z</time></trkpt><trkpt lat="45.4666133" lon="11.545905"><ele>48.0</ele><time>2026-04-02T11:48:29.477Z</time></trkpt><trkpt lat="45.46652" lon="11.545885"><ele>48.0</ele><time>2026-04-02T11:48:31.477Z</time></trkpt><trkpt lat="45.4664117" lon="11.5458767"><ele>48.0</ele><time>2026-04-02T11:48:33.477Z</time></trkpt><trkpt lat="45.4663017" lon="11.5458633"><ele>48.0</ele><time>2026-04-02T11:48:35.478Z</time></trkpt><trkpt lat="45.4662133" lon="11.5458533"><ele>46.833333333333336</ele><time>2026-04-02T11:48:37.478Z</time></trkpt><trkpt lat="45.466135" lon="11.5458767"><ele>45.666666666666664</ele><time>2026-04-02T11:48:39.477Z</time></trkpt><trkpt lat="45.4660517" lon="11.5459217"><ele>44.5</ele><time>2026-04-02T11:48:42.477Z</time></trkpt><trkpt lat="45.4659717" lon="11.54597"><ele>43.33333333333333</ele><time>2026-04-02T11:48:45.477Z</time></trkpt><trkpt lat="45.465895" lon="11.546005"><ele>42.166666666666664</ele><time>2026-04-02T11:48:48.477Z</time></trkpt><trkpt lat="45.465835" lon="11.54604"><ele>41.0</ele><time>2026-04-02T11:48:50.477Z</time></trkpt><trkpt lat="45.4657467" lon="11.546085"><ele>41.0</ele><time>2026-04-02T11:48:53.477Z</time></trkpt><trkpt lat="45.4656833" lon="11.5461117"><ele>41.0</ele><time>2026-04-02T11:48:55.477Z</time></trkpt><trkpt lat="45.4656167" lon="11.5461467"><ele>41.0</ele><time>2026-04-02T11:48:57.477Z</time></trkpt><trkpt lat="45.4655467" lon="11.5461717"><ele>41.0</ele><time>2026-04-02T11:48:59.477Z</time></trkpt><trkpt lat="45.4654733" lon="11.5462417"><ele>41.0</ele><time>2026-04-02T11:49:01.477Z</time></trkpt><trkpt lat="45.46539" lon="11.5462983"><ele>41.0</ele><time>2026-04-02T11:49:03.477Z</time></trkpt><trkpt lat="45.4653033" lon="11.5463467"><ele>43.0</ele><time>2026-04-02T11:49:05.477Z</time></trkpt><trkpt lat="45.46522" lon="11.5463983"><ele>45.0</ele><time>2026-04-02T11:49:07.477Z</time></trkpt><trkpt lat="45.465135" lon="11.5464533"><ele>47.0</ele><time>2026-04-02T11:49:09.477Z</time></trkpt><trkpt lat="45.465045" lon="11.5465"><ele>49.0</ele><time>2026-04-02T11:49:11.477Z</time></trkpt><trkpt lat="45.464945" lon="11.5465417"><ele>51.0</ele><time>2026-04-02T11:49:13.477Z</time></trkpt><trkpt lat="45.46485" lon="11.5465917"><ele>51.0</ele><time>2026-04-02T11:49:15.477Z</time></trkpt><trkpt lat="45.464775" lon="11.5466667"><ele>51.0</ele><time>2026-04-02T11:49:17.478Z</time></trkpt><trkpt lat="45.4646967" lon="11.546735"><ele>51.0</ele><time>2026-04-02T11:49:19.478Z</time></trkpt><trkpt lat="45.4646117" lon="11.5467967"><ele>51.0</ele><time>2026-04-02T11:49:21.477Z</time></trkpt><trkpt lat="45.4645317" lon="11.5468317"><ele>51.0</ele><time>2026-04-02T11:49:23.478Z</time></trkpt><trkpt lat="45.4644533" lon="11.5468583"><ele>51.0</ele><time>2026-04-02T11:49:25.477Z</time></trkpt><trkpt lat="45.464375" lon="11.5468833"><ele>48.8</ele><time>2026-04-02T11:49:27.477Z</time></trkpt><trkpt lat="45.464285" lon="11.54691"><ele>46.599999999999994</ele><time>2026-04-02T11:49:29.477Z</time></trkpt><trkpt lat="45.464185" lon="11.5469283"><ele>44.4</ele><time>2026-04-02T11:49:31.477Z</time></trkpt><trkpt lat="45.4640617" lon="11.5469417"><ele>42.2</ele><time>2026-04-02T11:49:33.477Z</time></trkpt><trkpt lat="45.4639917" lon="11.5469383"><ele>40.0</ele><time>2026-04-02T11:49:34.478Z</time></trkpt><trkpt lat="45.4639133" lon="11.5469267"><ele>40.0</ele><time>2026-04-02T11:49:35.477Z</time></trkpt><trkpt lat="45.4638467" lon="11.5469167"><ele>40.0</ele><time>2026-04-02T11:49:36.478Z</time></trkpt><trkpt lat="45.4637167" lon="11.5469317"><ele>40.0</ele><time>2026-04-02T11:49:38.477Z</time></trkpt><trkpt lat="45.4636467" lon="11.54695"><ele>40.0</ele><time>2026-04-02T11:49:39.477Z</time></trkpt><trkpt lat="45.4635233" lon="11.546985"><ele>40.0</ele><time>2026-04-02T11:49:41.478Z</time></trkpt><trkpt lat="45.4634117" lon="11.547005"><ele>39.25</ele><time>2026-04-02T11:49:43.477Z</time></trkpt><trkpt lat="45.463295" lon="11.5469733"><ele>38.5</ele><time>2026-04-02T11:49:45.477Z</time></trkpt><trkpt lat="45.4632117" lon="11.5468767"><ele>37.75</ele><time>2026-04-02T11:49:47.477Z</time></trkpt><trkpt lat="45.4631433" lon="11.54674"><ele>37.0</ele><time>2026-04-02T11:49:49.477Z</time></trkpt><trkpt lat="45.463075" lon="11.5466217"><ele>37.0</ele><time>2026-04-02T11:49:51.478Z</time></trkpt><trkpt lat="45.4629783" lon="11.5465683"><ele>37.0</ele><time>2026-04-02T11:49:53.477Z</time></trkpt><trkpt lat="45.4628733" lon="11.5465667"><ele>37.0</ele><time>2026-04-02T11:49:55.477Z</time></trkpt><trkpt lat="45.4627867" lon="11.54656"><ele>37.0</ele><time>2026-04-02T11:49:57.478Z</time></trkpt><trkpt lat="45.4626917" lon="11.54655"><ele>37.0</ele><time>2026-04-02T11:49:59.477Z</time></trkpt><trkpt lat="45.4625933" lon="11.546555"><ele>37.2</ele><time>2026-04-02T11:50:01.477Z</time></trkpt><trkpt lat="45.4624917" lon="11.5465633"><ele>37.400000000000006</ele><time>2026-04-02T11:50:03.477Z</time></trkpt><trkpt lat="45.4623867" lon="11.5465717"><ele>37.599999999999994</ele><time>2026-04-02T11:50:05.477Z</time></trkpt><trkpt lat="45.4622917" lon="11.5465783"><ele>37.8</ele><time>2026-04-02T11:50:07.478Z</time></trkpt><trkpt lat="45.46219" lon="11.5465683"><ele>38.0</ele><time>2026-04-02T11:50:09.477Z</time></trkpt><trkpt lat="45.462085" lon="11.5465333"><ele>37.199999999999996</ele><time>2026-04-02T11:50:11.477Z</time></trkpt><trkpt lat="45.4619833" lon="11.5464617"><ele>36.4</ele><time>2026-04-02T11:50:13.477Z</time></trkpt><trkpt lat="45.4618733" lon="11.5463833"><ele>35.599999999999994</ele><time>2026-04-02T11:50:15.478Z</time></trkpt><trkpt lat="45.4617567" lon="11.54633"><ele>34.8</ele><time>2026-04-02T11:50:17.477Z</time></trkpt><trkpt lat="45.4616867" lon="11.5463217"><ele>34.0</ele><time>2026-04-02T11:50:18.478Z</time></trkpt><trkpt lat="45.4616183" lon="11.5463317"><ele>34.0</ele><time>2026-04-02T11:50:19.477Z</time></trkpt><trkpt lat="45.4615483" lon="11.54635"><ele>34.0</ele><time>2026-04-02T11:50:20.477Z</time></trkpt><trkpt lat="45.461485" lon="11.546375"><ele>34.0</ele><time>2026-04-02T11:50:21.478Z</time></trkpt><trkpt lat="45.4614217" lon="11.5463933"><ele>34.0</ele><time>2026-04-02T11:50:22.477Z</time></trkpt><trkpt lat="45.4613017" lon="11.5464133"><ele>34.0</ele><time>2026-04-02T11:50:24.477Z</time></trkpt><trkpt lat="45.461195" lon="11.5463933"><ele>34.0</ele><time>2026-04-02T11:50:26.477Z</time></trkpt><trkpt lat="45.4610983" lon="11.5463283"><ele>34.0</ele><time>2026-04-02T11:50:28.477Z</time></trkpt><trkpt lat="45.4610183" lon="11.5462367"><ele>34.0</ele><time>2026-04-02T11:50:30.478Z</time></trkpt><trkpt lat="45.460955" lon="11.5461233"><ele>34.0</ele><time>2026-04-02T11:50:32.478Z</time></trkpt><trkpt lat="45.4608933" lon="11.5460017"><ele>34.0</ele><time>2026-04-02T11:50:34.478Z</time></trkpt><trkpt lat="45.460825" lon="11.54589"><ele>34.0</ele><time>2026-04-02T11:50:36.478Z</time></trkpt><trkpt lat="45.4607533" lon="11.54579"><ele>34.0</ele><time>2026-04-02T11:50:38.477Z</time></trkpt><trkpt lat="45.4606933" lon="11.5457083"><ele>34.0</ele><time>2026-04-02T11:50:40.478Z</time></trkpt><trkpt lat="45.4606617" lon="11.54563"><ele>34.0</ele><time>2026-04-02T11:50:42.477Z</time></trkpt><trkpt lat="45.4606467" lon="11.5455017"><ele>34.0</ele><time>2026-04-02T11:50:45.477Z</time></trkpt><trkpt lat="45.4606567" lon="11.5454033"><ele>34.0</ele><time>2026-04-02T11:50:47.478Z</time></trkpt><trkpt lat="45.46068" lon="11.545295"><ele>34.0</ele><time>2026-04-02T11:50:49.477Z</time></trkpt><trkpt lat="45.4607067" lon="11.5451833"><ele>34.5</ele><time>2026-04-02T11:50:51.478Z</time></trkpt><trkpt lat="45.46073" lon="11.54508"><ele>35.0</ele><time>2026-04-02T11:50:53.477Z</time></trkpt><trkpt lat="45.4607567" lon="11.5449683"><ele>35.5</ele><time>2026-04-02T11:50:56.478Z</time></trkpt><trkpt lat="45.4607717" lon="11.5448567"><ele>36.0</ele><time>2026-04-02T11:50:59.477Z</time></trkpt><trkpt lat="45.4607867" lon="11.5447683"><ele>36.5</ele><time>2026-04-02T11:51:01.477Z</time></trkpt><trkpt lat="45.460805" lon="11.54467"><ele>37.0</ele><time>2026-04-02T11:51:03.477Z</time></trkpt><trkpt lat="45.460815" lon="11.54456"><ele>36.66666666666667</ele><time>2026-04-02T11:51:05.477Z</time></trkpt><trkpt lat="45.46083" lon="11.544445"><ele>36.333333333333336</ele><time>2026-04-02T11:51:07.477Z</time></trkpt><trkpt lat="45.4608667" lon="11.544335"><ele>36.0</ele><time>2026-04-02T11:51:09.477Z</time></trkpt><trkpt lat="45.4608683" lon="11.5442283"><ele>35.666666666666664</ele><time>2026-04-02T11:51:11.477Z</time></trkpt><trkpt lat="45.4608583" lon="11.5441317"><ele>35.33333333333333</ele><time>2026-04-02T11:51:13.478Z</time></trkpt><trkpt lat="45.4608317" lon="11.5440383"><ele>35.0</ele><time>2026-04-02T11:51:15.478Z</time></trkpt><trkpt lat="45.46081" lon="11.543935"><ele>35.0</ele><time>2026-04-02T11:51:17.477Z</time></trkpt><trkpt lat="45.4607583" lon="11.5438533"><ele>35.0</ele><time>2026-04-02T11:51:19.477Z</time></trkpt><trkpt lat="45.4607067" lon="11.5437683"><ele>35.0</ele><time>2026-04-02T11:51:21.477Z</time></trkpt><trkpt lat="45.4606433" lon="11.543705"><ele>35.0</ele><time>2026-04-02T11:51:23.478Z</time></trkpt><trkpt lat="45.4605733" lon="11.54364"><ele>35.0</ele><time>2026-04-02T11:51:25.477Z</time></trkpt><trkpt lat="45.4605033" lon="11.5435667"><ele>35.0</ele><time>2026-04-02T11:51:27.478Z</time></trkpt><trkpt lat="45.46043" lon="11.543485"><ele>38.166666666666664</ele><time>2026-04-02T11:51:29.477Z</time></trkpt><trkpt lat="45.4603717" lon="11.5433933"><ele>41.33333333333333</ele><time>2026-04-02T11:51:31.477Z</time></trkpt><trkpt lat="45.4603167" lon="11.5433067"><ele>44.5</ele><time>2026-04-02T11:51:33.477Z</time></trkpt><trkpt lat="45.4602733" lon="11.5432267"><ele>47.666666666666664</ele><time>2026-04-02T11:51:35.477Z</time></trkpt><trkpt lat="45.4602333" lon="11.543135"><ele>50.833333333333336</ele><time>2026-04-02T11:51:37.477Z</time></trkpt><trkpt lat="45.4601933" lon="11.5430417"><ele>54.0</ele><time>2026-04-02T11:51:39.477Z</time></trkpt><trkpt lat="45.4601583" lon="11.542945"><ele>49.400000000000006</ele><time>2026-04-02T11:51:41.478Z</time></trkpt><trkpt lat="45.4601033" lon="11.54285"><ele>44.800000000000004</ele><time>2026-04-02T11:51:43.477Z</time></trkpt><trkpt lat="45.4600417" lon="11.54276"><ele>40.2</ele><time>2026-04-02T11:51:45.477Z</time></trkpt><trkpt lat="45.4599867" lon="11.5426683"><ele>35.6</ele><time>2026-04-02T11:51:47.477Z</time></trkpt><trkpt lat="45.4599133" lon="11.5425683"><ele>31.0</ele><time>2026-04-02T11:51:49.477Z</time></trkpt><trkpt lat="45.45983" lon="11.5424533"><ele>31.0</ele><time>2026-04-02T11:51:51.477Z</time></trkpt><trkpt lat="45.4597483" lon="11.5423517"><ele>31.0</ele><time>2026-04-02T11:51:53.478Z</time></trkpt><trkpt lat="45.4596683" lon="11.5422617"><ele>31.0</ele><time>2026-04-02T11:51:55.477Z</time></trkpt><trkpt lat="45.4595883" lon="11.5421983"><ele>31.0</ele><time>2026-04-02T11:51:57.478Z</time></trkpt><trkpt lat="45.459515" lon="11.5421433"><ele>31.0</ele><time>2026-04-02T11:51:59.477Z</time></trkpt><trkpt lat="45.4594483" lon="11.5420833"><ele>30.4</ele><time>2026-04-02T11:52:01.477Z</time></trkpt><trkpt lat="45.4593867" lon="11.5420067"><ele>29.8</ele><time>2026-04-02T11:52:03.477Z</time></trkpt><trkpt lat="45.4593467" lon="11.5419033"><ele>29.199999999999996</ele><time>2026-04-02T11:52:05.477Z</time></trkpt><trkpt lat="45.45934" lon="11.541765"><ele>28.599999999999998</ele><time>2026-04-02T11:52:07.477Z</time></trkpt><trkpt lat="45.45934" lon="11.5416233"><ele>28.0</ele><time>2026-04-02T11:52:09.477Z</time></trkpt><trkpt lat="45.4593433" lon="11.5414967"><ele>28.0</ele><time>2026-04-02T11:52:11.478Z</time></trkpt><trkpt lat="45.4593167" lon="11.5413717"><ele>27.999999999999996</ele><time>2026-04-02T11:52:13.477Z</time></trkpt><trkpt lat="45.45928" lon="11.5412483"><ele>27.999999999999996</ele><time>2026-04-02T11:52:15.478Z</time></trkpt><trkpt lat="45.4592533" lon="11.541125"><ele>28.0</ele><time>2026-04-02T11:52:17.477Z</time></trkpt><trkpt lat="45.4592267" lon="11.540995"><ele>28.0</ele><time>2026-04-02T11:52:19.477Z</time></trkpt><trkpt lat="45.4592017" lon="11.540875"><ele>27.500000000000004</ele><time>2026-04-02T11:52:21.477Z</time></trkpt><trkpt lat="45.4591867" lon="11.5407433"><ele>27.0</ele><time>2026-04-02T11:52:23.478Z</time></trkpt><trkpt lat="45.4591783" lon="11.5406117"><ele>26.5</ele><time>2026-04-02T11:52:25.477Z</time></trkpt><trkpt lat="45.4591783" lon="11.5404883"><ele>26.0</ele><time>2026-04-02T11:52:27.478Z</time></trkpt><trkpt lat="45.4591833" lon="11.5403633"><ele>25.500000000000004</ele><time>2026-04-02T11:52:29.477Z</time></trkpt><trkpt lat="45.4591983" lon="11.54025"><ele>25.0</ele><time>2026-04-02T11:52:31.477Z</time></trkpt><trkpt lat="45.4592167" lon="11.54016"><ele>26.714285714285715</ele><time>2026-04-02T11:52:33.477Z</time></trkpt><trkpt lat="45.45925" lon="11.5400433"><ele>28.42857142857143</ele><time>2026-04-02T11:52:36.477Z</time></trkpt><trkpt lat="45.459295" lon="11.5399783"><ele>30.142857142857146</ele><time>2026-04-02T11:52:39.477Z</time></trkpt><trkpt lat="45.459375" lon="11.53996"><ele>31.857142857142858</ele><time>2026-04-02T11:53:22.477Z</time></trkpt><trkpt lat="45.4594483" lon="11.539945"><ele>33.57142857142857</ele><time>2026-04-02T11:53:25.478Z</time></trkpt><trkpt lat="45.459515" lon="11.5399283"><ele>35.285714285714285</ele><time>2026-04-02T11:53:27.477Z</time></trkpt><trkpt lat="45.45958" lon="11.5399033"><ele>37.0</ele><time>2026-04-02T11:53:29.477Z</time></trkpt><trkpt lat="45.4596533" lon="11.5398983"><ele>37.0</ele><time>2026-04-02T11:53:31.477Z</time></trkpt><trkpt lat="45.4597217" lon="11.53988"><ele>37.0</ele><time>2026-04-02T11:53:33.477Z</time></trkpt><trkpt lat="45.459795" lon="11.5398617"><ele>37.0</ele><time>2026-04-02T11:53:35.477Z</time></trkpt><trkpt lat="45.45987" lon="11.5398367"><ele>37.0</ele><time>2026-04-02T11:53:37.477Z</time></trkpt><trkpt lat="45.4599433" lon="11.5398083"><ele>37.0</ele><time>2026-04-02T11:53:39.477Z</time></trkpt><trkpt lat="45.4600217" lon="11.539795"><ele>37.0</ele><time>2026-04-02T11:53:41.477Z</time></trkpt><trkpt lat="45.460095" lon="11.53978"><ele>37.0</ele><time>2026-04-02T11:53:43.477Z</time></trkpt><trkpt lat="45.46017" lon="11.5397617"><ele>37.0</ele><time>2026-04-02T11:53:45.477Z</time></trkpt><trkpt lat="45.460235" lon="11.53974"><ele>37.0</ele><time>2026-04-02T11:53:47.477Z</time></trkpt><trkpt lat="45.46031" lon="11.5397283"><ele>37.0</ele><time>2026-04-02T11:53:49.477Z</time></trkpt><trkpt lat="45.460385" lon="11.5397233"><ele>37.0</ele><time>2026-04-02T11:53:51.477Z</time></trkpt><trkpt lat="45.4604633" lon="11.5397117"><ele>37.0</ele><time>2026-04-02T11:53:53.477Z</time></trkpt><trkpt lat="45.4605283" lon="11.5396817"><ele>37.0</ele><time>2026-04-02T11:53:55.477Z</time></trkpt><trkpt lat="45.460595" lon="11.5396433"><ele>35.66666666666667</ele><time>2026-04-02T11:53:57.477Z</time></trkpt><trkpt lat="45.4606783" lon="11.53961"><ele>34.333333333333336</ele><time>2026-04-02T11:53:59.477Z</time></trkpt><trkpt lat="45.460765" lon="11.5395767"><ele>33.0</ele><time>2026-04-02T11:54:01.477Z</time></trkpt><trkpt lat="45.4608517" lon="11.5395483"><ele>31.666666666666664</ele><time>2026-04-02T11:54:03.477Z</time></trkpt><trkpt lat="45.4609383" lon="11.539535"><ele>30.333333333333332</ele><time>2026-04-02T11:54:05.477Z</time></trkpt><trkpt lat="45.4610233" lon="11.5395067"><ele>29.0</ele><time>2026-04-02T11:54:07.477Z</time></trkpt><trkpt lat="45.4611067" lon="11.5394783"><ele>30.666666666666664</ele><time>2026-04-02T11:54:09.478Z</time></trkpt><trkpt lat="45.4611833" lon="11.5394583"><ele>32.33333333333333</ele><time>2026-04-02T11:54:11.477Z</time></trkpt><trkpt lat="45.46126" lon="11.5394267"><ele>34.0</ele><time>2026-04-02T11:54:13.477Z</time></trkpt><trkpt lat="45.461345" lon="11.5393817"><ele>35.666666666666664</ele><time>2026-04-02T11:54:15.477Z</time></trkpt><trkpt lat="45.4614317" lon="11.539335"><ele>37.333333333333336</ele><time>2026-04-02T11:54:17.477Z</time></trkpt><trkpt lat="45.4615133" lon="11.539285"><ele>39.0</ele><time>2026-04-02T11:54:19.477Z</time></trkpt><trkpt lat="45.4616067" lon="11.5392267"><ele>39.0</ele><time>2026-04-02T11:54:21.477Z</time></trkpt><trkpt lat="45.4616983" lon="11.5391733"><ele>39.0</ele><time>2026-04-02T11:54:23.477Z</time></trkpt><trkpt lat="45.461785" lon="11.539135"><ele>39.0</ele><time>2026-04-02T11:54:25.477Z</time></trkpt><trkpt lat="45.4618667" lon="11.5391233"><ele>39.0</ele><time>2026-04-02T11:54:27.477Z</time></trkpt><trkpt lat="45.4619467" lon="11.5391167"><ele>39.0</ele><time>2026-04-02T11:54:29.477Z</time></trkpt><trkpt lat="45.4620217" lon="11.5390917"><ele>39.0</ele><time>2026-04-02T11:54:31.477Z</time></trkpt><trkpt lat="45.4620967" lon="11.5390483"><ele>38.833333333333336</ele><time>2026-04-02T11:54:33.477Z</time></trkpt><trkpt lat="45.4621733" lon="11.539015"><ele>38.666666666666664</ele><time>2026-04-02T11:54:35.477Z</time></trkpt><trkpt lat="45.4622583" lon="11.539005"><ele>38.5</ele><time>2026-04-02T11:54:37.478Z</time></trkpt><trkpt lat="45.462325" lon="11.5390417"><ele>38.33333333333333</ele><time>2026-04-02T11:54:39.477Z</time></trkpt><trkpt lat="45.462385" lon="11.5390817"><ele>38.166666666666664</ele><time>2026-04-02T11:54:41.477Z</time></trkpt><trkpt lat="45.4624383" lon="11.5391333"><ele>38.0</ele><time>2026-04-02T11:54:43.477Z</time></trkpt><trkpt lat="45.4625017" lon="11.53921"><ele>38.0</ele><time>2026-04-02T11:54:46.478Z</time></trkpt><trkpt lat="45.462555" lon="11.53928"><ele>38.0</ele><time>2026-04-02T11:54:48.478Z</time></trkpt><trkpt lat="45.4626267" lon="11.5393467"><ele>38.0</ele><time>2026-04-02T11:54:51.478Z</time></trkpt><trkpt lat="45.4627133" lon="11.5394317"><ele>38.0</ele><time>2026-04-02T11:57:27.478Z</time></trkpt><trkpt lat="45.4627883" lon="11.53947"><ele>38.0</ele><time>2026-04-02T11:57:30.477Z</time></trkpt><trkpt lat="45.4628517" lon="11.5395"><ele>38.0</ele><time>2026-04-02T11:57:32.477Z</time></trkpt><trkpt lat="45.4629233" lon="11.5395267"><ele>36.42857142857142</ele><time>2026-04-02T11:57:34.477Z</time></trkpt><trkpt lat="45.462985" lon="11.5395617"><ele>34.85714285714286</ele><time>2026-04-02T11:57:36.477Z</time></trkpt><trkpt lat="45.4630633" lon="11.5395717"><ele>33.285714285714285</ele><time>2026-04-02T11:57:38.478Z</time></trkpt><trkpt lat="45.4631333" lon="11.5395817"><ele>31.714285714285715</ele><time>2026-04-02T11:57:40.477Z</time></trkpt><trkpt lat="45.463205" lon="11.5396133"><ele>30.142857142857142</ele><time>2026-04-02T11:57:42.477Z</time></trkpt><trkpt lat="45.46328" lon="11.5396333"><ele>28.57142857142857</ele><time>2026-04-02T11:57:44.477Z</time></trkpt><trkpt lat="45.463355" lon="11.5396367"><ele>27.0</ele><time>2026-04-02T11:57:46.477Z</time></trkpt><trkpt lat="45.463435" lon="11.5396533"><ele>27.0</ele><time>2026-04-02T11:57:48.477Z</time></trkpt><trkpt lat="45.4635033" lon="11.539675"><ele>27.0</ele><time>2026-04-02T11:57:50.477Z</time></trkpt><trkpt lat="45.4635733" lon="11.5396883"><ele>27.0</ele><time>2026-04-02T11:57:52.477Z</time></trkpt><trkpt lat="45.463635" lon="11.5397133"><ele>27.0</ele><time>2026-04-02T11:57:54.477Z</time></trkpt><trkpt lat="45.4637183" lon="11.5397367"><ele>27.0</ele><time>2026-04-02T11:57:57.478Z</time></trkpt><trkpt lat="45.4638017" lon="11.53974"><ele>27.0</ele><time>2026-04-02T11:58:00.477Z</time></trkpt><trkpt lat="45.463865" lon="11.5397367"><ele>27.0</ele><time>2026-04-02T11:58:02.477Z</time></trkpt><trkpt lat="45.4639417" lon="11.5397433"><ele>27.666666666666668</ele><time>2026-04-02T11:58:05.477Z</time></trkpt><trkpt lat="45.4640267" lon="11.5397633"><ele>28.333333333333336</ele><time>2026-04-02T11:58:08.477Z</time></trkpt><trkpt lat="45.4641167" lon="11.5398017"><ele>29.0</ele><time>2026-04-02T11:58:11.477Z</time></trkpt><trkpt lat="45.464175" lon="11.5398367"><ele>29.666666666666668</ele><time>2026-04-02T11:58:13.478Z</time></trkpt><trkpt lat="45.4642" lon="11.5399233"><ele>30.333333333333336</ele><time>2026-04-02T11:58:16.478Z</time></trkpt><trkpt lat="45.4641783" lon="11.5400733"><ele>31.0</ele><time>2026-04-02T11:58:18.477Z</time></trkpt><trkpt lat="45.4641617" lon="11.540225"><ele>31.000000000000004</ele><time>2026-04-02T11:58:20.477Z</time></trkpt><trkpt lat="45.4642033" lon="11.5403"><ele>31.0</ele><time>2026-04-02T11:58:25.477Z</time></trkpt><trkpt lat="45.46427" lon="11.540265"><ele>31.0</ele><time>2026-04-02T11:58:29.477Z</time></trkpt><trkpt lat="45.4643367" lon="11.5402517"><ele>31.0</ele><time>2026-04-02T11:58:32.477Z</time></trkpt><trkpt lat="45.464415" lon="11.5402317"><ele>31.000000000000004</ele><time>2026-04-02T11:58:35.477Z</time></trkpt><trkpt lat="45.4645067" lon="11.5402333"><ele>31.0</ele><time>2026-04-02T11:58:38.477Z</time></trkpt><trkpt lat="45.4646" lon="11.5402383"><ele>31.571428571428573</ele><time>2026-04-02T11:58:41.477Z</time></trkpt><trkpt lat="45.4646667" lon="11.540235"><ele>32.142857142857146</ele><time>2026-04-02T11:58:43.477Z</time></trkpt><trkpt lat="45.4647317" lon="11.54022"><ele>32.714285714285715</ele><time>2026-04-02T11:58:45.477Z</time></trkpt><trkpt lat="45.4648067" lon="11.5402"><ele>33.285714285714285</ele><time>2026-04-02T11:58:47.478Z</time></trkpt><trkpt lat="45.46488" lon="11.5401867"><ele>33.85714285714286</ele><time>2026-04-02T11:58:49.477Z</time></trkpt><trkpt lat="45.4649467" lon="11.5401667"><ele>34.42857142857143</ele><time>2026-04-02T11:58:51.478Z</time></trkpt><trkpt lat="45.4650283" lon="11.5401367"><ele>35.0</ele><time>2026-04-02T11:58:54.477Z</time></trkpt><trkpt lat="45.4651067" lon="11.5401317"><ele>35.0</ele><time>2026-04-02T11:58:57.478Z</time></trkpt><trkpt lat="45.4651883" lon="11.5401433"><ele>35.0</ele><time>2026-04-02T11:58:59.477Z</time></trkpt><trkpt lat="45.46526" lon="11.5401317"><ele>35.0</ele><time>2026-04-02T11:59:01.477Z</time></trkpt><trkpt lat="45.4653333" lon="11.5401283"><ele>35.0</ele><time>2026-04-02T11:59:03.477Z</time></trkpt><trkpt lat="45.4654033" lon="11.54012"><ele>35.0</ele><time>2026-04-02T11:59:05.477Z</time></trkpt><trkpt lat="45.4654733" lon="11.5401117"><ele>35.0</ele><time>2026-04-02T11:59:07.478Z</time></trkpt><trkpt lat="45.46554" lon="11.5401267"><ele>35.0</ele><time>2026-04-02T11:59:09.478Z</time></trkpt><trkpt lat="45.4656183" lon="11.5401183"><ele>34.5</ele><time>2026-04-02T11:59:11.478Z</time></trkpt><trkpt lat="45.4656933" lon="11.540095"><ele>34.0</ele><time>2026-04-02T11:59:13.478Z</time></trkpt><trkpt lat="45.46579" lon="11.5400933"><ele>33.5</ele><time>2026-04-02T11:59:16.477Z</time></trkpt><trkpt lat="45.46586" lon="11.5400883"><ele>33.0</ele><time>2026-04-02T11:59:18.478Z</time></trkpt><trkpt lat="45.46593" lon="11.540075"><ele>32.5</ele><time>2026-04-02T11:59:20.477Z</time></trkpt><trkpt lat="45.465995" lon="11.5400667"><ele>32.0</ele><time>2026-04-02T11:59:22.477Z</time></trkpt><trkpt lat="45.466065" lon="11.5400617"><ele>32.0</ele><time>2026-04-02T11:59:24.477Z</time></trkpt><trkpt lat="45.4661317" lon="11.5400533"><ele>31.999999999999996</ele><time>2026-04-02T11:59:26.477Z</time></trkpt><trkpt lat="45.466205" lon="11.5400483"><ele>32.0</ele><time>2026-04-02T11:59:28.477Z</time></trkpt><trkpt lat="45.4662683" lon="11.540045"><ele>32.0</ele><time>2026-04-02T11:59:30.477Z</time></trkpt><trkpt lat="45.466355" lon="11.5400383"><ele>31.999999999999996</ele><time>2026-04-02T11:59:33.477Z</time></trkpt><trkpt lat="45.4664233" lon="11.5400233"><ele>32.0</ele><time>2026-04-02T11:59:35.477Z</time></trkpt><trkpt lat="45.4664983" lon="11.540015"><ele>32.0</ele><time>2026-04-02T11:59:37.477Z</time></trkpt><trkpt lat="45.466565" lon="11.5399867"><ele>31.333333333333332</ele><time>2026-04-02T11:59:39.477Z</time></trkpt><trkpt lat="45.4666333" lon="11.5399633"><ele>30.666666666666664</ele><time>2026-04-02T11:59:41.477Z</time></trkpt><trkpt lat="45.4667017" lon="11.5399483"><ele>30.0</ele><time>2026-04-02T11:59:43.478Z</time></trkpt><trkpt lat="45.4667733" lon="11.5399267"><ele>29.333333333333336</ele><time>2026-04-02T11:59:45.478Z</time></trkpt><trkpt lat="45.4668583" lon="11.5398883"><ele>28.666666666666668</ele><time>2026-04-02T11:59:47.477Z</time></trkpt><trkpt lat="45.46693" lon="11.5398467"><ele>28.0</ele><time>2026-04-02T11:59:49.477Z</time></trkpt><trkpt lat="45.4670183" lon="11.5398083"><ele>28.000000000000004</ele><time>2026-04-02T11:59:52.478Z</time></trkpt><trkpt lat="45.46709" lon="11.539795"><ele>28.0</ele><time>2026-04-02T11:59:54.478Z</time></trkpt><trkpt lat="45.4671583" lon="11.5397617"><ele>28.0</ele><time>2026-04-02T11:59:56.477Z</time></trkpt><trkpt lat="45.4672383" lon="11.5397167"><ele>28.0</ele><time>2026-04-02T11:59:58.477Z</time></trkpt><trkpt lat="45.467305" lon="11.5396933"><ele>28.000000000000004</ele><time>2026-04-02T12:00:00.477Z</time></trkpt><trkpt lat="45.46738" lon="11.5396833"><ele>28.0</ele><time>2026-04-02T12:00:02.477Z</time></trkpt><trkpt lat="45.46746" lon="11.539665"><ele>27.285714285714285</ele><time>2026-04-02T12:00:04.477Z</time></trkpt><trkpt lat="45.4675317" lon="11.53966"><ele>26.57142857142857</ele><time>2026-04-02T12:00:06.477Z</time></trkpt><trkpt lat="45.4675983" lon="11.5396517"><ele>25.857142857142858</ele><time>2026-04-02T12:00:08.477Z</time></trkpt><trkpt lat="45.4676683" lon="11.5396517"><ele>25.142857142857142</ele><time>2026-04-02T12:00:10.477Z</time></trkpt><trkpt lat="45.4677483" lon="11.5396417"><ele>24.428571428571427</ele><time>2026-04-02T12:00:12.478Z</time></trkpt><trkpt lat="45.46783" lon="11.53965"><ele>23.714285714285715</ele><time>2026-04-02T12:00:14.477Z</time></trkpt><trkpt lat="45.4679083" lon="11.53966"><ele>23.0</ele><time>2026-04-02T12:00:16.477Z</time></trkpt><trkpt lat="45.4679917" lon="11.5396717"><ele>22.666666666666668</ele><time>2026-04-02T12:00:18.477Z</time></trkpt><trkpt lat="45.4680683" lon="11.5396767"><ele>22.333333333333336</ele><time>2026-04-02T12:00:20.477Z</time></trkpt><trkpt lat="45.4681433" lon="11.539675"><ele>22.0</ele><time>2026-04-02T12:00:22.477Z</time></trkpt><trkpt lat="45.4682267" lon="11.5396967"><ele>21.666666666666668</ele><time>2026-04-02T12:00:24.477Z</time></trkpt><trkpt lat="45.468315" lon="11.539735"><ele>21.333333333333332</ele><time>2026-04-02T12:00:26.477Z</time></trkpt><trkpt lat="45.46841" lon="11.5397683"><ele>21.0</ele><time>2026-04-02T12:00:28.477Z</time></trkpt><trkpt lat="45.4685117" lon="11.5397683"><ele>21.0</ele><time>2026-04-02T12:00:30.477Z</time></trkpt><trkpt lat="45.4685917" lon="11.5397817"><ele>21.0</ele><time>2026-04-02T12:00:32.477Z</time></trkpt><trkpt lat="45.4686733" lon="11.539795"><ele>21.0</ele><time>2026-04-02T12:00:34.478Z</time></trkpt><trkpt lat="45.46875" lon="11.5397933"><ele>21.0</ele><time>2026-04-02T12:00:36.476Z</time></trkpt><trkpt lat="45.4688267" lon="11.5398083"><ele>21.0</ele><time>2026-04-02T12:00:38.476Z</time></trkpt><trkpt lat="45.468905" lon="11.53982"><ele>21.0</ele><time>2026-04-02T12:00:40.477Z</time></trkpt><trkpt lat="45.4689867" lon="11.5398367"><ele>21.333333333333332</ele><time>2026-04-02T12:00:42.476Z</time></trkpt><trkpt lat="45.46906" lon="11.5398517"><ele>21.666666666666668</ele><time>2026-04-02T12:00:44.476Z</time></trkpt><trkpt lat="45.4691283" lon="11.53986"><ele>22.0</ele><time>2026-04-02T12:00:46.476Z</time></trkpt><trkpt lat="45.4692033" lon="11.5398583"><ele>22.333333333333336</ele><time>2026-04-02T12:00:48.476Z</time></trkpt><trkpt lat="45.4692717" lon="11.5398733"><ele>22.666666666666668</ele><time>2026-04-02T12:00:50.476Z</time></trkpt><trkpt lat="45.469355" lon="11.5399083"><ele>23.0</ele><time>2026-04-02T12:00:53.476Z</time></trkpt><trkpt lat="45.4694367" lon="11.5399183"><ele>23.0</ele><time>2026-04-02T12:00:56.476Z</time></trkpt><trkpt lat="45.4695017" lon="11.5399417"><ele>23.0</ele><time>2026-04-02T12:00:58.476Z</time></trkpt><trkpt lat="45.4695817" lon="11.5399817"><ele>23.0</ele><time>2026-04-02T12:01:00.476Z</time></trkpt><trkpt lat="45.4696667" lon="11.5399917"><ele>23.0</ele><time>2026-04-02T12:01:02.476Z</time></trkpt><trkpt lat="45.4697583" lon="11.5400067"><ele>23.0</ele><time>2026-04-02T12:01:04.476Z</time></trkpt><trkpt lat="45.4698567" lon="11.540045"><ele>23.0</ele><time>2026-04-02T12:01:06.476Z</time></trkpt><trkpt lat="45.469955" lon="11.5400767"><ele>23.2</ele><time>2026-04-02T12:01:08.477Z</time></trkpt><trkpt lat="45.47005" lon="11.54011"><ele>23.4</ele><time>2026-04-02T12:01:10.476Z</time></trkpt><trkpt lat="45.4701483" lon="11.5401617"><ele>23.599999999999998</ele><time>2026-04-02T12:01:12.476Z</time></trkpt><trkpt lat="45.470235" lon="11.54019"><ele>23.799999999999997</ele><time>2026-04-02T12:01:14.477Z</time></trkpt><trkpt lat="45.4703233" lon="11.5402133"><ele>24.0</ele><time>2026-04-02T12:01:16.476Z</time></trkpt><trkpt lat="45.4703967" lon="11.540275"><ele>24.166666666666668</ele><time>2026-04-02T12:01:18.476Z</time></trkpt><trkpt lat="45.4704717" lon="11.5403283"><ele>24.333333333333336</ele><time>2026-04-02T12:01:20.476Z</time></trkpt><trkpt lat="45.4705267" lon="11.540375"><ele>24.5</ele><time>2026-04-02T12:01:22.476Z</time></trkpt><trkpt lat="45.4705967" lon="11.54042"><ele>24.666666666666668</ele><time>2026-04-02T12:01:24.476Z</time></trkpt><trkpt lat="45.4706917" lon="11.5404567"><ele>24.833333333333336</ele><time>2026-04-02T12:01:26.477Z</time></trkpt><trkpt lat="45.4707967" lon="11.5405133"><ele>25.0</ele><time>2026-04-02T12:01:28.476Z</time></trkpt><trkpt lat="45.4709" lon="11.540575"><ele>24.4</ele><time>2026-04-02T12:01:30.477Z</time></trkpt><trkpt lat="45.4710017" lon="11.5406383"><ele>23.8</ele><time>2026-04-02T12:01:32.476Z</time></trkpt><trkpt lat="45.4710967" lon="11.5406983"><ele>23.200000000000003</ele><time>2026-04-02T12:01:34.476Z</time></trkpt><trkpt lat="45.4711967" lon="11.5407567"><ele>22.6</ele><time>2026-04-02T12:01:36.476Z</time></trkpt><trkpt lat="45.4712817" lon="11.5408033"><ele>22.0</ele><time>2026-04-02T12:01:38.476Z</time></trkpt><trkpt lat="45.4713567" lon="11.540855"><ele>22.0</ele><time>2026-04-02T12:01:40.476Z</time></trkpt><trkpt lat="45.4714367" lon="11.5408967"><ele>22.0</ele><time>2026-04-02T12:01:42.476Z</time></trkpt><trkpt lat="45.47151" lon="11.540955"><ele>22.0</ele><time>2026-04-02T12:01:44.477Z</time></trkpt><trkpt lat="45.4716" lon="11.5409983"><ele>22.0</ele><time>2026-04-02T12:01:46.476Z</time></trkpt><trkpt lat="45.47169" lon="11.5410433"><ele>22.0</ele><time>2026-04-02T12:01:48.476Z</time></trkpt><trkpt lat="45.4717767" lon="11.5410967"><ele>22.0</ele><time>2026-04-02T12:01:50.476Z</time></trkpt><trkpt lat="45.4718617" lon="11.5411617"><ele>22.0</ele><time>2026-04-02T12:01:52.476Z</time></trkpt><trkpt lat="45.471965" lon="11.5412283"><ele>22.0</ele><time>2026-04-02T12:01:54.476Z</time></trkpt><trkpt lat="45.472065" lon="11.541285"><ele>22.0</ele><time>2026-04-02T12:01:56.476Z</time></trkpt><trkpt lat="45.47216" lon="11.541325"><ele>22.0</ele><time>2026-04-02T12:01:58.476Z</time></trkpt><trkpt lat="45.4722483" lon="11.541385"><ele>22.25</ele><time>2026-04-02T12:02:00.476Z</time></trkpt><trkpt lat="45.4723433" lon="11.5414517"><ele>22.5</ele><time>2026-04-02T12:02:02.476Z</time></trkpt><trkpt lat="45.472455" lon="11.5415083"><ele>22.75</ele><time>2026-04-02T12:02:04.476Z</time></trkpt><trkpt lat="45.4725683" lon="11.54157"><ele>23.0</ele><time>2026-04-02T12:02:06.476Z</time></trkpt><trkpt lat="45.4726717" lon="11.54162"><ele>23.0</ele><time>2026-04-02T12:02:08.477Z</time></trkpt><trkpt lat="45.4727617" lon="11.5416667"><ele>23.0</ele><time>2026-04-02T12:02:10.476Z</time></trkpt><trkpt lat="45.472845" lon="11.5417117"><ele>23.0</ele><time>2026-04-02T12:02:12.477Z</time></trkpt><trkpt lat="45.47294" lon="11.54175"><ele>23.0</ele><time>2026-04-02T12:02:14.476Z</time></trkpt><trkpt lat="45.4730383" lon="11.5417833"><ele>23.0</ele><time>2026-04-02T12:02:16.476Z</time></trkpt><trkpt lat="45.4731367" lon="11.5417933"><ele>23.666666666666668</ele><time>2026-04-02T12:02:18.476Z</time></trkpt><trkpt lat="45.4732283" lon="11.5418"><ele>24.333333333333336</ele><time>2026-04-02T12:02:20.476Z</time></trkpt><trkpt lat="45.4733217" lon="11.5418"><ele>25.0</ele><time>2026-04-02T12:02:22.477Z</time></trkpt><trkpt lat="45.4734133" lon="11.5418017"><ele>25.666666666666668</ele><time>2026-04-02T12:02:24.476Z</time></trkpt><trkpt lat="45.4735" lon="11.5417967"><ele>26.333333333333332</ele><time>2026-04-02T12:02:26.476Z</time></trkpt><trkpt lat="45.4735817" lon="11.5417917"><ele>27.0</ele><time>2026-04-02T12:02:28.476Z</time></trkpt><trkpt lat="45.4736867" lon="11.5417883"><ele>26.25</ele><time>2026-04-02T12:02:30.476Z</time></trkpt><trkpt lat="45.473795" lon="11.54179"><ele>25.5</ele><time>2026-04-02T12:02:32.477Z</time></trkpt><trkpt lat="45.4738967" lon="11.5417733"><ele>24.75</ele><time>2026-04-02T12:02:34.477Z</time></trkpt><trkpt lat="45.4740417" lon="11.5417667"><ele>24.0</ele><time>2026-04-02T12:02:37.476Z</time></trkpt><trkpt lat="45.4741367" lon="11.54176"><ele>24.0</ele><time>2026-04-02T12:02:39.476Z</time></trkpt><trkpt lat="45.4742283" lon="11.5417533"><ele>24.0</ele><time>2026-04-02T12:02:41.476Z</time></trkpt><trkpt lat="45.474315" lon="11.5417367"><ele>24.0</ele><time>2026-04-02T12:02:43.476Z</time></trkpt><trkpt lat="45.474375" lon="11.541685"><ele>24.0</ele><time>2026-04-02T12:02:45.476Z</time></trkpt><trkpt lat="45.4744" lon="11.5416017"><ele>24.0</ele><time>2026-04-02T12:02:47.476Z</time></trkpt><trkpt lat="45.4744267" lon="11.5414933"><ele>24.0</ele><time>2026-04-02T12:02:50.476Z</time></trkpt><trkpt lat="45.4744783" lon="11.541415"><ele>24.0</ele><time>2026-04-02T12:02:53.476Z</time></trkpt><trkpt lat="45.47442" lon="11.5414617"><ele>24.0</ele><time>2026-04-02T12:02:58.476Z</time></trkpt><trkpt lat="45.474405" lon="11.5415767"><ele>24.0</ele><time>2026-04-02T12:03:01.476Z</time></trkpt><trkpt lat="45.4743767" lon="11.5416583"><ele>24.0</ele><time>2026-04-02T12:03:03.476Z</time></trkpt><trkpt lat="45.4743283" lon="11.5417317"><ele>24.0</ele><time>2026-04-02T12:03:05.476Z</time></trkpt><trkpt lat="45.4743767" lon="11.54165"><ele>24.0</ele><time>2026-04-02T12:06:31.477Z</time></trkpt><trkpt lat="45.474405" lon="11.5415317"><ele>24.0</ele><time>2026-04-02T12:06:34.476Z</time></trkpt></trkseg></trk></gpx>